<?xml version="1.0" encoding="UTF-8"?>
<gpx xmlns="http://www.topografix.com/GPX/1/1"
     creator="GpsDumpMac 0.36"
     version="1.1"
     xmlns:xsi="http://www.w3.org/2001/XMLSchema-instance"
     xsi:schemaLocation="http://www.topografix.com/GPX/1/1 http://www.topografix.com/GPX/1/1/gpx.xsd">
  <metadata>
    <link href="http://www.gethome.no/stein.sorensen/">
      <text>GPS dump for www.flightlog.org</text>
    </link>
    <time>2015-08-29T11:49:04Z</time>
    <bounds minlat="40.421533" minlon="-5.479317" maxlat="40.469017" maxlon="-5.251283"/>
  </metadata>
  <trk>
    <name>Track 001</name>
    <trkseg>
      <trkpt lat="40.421650" lon="-5.301717">
        <ele>1925.0</ele>
        <time>2015-07-25T11:52:24Z</time>
      </trkpt>
      <trkpt lat="40.421750" lon="-5.301767">
        <ele>1925.0</ele>
        <time>2015-07-25T11:52:26Z</time>
      </trkpt>
      <trkpt lat="40.421850" lon="-5.301767">
        <ele>1925.0</ele>
        <time>2015-07-25T11:52:28Z</time>
      </trkpt>
      <trkpt lat="40.421983" lon="-5.301750">
        <ele>1922.0</ele>
        <time>2015-07-25T11:52:30Z</time>
      </trkpt>
      <trkpt lat="40.422117" lon="-5.301733">
        <ele>1922.0</ele>
        <time>2015-07-25T11:52:32Z</time>
      </trkpt>
      <trkpt lat="40.422167" lon="-5.301833">
        <ele>1920.0</ele>
        <time>2015-07-25T11:52:34Z</time>
      </trkpt>
      <trkpt lat="40.422233" lon="-5.301967">
        <ele>1916.0</ele>
        <time>2015-07-25T11:52:36Z</time>
      </trkpt>
      <trkpt lat="40.422383" lon="-5.302000">
        <ele>1913.0</ele>
        <time>2015-07-25T11:52:38Z</time>
      </trkpt>
      <trkpt lat="40.422517" lon="-5.302033">
        <ele>1914.0</ele>
        <time>2015-07-25T11:52:40Z</time>
      </trkpt>
      <trkpt lat="40.422667" lon="-5.302033">
        <ele>1913.0</ele>
        <time>2015-07-25T11:52:42Z</time>
      </trkpt>
      <trkpt lat="40.422817" lon="-5.301967">
        <ele>1918.0</ele>
        <time>2015-07-25T11:52:44Z</time>
      </trkpt>
      <trkpt lat="40.422917" lon="-5.301833">
        <ele>1922.0</ele>
        <time>2015-07-25T11:52:46Z</time>
      </trkpt>
      <trkpt lat="40.422983" lon="-5.301617">
        <ele>1920.0</ele>
        <time>2015-07-25T11:52:48Z</time>
      </trkpt>
      <trkpt lat="40.423117" lon="-5.301417">
        <ele>1921.0</ele>
        <time>2015-07-25T11:52:50Z</time>
      </trkpt>
      <trkpt lat="40.423217" lon="-5.301317">
        <ele>1926.0</ele>
        <time>2015-07-25T11:52:52Z</time>
      </trkpt>
      <trkpt lat="40.423300" lon="-5.301267">
        <ele>1929.0</ele>
        <time>2015-07-25T11:52:54Z</time>
      </trkpt>
      <trkpt lat="40.423400" lon="-5.301217">
        <ele>1927.0</ele>
        <time>2015-07-25T11:52:56Z</time>
      </trkpt>
      <trkpt lat="40.423517" lon="-5.301167">
        <ele>1923.0</ele>
        <time>2015-07-25T11:52:58Z</time>
      </trkpt>
      <trkpt lat="40.423617" lon="-5.301100">
        <ele>1921.0</ele>
        <time>2015-07-25T11:53:00Z</time>
      </trkpt>
      <trkpt lat="40.423733" lon="-5.301017">
        <ele>1918.0</ele>
        <time>2015-07-25T11:53:02Z</time>
      </trkpt>
      <trkpt lat="40.423833" lon="-5.300883">
        <ele>1915.0</ele>
        <time>2015-07-25T11:53:04Z</time>
      </trkpt>
      <trkpt lat="40.423967" lon="-5.300767">
        <ele>1913.0</ele>
        <time>2015-07-25T11:53:06Z</time>
      </trkpt>
      <trkpt lat="40.424067" lon="-5.300667">
        <ele>1914.0</ele>
        <time>2015-07-25T11:53:08Z</time>
      </trkpt>
      <trkpt lat="40.424183" lon="-5.300583">
        <ele>1911.0</ele>
        <time>2015-07-25T11:53:10Z</time>
      </trkpt>
      <trkpt lat="40.424283" lon="-5.300533">
        <ele>1906.0</ele>
        <time>2015-07-25T11:53:12Z</time>
      </trkpt>
      <trkpt lat="40.424450" lon="-5.300550">
        <ele>1904.0</ele>
        <time>2015-07-25T11:53:14Z</time>
      </trkpt>
      <trkpt lat="40.424567" lon="-5.300517">
        <ele>1910.0</ele>
        <time>2015-07-25T11:53:16Z</time>
      </trkpt>
      <trkpt lat="40.424600" lon="-5.300467">
        <ele>1913.0</ele>
        <time>2015-07-25T11:53:18Z</time>
      </trkpt>
      <trkpt lat="40.424667" lon="-5.300417">
        <ele>1909.0</ele>
        <time>2015-07-25T11:53:20Z</time>
      </trkpt>
      <trkpt lat="40.424767" lon="-5.300367">
        <ele>1904.0</ele>
        <time>2015-07-25T11:53:22Z</time>
      </trkpt>
      <trkpt lat="40.424900" lon="-5.300417">
        <ele>1901.0</ele>
        <time>2015-07-25T11:53:24Z</time>
      </trkpt>
      <trkpt lat="40.425000" lon="-5.300467">
        <ele>1900.0</ele>
        <time>2015-07-25T11:53:26Z</time>
      </trkpt>
      <trkpt lat="40.425117" lon="-5.300533">
        <ele>1898.0</ele>
        <time>2015-07-25T11:53:28Z</time>
      </trkpt>
      <trkpt lat="40.425250" lon="-5.300583">
        <ele>1896.0</ele>
        <time>2015-07-25T11:53:30Z</time>
      </trkpt>
      <trkpt lat="40.425350" lon="-5.300583">
        <ele>1895.0</ele>
        <time>2015-07-25T11:53:32Z</time>
      </trkpt>
      <trkpt lat="40.425450" lon="-5.300550">
        <ele>1891.0</ele>
        <time>2015-07-25T11:53:34Z</time>
      </trkpt>
      <trkpt lat="40.425583" lon="-5.300550">
        <ele>1887.0</ele>
        <time>2015-07-25T11:53:36Z</time>
      </trkpt>
      <trkpt lat="40.425700" lon="-5.300567">
        <ele>1883.0</ele>
        <time>2015-07-25T11:53:38Z</time>
      </trkpt>
      <trkpt lat="40.425833" lon="-5.300550">
        <ele>1879.0</ele>
        <time>2015-07-25T11:53:40Z</time>
      </trkpt>
      <trkpt lat="40.425950" lon="-5.300550">
        <ele>1876.0</ele>
        <time>2015-07-25T11:53:42Z</time>
      </trkpt>
      <trkpt lat="40.426083" lon="-5.300583">
        <ele>1872.0</ele>
        <time>2015-07-25T11:53:44Z</time>
      </trkpt>
      <trkpt lat="40.426200" lon="-5.300600">
        <ele>1867.0</ele>
        <time>2015-07-25T11:53:46Z</time>
      </trkpt>
      <trkpt lat="40.426350" lon="-5.300650">
        <ele>1860.0</ele>
        <time>2015-07-25T11:53:48Z</time>
      </trkpt>
      <trkpt lat="40.426500" lon="-5.300650">
        <ele>1858.0</ele>
        <time>2015-07-25T11:53:50Z</time>
      </trkpt>
      <trkpt lat="40.426633" lon="-5.300700">
        <ele>1855.0</ele>
        <time>2015-07-25T11:53:52Z</time>
      </trkpt>
      <trkpt lat="40.426767" lon="-5.300733">
        <ele>1849.0</ele>
        <time>2015-07-25T11:53:54Z</time>
      </trkpt>
      <trkpt lat="40.426933" lon="-5.300750">
        <ele>1844.0</ele>
        <time>2015-07-25T11:53:56Z</time>
      </trkpt>
      <trkpt lat="40.427100" lon="-5.300733">
        <ele>1841.0</ele>
        <time>2015-07-25T11:53:58Z</time>
      </trkpt>
      <trkpt lat="40.427250" lon="-5.300700">
        <ele>1837.0</ele>
        <time>2015-07-25T11:54:00Z</time>
      </trkpt>
      <trkpt lat="40.427417" lon="-5.300633">
        <ele>1833.0</ele>
        <time>2015-07-25T11:54:02Z</time>
      </trkpt>
      <trkpt lat="40.427583" lon="-5.300567">
        <ele>1834.0</ele>
        <time>2015-07-25T11:54:04Z</time>
      </trkpt>
      <trkpt lat="40.427717" lon="-5.300467">
        <ele>1836.0</ele>
        <time>2015-07-25T11:54:06Z</time>
      </trkpt>
      <trkpt lat="40.427833" lon="-5.300367">
        <ele>1837.0</ele>
        <time>2015-07-25T11:54:08Z</time>
      </trkpt>
      <trkpt lat="40.427917" lon="-5.300217">
        <ele>1837.0</ele>
        <time>2015-07-25T11:54:10Z</time>
      </trkpt>
      <trkpt lat="40.428000" lon="-5.300033">
        <ele>1834.0</ele>
        <time>2015-07-25T11:54:12Z</time>
      </trkpt>
      <trkpt lat="40.428100" lon="-5.299850">
        <ele>1834.0</ele>
        <time>2015-07-25T11:54:14Z</time>
      </trkpt>
      <trkpt lat="40.428167" lon="-5.299700">
        <ele>1837.0</ele>
        <time>2015-07-25T11:54:16Z</time>
      </trkpt>
      <trkpt lat="40.428283" lon="-5.299567">
        <ele>1835.0</ele>
        <time>2015-07-25T11:54:18Z</time>
      </trkpt>
      <trkpt lat="40.428433" lon="-5.299600">
        <ele>1834.0</ele>
        <time>2015-07-25T11:54:20Z</time>
      </trkpt>
      <trkpt lat="40.428533" lon="-5.299750">
        <ele>1836.0</ele>
        <time>2015-07-25T11:54:22Z</time>
      </trkpt>
      <trkpt lat="40.428533" lon="-5.299933">
        <ele>1837.0</ele>
        <time>2015-07-25T11:54:24Z</time>
      </trkpt>
      <trkpt lat="40.428417" lon="-5.300117">
        <ele>1836.0</ele>
        <time>2015-07-25T11:54:26Z</time>
      </trkpt>
      <trkpt lat="40.428233" lon="-5.300250">
        <ele>1840.0</ele>
        <time>2015-07-25T11:54:28Z</time>
      </trkpt>
      <trkpt lat="40.428050" lon="-5.300283">
        <ele>1845.0</ele>
        <time>2015-07-25T11:54:30Z</time>
      </trkpt>
      <trkpt lat="40.427867" lon="-5.300300">
        <ele>1847.0</ele>
        <time>2015-07-25T11:54:32Z</time>
      </trkpt>
      <trkpt lat="40.427633" lon="-5.300367">
        <ele>1848.0</ele>
        <time>2015-07-25T11:54:34Z</time>
      </trkpt>
      <trkpt lat="40.427433" lon="-5.300450">
        <ele>1852.0</ele>
        <time>2015-07-25T11:54:36Z</time>
      </trkpt>
      <trkpt lat="40.427283" lon="-5.300600">
        <ele>1854.0</ele>
        <time>2015-07-25T11:54:38Z</time>
      </trkpt>
      <trkpt lat="40.427183" lon="-5.300800">
        <ele>1856.0</ele>
        <time>2015-07-25T11:54:40Z</time>
      </trkpt>
      <trkpt lat="40.427133" lon="-5.301000">
        <ele>1860.0</ele>
        <time>2015-07-25T11:54:42Z</time>
      </trkpt>
      <trkpt lat="40.427167" lon="-5.301167">
        <ele>1862.0</ele>
        <time>2015-07-25T11:54:44Z</time>
      </trkpt>
      <trkpt lat="40.427283" lon="-5.301267">
        <ele>1863.0</ele>
        <time>2015-07-25T11:54:46Z</time>
      </trkpt>
      <trkpt lat="40.427433" lon="-5.301167">
        <ele>1863.0</ele>
        <time>2015-07-25T11:54:48Z</time>
      </trkpt>
      <trkpt lat="40.427467" lon="-5.300917">
        <ele>1864.0</ele>
        <time>2015-07-25T11:54:50Z</time>
      </trkpt>
      <trkpt lat="40.427450" lon="-5.300683">
        <ele>1868.0</ele>
        <time>2015-07-25T11:54:52Z</time>
      </trkpt>
      <trkpt lat="40.427417" lon="-5.300483">
        <ele>1871.0</ele>
        <time>2015-07-25T11:54:54Z</time>
      </trkpt>
      <trkpt lat="40.427400" lon="-5.300267">
        <ele>1873.0</ele>
        <time>2015-07-25T11:54:56Z</time>
      </trkpt>
      <trkpt lat="40.427383" lon="-5.300033">
        <ele>1876.0</ele>
        <time>2015-07-25T11:54:58Z</time>
      </trkpt>
      <trkpt lat="40.427417" lon="-5.299817">
        <ele>1879.0</ele>
        <time>2015-07-25T11:55:00Z</time>
      </trkpt>
      <trkpt lat="40.427483" lon="-5.299617">
        <ele>1881.0</ele>
        <time>2015-07-25T11:55:02Z</time>
      </trkpt>
      <trkpt lat="40.427583" lon="-5.299433">
        <ele>1884.0</ele>
        <time>2015-07-25T11:55:04Z</time>
      </trkpt>
      <trkpt lat="40.427700" lon="-5.299367">
        <ele>1888.0</ele>
        <time>2015-07-25T11:55:06Z</time>
      </trkpt>
      <trkpt lat="40.427817" lon="-5.299433">
        <ele>1891.0</ele>
        <time>2015-07-25T11:55:08Z</time>
      </trkpt>
      <trkpt lat="40.427900" lon="-5.299567">
        <ele>1894.0</ele>
        <time>2015-07-25T11:55:10Z</time>
      </trkpt>
      <trkpt lat="40.427933" lon="-5.299750">
        <ele>1896.0</ele>
        <time>2015-07-25T11:55:12Z</time>
      </trkpt>
      <trkpt lat="40.427983" lon="-5.299917">
        <ele>1900.0</ele>
        <time>2015-07-25T11:55:14Z</time>
      </trkpt>
      <trkpt lat="40.427983" lon="-5.300083">
        <ele>1905.0</ele>
        <time>2015-07-25T11:55:16Z</time>
      </trkpt>
      <trkpt lat="40.427883" lon="-5.300300">
        <ele>1908.0</ele>
        <time>2015-07-25T11:55:18Z</time>
      </trkpt>
      <trkpt lat="40.427767" lon="-5.300483">
        <ele>1915.0</ele>
        <time>2015-07-25T11:55:20Z</time>
      </trkpt>
      <trkpt lat="40.427600" lon="-5.300617">
        <ele>1919.0</ele>
        <time>2015-07-25T11:55:22Z</time>
      </trkpt>
      <trkpt lat="40.427400" lon="-5.300633">
        <ele>1919.0</ele>
        <time>2015-07-25T11:55:24Z</time>
      </trkpt>
      <trkpt lat="40.427183" lon="-5.300517">
        <ele>1918.0</ele>
        <time>2015-07-25T11:55:26Z</time>
      </trkpt>
      <trkpt lat="40.427033" lon="-5.300300">
        <ele>1918.0</ele>
        <time>2015-07-25T11:55:28Z</time>
      </trkpt>
      <trkpt lat="40.426967" lon="-5.300033">
        <ele>1920.0</ele>
        <time>2015-07-25T11:55:30Z</time>
      </trkpt>
      <trkpt lat="40.426950" lon="-5.299817">
        <ele>1922.0</ele>
        <time>2015-07-25T11:55:32Z</time>
      </trkpt>
      <trkpt lat="40.426967" lon="-5.299600">
        <ele>1920.0</ele>
        <time>2015-07-25T11:55:34Z</time>
      </trkpt>
      <trkpt lat="40.427050" lon="-5.299400">
        <ele>1921.0</ele>
        <time>2015-07-25T11:55:36Z</time>
      </trkpt>
      <trkpt lat="40.427150" lon="-5.299250">
        <ele>1926.0</ele>
        <time>2015-07-25T11:55:38Z</time>
      </trkpt>
      <trkpt lat="40.427233" lon="-5.299167">
        <ele>1930.0</ele>
        <time>2015-07-25T11:55:40Z</time>
      </trkpt>
      <trkpt lat="40.427333" lon="-5.299150">
        <ele>1931.0</ele>
        <time>2015-07-25T11:55:42Z</time>
      </trkpt>
      <trkpt lat="40.427450" lon="-5.299200">
        <ele>1933.0</ele>
        <time>2015-07-25T11:55:44Z</time>
      </trkpt>
      <trkpt lat="40.427550" lon="-5.299233">
        <ele>1941.0</ele>
        <time>2015-07-25T11:55:46Z</time>
      </trkpt>
      <trkpt lat="40.427617" lon="-5.299250">
        <ele>1946.0</ele>
        <time>2015-07-25T11:55:48Z</time>
      </trkpt>
      <trkpt lat="40.427683" lon="-5.299367">
        <ele>1948.0</ele>
        <time>2015-07-25T11:55:50Z</time>
      </trkpt>
      <trkpt lat="40.427700" lon="-5.299567">
        <ele>1955.0</ele>
        <time>2015-07-25T11:55:52Z</time>
      </trkpt>
      <trkpt lat="40.427650" lon="-5.299717">
        <ele>1964.0</ele>
        <time>2015-07-25T11:55:54Z</time>
      </trkpt>
      <trkpt lat="40.427550" lon="-5.299850">
        <ele>1967.0</ele>
        <time>2015-07-25T11:55:56Z</time>
      </trkpt>
      <trkpt lat="40.427333" lon="-5.299983">
        <ele>1966.0</ele>
        <time>2015-07-25T11:55:58Z</time>
      </trkpt>
      <trkpt lat="40.427117" lon="-5.300050">
        <ele>1973.0</ele>
        <time>2015-07-25T11:56:00Z</time>
      </trkpt>
      <trkpt lat="40.426967" lon="-5.300067">
        <ele>1977.0</ele>
        <time>2015-07-25T11:56:02Z</time>
      </trkpt>
      <trkpt lat="40.426767" lon="-5.299983">
        <ele>1976.0</ele>
        <time>2015-07-25T11:56:04Z</time>
      </trkpt>
      <trkpt lat="40.426583" lon="-5.299750">
        <ele>1977.0</ele>
        <time>2015-07-25T11:56:06Z</time>
      </trkpt>
      <trkpt lat="40.426517" lon="-5.299500">
        <ele>1982.0</ele>
        <time>2015-07-25T11:56:08Z</time>
      </trkpt>
      <trkpt lat="40.426550" lon="-5.299300">
        <ele>1986.0</ele>
        <time>2015-07-25T11:56:10Z</time>
      </trkpt>
      <trkpt lat="40.426617" lon="-5.299117">
        <ele>1990.0</ele>
        <time>2015-07-25T11:56:12Z</time>
      </trkpt>
      <trkpt lat="40.426750" lon="-5.298983">
        <ele>1994.0</ele>
        <time>2015-07-25T11:56:14Z</time>
      </trkpt>
      <trkpt lat="40.426883" lon="-5.298950">
        <ele>2000.0</ele>
        <time>2015-07-25T11:56:16Z</time>
      </trkpt>
      <trkpt lat="40.426983" lon="-5.299000">
        <ele>2007.0</ele>
        <time>2015-07-25T11:56:18Z</time>
      </trkpt>
      <trkpt lat="40.427067" lon="-5.299050">
        <ele>2013.0</ele>
        <time>2015-07-25T11:56:20Z</time>
      </trkpt>
      <trkpt lat="40.427167" lon="-5.299100">
        <ele>2018.0</ele>
        <time>2015-07-25T11:56:22Z</time>
      </trkpt>
      <trkpt lat="40.427250" lon="-5.299217">
        <ele>2022.0</ele>
        <time>2015-07-25T11:56:24Z</time>
      </trkpt>
      <trkpt lat="40.427283" lon="-5.299350">
        <ele>2024.0</ele>
        <time>2015-07-25T11:56:26Z</time>
      </trkpt>
      <trkpt lat="40.427300" lon="-5.299550">
        <ele>2025.0</ele>
        <time>2015-07-25T11:56:28Z</time>
      </trkpt>
      <trkpt lat="40.427200" lon="-5.299817">
        <ele>2026.0</ele>
        <time>2015-07-25T11:56:30Z</time>
      </trkpt>
      <trkpt lat="40.427050" lon="-5.299967">
        <ele>2034.0</ele>
        <time>2015-07-25T11:56:32Z</time>
      </trkpt>
      <trkpt lat="40.426883" lon="-5.300000">
        <ele>2037.0</ele>
        <time>2015-07-25T11:56:34Z</time>
      </trkpt>
      <trkpt lat="40.426650" lon="-5.299967">
        <ele>2037.0</ele>
        <time>2015-07-25T11:56:36Z</time>
      </trkpt>
      <trkpt lat="40.426417" lon="-5.299833">
        <ele>2040.0</ele>
        <time>2015-07-25T11:56:38Z</time>
      </trkpt>
      <trkpt lat="40.426267" lon="-5.299600">
        <ele>2044.0</ele>
        <time>2015-07-25T11:56:40Z</time>
      </trkpt>
      <trkpt lat="40.426217" lon="-5.299333">
        <ele>2047.0</ele>
        <time>2015-07-25T11:56:42Z</time>
      </trkpt>
      <trkpt lat="40.426233" lon="-5.299100">
        <ele>2049.0</ele>
        <time>2015-07-25T11:56:44Z</time>
      </trkpt>
      <trkpt lat="40.426317" lon="-5.298917">
        <ele>2050.0</ele>
        <time>2015-07-25T11:56:46Z</time>
      </trkpt>
      <trkpt lat="40.426433" lon="-5.298750">
        <ele>2057.0</ele>
        <time>2015-07-25T11:56:48Z</time>
      </trkpt>
      <trkpt lat="40.426550" lon="-5.298650">
        <ele>2066.0</ele>
        <time>2015-07-25T11:56:50Z</time>
      </trkpt>
      <trkpt lat="40.426650" lon="-5.298567">
        <ele>2073.0</ele>
        <time>2015-07-25T11:56:52Z</time>
      </trkpt>
      <trkpt lat="40.426750" lon="-5.298533">
        <ele>2075.0</ele>
        <time>2015-07-25T11:56:54Z</time>
      </trkpt>
      <trkpt lat="40.426850" lon="-5.298667">
        <ele>2073.0</ele>
        <time>2015-07-25T11:56:56Z</time>
      </trkpt>
      <trkpt lat="40.426917" lon="-5.298850">
        <ele>2075.0</ele>
        <time>2015-07-25T11:56:58Z</time>
      </trkpt>
      <trkpt lat="40.426900" lon="-5.299017">
        <ele>2077.0</ele>
        <time>2015-07-25T11:57:00Z</time>
      </trkpt>
      <trkpt lat="40.426833" lon="-5.299200">
        <ele>2074.0</ele>
        <time>2015-07-25T11:57:02Z</time>
      </trkpt>
      <trkpt lat="40.426667" lon="-5.299400">
        <ele>2073.0</ele>
        <time>2015-07-25T11:57:04Z</time>
      </trkpt>
      <trkpt lat="40.426517" lon="-5.299533">
        <ele>2078.0</ele>
        <time>2015-07-25T11:57:06Z</time>
      </trkpt>
      <trkpt lat="40.426383" lon="-5.299617">
        <ele>2080.0</ele>
        <time>2015-07-25T11:57:08Z</time>
      </trkpt>
      <trkpt lat="40.426150" lon="-5.299667">
        <ele>2078.0</ele>
        <time>2015-07-25T11:57:10Z</time>
      </trkpt>
      <trkpt lat="40.425883" lon="-5.299567">
        <ele>2079.0</ele>
        <time>2015-07-25T11:57:12Z</time>
      </trkpt>
      <trkpt lat="40.425700" lon="-5.299367">
        <ele>2083.0</ele>
        <time>2015-07-25T11:57:14Z</time>
      </trkpt>
      <trkpt lat="40.425583" lon="-5.299117">
        <ele>2086.0</ele>
        <time>2015-07-25T11:57:16Z</time>
      </trkpt>
      <trkpt lat="40.425567" lon="-5.298867">
        <ele>2088.0</ele>
        <time>2015-07-25T11:57:18Z</time>
      </trkpt>
      <trkpt lat="40.425617" lon="-5.298650">
        <ele>2089.0</ele>
        <time>2015-07-25T11:57:20Z</time>
      </trkpt>
      <trkpt lat="40.425700" lon="-5.298467">
        <ele>2090.0</ele>
        <time>2015-07-25T11:57:22Z</time>
      </trkpt>
      <trkpt lat="40.425817" lon="-5.298367">
        <ele>2092.0</ele>
        <time>2015-07-25T11:57:24Z</time>
      </trkpt>
      <trkpt lat="40.425933" lon="-5.298333">
        <ele>2093.0</ele>
        <time>2015-07-25T11:57:26Z</time>
      </trkpt>
      <trkpt lat="40.426033" lon="-5.298283">
        <ele>2095.0</ele>
        <time>2015-07-25T11:57:28Z</time>
      </trkpt>
      <trkpt lat="40.426133" lon="-5.298317">
        <ele>2095.0</ele>
        <time>2015-07-25T11:57:30Z</time>
      </trkpt>
      <trkpt lat="40.426217" lon="-5.298433">
        <ele>2095.0</ele>
        <time>2015-07-25T11:57:32Z</time>
      </trkpt>
      <trkpt lat="40.426267" lon="-5.298567">
        <ele>2096.0</ele>
        <time>2015-07-25T11:57:34Z</time>
      </trkpt>
      <trkpt lat="40.426317" lon="-5.298717">
        <ele>2095.0</ele>
        <time>2015-07-25T11:57:36Z</time>
      </trkpt>
      <trkpt lat="40.426333" lon="-5.298917">
        <ele>2093.0</ele>
        <time>2015-07-25T11:57:38Z</time>
      </trkpt>
      <trkpt lat="40.426317" lon="-5.299117">
        <ele>2093.0</ele>
        <time>2015-07-25T11:57:40Z</time>
      </trkpt>
      <trkpt lat="40.426250" lon="-5.299317">
        <ele>2093.0</ele>
        <time>2015-07-25T11:57:42Z</time>
      </trkpt>
      <trkpt lat="40.426150" lon="-5.299517">
        <ele>2094.0</ele>
        <time>2015-07-25T11:57:44Z</time>
      </trkpt>
      <trkpt lat="40.426000" lon="-5.299700">
        <ele>2094.0</ele>
        <time>2015-07-25T11:57:46Z</time>
      </trkpt>
      <trkpt lat="40.425817" lon="-5.299817">
        <ele>2096.0</ele>
        <time>2015-07-25T11:57:48Z</time>
      </trkpt>
      <trkpt lat="40.425617" lon="-5.299883">
        <ele>2099.0</ele>
        <time>2015-07-25T11:57:50Z</time>
      </trkpt>
      <trkpt lat="40.425383" lon="-5.299900">
        <ele>2101.0</ele>
        <time>2015-07-25T11:57:52Z</time>
      </trkpt>
      <trkpt lat="40.425183" lon="-5.299783">
        <ele>2101.0</ele>
        <time>2015-07-25T11:57:54Z</time>
      </trkpt>
      <trkpt lat="40.425067" lon="-5.299517">
        <ele>2099.0</ele>
        <time>2015-07-25T11:57:56Z</time>
      </trkpt>
      <trkpt lat="40.425000" lon="-5.299217">
        <ele>2103.0</ele>
        <time>2015-07-25T11:57:58Z</time>
      </trkpt>
      <trkpt lat="40.424950" lon="-5.298967">
        <ele>2109.0</ele>
        <time>2015-07-25T11:58:00Z</time>
      </trkpt>
      <trkpt lat="40.424933" lon="-5.298733">
        <ele>2111.0</ele>
        <time>2015-07-25T11:58:02Z</time>
      </trkpt>
      <trkpt lat="40.424950" lon="-5.298483">
        <ele>2112.0</ele>
        <time>2015-07-25T11:58:04Z</time>
      </trkpt>
      <trkpt lat="40.425017" lon="-5.298283">
        <ele>2115.0</ele>
        <time>2015-07-25T11:58:06Z</time>
      </trkpt>
      <trkpt lat="40.425100" lon="-5.298167">
        <ele>2118.0</ele>
        <time>2015-07-25T11:58:08Z</time>
      </trkpt>
      <trkpt lat="40.425167" lon="-5.298067">
        <ele>2120.0</ele>
        <time>2015-07-25T11:58:10Z</time>
      </trkpt>
      <trkpt lat="40.425267" lon="-5.298000">
        <ele>2120.0</ele>
        <time>2015-07-25T11:58:12Z</time>
      </trkpt>
      <trkpt lat="40.425400" lon="-5.297983">
        <ele>2121.0</ele>
        <time>2015-07-25T11:58:14Z</time>
      </trkpt>
      <trkpt lat="40.425550" lon="-5.297983">
        <ele>2122.0</ele>
        <time>2015-07-25T11:58:16Z</time>
      </trkpt>
      <trkpt lat="40.425667" lon="-5.297950">
        <ele>2123.0</ele>
        <time>2015-07-25T11:58:18Z</time>
      </trkpt>
      <trkpt lat="40.425783" lon="-5.297917">
        <ele>2123.0</ele>
        <time>2015-07-25T11:58:20Z</time>
      </trkpt>
      <trkpt lat="40.425917" lon="-5.297917">
        <ele>2122.0</ele>
        <time>2015-07-25T11:58:22Z</time>
      </trkpt>
      <trkpt lat="40.426017" lon="-5.297983">
        <ele>2122.0</ele>
        <time>2015-07-25T11:58:24Z</time>
      </trkpt>
      <trkpt lat="40.426117" lon="-5.298067">
        <ele>2122.0</ele>
        <time>2015-07-25T11:58:26Z</time>
      </trkpt>
      <trkpt lat="40.426217" lon="-5.298150">
        <ele>2122.0</ele>
        <time>2015-07-25T11:58:28Z</time>
      </trkpt>
      <trkpt lat="40.426300" lon="-5.298267">
        <ele>2121.0</ele>
        <time>2015-07-25T11:58:30Z</time>
      </trkpt>
      <trkpt lat="40.426367" lon="-5.298400">
        <ele>2121.0</ele>
        <time>2015-07-25T11:58:32Z</time>
      </trkpt>
      <trkpt lat="40.426383" lon="-5.298550">
        <ele>2121.0</ele>
        <time>2015-07-25T11:58:34Z</time>
      </trkpt>
      <trkpt lat="40.426367" lon="-5.298717">
        <ele>2120.0</ele>
        <time>2015-07-25T11:58:36Z</time>
      </trkpt>
      <trkpt lat="40.426283" lon="-5.298867">
        <ele>2118.0</ele>
        <time>2015-07-25T11:58:38Z</time>
      </trkpt>
      <trkpt lat="40.426183" lon="-5.299050">
        <ele>2118.0</ele>
        <time>2015-07-25T11:58:40Z</time>
      </trkpt>
      <trkpt lat="40.426133" lon="-5.299250">
        <ele>2120.0</ele>
        <time>2015-07-25T11:58:42Z</time>
      </trkpt>
      <trkpt lat="40.426133" lon="-5.299417">
        <ele>2120.0</ele>
        <time>2015-07-25T11:58:44Z</time>
      </trkpt>
      <trkpt lat="40.426133" lon="-5.299633">
        <ele>2119.0</ele>
        <time>2015-07-25T11:58:46Z</time>
      </trkpt>
      <trkpt lat="40.426083" lon="-5.299833">
        <ele>2120.0</ele>
        <time>2015-07-25T11:58:48Z</time>
      </trkpt>
      <trkpt lat="40.426017" lon="-5.300017">
        <ele>2122.0</ele>
        <time>2015-07-25T11:58:50Z</time>
      </trkpt>
      <trkpt lat="40.425900" lon="-5.300200">
        <ele>2120.0</ele>
        <time>2015-07-25T11:58:52Z</time>
      </trkpt>
      <trkpt lat="40.425750" lon="-5.300417">
        <ele>2119.0</ele>
        <time>2015-07-25T11:58:54Z</time>
      </trkpt>
      <trkpt lat="40.425600" lon="-5.300600">
        <ele>2122.0</ele>
        <time>2015-07-25T11:58:56Z</time>
      </trkpt>
      <trkpt lat="40.425517" lon="-5.300783">
        <ele>2123.0</ele>
        <time>2015-07-25T11:58:58Z</time>
      </trkpt>
      <trkpt lat="40.425433" lon="-5.300983">
        <ele>2121.0</ele>
        <time>2015-07-25T11:59:00Z</time>
      </trkpt>
      <trkpt lat="40.425267" lon="-5.301117">
        <ele>2120.0</ele>
        <time>2015-07-25T11:59:02Z</time>
      </trkpt>
      <trkpt lat="40.425067" lon="-5.301167">
        <ele>2117.0</ele>
        <time>2015-07-25T11:59:04Z</time>
      </trkpt>
      <trkpt lat="40.424850" lon="-5.301183">
        <ele>2116.0</ele>
        <time>2015-07-25T11:59:06Z</time>
      </trkpt>
      <trkpt lat="40.424633" lon="-5.301100">
        <ele>2114.0</ele>
        <time>2015-07-25T11:59:08Z</time>
      </trkpt>
      <trkpt lat="40.424467" lon="-5.300917">
        <ele>2112.0</ele>
        <time>2015-07-25T11:59:10Z</time>
      </trkpt>
      <trkpt lat="40.424383" lon="-5.300683">
        <ele>2110.0</ele>
        <time>2015-07-25T11:59:12Z</time>
      </trkpt>
      <trkpt lat="40.424350" lon="-5.300450">
        <ele>2107.0</ele>
        <time>2015-07-25T11:59:14Z</time>
      </trkpt>
      <trkpt lat="40.424350" lon="-5.300217">
        <ele>2105.0</ele>
        <time>2015-07-25T11:59:16Z</time>
      </trkpt>
      <trkpt lat="40.424400" lon="-5.299983">
        <ele>2102.0</ele>
        <time>2015-07-25T11:59:18Z</time>
      </trkpt>
      <trkpt lat="40.424483" lon="-5.299750">
        <ele>2100.0</ele>
        <time>2015-07-25T11:59:20Z</time>
      </trkpt>
      <trkpt lat="40.424567" lon="-5.299567">
        <ele>2099.0</ele>
        <time>2015-07-25T11:59:22Z</time>
      </trkpt>
      <trkpt lat="40.424683" lon="-5.299433">
        <ele>2097.0</ele>
        <time>2015-07-25T11:59:24Z</time>
      </trkpt>
      <trkpt lat="40.424817" lon="-5.299317">
        <ele>2099.0</ele>
        <time>2015-07-25T11:59:26Z</time>
      </trkpt>
      <trkpt lat="40.424917" lon="-5.299217">
        <ele>2102.0</ele>
        <time>2015-07-25T11:59:28Z</time>
      </trkpt>
      <trkpt lat="40.425000" lon="-5.299100">
        <ele>2102.0</ele>
        <time>2015-07-25T11:59:30Z</time>
      </trkpt>
      <trkpt lat="40.425117" lon="-5.298933">
        <ele>2099.0</ele>
        <time>2015-07-25T11:59:32Z</time>
      </trkpt>
      <trkpt lat="40.425233" lon="-5.298800">
        <ele>2097.0</ele>
        <time>2015-07-25T11:59:34Z</time>
      </trkpt>
      <trkpt lat="40.425333" lon="-5.298667">
        <ele>2096.0</ele>
        <time>2015-07-25T11:59:36Z</time>
      </trkpt>
      <trkpt lat="40.425433" lon="-5.298500">
        <ele>2093.0</ele>
        <time>2015-07-25T11:59:38Z</time>
      </trkpt>
      <trkpt lat="40.425533" lon="-5.298350">
        <ele>2093.0</ele>
        <time>2015-07-25T11:59:40Z</time>
      </trkpt>
      <trkpt lat="40.425600" lon="-5.298267">
        <ele>2093.0</ele>
        <time>2015-07-25T11:59:42Z</time>
      </trkpt>
      <trkpt lat="40.425667" lon="-5.298200">
        <ele>2088.0</ele>
        <time>2015-07-25T11:59:44Z</time>
      </trkpt>
      <trkpt lat="40.425800" lon="-5.298117">
        <ele>2081.0</ele>
        <time>2015-07-25T11:59:46Z</time>
      </trkpt>
      <trkpt lat="40.425933" lon="-5.298033">
        <ele>2082.0</ele>
        <time>2015-07-25T11:59:48Z</time>
      </trkpt>
      <trkpt lat="40.425967" lon="-5.297983">
        <ele>2082.0</ele>
        <time>2015-07-25T11:59:50Z</time>
      </trkpt>
      <trkpt lat="40.426033" lon="-5.297950">
        <ele>2075.0</ele>
        <time>2015-07-25T11:59:52Z</time>
      </trkpt>
      <trkpt lat="40.426167" lon="-5.297867">
        <ele>2069.0</ele>
        <time>2015-07-25T11:59:54Z</time>
      </trkpt>
      <trkpt lat="40.426283" lon="-5.297750">
        <ele>2070.0</ele>
        <time>2015-07-25T11:59:56Z</time>
      </trkpt>
      <trkpt lat="40.426317" lon="-5.297633">
        <ele>2071.0</ele>
        <time>2015-07-25T11:59:58Z</time>
      </trkpt>
      <trkpt lat="40.426367" lon="-5.297483">
        <ele>2067.0</ele>
        <time>2015-07-25T12:00:00Z</time>
      </trkpt>
      <trkpt lat="40.426417" lon="-5.297300">
        <ele>2063.0</ele>
        <time>2015-07-25T12:00:02Z</time>
      </trkpt>
      <trkpt lat="40.426500" lon="-5.297150">
        <ele>2059.0</ele>
        <time>2015-07-25T12:00:04Z</time>
      </trkpt>
      <trkpt lat="40.426617" lon="-5.297050">
        <ele>2058.0</ele>
        <time>2015-07-25T12:00:06Z</time>
      </trkpt>
      <trkpt lat="40.426700" lon="-5.296983">
        <ele>2057.0</ele>
        <time>2015-07-25T12:00:08Z</time>
      </trkpt>
      <trkpt lat="40.426817" lon="-5.296967">
        <ele>2054.0</ele>
        <time>2015-07-25T12:00:10Z</time>
      </trkpt>
      <trkpt lat="40.426933" lon="-5.297067">
        <ele>2053.0</ele>
        <time>2015-07-25T12:00:12Z</time>
      </trkpt>
      <trkpt lat="40.426983" lon="-5.297200">
        <ele>2052.0</ele>
        <time>2015-07-25T12:00:14Z</time>
      </trkpt>
      <trkpt lat="40.426983" lon="-5.297383">
        <ele>2049.0</ele>
        <time>2015-07-25T12:00:16Z</time>
      </trkpt>
      <trkpt lat="40.426917" lon="-5.297633">
        <ele>2046.0</ele>
        <time>2015-07-25T12:00:18Z</time>
      </trkpt>
      <trkpt lat="40.426833" lon="-5.297867">
        <ele>2045.0</ele>
        <time>2015-07-25T12:00:20Z</time>
      </trkpt>
      <trkpt lat="40.426733" lon="-5.298033">
        <ele>2040.0</ele>
        <time>2015-07-25T12:00:22Z</time>
      </trkpt>
      <trkpt lat="40.426583" lon="-5.298233">
        <ele>2031.0</ele>
        <time>2015-07-25T12:00:24Z</time>
      </trkpt>
      <trkpt lat="40.426383" lon="-5.298517">
        <ele>2026.0</ele>
        <time>2015-07-25T12:00:26Z</time>
      </trkpt>
      <trkpt lat="40.426183" lon="-5.298733">
        <ele>2028.0</ele>
        <time>2015-07-25T12:00:28Z</time>
      </trkpt>
      <trkpt lat="40.426050" lon="-5.298917">
        <ele>2029.0</ele>
        <time>2015-07-25T12:00:30Z</time>
      </trkpt>
      <trkpt lat="40.425917" lon="-5.299133">
        <ele>2028.0</ele>
        <time>2015-07-25T12:00:32Z</time>
      </trkpt>
      <trkpt lat="40.425833" lon="-5.299383">
        <ele>2029.0</ele>
        <time>2015-07-25T12:00:34Z</time>
      </trkpt>
      <trkpt lat="40.425750" lon="-5.299583">
        <ele>2033.0</ele>
        <time>2015-07-25T12:00:36Z</time>
      </trkpt>
      <trkpt lat="40.425633" lon="-5.299733">
        <ele>2033.0</ele>
        <time>2015-07-25T12:00:38Z</time>
      </trkpt>
      <trkpt lat="40.425417" lon="-5.299900">
        <ele>2031.0</ele>
        <time>2015-07-25T12:00:40Z</time>
      </trkpt>
      <trkpt lat="40.425183" lon="-5.300000">
        <ele>2035.0</ele>
        <time>2015-07-25T12:00:42Z</time>
      </trkpt>
      <trkpt lat="40.424950" lon="-5.300000">
        <ele>2039.0</ele>
        <time>2015-07-25T12:00:44Z</time>
      </trkpt>
      <trkpt lat="40.424717" lon="-5.299900">
        <ele>2040.0</ele>
        <time>2015-07-25T12:00:46Z</time>
      </trkpt>
      <trkpt lat="40.424533" lon="-5.299650">
        <ele>2042.0</ele>
        <time>2015-07-25T12:00:48Z</time>
      </trkpt>
      <trkpt lat="40.424467" lon="-5.299400">
        <ele>2045.0</ele>
        <time>2015-07-25T12:00:50Z</time>
      </trkpt>
      <trkpt lat="40.424483" lon="-5.299233">
        <ele>2047.0</ele>
        <time>2015-07-25T12:00:52Z</time>
      </trkpt>
      <trkpt lat="40.424567" lon="-5.299067">
        <ele>2049.0</ele>
        <time>2015-07-25T12:00:54Z</time>
      </trkpt>
      <trkpt lat="40.424667" lon="-5.298983">
        <ele>2053.0</ele>
        <time>2015-07-25T12:00:56Z</time>
      </trkpt>
      <trkpt lat="40.424733" lon="-5.298950">
        <ele>2054.0</ele>
        <time>2015-07-25T12:00:58Z</time>
      </trkpt>
      <trkpt lat="40.424833" lon="-5.299000">
        <ele>2053.0</ele>
        <time>2015-07-25T12:01:00Z</time>
      </trkpt>
      <trkpt lat="40.424933" lon="-5.299083">
        <ele>2054.0</ele>
        <time>2015-07-25T12:01:02Z</time>
      </trkpt>
      <trkpt lat="40.425000" lon="-5.299183">
        <ele>2054.0</ele>
        <time>2015-07-25T12:01:04Z</time>
      </trkpt>
      <trkpt lat="40.425067" lon="-5.299317">
        <ele>2051.0</ele>
        <time>2015-07-25T12:01:06Z</time>
      </trkpt>
      <trkpt lat="40.425100" lon="-5.299517">
        <ele>2049.0</ele>
        <time>2015-07-25T12:01:08Z</time>
      </trkpt>
      <trkpt lat="40.425117" lon="-5.299750">
        <ele>2050.0</ele>
        <time>2015-07-25T12:01:10Z</time>
      </trkpt>
      <trkpt lat="40.425050" lon="-5.299983">
        <ele>2049.0</ele>
        <time>2015-07-25T12:01:12Z</time>
      </trkpt>
      <trkpt lat="40.425000" lon="-5.300217">
        <ele>2047.0</ele>
        <time>2015-07-25T12:01:14Z</time>
      </trkpt>
      <trkpt lat="40.424950" lon="-5.300433">
        <ele>2047.0</ele>
        <time>2015-07-25T12:01:16Z</time>
      </trkpt>
      <trkpt lat="40.424967" lon="-5.300633">
        <ele>2046.0</ele>
        <time>2015-07-25T12:01:18Z</time>
      </trkpt>
      <trkpt lat="40.425017" lon="-5.300800">
        <ele>2046.0</ele>
        <time>2015-07-25T12:01:20Z</time>
      </trkpt>
      <trkpt lat="40.425067" lon="-5.300917">
        <ele>2047.0</ele>
        <time>2015-07-25T12:01:22Z</time>
      </trkpt>
      <trkpt lat="40.425167" lon="-5.300950">
        <ele>2044.0</ele>
        <time>2015-07-25T12:01:24Z</time>
      </trkpt>
      <trkpt lat="40.425267" lon="-5.300817">
        <ele>2042.0</ele>
        <time>2015-07-25T12:01:26Z</time>
      </trkpt>
      <trkpt lat="40.425250" lon="-5.300633">
        <ele>2041.0</ele>
        <time>2015-07-25T12:01:28Z</time>
      </trkpt>
      <trkpt lat="40.425217" lon="-5.300467">
        <ele>2038.0</ele>
        <time>2015-07-25T12:01:30Z</time>
      </trkpt>
      <trkpt lat="40.425200" lon="-5.300250">
        <ele>2033.0</ele>
        <time>2015-07-25T12:01:32Z</time>
      </trkpt>
      <trkpt lat="40.425217" lon="-5.300050">
        <ele>2031.0</ele>
        <time>2015-07-25T12:01:34Z</time>
      </trkpt>
      <trkpt lat="40.425233" lon="-5.299917">
        <ele>2027.0</ele>
        <time>2015-07-25T12:01:36Z</time>
      </trkpt>
      <trkpt lat="40.425333" lon="-5.299783">
        <ele>2019.0</ele>
        <time>2015-07-25T12:01:38Z</time>
      </trkpt>
      <trkpt lat="40.425483" lon="-5.299700">
        <ele>2017.0</ele>
        <time>2015-07-25T12:01:40Z</time>
      </trkpt>
      <trkpt lat="40.425533" lon="-5.299633">
        <ele>2020.0</ele>
        <time>2015-07-25T12:01:42Z</time>
      </trkpt>
      <trkpt lat="40.425583" lon="-5.299650">
        <ele>2019.0</ele>
        <time>2015-07-25T12:01:44Z</time>
      </trkpt>
      <trkpt lat="40.425633" lon="-5.299800">
        <ele>2014.0</ele>
        <time>2015-07-25T12:01:46Z</time>
      </trkpt>
      <trkpt lat="40.425533" lon="-5.300050">
        <ele>2011.0</ele>
        <time>2015-07-25T12:01:48Z</time>
      </trkpt>
      <trkpt lat="40.425383" lon="-5.300250">
        <ele>2011.0</ele>
        <time>2015-07-25T12:01:50Z</time>
      </trkpt>
      <trkpt lat="40.425233" lon="-5.300400">
        <ele>2007.0</ele>
        <time>2015-07-25T12:01:52Z</time>
      </trkpt>
      <trkpt lat="40.424983" lon="-5.300550">
        <ele>2001.0</ele>
        <time>2015-07-25T12:01:54Z</time>
      </trkpt>
      <trkpt lat="40.424750" lon="-5.300733">
        <ele>2001.0</ele>
        <time>2015-07-25T12:01:56Z</time>
      </trkpt>
      <trkpt lat="40.424600" lon="-5.300900">
        <ele>2001.0</ele>
        <time>2015-07-25T12:01:58Z</time>
      </trkpt>
      <trkpt lat="40.424400" lon="-5.301050">
        <ele>1998.0</ele>
        <time>2015-07-25T12:02:00Z</time>
      </trkpt>
      <trkpt lat="40.424150" lon="-5.301150">
        <ele>1996.0</ele>
        <time>2015-07-25T12:02:02Z</time>
      </trkpt>
      <trkpt lat="40.423917" lon="-5.301167">
        <ele>1996.0</ele>
        <time>2015-07-25T12:02:04Z</time>
      </trkpt>
      <trkpt lat="40.423683" lon="-5.301067">
        <ele>1993.0</ele>
        <time>2015-07-25T12:02:06Z</time>
      </trkpt>
      <trkpt lat="40.423533" lon="-5.300800">
        <ele>1988.0</ele>
        <time>2015-07-25T12:02:08Z</time>
      </trkpt>
      <trkpt lat="40.423550" lon="-5.300533">
        <ele>1988.0</ele>
        <time>2015-07-25T12:02:10Z</time>
      </trkpt>
      <trkpt lat="40.423617" lon="-5.300450">
        <ele>1989.0</ele>
        <time>2015-07-25T12:02:12Z</time>
      </trkpt>
      <trkpt lat="40.423667" lon="-5.300400">
        <ele>1987.0</ele>
        <time>2015-07-25T12:02:14Z</time>
      </trkpt>
      <trkpt lat="40.423750" lon="-5.300367">
        <ele>1980.0</ele>
        <time>2015-07-25T12:02:16Z</time>
      </trkpt>
      <trkpt lat="40.423883" lon="-5.300333">
        <ele>1978.0</ele>
        <time>2015-07-25T12:02:18Z</time>
      </trkpt>
      <trkpt lat="40.423967" lon="-5.300283">
        <ele>1979.0</ele>
        <time>2015-07-25T12:02:20Z</time>
      </trkpt>
      <trkpt lat="40.424033" lon="-5.300250">
        <ele>1978.0</ele>
        <time>2015-07-25T12:02:22Z</time>
      </trkpt>
      <trkpt lat="40.424117" lon="-5.300167">
        <ele>1976.0</ele>
        <time>2015-07-25T12:02:24Z</time>
      </trkpt>
      <trkpt lat="40.424200" lon="-5.300067">
        <ele>1976.0</ele>
        <time>2015-07-25T12:02:26Z</time>
      </trkpt>
      <trkpt lat="40.424283" lon="-5.299983">
        <ele>1975.0</ele>
        <time>2015-07-25T12:02:28Z</time>
      </trkpt>
      <trkpt lat="40.424350" lon="-5.299917">
        <ele>1972.0</ele>
        <time>2015-07-25T12:02:30Z</time>
      </trkpt>
      <trkpt lat="40.424450" lon="-5.299850">
        <ele>1969.0</ele>
        <time>2015-07-25T12:02:32Z</time>
      </trkpt>
      <trkpt lat="40.424533" lon="-5.299767">
        <ele>1970.0</ele>
        <time>2015-07-25T12:02:34Z</time>
      </trkpt>
      <trkpt lat="40.424617" lon="-5.299650">
        <ele>1969.0</ele>
        <time>2015-07-25T12:02:36Z</time>
      </trkpt>
      <trkpt lat="40.424700" lon="-5.299500">
        <ele>1969.0</ele>
        <time>2015-07-25T12:02:38Z</time>
      </trkpt>
      <trkpt lat="40.424783" lon="-5.299350">
        <ele>1969.0</ele>
        <time>2015-07-25T12:02:40Z</time>
      </trkpt>
      <trkpt lat="40.424850" lon="-5.299233">
        <ele>1968.0</ele>
        <time>2015-07-25T12:02:42Z</time>
      </trkpt>
      <trkpt lat="40.424900" lon="-5.299083">
        <ele>1965.0</ele>
        <time>2015-07-25T12:02:44Z</time>
      </trkpt>
      <trkpt lat="40.424950" lon="-5.298983">
        <ele>1961.0</ele>
        <time>2015-07-25T12:02:46Z</time>
      </trkpt>
      <trkpt lat="40.425017" lon="-5.299017">
        <ele>1956.0</ele>
        <time>2015-07-25T12:02:48Z</time>
      </trkpt>
      <trkpt lat="40.425083" lon="-5.299083">
        <ele>1955.0</ele>
        <time>2015-07-25T12:02:50Z</time>
      </trkpt>
      <trkpt lat="40.425133" lon="-5.299083">
        <ele>1953.0</ele>
        <time>2015-07-25T12:02:52Z</time>
      </trkpt>
      <trkpt lat="40.425217" lon="-5.299100">
        <ele>1949.0</ele>
        <time>2015-07-25T12:02:54Z</time>
      </trkpt>
      <trkpt lat="40.425300" lon="-5.299117">
        <ele>1947.0</ele>
        <time>2015-07-25T12:02:56Z</time>
      </trkpt>
      <trkpt lat="40.425383" lon="-5.299083">
        <ele>1947.0</ele>
        <time>2015-07-25T12:02:58Z</time>
      </trkpt>
      <trkpt lat="40.425450" lon="-5.299033">
        <ele>1943.0</ele>
        <time>2015-07-25T12:03:00Z</time>
      </trkpt>
      <trkpt lat="40.425567" lon="-5.299033">
        <ele>1938.0</ele>
        <time>2015-07-25T12:03:02Z</time>
      </trkpt>
      <trkpt lat="40.425667" lon="-5.299100">
        <ele>1939.0</ele>
        <time>2015-07-25T12:03:04Z</time>
      </trkpt>
      <trkpt lat="40.425717" lon="-5.299150">
        <ele>1934.0</ele>
        <time>2015-07-25T12:03:06Z</time>
      </trkpt>
      <trkpt lat="40.425817" lon="-5.299283">
        <ele>1927.0</ele>
        <time>2015-07-25T12:03:08Z</time>
      </trkpt>
      <trkpt lat="40.425883" lon="-5.299483">
        <ele>1924.0</ele>
        <time>2015-07-25T12:03:10Z</time>
      </trkpt>
      <trkpt lat="40.425933" lon="-5.299633">
        <ele>1922.0</ele>
        <time>2015-07-25T12:03:12Z</time>
      </trkpt>
      <trkpt lat="40.426033" lon="-5.299733">
        <ele>1916.0</ele>
        <time>2015-07-25T12:03:14Z</time>
      </trkpt>
      <trkpt lat="40.426150" lon="-5.299867">
        <ele>1913.0</ele>
        <time>2015-07-25T12:03:16Z</time>
      </trkpt>
      <trkpt lat="40.426233" lon="-5.300050">
        <ele>1913.0</ele>
        <time>2015-07-25T12:03:18Z</time>
      </trkpt>
      <trkpt lat="40.426333" lon="-5.300167">
        <ele>1911.0</ele>
        <time>2015-07-25T12:03:20Z</time>
      </trkpt>
      <trkpt lat="40.426467" lon="-5.300200">
        <ele>1909.0</ele>
        <time>2015-07-25T12:03:22Z</time>
      </trkpt>
      <trkpt lat="40.426567" lon="-5.300083">
        <ele>1908.0</ele>
        <time>2015-07-25T12:03:24Z</time>
      </trkpt>
      <trkpt lat="40.426617" lon="-5.299883">
        <ele>1908.0</ele>
        <time>2015-07-25T12:03:26Z</time>
      </trkpt>
      <trkpt lat="40.426650" lon="-5.299683">
        <ele>1910.0</ele>
        <time>2015-07-25T12:03:28Z</time>
      </trkpt>
      <trkpt lat="40.426700" lon="-5.299533">
        <ele>1908.0</ele>
        <time>2015-07-25T12:03:30Z</time>
      </trkpt>
      <trkpt lat="40.426800" lon="-5.299367">
        <ele>1906.0</ele>
        <time>2015-07-25T12:03:32Z</time>
      </trkpt>
      <trkpt lat="40.426883" lon="-5.299200">
        <ele>1908.0</ele>
        <time>2015-07-25T12:03:34Z</time>
      </trkpt>
      <trkpt lat="40.426917" lon="-5.299017">
        <ele>1908.0</ele>
        <time>2015-07-25T12:03:36Z</time>
      </trkpt>
      <trkpt lat="40.426983" lon="-5.298850">
        <ele>1905.0</ele>
        <time>2015-07-25T12:03:38Z</time>
      </trkpt>
      <trkpt lat="40.427083" lon="-5.298700">
        <ele>1906.0</ele>
        <time>2015-07-25T12:03:40Z</time>
      </trkpt>
      <trkpt lat="40.427183" lon="-5.298633">
        <ele>1907.0</ele>
        <time>2015-07-25T12:03:42Z</time>
      </trkpt>
      <trkpt lat="40.427283" lon="-5.298633">
        <ele>1905.0</ele>
        <time>2015-07-25T12:03:44Z</time>
      </trkpt>
      <trkpt lat="40.427350" lon="-5.298783">
        <ele>1902.0</ele>
        <time>2015-07-25T12:03:46Z</time>
      </trkpt>
      <trkpt lat="40.427300" lon="-5.299033">
        <ele>1901.0</ele>
        <time>2015-07-25T12:03:48Z</time>
      </trkpt>
      <trkpt lat="40.427150" lon="-5.299200">
        <ele>1902.0</ele>
        <time>2015-07-25T12:03:50Z</time>
      </trkpt>
      <trkpt lat="40.426983" lon="-5.299317">
        <ele>1901.0</ele>
        <time>2015-07-25T12:03:52Z</time>
      </trkpt>
      <trkpt lat="40.426767" lon="-5.299400">
        <ele>1900.0</ele>
        <time>2015-07-25T12:03:54Z</time>
      </trkpt>
      <trkpt lat="40.426583" lon="-5.299500">
        <ele>1901.0</ele>
        <time>2015-07-25T12:03:56Z</time>
      </trkpt>
      <trkpt lat="40.426417" lon="-5.299650">
        <ele>1901.0</ele>
        <time>2015-07-25T12:03:58Z</time>
      </trkpt>
      <trkpt lat="40.426300" lon="-5.299867">
        <ele>1902.0</ele>
        <time>2015-07-25T12:04:00Z</time>
      </trkpt>
      <trkpt lat="40.426383" lon="-5.300050">
        <ele>1900.0</ele>
        <time>2015-07-25T12:04:02Z</time>
      </trkpt>
      <trkpt lat="40.426550" lon="-5.300050">
        <ele>1903.0</ele>
        <time>2015-07-25T12:04:04Z</time>
      </trkpt>
      <trkpt lat="40.426617" lon="-5.299917">
        <ele>1906.0</ele>
        <time>2015-07-25T12:04:06Z</time>
      </trkpt>
      <trkpt lat="40.426633" lon="-5.299717">
        <ele>1908.0</ele>
        <time>2015-07-25T12:04:08Z</time>
      </trkpt>
      <trkpt lat="40.426633" lon="-5.299500">
        <ele>1910.0</ele>
        <time>2015-07-25T12:04:10Z</time>
      </trkpt>
      <trkpt lat="40.426633" lon="-5.299300">
        <ele>1908.0</ele>
        <time>2015-07-25T12:04:12Z</time>
      </trkpt>
      <trkpt lat="40.426700" lon="-5.299117">
        <ele>1906.0</ele>
        <time>2015-07-25T12:04:14Z</time>
      </trkpt>
      <trkpt lat="40.426817" lon="-5.298983">
        <ele>1905.0</ele>
        <time>2015-07-25T12:04:16Z</time>
      </trkpt>
      <trkpt lat="40.426900" lon="-5.298850">
        <ele>1906.0</ele>
        <time>2015-07-25T12:04:18Z</time>
      </trkpt>
      <trkpt lat="40.426983" lon="-5.298767">
        <ele>1906.0</ele>
        <time>2015-07-25T12:04:20Z</time>
      </trkpt>
      <trkpt lat="40.427083" lon="-5.298750">
        <ele>1904.0</ele>
        <time>2015-07-25T12:04:22Z</time>
      </trkpt>
      <trkpt lat="40.427200" lon="-5.298783">
        <ele>1901.0</ele>
        <time>2015-07-25T12:04:24Z</time>
      </trkpt>
      <trkpt lat="40.427250" lon="-5.298950">
        <ele>1897.0</ele>
        <time>2015-07-25T12:04:26Z</time>
      </trkpt>
      <trkpt lat="40.427183" lon="-5.299150">
        <ele>1893.0</ele>
        <time>2015-07-25T12:04:28Z</time>
      </trkpt>
      <trkpt lat="40.427033" lon="-5.299333">
        <ele>1892.0</ele>
        <time>2015-07-25T12:04:30Z</time>
      </trkpt>
      <trkpt lat="40.426833" lon="-5.299483">
        <ele>1895.0</ele>
        <time>2015-07-25T12:04:32Z</time>
      </trkpt>
      <trkpt lat="40.426650" lon="-5.299617">
        <ele>1897.0</ele>
        <time>2015-07-25T12:04:34Z</time>
      </trkpt>
      <trkpt lat="40.426500" lon="-5.299783">
        <ele>1899.0</ele>
        <time>2015-07-25T12:04:36Z</time>
      </trkpt>
      <trkpt lat="40.426367" lon="-5.299983">
        <ele>1899.0</ele>
        <time>2015-07-25T12:04:38Z</time>
      </trkpt>
      <trkpt lat="40.426267" lon="-5.300200">
        <ele>1897.0</ele>
        <time>2015-07-25T12:04:40Z</time>
      </trkpt>
      <trkpt lat="40.426250" lon="-5.300383">
        <ele>1896.0</ele>
        <time>2015-07-25T12:04:42Z</time>
      </trkpt>
      <trkpt lat="40.426283" lon="-5.300517">
        <ele>1892.0</ele>
        <time>2015-07-25T12:04:44Z</time>
      </trkpt>
      <trkpt lat="40.426400" lon="-5.300533">
        <ele>1886.0</ele>
        <time>2015-07-25T12:04:46Z</time>
      </trkpt>
      <trkpt lat="40.426500" lon="-5.300367">
        <ele>1881.0</ele>
        <time>2015-07-25T12:04:48Z</time>
      </trkpt>
      <trkpt lat="40.426550" lon="-5.300200">
        <ele>1883.0</ele>
        <time>2015-07-25T12:04:50Z</time>
      </trkpt>
      <trkpt lat="40.426583" lon="-5.300033">
        <ele>1885.0</ele>
        <time>2015-07-25T12:04:52Z</time>
      </trkpt>
      <trkpt lat="40.426617" lon="-5.299883">
        <ele>1885.0</ele>
        <time>2015-07-25T12:04:54Z</time>
      </trkpt>
      <trkpt lat="40.426650" lon="-5.299733">
        <ele>1887.0</ele>
        <time>2015-07-25T12:04:56Z</time>
      </trkpt>
      <trkpt lat="40.426700" lon="-5.299567">
        <ele>1887.0</ele>
        <time>2015-07-25T12:04:58Z</time>
      </trkpt>
      <trkpt lat="40.426783" lon="-5.299433">
        <ele>1886.0</ele>
        <time>2015-07-25T12:05:00Z</time>
      </trkpt>
      <trkpt lat="40.426850" lon="-5.299300">
        <ele>1886.0</ele>
        <time>2015-07-25T12:05:02Z</time>
      </trkpt>
      <trkpt lat="40.426933" lon="-5.299117">
        <ele>1885.0</ele>
        <time>2015-07-25T12:05:04Z</time>
      </trkpt>
      <trkpt lat="40.427000" lon="-5.298967">
        <ele>1885.0</ele>
        <time>2015-07-25T12:05:06Z</time>
      </trkpt>
      <trkpt lat="40.427100" lon="-5.298833">
        <ele>1884.0</ele>
        <time>2015-07-25T12:05:08Z</time>
      </trkpt>
      <trkpt lat="40.427183" lon="-5.298683">
        <ele>1884.0</ele>
        <time>2015-07-25T12:05:10Z</time>
      </trkpt>
      <trkpt lat="40.427250" lon="-5.298517">
        <ele>1884.0</ele>
        <time>2015-07-25T12:05:12Z</time>
      </trkpt>
      <trkpt lat="40.427317" lon="-5.298350">
        <ele>1882.0</ele>
        <time>2015-07-25T12:05:14Z</time>
      </trkpt>
      <trkpt lat="40.427400" lon="-5.298217">
        <ele>1878.0</ele>
        <time>2015-07-25T12:05:16Z</time>
      </trkpt>
      <trkpt lat="40.427533" lon="-5.298067">
        <ele>1876.0</ele>
        <time>2015-07-25T12:05:18Z</time>
      </trkpt>
      <trkpt lat="40.427650" lon="-5.297917">
        <ele>1881.0</ele>
        <time>2015-07-25T12:05:20Z</time>
      </trkpt>
      <trkpt lat="40.427667" lon="-5.297817">
        <ele>1886.0</ele>
        <time>2015-07-25T12:05:22Z</time>
      </trkpt>
      <trkpt lat="40.427700" lon="-5.297667">
        <ele>1883.0</ele>
        <time>2015-07-25T12:05:24Z</time>
      </trkpt>
      <trkpt lat="40.427850" lon="-5.297600">
        <ele>1878.0</ele>
        <time>2015-07-25T12:05:26Z</time>
      </trkpt>
      <trkpt lat="40.427950" lon="-5.297750">
        <ele>1880.0</ele>
        <time>2015-07-25T12:05:28Z</time>
      </trkpt>
      <trkpt lat="40.427933" lon="-5.297933">
        <ele>1881.0</ele>
        <time>2015-07-25T12:05:30Z</time>
      </trkpt>
      <trkpt lat="40.427917" lon="-5.298167">
        <ele>1879.0</ele>
        <time>2015-07-25T12:05:32Z</time>
      </trkpt>
      <trkpt lat="40.427817" lon="-5.298450">
        <ele>1878.0</ele>
        <time>2015-07-25T12:05:34Z</time>
      </trkpt>
      <trkpt lat="40.427683" lon="-5.298650">
        <ele>1882.0</ele>
        <time>2015-07-25T12:05:36Z</time>
      </trkpt>
      <trkpt lat="40.427550" lon="-5.298783">
        <ele>1882.0</ele>
        <time>2015-07-25T12:05:38Z</time>
      </trkpt>
      <trkpt lat="40.427350" lon="-5.298917">
        <ele>1879.0</ele>
        <time>2015-07-25T12:05:40Z</time>
      </trkpt>
      <trkpt lat="40.427217" lon="-5.299100">
        <ele>1878.0</ele>
        <time>2015-07-25T12:05:42Z</time>
      </trkpt>
      <trkpt lat="40.427100" lon="-5.299267">
        <ele>1875.0</ele>
        <time>2015-07-25T12:05:44Z</time>
      </trkpt>
      <trkpt lat="40.427000" lon="-5.299500">
        <ele>1869.0</ele>
        <time>2015-07-25T12:05:46Z</time>
      </trkpt>
      <trkpt lat="40.426917" lon="-5.299783">
        <ele>1871.0</ele>
        <time>2015-07-25T12:05:48Z</time>
      </trkpt>
      <trkpt lat="40.426833" lon="-5.299967">
        <ele>1876.0</ele>
        <time>2015-07-25T12:05:50Z</time>
      </trkpt>
      <trkpt lat="40.426783" lon="-5.300133">
        <ele>1875.0</ele>
        <time>2015-07-25T12:05:52Z</time>
      </trkpt>
      <trkpt lat="40.426817" lon="-5.300300">
        <ele>1873.0</ele>
        <time>2015-07-25T12:05:54Z</time>
      </trkpt>
      <trkpt lat="40.426950" lon="-5.300283">
        <ele>1868.0</ele>
        <time>2015-07-25T12:05:56Z</time>
      </trkpt>
      <trkpt lat="40.427033" lon="-5.300050">
        <ele>1866.0</ele>
        <time>2015-07-25T12:05:58Z</time>
      </trkpt>
      <trkpt lat="40.427067" lon="-5.299817">
        <ele>1869.0</ele>
        <time>2015-07-25T12:06:00Z</time>
      </trkpt>
      <trkpt lat="40.427117" lon="-5.299583">
        <ele>1870.0</ele>
        <time>2015-07-25T12:06:02Z</time>
      </trkpt>
      <trkpt lat="40.427150" lon="-5.299333">
        <ele>1873.0</ele>
        <time>2015-07-25T12:06:04Z</time>
      </trkpt>
      <trkpt lat="40.427183" lon="-5.299133">
        <ele>1876.0</ele>
        <time>2015-07-25T12:06:06Z</time>
      </trkpt>
      <trkpt lat="40.427250" lon="-5.298967">
        <ele>1875.0</ele>
        <time>2015-07-25T12:06:08Z</time>
      </trkpt>
      <trkpt lat="40.427350" lon="-5.298833">
        <ele>1875.0</ele>
        <time>2015-07-25T12:06:10Z</time>
      </trkpt>
      <trkpt lat="40.427467" lon="-5.298817">
        <ele>1874.0</ele>
        <time>2015-07-25T12:06:12Z</time>
      </trkpt>
      <trkpt lat="40.427517" lon="-5.298983">
        <ele>1870.0</ele>
        <time>2015-07-25T12:06:14Z</time>
      </trkpt>
      <trkpt lat="40.427483" lon="-5.299233">
        <ele>1873.0</ele>
        <time>2015-07-25T12:06:16Z</time>
      </trkpt>
      <trkpt lat="40.427467" lon="-5.299383">
        <ele>1881.0</ele>
        <time>2015-07-25T12:06:18Z</time>
      </trkpt>
      <trkpt lat="40.427533" lon="-5.299467">
        <ele>1883.0</ele>
        <time>2015-07-25T12:06:20Z</time>
      </trkpt>
      <trkpt lat="40.427667" lon="-5.299467">
        <ele>1882.0</ele>
        <time>2015-07-25T12:06:22Z</time>
      </trkpt>
      <trkpt lat="40.427767" lon="-5.299267">
        <ele>1881.0</ele>
        <time>2015-07-25T12:06:24Z</time>
      </trkpt>
      <trkpt lat="40.427767" lon="-5.299033">
        <ele>1883.0</ele>
        <time>2015-07-25T12:06:26Z</time>
      </trkpt>
      <trkpt lat="40.427717" lon="-5.298800">
        <ele>1882.0</ele>
        <time>2015-07-25T12:06:28Z</time>
      </trkpt>
      <trkpt lat="40.427717" lon="-5.298500">
        <ele>1880.0</ele>
        <time>2015-07-25T12:06:30Z</time>
      </trkpt>
      <trkpt lat="40.427767" lon="-5.298250">
        <ele>1883.0</ele>
        <time>2015-07-25T12:06:32Z</time>
      </trkpt>
      <trkpt lat="40.427817" lon="-5.298067">
        <ele>1886.0</ele>
        <time>2015-07-25T12:06:34Z</time>
      </trkpt>
      <trkpt lat="40.427867" lon="-5.297883">
        <ele>1888.0</ele>
        <time>2015-07-25T12:06:36Z</time>
      </trkpt>
      <trkpt lat="40.427917" lon="-5.297667">
        <ele>1892.0</ele>
        <time>2015-07-25T12:06:38Z</time>
      </trkpt>
      <trkpt lat="40.427900" lon="-5.297450">
        <ele>1895.0</ele>
        <time>2015-07-25T12:06:40Z</time>
      </trkpt>
      <trkpt lat="40.427850" lon="-5.297250">
        <ele>1898.0</ele>
        <time>2015-07-25T12:06:42Z</time>
      </trkpt>
      <trkpt lat="40.427817" lon="-5.297067">
        <ele>1898.0</ele>
        <time>2015-07-25T12:06:44Z</time>
      </trkpt>
      <trkpt lat="40.427867" lon="-5.296917">
        <ele>1896.0</ele>
        <time>2015-07-25T12:06:46Z</time>
      </trkpt>
      <trkpt lat="40.427983" lon="-5.296950">
        <ele>1892.0</ele>
        <time>2015-07-25T12:06:48Z</time>
      </trkpt>
      <trkpt lat="40.428017" lon="-5.297183">
        <ele>1890.0</ele>
        <time>2015-07-25T12:06:50Z</time>
      </trkpt>
      <trkpt lat="40.427917" lon="-5.297417">
        <ele>1894.0</ele>
        <time>2015-07-25T12:06:52Z</time>
      </trkpt>
      <trkpt lat="40.427817" lon="-5.297583">
        <ele>1896.0</ele>
        <time>2015-07-25T12:06:54Z</time>
      </trkpt>
      <trkpt lat="40.427667" lon="-5.297783">
        <ele>1897.0</ele>
        <time>2015-07-25T12:06:56Z</time>
      </trkpt>
      <trkpt lat="40.427567" lon="-5.297967">
        <ele>1901.0</ele>
        <time>2015-07-25T12:06:58Z</time>
      </trkpt>
      <trkpt lat="40.427533" lon="-5.298117">
        <ele>1905.0</ele>
        <time>2015-07-25T12:07:00Z</time>
      </trkpt>
      <trkpt lat="40.427583" lon="-5.298250">
        <ele>1904.0</ele>
        <time>2015-07-25T12:07:02Z</time>
      </trkpt>
      <trkpt lat="40.427733" lon="-5.298283">
        <ele>1904.0</ele>
        <time>2015-07-25T12:07:04Z</time>
      </trkpt>
      <trkpt lat="40.427867" lon="-5.298167">
        <ele>1909.0</ele>
        <time>2015-07-25T12:07:06Z</time>
      </trkpt>
      <trkpt lat="40.427900" lon="-5.298033">
        <ele>1913.0</ele>
        <time>2015-07-25T12:07:08Z</time>
      </trkpt>
      <trkpt lat="40.427867" lon="-5.297800">
        <ele>1910.0</ele>
        <time>2015-07-25T12:07:10Z</time>
      </trkpt>
      <trkpt lat="40.427717" lon="-5.297533">
        <ele>1908.0</ele>
        <time>2015-07-25T12:07:12Z</time>
      </trkpt>
      <trkpt lat="40.427583" lon="-5.297317">
        <ele>1910.0</ele>
        <time>2015-07-25T12:07:14Z</time>
      </trkpt>
      <trkpt lat="40.427567" lon="-5.297133">
        <ele>1906.0</ele>
        <time>2015-07-25T12:07:16Z</time>
      </trkpt>
      <trkpt lat="40.427650" lon="-5.297050">
        <ele>1901.0</ele>
        <time>2015-07-25T12:07:18Z</time>
      </trkpt>
      <trkpt lat="40.427750" lon="-5.297200">
        <ele>1895.0</ele>
        <time>2015-07-25T12:07:20Z</time>
      </trkpt>
      <trkpt lat="40.427733" lon="-5.297450">
        <ele>1893.0</ele>
        <time>2015-07-25T12:07:22Z</time>
      </trkpt>
      <trkpt lat="40.427683" lon="-5.297633">
        <ele>1893.0</ele>
        <time>2015-07-25T12:07:24Z</time>
      </trkpt>
      <trkpt lat="40.427650" lon="-5.297850">
        <ele>1889.0</ele>
        <time>2015-07-25T12:07:26Z</time>
      </trkpt>
      <trkpt lat="40.427583" lon="-5.298133">
        <ele>1887.0</ele>
        <time>2015-07-25T12:07:28Z</time>
      </trkpt>
      <trkpt lat="40.427500" lon="-5.298350">
        <ele>1891.0</ele>
        <time>2015-07-25T12:07:30Z</time>
      </trkpt>
      <trkpt lat="40.427450" lon="-5.298533">
        <ele>1894.0</ele>
        <time>2015-07-25T12:07:32Z</time>
      </trkpt>
      <trkpt lat="40.427433" lon="-5.298750">
        <ele>1896.0</ele>
        <time>2015-07-25T12:07:34Z</time>
      </trkpt>
      <trkpt lat="40.427450" lon="-5.298900">
        <ele>1901.0</ele>
        <time>2015-07-25T12:07:36Z</time>
      </trkpt>
      <trkpt lat="40.427533" lon="-5.298950">
        <ele>1903.0</ele>
        <time>2015-07-25T12:07:38Z</time>
      </trkpt>
      <trkpt lat="40.427633" lon="-5.298917">
        <ele>1907.0</ele>
        <time>2015-07-25T12:07:40Z</time>
      </trkpt>
      <trkpt lat="40.427717" lon="-5.298817">
        <ele>1909.0</ele>
        <time>2015-07-25T12:07:42Z</time>
      </trkpt>
      <trkpt lat="40.427817" lon="-5.298700">
        <ele>1915.0</ele>
        <time>2015-07-25T12:07:44Z</time>
      </trkpt>
      <trkpt lat="40.427900" lon="-5.298617">
        <ele>1921.0</ele>
        <time>2015-07-25T12:07:46Z</time>
      </trkpt>
      <trkpt lat="40.428017" lon="-5.298567">
        <ele>1925.0</ele>
        <time>2015-07-25T12:07:48Z</time>
      </trkpt>
      <trkpt lat="40.428117" lon="-5.298700">
        <ele>1925.0</ele>
        <time>2015-07-25T12:07:50Z</time>
      </trkpt>
      <trkpt lat="40.428117" lon="-5.298967">
        <ele>1933.0</ele>
        <time>2015-07-25T12:07:52Z</time>
      </trkpt>
      <trkpt lat="40.428050" lon="-5.299083">
        <ele>1946.0</ele>
        <time>2015-07-25T12:07:54Z</time>
      </trkpt>
      <trkpt lat="40.427933" lon="-5.299167">
        <ele>1949.0</ele>
        <time>2015-07-25T12:07:56Z</time>
      </trkpt>
      <trkpt lat="40.427717" lon="-5.299283">
        <ele>1950.0</ele>
        <time>2015-07-25T12:07:58Z</time>
      </trkpt>
      <trkpt lat="40.427450" lon="-5.299283">
        <ele>1956.0</ele>
        <time>2015-07-25T12:08:00Z</time>
      </trkpt>
      <trkpt lat="40.427250" lon="-5.299167">
        <ele>1963.0</ele>
        <time>2015-07-25T12:08:02Z</time>
      </trkpt>
      <trkpt lat="40.427083" lon="-5.298967">
        <ele>1965.0</ele>
        <time>2015-07-25T12:08:04Z</time>
      </trkpt>
      <trkpt lat="40.427050" lon="-5.298633">
        <ele>1966.0</ele>
        <time>2015-07-25T12:08:06Z</time>
      </trkpt>
      <trkpt lat="40.427133" lon="-5.298400">
        <ele>1973.0</ele>
        <time>2015-07-25T12:08:08Z</time>
      </trkpt>
      <trkpt lat="40.427200" lon="-5.298233">
        <ele>1979.0</ele>
        <time>2015-07-25T12:08:10Z</time>
      </trkpt>
      <trkpt lat="40.427333" lon="-5.298083">
        <ele>1982.0</ele>
        <time>2015-07-25T12:08:12Z</time>
      </trkpt>
      <trkpt lat="40.427500" lon="-5.298050">
        <ele>1989.0</ele>
        <time>2015-07-25T12:08:14Z</time>
      </trkpt>
      <trkpt lat="40.427583" lon="-5.298067">
        <ele>1999.0</ele>
        <time>2015-07-25T12:08:16Z</time>
      </trkpt>
      <trkpt lat="40.427650" lon="-5.298083">
        <ele>2003.0</ele>
        <time>2015-07-25T12:08:18Z</time>
      </trkpt>
      <trkpt lat="40.427750" lon="-5.298233">
        <ele>2007.0</ele>
        <time>2015-07-25T12:08:20Z</time>
      </trkpt>
      <trkpt lat="40.427783" lon="-5.298367">
        <ele>2017.0</ele>
        <time>2015-07-25T12:08:22Z</time>
      </trkpt>
      <trkpt lat="40.427750" lon="-5.298500">
        <ele>2025.0</ele>
        <time>2015-07-25T12:08:24Z</time>
      </trkpt>
      <trkpt lat="40.427667" lon="-5.298700">
        <ele>2029.0</ele>
        <time>2015-07-25T12:08:26Z</time>
      </trkpt>
      <trkpt lat="40.427467" lon="-5.298867">
        <ele>2035.0</ele>
        <time>2015-07-25T12:08:28Z</time>
      </trkpt>
      <trkpt lat="40.427250" lon="-5.298917">
        <ele>2043.0</ele>
        <time>2015-07-25T12:08:30Z</time>
      </trkpt>
      <trkpt lat="40.427050" lon="-5.298850">
        <ele>2047.0</ele>
        <time>2015-07-25T12:08:32Z</time>
      </trkpt>
      <trkpt lat="40.426867" lon="-5.298650">
        <ele>2051.0</ele>
        <time>2015-07-25T12:08:34Z</time>
      </trkpt>
      <trkpt lat="40.426767" lon="-5.298400">
        <ele>2057.0</ele>
        <time>2015-07-25T12:08:36Z</time>
      </trkpt>
      <trkpt lat="40.426767" lon="-5.298150">
        <ele>2063.0</ele>
        <time>2015-07-25T12:08:38Z</time>
      </trkpt>
      <trkpt lat="40.426883" lon="-5.298000">
        <ele>2068.0</ele>
        <time>2015-07-25T12:08:40Z</time>
      </trkpt>
      <trkpt lat="40.426983" lon="-5.297967">
        <ele>2077.0</ele>
        <time>2015-07-25T12:08:42Z</time>
      </trkpt>
      <trkpt lat="40.427067" lon="-5.297983">
        <ele>2085.0</ele>
        <time>2015-07-25T12:08:44Z</time>
      </trkpt>
      <trkpt lat="40.427150" lon="-5.298100">
        <ele>2090.0</ele>
        <time>2015-07-25T12:08:46Z</time>
      </trkpt>
      <trkpt lat="40.427150" lon="-5.298283">
        <ele>2096.0</ele>
        <time>2015-07-25T12:08:48Z</time>
      </trkpt>
      <trkpt lat="40.427100" lon="-5.298467">
        <ele>2101.0</ele>
        <time>2015-07-25T12:08:50Z</time>
      </trkpt>
      <trkpt lat="40.426950" lon="-5.298650">
        <ele>2102.0</ele>
        <time>2015-07-25T12:08:52Z</time>
      </trkpt>
      <trkpt lat="40.426717" lon="-5.298750">
        <ele>2105.0</ele>
        <time>2015-07-25T12:08:54Z</time>
      </trkpt>
      <trkpt lat="40.426517" lon="-5.298700">
        <ele>2110.0</ele>
        <time>2015-07-25T12:08:56Z</time>
      </trkpt>
      <trkpt lat="40.426333" lon="-5.298550">
        <ele>2111.0</ele>
        <time>2015-07-25T12:08:58Z</time>
      </trkpt>
      <trkpt lat="40.426200" lon="-5.298283">
        <ele>2113.0</ele>
        <time>2015-07-25T12:09:00Z</time>
      </trkpt>
      <trkpt lat="40.426167" lon="-5.298017">
        <ele>2119.0</ele>
        <time>2015-07-25T12:09:02Z</time>
      </trkpt>
      <trkpt lat="40.426183" lon="-5.297833">
        <ele>2123.0</ele>
        <time>2015-07-25T12:09:04Z</time>
      </trkpt>
      <trkpt lat="40.426217" lon="-5.297617">
        <ele>2126.0</ele>
        <time>2015-07-25T12:09:06Z</time>
      </trkpt>
      <trkpt lat="40.426283" lon="-5.297450">
        <ele>2129.0</ele>
        <time>2015-07-25T12:09:08Z</time>
      </trkpt>
      <trkpt lat="40.426350" lon="-5.297300">
        <ele>2134.0</ele>
        <time>2015-07-25T12:09:10Z</time>
      </trkpt>
      <trkpt lat="40.426400" lon="-5.297133">
        <ele>2141.0</ele>
        <time>2015-07-25T12:09:12Z</time>
      </trkpt>
      <trkpt lat="40.426450" lon="-5.296967">
        <ele>2145.0</ele>
        <time>2015-07-25T12:09:14Z</time>
      </trkpt>
      <trkpt lat="40.426550" lon="-5.296867">
        <ele>2150.0</ele>
        <time>2015-07-25T12:09:16Z</time>
      </trkpt>
      <trkpt lat="40.426650" lon="-5.296850">
        <ele>2159.0</ele>
        <time>2015-07-25T12:09:18Z</time>
      </trkpt>
      <trkpt lat="40.426700" lon="-5.296900">
        <ele>2168.0</ele>
        <time>2015-07-25T12:09:20Z</time>
      </trkpt>
      <trkpt lat="40.426700" lon="-5.297083">
        <ele>2171.0</ele>
        <time>2015-07-25T12:09:22Z</time>
      </trkpt>
      <trkpt lat="40.426600" lon="-5.297317">
        <ele>2176.0</ele>
        <time>2015-07-25T12:09:24Z</time>
      </trkpt>
      <trkpt lat="40.426433" lon="-5.297450">
        <ele>2186.0</ele>
        <time>2015-07-25T12:09:26Z</time>
      </trkpt>
      <trkpt lat="40.426267" lon="-5.297500">
        <ele>2192.0</ele>
        <time>2015-07-25T12:09:28Z</time>
      </trkpt>
      <trkpt lat="40.426033" lon="-5.297467">
        <ele>2193.0</ele>
        <time>2015-07-25T12:09:30Z</time>
      </trkpt>
      <trkpt lat="40.425833" lon="-5.297233">
        <ele>2197.0</ele>
        <time>2015-07-25T12:09:32Z</time>
      </trkpt>
      <trkpt lat="40.425767" lon="-5.296983">
        <ele>2206.0</ele>
        <time>2015-07-25T12:09:34Z</time>
      </trkpt>
      <trkpt lat="40.425750" lon="-5.296817">
        <ele>2215.0</ele>
        <time>2015-07-25T12:09:36Z</time>
      </trkpt>
      <trkpt lat="40.425800" lon="-5.296700">
        <ele>2218.0</ele>
        <time>2015-07-25T12:09:38Z</time>
      </trkpt>
      <trkpt lat="40.425900" lon="-5.296567">
        <ele>2223.0</ele>
        <time>2015-07-25T12:09:40Z</time>
      </trkpt>
      <trkpt lat="40.426000" lon="-5.296533">
        <ele>2233.0</ele>
        <time>2015-07-25T12:09:42Z</time>
      </trkpt>
      <trkpt lat="40.426067" lon="-5.296583">
        <ele>2241.0</ele>
        <time>2015-07-25T12:09:44Z</time>
      </trkpt>
      <trkpt lat="40.426117" lon="-5.296700">
        <ele>2245.0</ele>
        <time>2015-07-25T12:09:46Z</time>
      </trkpt>
      <trkpt lat="40.426133" lon="-5.296917">
        <ele>2248.0</ele>
        <time>2015-07-25T12:09:48Z</time>
      </trkpt>
      <trkpt lat="40.426083" lon="-5.297133">
        <ele>2254.0</ele>
        <time>2015-07-25T12:09:50Z</time>
      </trkpt>
      <trkpt lat="40.425967" lon="-5.297283">
        <ele>2258.0</ele>
        <time>2015-07-25T12:09:52Z</time>
      </trkpt>
      <trkpt lat="40.425767" lon="-5.297383">
        <ele>2260.0</ele>
        <time>2015-07-25T12:09:54Z</time>
      </trkpt>
      <trkpt lat="40.425533" lon="-5.297333">
        <ele>2261.0</ele>
        <time>2015-07-25T12:09:56Z</time>
      </trkpt>
      <trkpt lat="40.425400" lon="-5.297083">
        <ele>2263.0</ele>
        <time>2015-07-25T12:09:58Z</time>
      </trkpt>
      <trkpt lat="40.425350" lon="-5.296867">
        <ele>2268.0</ele>
        <time>2015-07-25T12:10:00Z</time>
      </trkpt>
      <trkpt lat="40.425367" lon="-5.296683">
        <ele>2270.0</ele>
        <time>2015-07-25T12:10:02Z</time>
      </trkpt>
      <trkpt lat="40.425417" lon="-5.296450">
        <ele>2272.0</ele>
        <time>2015-07-25T12:10:04Z</time>
      </trkpt>
      <trkpt lat="40.425450" lon="-5.296233">
        <ele>2280.0</ele>
        <time>2015-07-25T12:10:06Z</time>
      </trkpt>
      <trkpt lat="40.425500" lon="-5.296117">
        <ele>2290.0</ele>
        <time>2015-07-25T12:10:08Z</time>
      </trkpt>
      <trkpt lat="40.425600" lon="-5.296133">
        <ele>2295.0</ele>
        <time>2015-07-25T12:10:10Z</time>
      </trkpt>
      <trkpt lat="40.425683" lon="-5.296283">
        <ele>2301.0</ele>
        <time>2015-07-25T12:10:12Z</time>
      </trkpt>
      <trkpt lat="40.425650" lon="-5.296467">
        <ele>2306.0</ele>
        <time>2015-07-25T12:10:14Z</time>
      </trkpt>
      <trkpt lat="40.425550" lon="-5.296650">
        <ele>2309.0</ele>
        <time>2015-07-25T12:10:16Z</time>
      </trkpt>
      <trkpt lat="40.425317" lon="-5.296683">
        <ele>2308.0</ele>
        <time>2015-07-25T12:10:18Z</time>
      </trkpt>
      <trkpt lat="40.425083" lon="-5.296500">
        <ele>2310.0</ele>
        <time>2015-07-25T12:10:20Z</time>
      </trkpt>
      <trkpt lat="40.424933" lon="-5.296333">
        <ele>2318.0</ele>
        <time>2015-07-25T12:10:22Z</time>
      </trkpt>
      <trkpt lat="40.424817" lon="-5.296150">
        <ele>2319.0</ele>
        <time>2015-07-25T12:10:24Z</time>
      </trkpt>
      <trkpt lat="40.424750" lon="-5.295850">
        <ele>2319.0</ele>
        <time>2015-07-25T12:10:26Z</time>
      </trkpt>
      <trkpt lat="40.424767" lon="-5.295567">
        <ele>2326.0</ele>
        <time>2015-07-25T12:10:28Z</time>
      </trkpt>
      <trkpt lat="40.424833" lon="-5.295400">
        <ele>2334.0</ele>
        <time>2015-07-25T12:10:30Z</time>
      </trkpt>
      <trkpt lat="40.424950" lon="-5.295333">
        <ele>2340.0</ele>
        <time>2015-07-25T12:10:32Z</time>
      </trkpt>
      <trkpt lat="40.425067" lon="-5.295417">
        <ele>2347.0</ele>
        <time>2015-07-25T12:10:34Z</time>
      </trkpt>
      <trkpt lat="40.425117" lon="-5.295533">
        <ele>2354.0</ele>
        <time>2015-07-25T12:10:36Z</time>
      </trkpt>
      <trkpt lat="40.425217" lon="-5.295667">
        <ele>2358.0</ele>
        <time>2015-07-25T12:10:38Z</time>
      </trkpt>
      <trkpt lat="40.425233" lon="-5.295883">
        <ele>2362.0</ele>
        <time>2015-07-25T12:10:40Z</time>
      </trkpt>
      <trkpt lat="40.425100" lon="-5.296050">
        <ele>2364.0</ele>
        <time>2015-07-25T12:10:42Z</time>
      </trkpt>
      <trkpt lat="40.424900" lon="-5.296150">
        <ele>2363.0</ele>
        <time>2015-07-25T12:10:44Z</time>
      </trkpt>
      <trkpt lat="40.424633" lon="-5.296067">
        <ele>2362.0</ele>
        <time>2015-07-25T12:10:46Z</time>
      </trkpt>
      <trkpt lat="40.424467" lon="-5.295833">
        <ele>2367.0</ele>
        <time>2015-07-25T12:10:48Z</time>
      </trkpt>
      <trkpt lat="40.424333" lon="-5.295650">
        <ele>2375.0</ele>
        <time>2015-07-25T12:10:50Z</time>
      </trkpt>
      <trkpt lat="40.424233" lon="-5.295450">
        <ele>2379.0</ele>
        <time>2015-07-25T12:10:52Z</time>
      </trkpt>
      <trkpt lat="40.424200" lon="-5.295200">
        <ele>2381.0</ele>
        <time>2015-07-25T12:10:54Z</time>
      </trkpt>
      <trkpt lat="40.424267" lon="-5.294983">
        <ele>2386.0</ele>
        <time>2015-07-25T12:10:56Z</time>
      </trkpt>
      <trkpt lat="40.424367" lon="-5.294867">
        <ele>2392.0</ele>
        <time>2015-07-25T12:10:58Z</time>
      </trkpt>
      <trkpt lat="40.424500" lon="-5.294900">
        <ele>2391.0</ele>
        <time>2015-07-25T12:11:00Z</time>
      </trkpt>
      <trkpt lat="40.424683" lon="-5.294983">
        <ele>2393.0</ele>
        <time>2015-07-25T12:11:02Z</time>
      </trkpt>
      <trkpt lat="40.424783" lon="-5.295067">
        <ele>2399.0</ele>
        <time>2015-07-25T12:11:04Z</time>
      </trkpt>
      <trkpt lat="40.424850" lon="-5.295217">
        <ele>2401.0</ele>
        <time>2015-07-25T12:11:06Z</time>
      </trkpt>
      <trkpt lat="40.424850" lon="-5.295483">
        <ele>2403.0</ele>
        <time>2015-07-25T12:11:08Z</time>
      </trkpt>
      <trkpt lat="40.424783" lon="-5.295683">
        <ele>2409.0</ele>
        <time>2015-07-25T12:11:10Z</time>
      </trkpt>
      <trkpt lat="40.424683" lon="-5.295850">
        <ele>2410.0</ele>
        <time>2015-07-25T12:11:12Z</time>
      </trkpt>
      <trkpt lat="40.424483" lon="-5.296033">
        <ele>2409.0</ele>
        <time>2015-07-25T12:11:14Z</time>
      </trkpt>
      <trkpt lat="40.424217" lon="-5.296083">
        <ele>2408.0</ele>
        <time>2015-07-25T12:11:16Z</time>
      </trkpt>
      <trkpt lat="40.423983" lon="-5.295950">
        <ele>2411.0</ele>
        <time>2015-07-25T12:11:18Z</time>
      </trkpt>
      <trkpt lat="40.423817" lon="-5.295750">
        <ele>2411.0</ele>
        <time>2015-07-25T12:11:20Z</time>
      </trkpt>
      <trkpt lat="40.423700" lon="-5.295500">
        <ele>2408.0</ele>
        <time>2015-07-25T12:11:22Z</time>
      </trkpt>
      <trkpt lat="40.423717" lon="-5.295217">
        <ele>2410.0</ele>
        <time>2015-07-25T12:11:24Z</time>
      </trkpt>
      <trkpt lat="40.423733" lon="-5.295033">
        <ele>2418.0</ele>
        <time>2015-07-25T12:11:26Z</time>
      </trkpt>
      <trkpt lat="40.423717" lon="-5.294883">
        <ele>2421.0</ele>
        <time>2015-07-25T12:11:28Z</time>
      </trkpt>
      <trkpt lat="40.423783" lon="-5.294750">
        <ele>2418.0</ele>
        <time>2015-07-25T12:11:30Z</time>
      </trkpt>
      <trkpt lat="40.423900" lon="-5.294617">
        <ele>2416.0</ele>
        <time>2015-07-25T12:11:32Z</time>
      </trkpt>
      <trkpt lat="40.424050" lon="-5.294567">
        <ele>2416.0</ele>
        <time>2015-07-25T12:11:34Z</time>
      </trkpt>
      <trkpt lat="40.424200" lon="-5.294583">
        <ele>2415.0</ele>
        <time>2015-07-25T12:11:36Z</time>
      </trkpt>
      <trkpt lat="40.424333" lon="-5.294650">
        <ele>2415.0</ele>
        <time>2015-07-25T12:11:38Z</time>
      </trkpt>
      <trkpt lat="40.424417" lon="-5.294800">
        <ele>2416.0</ele>
        <time>2015-07-25T12:11:40Z</time>
      </trkpt>
      <trkpt lat="40.424517" lon="-5.294933">
        <ele>2417.0</ele>
        <time>2015-07-25T12:11:42Z</time>
      </trkpt>
      <trkpt lat="40.424617" lon="-5.295050">
        <ele>2421.0</ele>
        <time>2015-07-25T12:11:44Z</time>
      </trkpt>
      <trkpt lat="40.424700" lon="-5.295117">
        <ele>2423.0</ele>
        <time>2015-07-25T12:11:46Z</time>
      </trkpt>
      <trkpt lat="40.424783" lon="-5.295233">
        <ele>2423.0</ele>
        <time>2015-07-25T12:11:48Z</time>
      </trkpt>
      <trkpt lat="40.424850" lon="-5.295383">
        <ele>2424.0</ele>
        <time>2015-07-25T12:11:50Z</time>
      </trkpt>
      <trkpt lat="40.424917" lon="-5.295500">
        <ele>2426.0</ele>
        <time>2015-07-25T12:11:52Z</time>
      </trkpt>
      <trkpt lat="40.425017" lon="-5.295567">
        <ele>2429.0</ele>
        <time>2015-07-25T12:11:54Z</time>
      </trkpt>
      <trkpt lat="40.425133" lon="-5.295550">
        <ele>2430.0</ele>
        <time>2015-07-25T12:11:56Z</time>
      </trkpt>
      <trkpt lat="40.425233" lon="-5.295483">
        <ele>2432.0</ele>
        <time>2015-07-25T12:11:58Z</time>
      </trkpt>
      <trkpt lat="40.425333" lon="-5.295350">
        <ele>2433.0</ele>
        <time>2015-07-25T12:12:00Z</time>
      </trkpt>
      <trkpt lat="40.425433" lon="-5.295217">
        <ele>2434.0</ele>
        <time>2015-07-25T12:12:02Z</time>
      </trkpt>
      <trkpt lat="40.425550" lon="-5.295117">
        <ele>2432.0</ele>
        <time>2015-07-25T12:12:04Z</time>
      </trkpt>
      <trkpt lat="40.425700" lon="-5.295000">
        <ele>2431.0</ele>
        <time>2015-07-25T12:12:06Z</time>
      </trkpt>
      <trkpt lat="40.425833" lon="-5.294883">
        <ele>2433.0</ele>
        <time>2015-07-25T12:12:08Z</time>
      </trkpt>
      <trkpt lat="40.425950" lon="-5.294800">
        <ele>2433.0</ele>
        <time>2015-07-25T12:12:10Z</time>
      </trkpt>
      <trkpt lat="40.426100" lon="-5.294733">
        <ele>2430.0</ele>
        <time>2015-07-25T12:12:12Z</time>
      </trkpt>
      <trkpt lat="40.426250" lon="-5.294633">
        <ele>2428.0</ele>
        <time>2015-07-25T12:12:14Z</time>
      </trkpt>
      <trkpt lat="40.426400" lon="-5.294550">
        <ele>2427.0</ele>
        <time>2015-07-25T12:12:16Z</time>
      </trkpt>
      <trkpt lat="40.426567" lon="-5.294483">
        <ele>2426.0</ele>
        <time>2015-07-25T12:12:18Z</time>
      </trkpt>
      <trkpt lat="40.426767" lon="-5.294450">
        <ele>2424.0</ele>
        <time>2015-07-25T12:12:20Z</time>
      </trkpt>
      <trkpt lat="40.426950" lon="-5.294483">
        <ele>2421.0</ele>
        <time>2015-07-25T12:12:22Z</time>
      </trkpt>
      <trkpt lat="40.427150" lon="-5.294517">
        <ele>2416.0</ele>
        <time>2015-07-25T12:12:24Z</time>
      </trkpt>
      <trkpt lat="40.427367" lon="-5.294517">
        <ele>2411.0</ele>
        <time>2015-07-25T12:12:26Z</time>
      </trkpt>
      <trkpt lat="40.427567" lon="-5.294500">
        <ele>2410.0</ele>
        <time>2015-07-25T12:12:28Z</time>
      </trkpt>
      <trkpt lat="40.427750" lon="-5.294467">
        <ele>2408.0</ele>
        <time>2015-07-25T12:12:30Z</time>
      </trkpt>
      <trkpt lat="40.427933" lon="-5.294417">
        <ele>2403.0</ele>
        <time>2015-07-25T12:12:32Z</time>
      </trkpt>
      <trkpt lat="40.428133" lon="-5.294350">
        <ele>2400.0</ele>
        <time>2015-07-25T12:12:34Z</time>
      </trkpt>
      <trkpt lat="40.428300" lon="-5.294317">
        <ele>2400.0</ele>
        <time>2015-07-25T12:12:36Z</time>
      </trkpt>
      <trkpt lat="40.428467" lon="-5.294317">
        <ele>2396.0</ele>
        <time>2015-07-25T12:12:38Z</time>
      </trkpt>
      <trkpt lat="40.428667" lon="-5.294267">
        <ele>2390.0</ele>
        <time>2015-07-25T12:12:40Z</time>
      </trkpt>
      <trkpt lat="40.428850" lon="-5.294167">
        <ele>2388.0</ele>
        <time>2015-07-25T12:12:42Z</time>
      </trkpt>
      <trkpt lat="40.429017" lon="-5.294067">
        <ele>2388.0</ele>
        <time>2015-07-25T12:12:44Z</time>
      </trkpt>
      <trkpt lat="40.429167" lon="-5.293983">
        <ele>2384.0</ele>
        <time>2015-07-25T12:12:46Z</time>
      </trkpt>
      <trkpt lat="40.429367" lon="-5.293867">
        <ele>2378.0</ele>
        <time>2015-07-25T12:12:48Z</time>
      </trkpt>
      <trkpt lat="40.429533" lon="-5.293767">
        <ele>2378.0</ele>
        <time>2015-07-25T12:12:50Z</time>
      </trkpt>
      <trkpt lat="40.429683" lon="-5.293683">
        <ele>2376.0</ele>
        <time>2015-07-25T12:12:52Z</time>
      </trkpt>
      <trkpt lat="40.429850" lon="-5.293550">
        <ele>2372.0</ele>
        <time>2015-07-25T12:12:54Z</time>
      </trkpt>
      <trkpt lat="40.430017" lon="-5.293433">
        <ele>2371.0</ele>
        <time>2015-07-25T12:12:56Z</time>
      </trkpt>
      <trkpt lat="40.430150" lon="-5.293350">
        <ele>2369.0</ele>
        <time>2015-07-25T12:12:58Z</time>
      </trkpt>
      <trkpt lat="40.430300" lon="-5.293250">
        <ele>2365.0</ele>
        <time>2015-07-25T12:13:00Z</time>
      </trkpt>
      <trkpt lat="40.430467" lon="-5.293150">
        <ele>2362.0</ele>
        <time>2015-07-25T12:13:02Z</time>
      </trkpt>
      <trkpt lat="40.430633" lon="-5.293033">
        <ele>2360.0</ele>
        <time>2015-07-25T12:13:04Z</time>
      </trkpt>
      <trkpt lat="40.430767" lon="-5.292917">
        <ele>2358.0</ele>
        <time>2015-07-25T12:13:06Z</time>
      </trkpt>
      <trkpt lat="40.430917" lon="-5.292817">
        <ele>2353.0</ele>
        <time>2015-07-25T12:13:08Z</time>
      </trkpt>
      <trkpt lat="40.431083" lon="-5.292700">
        <ele>2349.0</ele>
        <time>2015-07-25T12:13:10Z</time>
      </trkpt>
      <trkpt lat="40.431233" lon="-5.292633">
        <ele>2347.0</ele>
        <time>2015-07-25T12:13:12Z</time>
      </trkpt>
      <trkpt lat="40.431367" lon="-5.292550">
        <ele>2342.0</ele>
        <time>2015-07-25T12:13:14Z</time>
      </trkpt>
      <trkpt lat="40.431550" lon="-5.292450">
        <ele>2337.0</ele>
        <time>2015-07-25T12:13:16Z</time>
      </trkpt>
      <trkpt lat="40.431700" lon="-5.292367">
        <ele>2337.0</ele>
        <time>2015-07-25T12:13:18Z</time>
      </trkpt>
      <trkpt lat="40.431833" lon="-5.292283">
        <ele>2334.0</ele>
        <time>2015-07-25T12:13:20Z</time>
      </trkpt>
      <trkpt lat="40.431983" lon="-5.292200">
        <ele>2329.0</ele>
        <time>2015-07-25T12:13:22Z</time>
      </trkpt>
      <trkpt lat="40.432150" lon="-5.292133">
        <ele>2326.0</ele>
        <time>2015-07-25T12:13:24Z</time>
      </trkpt>
      <trkpt lat="40.432317" lon="-5.292083">
        <ele>2322.0</ele>
        <time>2015-07-25T12:13:26Z</time>
      </trkpt>
      <trkpt lat="40.432500" lon="-5.292033">
        <ele>2317.0</ele>
        <time>2015-07-25T12:13:28Z</time>
      </trkpt>
      <trkpt lat="40.432667" lon="-5.291950">
        <ele>2316.0</ele>
        <time>2015-07-25T12:13:30Z</time>
      </trkpt>
      <trkpt lat="40.432817" lon="-5.291883">
        <ele>2314.0</ele>
        <time>2015-07-25T12:13:32Z</time>
      </trkpt>
      <trkpt lat="40.432967" lon="-5.291750">
        <ele>2312.0</ele>
        <time>2015-07-25T12:13:34Z</time>
      </trkpt>
      <trkpt lat="40.433083" lon="-5.291617">
        <ele>2312.0</ele>
        <time>2015-07-25T12:13:36Z</time>
      </trkpt>
      <trkpt lat="40.433200" lon="-5.291500">
        <ele>2310.0</ele>
        <time>2015-07-25T12:13:38Z</time>
      </trkpt>
      <trkpt lat="40.433317" lon="-5.291350">
        <ele>2304.0</ele>
        <time>2015-07-25T12:13:40Z</time>
      </trkpt>
      <trkpt lat="40.433467" lon="-5.291167">
        <ele>2302.0</ele>
        <time>2015-07-25T12:13:42Z</time>
      </trkpt>
      <trkpt lat="40.433567" lon="-5.291017">
        <ele>2303.0</ele>
        <time>2015-07-25T12:13:44Z</time>
      </trkpt>
      <trkpt lat="40.433650" lon="-5.290917">
        <ele>2299.0</ele>
        <time>2015-07-25T12:13:46Z</time>
      </trkpt>
      <trkpt lat="40.433750" lon="-5.290767">
        <ele>2289.0</ele>
        <time>2015-07-25T12:13:48Z</time>
      </trkpt>
      <trkpt lat="40.433900" lon="-5.290583">
        <ele>2285.0</ele>
        <time>2015-07-25T12:13:50Z</time>
      </trkpt>
      <trkpt lat="40.434050" lon="-5.290483">
        <ele>2285.0</ele>
        <time>2015-07-25T12:13:52Z</time>
      </trkpt>
      <trkpt lat="40.434167" lon="-5.290383">
        <ele>2286.0</ele>
        <time>2015-07-25T12:13:54Z</time>
      </trkpt>
      <trkpt lat="40.434250" lon="-5.290250">
        <ele>2286.0</ele>
        <time>2015-07-25T12:13:56Z</time>
      </trkpt>
      <trkpt lat="40.434333" lon="-5.290083">
        <ele>2284.0</ele>
        <time>2015-07-25T12:13:58Z</time>
      </trkpt>
      <trkpt lat="40.434450" lon="-5.289917">
        <ele>2280.0</ele>
        <time>2015-07-25T12:14:00Z</time>
      </trkpt>
      <trkpt lat="40.434583" lon="-5.289817">
        <ele>2278.0</ele>
        <time>2015-07-25T12:14:02Z</time>
      </trkpt>
      <trkpt lat="40.434700" lon="-5.289700">
        <ele>2275.0</ele>
        <time>2015-07-25T12:14:04Z</time>
      </trkpt>
      <trkpt lat="40.434833" lon="-5.289600">
        <ele>2272.0</ele>
        <time>2015-07-25T12:14:06Z</time>
      </trkpt>
      <trkpt lat="40.434967" lon="-5.289483">
        <ele>2268.0</ele>
        <time>2015-07-25T12:14:08Z</time>
      </trkpt>
      <trkpt lat="40.435083" lon="-5.289350">
        <ele>2264.0</ele>
        <time>2015-07-25T12:14:10Z</time>
      </trkpt>
      <trkpt lat="40.435217" lon="-5.289250">
        <ele>2259.0</ele>
        <time>2015-07-25T12:14:12Z</time>
      </trkpt>
      <trkpt lat="40.435350" lon="-5.289117">
        <ele>2256.0</ele>
        <time>2015-07-25T12:14:14Z</time>
      </trkpt>
      <trkpt lat="40.435467" lon="-5.288933">
        <ele>2255.0</ele>
        <time>2015-07-25T12:14:16Z</time>
      </trkpt>
      <trkpt lat="40.435567" lon="-5.288800">
        <ele>2252.0</ele>
        <time>2015-07-25T12:14:18Z</time>
      </trkpt>
      <trkpt lat="40.435683" lon="-5.288650">
        <ele>2244.0</ele>
        <time>2015-07-25T12:14:20Z</time>
      </trkpt>
      <trkpt lat="40.435833" lon="-5.288467">
        <ele>2239.0</ele>
        <time>2015-07-25T12:14:22Z</time>
      </trkpt>
      <trkpt lat="40.435933" lon="-5.288317">
        <ele>2237.0</ele>
        <time>2015-07-25T12:14:24Z</time>
      </trkpt>
      <trkpt lat="40.436067" lon="-5.288167">
        <ele>2231.0</ele>
        <time>2015-07-25T12:14:26Z</time>
      </trkpt>
      <trkpt lat="40.436200" lon="-5.287967">
        <ele>2227.0</ele>
        <time>2015-07-25T12:14:28Z</time>
      </trkpt>
      <trkpt lat="40.436283" lon="-5.287767">
        <ele>2226.0</ele>
        <time>2015-07-25T12:14:30Z</time>
      </trkpt>
      <trkpt lat="40.436350" lon="-5.287600">
        <ele>2221.0</ele>
        <time>2015-07-25T12:14:32Z</time>
      </trkpt>
      <trkpt lat="40.436450" lon="-5.287350">
        <ele>2213.0</ele>
        <time>2015-07-25T12:14:34Z</time>
      </trkpt>
      <trkpt lat="40.436533" lon="-5.287100">
        <ele>2215.0</ele>
        <time>2015-07-25T12:14:36Z</time>
      </trkpt>
      <trkpt lat="40.436550" lon="-5.286867">
        <ele>2215.0</ele>
        <time>2015-07-25T12:14:38Z</time>
      </trkpt>
      <trkpt lat="40.436600" lon="-5.286617">
        <ele>2210.0</ele>
        <time>2015-07-25T12:14:40Z</time>
      </trkpt>
      <trkpt lat="40.436683" lon="-5.286383">
        <ele>2206.0</ele>
        <time>2015-07-25T12:14:42Z</time>
      </trkpt>
      <trkpt lat="40.436800" lon="-5.286200">
        <ele>2204.0</ele>
        <time>2015-07-25T12:14:44Z</time>
      </trkpt>
      <trkpt lat="40.436883" lon="-5.286033">
        <ele>2200.0</ele>
        <time>2015-07-25T12:14:46Z</time>
      </trkpt>
      <trkpt lat="40.437000" lon="-5.285867">
        <ele>2192.0</ele>
        <time>2015-07-25T12:14:48Z</time>
      </trkpt>
      <trkpt lat="40.437133" lon="-5.285733">
        <ele>2186.0</ele>
        <time>2015-07-25T12:14:50Z</time>
      </trkpt>
      <trkpt lat="40.437250" lon="-5.285617">
        <ele>2180.0</ele>
        <time>2015-07-25T12:14:52Z</time>
      </trkpt>
      <trkpt lat="40.437383" lon="-5.285550">
        <ele>2170.0</ele>
        <time>2015-07-25T12:14:54Z</time>
      </trkpt>
      <trkpt lat="40.437567" lon="-5.285433">
        <ele>2161.0</ele>
        <time>2015-07-25T12:14:56Z</time>
      </trkpt>
      <trkpt lat="40.437700" lon="-5.285317">
        <ele>2160.0</ele>
        <time>2015-07-25T12:14:58Z</time>
      </trkpt>
      <trkpt lat="40.437800" lon="-5.285217">
        <ele>2158.0</ele>
        <time>2015-07-25T12:15:00Z</time>
      </trkpt>
      <trkpt lat="40.437917" lon="-5.285083">
        <ele>2152.0</ele>
        <time>2015-07-25T12:15:02Z</time>
      </trkpt>
      <trkpt lat="40.438067" lon="-5.284950">
        <ele>2150.0</ele>
        <time>2015-07-25T12:15:04Z</time>
      </trkpt>
      <trkpt lat="40.438167" lon="-5.284817">
        <ele>2148.0</ele>
        <time>2015-07-25T12:15:06Z</time>
      </trkpt>
      <trkpt lat="40.438283" lon="-5.284650">
        <ele>2144.0</ele>
        <time>2015-07-25T12:15:08Z</time>
      </trkpt>
      <trkpt lat="40.438433" lon="-5.284467">
        <ele>2143.0</ele>
        <time>2015-07-25T12:15:10Z</time>
      </trkpt>
      <trkpt lat="40.438550" lon="-5.284300">
        <ele>2142.0</ele>
        <time>2015-07-25T12:15:12Z</time>
      </trkpt>
      <trkpt lat="40.438700" lon="-5.284167">
        <ele>2138.0</ele>
        <time>2015-07-25T12:15:14Z</time>
      </trkpt>
      <trkpt lat="40.438867" lon="-5.284033">
        <ele>2133.0</ele>
        <time>2015-07-25T12:15:16Z</time>
      </trkpt>
      <trkpt lat="40.439017" lon="-5.283883">
        <ele>2131.0</ele>
        <time>2015-07-25T12:15:18Z</time>
      </trkpt>
      <trkpt lat="40.439150" lon="-5.283767">
        <ele>2130.0</ele>
        <time>2015-07-25T12:15:20Z</time>
      </trkpt>
      <trkpt lat="40.439300" lon="-5.283633">
        <ele>2127.0</ele>
        <time>2015-07-25T12:15:22Z</time>
      </trkpt>
      <trkpt lat="40.439433" lon="-5.283500">
        <ele>2125.0</ele>
        <time>2015-07-25T12:15:24Z</time>
      </trkpt>
      <trkpt lat="40.439550" lon="-5.283367">
        <ele>2122.0</ele>
        <time>2015-07-25T12:15:26Z</time>
      </trkpt>
      <trkpt lat="40.439683" lon="-5.283233">
        <ele>2120.0</ele>
        <time>2015-07-25T12:15:28Z</time>
      </trkpt>
      <trkpt lat="40.439817" lon="-5.283117">
        <ele>2118.0</ele>
        <time>2015-07-25T12:15:30Z</time>
      </trkpt>
      <trkpt lat="40.439950" lon="-5.283000">
        <ele>2115.0</ele>
        <time>2015-07-25T12:15:32Z</time>
      </trkpt>
      <trkpt lat="40.440100" lon="-5.282850">
        <ele>2112.0</ele>
        <time>2015-07-25T12:15:34Z</time>
      </trkpt>
      <trkpt lat="40.440233" lon="-5.282717">
        <ele>2110.0</ele>
        <time>2015-07-25T12:15:36Z</time>
      </trkpt>
      <trkpt lat="40.440383" lon="-5.282567">
        <ele>2106.0</ele>
        <time>2015-07-25T12:15:38Z</time>
      </trkpt>
      <trkpt lat="40.440517" lon="-5.282433">
        <ele>2105.0</ele>
        <time>2015-07-25T12:15:40Z</time>
      </trkpt>
      <trkpt lat="40.440667" lon="-5.282317">
        <ele>2104.0</ele>
        <time>2015-07-25T12:15:42Z</time>
      </trkpt>
      <trkpt lat="40.440800" lon="-5.282200">
        <ele>2104.0</ele>
        <time>2015-07-25T12:15:44Z</time>
      </trkpt>
      <trkpt lat="40.440900" lon="-5.282067">
        <ele>2103.0</ele>
        <time>2015-07-25T12:15:46Z</time>
      </trkpt>
      <trkpt lat="40.441017" lon="-5.281967">
        <ele>2098.0</ele>
        <time>2015-07-25T12:15:48Z</time>
      </trkpt>
      <trkpt lat="40.441133" lon="-5.281867">
        <ele>2095.0</ele>
        <time>2015-07-25T12:15:50Z</time>
      </trkpt>
      <trkpt lat="40.441250" lon="-5.281767">
        <ele>2090.0</ele>
        <time>2015-07-25T12:15:52Z</time>
      </trkpt>
      <trkpt lat="40.441383" lon="-5.281650">
        <ele>2085.0</ele>
        <time>2015-07-25T12:15:54Z</time>
      </trkpt>
      <trkpt lat="40.441517" lon="-5.281550">
        <ele>2083.0</ele>
        <time>2015-07-25T12:15:56Z</time>
      </trkpt>
      <trkpt lat="40.441633" lon="-5.281450">
        <ele>2082.0</ele>
        <time>2015-07-25T12:15:58Z</time>
      </trkpt>
      <trkpt lat="40.441767" lon="-5.281350">
        <ele>2079.0</ele>
        <time>2015-07-25T12:16:00Z</time>
      </trkpt>
      <trkpt lat="40.441900" lon="-5.281250">
        <ele>2078.0</ele>
        <time>2015-07-25T12:16:02Z</time>
      </trkpt>
      <trkpt lat="40.442017" lon="-5.281133">
        <ele>2079.0</ele>
        <time>2015-07-25T12:16:04Z</time>
      </trkpt>
      <trkpt lat="40.442167" lon="-5.281050">
        <ele>2081.0</ele>
        <time>2015-07-25T12:16:06Z</time>
      </trkpt>
      <trkpt lat="40.442267" lon="-5.280950">
        <ele>2085.0</ele>
        <time>2015-07-25T12:16:08Z</time>
      </trkpt>
      <trkpt lat="40.442317" lon="-5.280850">
        <ele>2086.0</ele>
        <time>2015-07-25T12:16:10Z</time>
      </trkpt>
      <trkpt lat="40.442417" lon="-5.280733">
        <ele>2081.0</ele>
        <time>2015-07-25T12:16:12Z</time>
      </trkpt>
      <trkpt lat="40.442517" lon="-5.280567">
        <ele>2079.0</ele>
        <time>2015-07-25T12:16:14Z</time>
      </trkpt>
      <trkpt lat="40.442617" lon="-5.280450">
        <ele>2079.0</ele>
        <time>2015-07-25T12:16:16Z</time>
      </trkpt>
      <trkpt lat="40.442717" lon="-5.280350">
        <ele>2077.0</ele>
        <time>2015-07-25T12:16:18Z</time>
      </trkpt>
      <trkpt lat="40.442833" lon="-5.280233">
        <ele>2074.0</ele>
        <time>2015-07-25T12:16:20Z</time>
      </trkpt>
      <trkpt lat="40.442950" lon="-5.280133">
        <ele>2072.0</ele>
        <time>2015-07-25T12:16:22Z</time>
      </trkpt>
      <trkpt lat="40.443050" lon="-5.280017">
        <ele>2071.0</ele>
        <time>2015-07-25T12:16:24Z</time>
      </trkpt>
      <trkpt lat="40.443150" lon="-5.279883">
        <ele>2069.0</ele>
        <time>2015-07-25T12:16:26Z</time>
      </trkpt>
      <trkpt lat="40.443233" lon="-5.279750">
        <ele>2066.0</ele>
        <time>2015-07-25T12:16:28Z</time>
      </trkpt>
      <trkpt lat="40.443333" lon="-5.279600">
        <ele>2062.0</ele>
        <time>2015-07-25T12:16:30Z</time>
      </trkpt>
      <trkpt lat="40.443433" lon="-5.279450">
        <ele>2059.0</ele>
        <time>2015-07-25T12:16:32Z</time>
      </trkpt>
      <trkpt lat="40.443567" lon="-5.279317">
        <ele>2056.0</ele>
        <time>2015-07-25T12:16:34Z</time>
      </trkpt>
      <trkpt lat="40.443667" lon="-5.279183">
        <ele>2054.0</ele>
        <time>2015-07-25T12:16:36Z</time>
      </trkpt>
      <trkpt lat="40.443733" lon="-5.279033">
        <ele>2052.0</ele>
        <time>2015-07-25T12:16:38Z</time>
      </trkpt>
      <trkpt lat="40.443833" lon="-5.278850">
        <ele>2052.0</ele>
        <time>2015-07-25T12:16:40Z</time>
      </trkpt>
      <trkpt lat="40.443900" lon="-5.278683">
        <ele>2056.0</ele>
        <time>2015-07-25T12:16:42Z</time>
      </trkpt>
      <trkpt lat="40.443983" lon="-5.278567">
        <ele>2056.0</ele>
        <time>2015-07-25T12:16:44Z</time>
      </trkpt>
      <trkpt lat="40.444083" lon="-5.278417">
        <ele>2052.0</ele>
        <time>2015-07-25T12:16:46Z</time>
      </trkpt>
      <trkpt lat="40.444200" lon="-5.278267">
        <ele>2052.0</ele>
        <time>2015-07-25T12:16:48Z</time>
      </trkpt>
      <trkpt lat="40.444267" lon="-5.278167">
        <ele>2052.0</ele>
        <time>2015-07-25T12:16:50Z</time>
      </trkpt>
      <trkpt lat="40.444350" lon="-5.278067">
        <ele>2048.0</ele>
        <time>2015-07-25T12:16:52Z</time>
      </trkpt>
      <trkpt lat="40.444450" lon="-5.277933">
        <ele>2043.0</ele>
        <time>2015-07-25T12:16:54Z</time>
      </trkpt>
      <trkpt lat="40.444567" lon="-5.277817">
        <ele>2041.0</ele>
        <time>2015-07-25T12:16:56Z</time>
      </trkpt>
      <trkpt lat="40.444667" lon="-5.277733">
        <ele>2039.0</ele>
        <time>2015-07-25T12:16:58Z</time>
      </trkpt>
      <trkpt lat="40.444767" lon="-5.277650">
        <ele>2034.0</ele>
        <time>2015-07-25T12:17:00Z</time>
      </trkpt>
      <trkpt lat="40.444883" lon="-5.277517">
        <ele>2029.0</ele>
        <time>2015-07-25T12:17:02Z</time>
      </trkpt>
      <trkpt lat="40.445017" lon="-5.277400">
        <ele>2025.0</ele>
        <time>2015-07-25T12:17:04Z</time>
      </trkpt>
      <trkpt lat="40.445117" lon="-5.277267">
        <ele>2022.0</ele>
        <time>2015-07-25T12:17:06Z</time>
      </trkpt>
      <trkpt lat="40.445233" lon="-5.277117">
        <ele>2017.0</ele>
        <time>2015-07-25T12:17:08Z</time>
      </trkpt>
      <trkpt lat="40.445350" lon="-5.276983">
        <ele>2012.0</ele>
        <time>2015-07-25T12:17:10Z</time>
      </trkpt>
      <trkpt lat="40.445483" lon="-5.276850">
        <ele>2008.0</ele>
        <time>2015-07-25T12:17:12Z</time>
      </trkpt>
      <trkpt lat="40.445617" lon="-5.276700">
        <ele>2004.0</ele>
        <time>2015-07-25T12:17:14Z</time>
      </trkpt>
      <trkpt lat="40.445767" lon="-5.276583">
        <ele>1999.0</ele>
        <time>2015-07-25T12:17:16Z</time>
      </trkpt>
      <trkpt lat="40.445933" lon="-5.276450">
        <ele>1997.0</ele>
        <time>2015-07-25T12:17:18Z</time>
      </trkpt>
      <trkpt lat="40.446100" lon="-5.276333">
        <ele>1996.0</ele>
        <time>2015-07-25T12:17:20Z</time>
      </trkpt>
      <trkpt lat="40.446250" lon="-5.276200">
        <ele>1994.0</ele>
        <time>2015-07-25T12:17:22Z</time>
      </trkpt>
      <trkpt lat="40.446383" lon="-5.276017">
        <ele>1994.0</ele>
        <time>2015-07-25T12:17:24Z</time>
      </trkpt>
      <trkpt lat="40.446500" lon="-5.275867">
        <ele>1996.0</ele>
        <time>2015-07-25T12:17:26Z</time>
      </trkpt>
      <trkpt lat="40.446600" lon="-5.275700">
        <ele>1993.0</ele>
        <time>2015-07-25T12:17:28Z</time>
      </trkpt>
      <trkpt lat="40.446767" lon="-5.275467">
        <ele>1991.0</ele>
        <time>2015-07-25T12:17:30Z</time>
      </trkpt>
      <trkpt lat="40.446883" lon="-5.275283">
        <ele>1996.0</ele>
        <time>2015-07-25T12:17:32Z</time>
      </trkpt>
      <trkpt lat="40.446933" lon="-5.275083">
        <ele>1996.0</ele>
        <time>2015-07-25T12:17:34Z</time>
      </trkpt>
      <trkpt lat="40.446950" lon="-5.274850">
        <ele>1996.0</ele>
        <time>2015-07-25T12:17:36Z</time>
      </trkpt>
      <trkpt lat="40.446950" lon="-5.274600">
        <ele>1992.0</ele>
        <time>2015-07-25T12:17:38Z</time>
      </trkpt>
      <trkpt lat="40.447017" lon="-5.274367">
        <ele>1986.0</ele>
        <time>2015-07-25T12:17:40Z</time>
      </trkpt>
      <trkpt lat="40.447167" lon="-5.274183">
        <ele>1983.0</ele>
        <time>2015-07-25T12:17:42Z</time>
      </trkpt>
      <trkpt lat="40.447300" lon="-5.274050">
        <ele>1983.0</ele>
        <time>2015-07-25T12:17:44Z</time>
      </trkpt>
      <trkpt lat="40.447433" lon="-5.274000">
        <ele>1978.0</ele>
        <time>2015-07-25T12:17:46Z</time>
      </trkpt>
      <trkpt lat="40.447617" lon="-5.274033">
        <ele>1976.0</ele>
        <time>2015-07-25T12:17:48Z</time>
      </trkpt>
      <trkpt lat="40.447767" lon="-5.274067">
        <ele>1981.0</ele>
        <time>2015-07-25T12:17:50Z</time>
      </trkpt>
      <trkpt lat="40.447883" lon="-5.274100">
        <ele>1983.0</ele>
        <time>2015-07-25T12:17:52Z</time>
      </trkpt>
      <trkpt lat="40.447967" lon="-5.274233">
        <ele>1981.0</ele>
        <time>2015-07-25T12:17:54Z</time>
      </trkpt>
      <trkpt lat="40.448000" lon="-5.274417">
        <ele>1980.0</ele>
        <time>2015-07-25T12:17:56Z</time>
      </trkpt>
      <trkpt lat="40.448067" lon="-5.274550">
        <ele>1976.0</ele>
        <time>2015-07-25T12:17:58Z</time>
      </trkpt>
      <trkpt lat="40.448200" lon="-5.274650">
        <ele>1971.0</ele>
        <time>2015-07-25T12:18:00Z</time>
      </trkpt>
      <trkpt lat="40.448367" lon="-5.274667">
        <ele>1970.0</ele>
        <time>2015-07-25T12:18:02Z</time>
      </trkpt>
      <trkpt lat="40.448517" lon="-5.274617">
        <ele>1974.0</ele>
        <time>2015-07-25T12:18:04Z</time>
      </trkpt>
      <trkpt lat="40.448650" lon="-5.274600">
        <ele>1977.0</ele>
        <time>2015-07-25T12:18:06Z</time>
      </trkpt>
      <trkpt lat="40.448817" lon="-5.274617">
        <ele>1979.0</ele>
        <time>2015-07-25T12:18:08Z</time>
      </trkpt>
      <trkpt lat="40.448967" lon="-5.274700">
        <ele>1987.0</ele>
        <time>2015-07-25T12:18:10Z</time>
      </trkpt>
      <trkpt lat="40.449067" lon="-5.274800">
        <ele>1997.0</ele>
        <time>2015-07-25T12:18:12Z</time>
      </trkpt>
      <trkpt lat="40.449100" lon="-5.274967">
        <ele>2001.0</ele>
        <time>2015-07-25T12:18:14Z</time>
      </trkpt>
      <trkpt lat="40.449050" lon="-5.275200">
        <ele>2005.0</ele>
        <time>2015-07-25T12:18:16Z</time>
      </trkpt>
      <trkpt lat="40.448933" lon="-5.275350">
        <ele>2011.0</ele>
        <time>2015-07-25T12:18:18Z</time>
      </trkpt>
      <trkpt lat="40.448750" lon="-5.275417">
        <ele>2016.0</ele>
        <time>2015-07-25T12:18:20Z</time>
      </trkpt>
      <trkpt lat="40.448550" lon="-5.275333">
        <ele>2023.0</ele>
        <time>2015-07-25T12:18:22Z</time>
      </trkpt>
      <trkpt lat="40.448417" lon="-5.275133">
        <ele>2028.0</ele>
        <time>2015-07-25T12:18:24Z</time>
      </trkpt>
      <trkpt lat="40.448333" lon="-5.274850">
        <ele>2032.0</ele>
        <time>2015-07-25T12:18:26Z</time>
      </trkpt>
      <trkpt lat="40.448300" lon="-5.274567">
        <ele>2043.0</ele>
        <time>2015-07-25T12:18:28Z</time>
      </trkpt>
      <trkpt lat="40.448300" lon="-5.274350">
        <ele>2054.0</ele>
        <time>2015-07-25T12:18:30Z</time>
      </trkpt>
      <trkpt lat="40.448383" lon="-5.274200">
        <ele>2058.0</ele>
        <time>2015-07-25T12:18:32Z</time>
      </trkpt>
      <trkpt lat="40.448550" lon="-5.274117">
        <ele>2064.0</ele>
        <time>2015-07-25T12:18:34Z</time>
      </trkpt>
      <trkpt lat="40.448650" lon="-5.274167">
        <ele>2075.0</ele>
        <time>2015-07-25T12:18:36Z</time>
      </trkpt>
      <trkpt lat="40.448700" lon="-5.274267">
        <ele>2078.0</ele>
        <time>2015-07-25T12:18:38Z</time>
      </trkpt>
      <trkpt lat="40.448833" lon="-5.274383">
        <ele>2080.0</ele>
        <time>2015-07-25T12:18:40Z</time>
      </trkpt>
      <trkpt lat="40.448900" lon="-5.274567">
        <ele>2088.0</ele>
        <time>2015-07-25T12:18:42Z</time>
      </trkpt>
      <trkpt lat="40.448833" lon="-5.274750">
        <ele>2095.0</ele>
        <time>2015-07-25T12:18:44Z</time>
      </trkpt>
      <trkpt lat="40.448733" lon="-5.274900">
        <ele>2102.0</ele>
        <time>2015-07-25T12:18:46Z</time>
      </trkpt>
      <trkpt lat="40.448567" lon="-5.274983">
        <ele>2107.0</ele>
        <time>2015-07-25T12:18:48Z</time>
      </trkpt>
      <trkpt lat="40.448367" lon="-5.274917">
        <ele>2111.0</ele>
        <time>2015-07-25T12:18:50Z</time>
      </trkpt>
      <trkpt lat="40.448200" lon="-5.274733">
        <ele>2117.0</ele>
        <time>2015-07-25T12:18:52Z</time>
      </trkpt>
      <trkpt lat="40.448067" lon="-5.274517">
        <ele>2123.0</ele>
        <time>2015-07-25T12:18:54Z</time>
      </trkpt>
      <trkpt lat="40.447967" lon="-5.274250">
        <ele>2130.0</ele>
        <time>2015-07-25T12:18:56Z</time>
      </trkpt>
      <trkpt lat="40.447900" lon="-5.273983">
        <ele>2140.0</ele>
        <time>2015-07-25T12:18:58Z</time>
      </trkpt>
      <trkpt lat="40.447917" lon="-5.273767">
        <ele>2148.0</ele>
        <time>2015-07-25T12:19:00Z</time>
      </trkpt>
      <trkpt lat="40.447967" lon="-5.273583">
        <ele>2154.0</ele>
        <time>2015-07-25T12:19:02Z</time>
      </trkpt>
      <trkpt lat="40.448117" lon="-5.273467">
        <ele>2159.0</ele>
        <time>2015-07-25T12:19:04Z</time>
      </trkpt>
      <trkpt lat="40.448250" lon="-5.273383">
        <ele>2169.0</ele>
        <time>2015-07-25T12:19:06Z</time>
      </trkpt>
      <trkpt lat="40.448367" lon="-5.273367">
        <ele>2175.0</ele>
        <time>2015-07-25T12:19:08Z</time>
      </trkpt>
      <trkpt lat="40.448467" lon="-5.273483">
        <ele>2179.0</ele>
        <time>2015-07-25T12:19:10Z</time>
      </trkpt>
      <trkpt lat="40.448483" lon="-5.273683">
        <ele>2184.0</ele>
        <time>2015-07-25T12:19:12Z</time>
      </trkpt>
      <trkpt lat="40.448450" lon="-5.273850">
        <ele>2191.0</ele>
        <time>2015-07-25T12:19:14Z</time>
      </trkpt>
      <trkpt lat="40.448367" lon="-5.274017">
        <ele>2196.0</ele>
        <time>2015-07-25T12:19:16Z</time>
      </trkpt>
      <trkpt lat="40.448200" lon="-5.274167">
        <ele>2199.0</ele>
        <time>2015-07-25T12:19:18Z</time>
      </trkpt>
      <trkpt lat="40.447983" lon="-5.274183">
        <ele>2205.0</ele>
        <time>2015-07-25T12:19:20Z</time>
      </trkpt>
      <trkpt lat="40.447817" lon="-5.274083">
        <ele>2208.0</ele>
        <time>2015-07-25T12:19:22Z</time>
      </trkpt>
      <trkpt lat="40.447633" lon="-5.273850">
        <ele>2207.0</ele>
        <time>2015-07-25T12:19:24Z</time>
      </trkpt>
      <trkpt lat="40.447533" lon="-5.273533">
        <ele>2211.0</ele>
        <time>2015-07-25T12:19:26Z</time>
      </trkpt>
      <trkpt lat="40.447517" lon="-5.273217">
        <ele>2223.0</ele>
        <time>2015-07-25T12:19:28Z</time>
      </trkpt>
      <trkpt lat="40.447517" lon="-5.273000">
        <ele>2234.0</ele>
        <time>2015-07-25T12:19:30Z</time>
      </trkpt>
      <trkpt lat="40.447600" lon="-5.272767">
        <ele>2239.0</ele>
        <time>2015-07-25T12:19:32Z</time>
      </trkpt>
      <trkpt lat="40.447750" lon="-5.272600">
        <ele>2244.0</ele>
        <time>2015-07-25T12:19:34Z</time>
      </trkpt>
      <trkpt lat="40.447900" lon="-5.272667">
        <ele>2253.0</ele>
        <time>2015-07-25T12:19:36Z</time>
      </trkpt>
      <trkpt lat="40.447933" lon="-5.272817">
        <ele>2262.0</ele>
        <time>2015-07-25T12:19:38Z</time>
      </trkpt>
      <trkpt lat="40.447967" lon="-5.272950">
        <ele>2269.0</ele>
        <time>2015-07-25T12:19:40Z</time>
      </trkpt>
      <trkpt lat="40.447967" lon="-5.273150">
        <ele>2275.0</ele>
        <time>2015-07-25T12:19:42Z</time>
      </trkpt>
      <trkpt lat="40.447850" lon="-5.273317">
        <ele>2283.0</ele>
        <time>2015-07-25T12:19:44Z</time>
      </trkpt>
      <trkpt lat="40.447700" lon="-5.273367">
        <ele>2289.0</ele>
        <time>2015-07-25T12:19:46Z</time>
      </trkpt>
      <trkpt lat="40.447517" lon="-5.273333">
        <ele>2289.0</ele>
        <time>2015-07-25T12:19:48Z</time>
      </trkpt>
      <trkpt lat="40.447300" lon="-5.273183">
        <ele>2291.0</ele>
        <time>2015-07-25T12:19:50Z</time>
      </trkpt>
      <trkpt lat="40.447167" lon="-5.272917">
        <ele>2293.0</ele>
        <time>2015-07-25T12:19:52Z</time>
      </trkpt>
      <trkpt lat="40.447117" lon="-5.272633">
        <ele>2298.0</ele>
        <time>2015-07-25T12:19:54Z</time>
      </trkpt>
      <trkpt lat="40.447167" lon="-5.272350">
        <ele>2303.0</ele>
        <time>2015-07-25T12:19:56Z</time>
      </trkpt>
      <trkpt lat="40.447267" lon="-5.272150">
        <ele>2310.0</ele>
        <time>2015-07-25T12:19:58Z</time>
      </trkpt>
      <trkpt lat="40.447383" lon="-5.272017">
        <ele>2316.0</ele>
        <time>2015-07-25T12:20:00Z</time>
      </trkpt>
      <trkpt lat="40.447533" lon="-5.271967">
        <ele>2323.0</ele>
        <time>2015-07-25T12:20:02Z</time>
      </trkpt>
      <trkpt lat="40.447667" lon="-5.272033">
        <ele>2327.0</ele>
        <time>2015-07-25T12:20:04Z</time>
      </trkpt>
      <trkpt lat="40.447750" lon="-5.272183">
        <ele>2333.0</ele>
        <time>2015-07-25T12:20:06Z</time>
      </trkpt>
      <trkpt lat="40.447800" lon="-5.272350">
        <ele>2339.0</ele>
        <time>2015-07-25T12:20:08Z</time>
      </trkpt>
      <trkpt lat="40.447750" lon="-5.272533">
        <ele>2343.0</ele>
        <time>2015-07-25T12:20:10Z</time>
      </trkpt>
      <trkpt lat="40.447617" lon="-5.272683">
        <ele>2350.0</ele>
        <time>2015-07-25T12:20:12Z</time>
      </trkpt>
      <trkpt lat="40.447467" lon="-5.272733">
        <ele>2357.0</ele>
        <time>2015-07-25T12:20:14Z</time>
      </trkpt>
      <trkpt lat="40.447300" lon="-5.272750">
        <ele>2360.0</ele>
        <time>2015-07-25T12:20:16Z</time>
      </trkpt>
      <trkpt lat="40.447100" lon="-5.272683">
        <ele>2363.0</ele>
        <time>2015-07-25T12:20:18Z</time>
      </trkpt>
      <trkpt lat="40.446950" lon="-5.272450">
        <ele>2365.0</ele>
        <time>2015-07-25T12:20:20Z</time>
      </trkpt>
      <trkpt lat="40.446917" lon="-5.272117">
        <ele>2367.0</ele>
        <time>2015-07-25T12:20:22Z</time>
      </trkpt>
      <trkpt lat="40.446950" lon="-5.271833">
        <ele>2371.0</ele>
        <time>2015-07-25T12:20:24Z</time>
      </trkpt>
      <trkpt lat="40.446983" lon="-5.271600">
        <ele>2376.0</ele>
        <time>2015-07-25T12:20:26Z</time>
      </trkpt>
      <trkpt lat="40.447067" lon="-5.271400">
        <ele>2381.0</ele>
        <time>2015-07-25T12:20:28Z</time>
      </trkpt>
      <trkpt lat="40.447183" lon="-5.271283">
        <ele>2382.0</ele>
        <time>2015-07-25T12:20:30Z</time>
      </trkpt>
      <trkpt lat="40.447350" lon="-5.271200">
        <ele>2382.0</ele>
        <time>2015-07-25T12:20:32Z</time>
      </trkpt>
      <trkpt lat="40.447517" lon="-5.271183">
        <ele>2381.0</ele>
        <time>2015-07-25T12:20:34Z</time>
      </trkpt>
      <trkpt lat="40.447700" lon="-5.271267">
        <ele>2379.0</ele>
        <time>2015-07-25T12:20:36Z</time>
      </trkpt>
      <trkpt lat="40.447850" lon="-5.271350">
        <ele>2381.0</ele>
        <time>2015-07-25T12:20:38Z</time>
      </trkpt>
      <trkpt lat="40.448000" lon="-5.271433">
        <ele>2382.0</ele>
        <time>2015-07-25T12:20:40Z</time>
      </trkpt>
      <trkpt lat="40.448183" lon="-5.271533">
        <ele>2382.0</ele>
        <time>2015-07-25T12:20:42Z</time>
      </trkpt>
      <trkpt lat="40.448317" lon="-5.271650">
        <ele>2386.0</ele>
        <time>2015-07-25T12:20:44Z</time>
      </trkpt>
      <trkpt lat="40.448417" lon="-5.271767">
        <ele>2385.0</ele>
        <time>2015-07-25T12:20:46Z</time>
      </trkpt>
      <trkpt lat="40.448517" lon="-5.271950">
        <ele>2379.0</ele>
        <time>2015-07-25T12:20:48Z</time>
      </trkpt>
      <trkpt lat="40.448567" lon="-5.272167">
        <ele>2379.0</ele>
        <time>2015-07-25T12:20:50Z</time>
      </trkpt>
      <trkpt lat="40.448600" lon="-5.272350">
        <ele>2384.0</ele>
        <time>2015-07-25T12:20:52Z</time>
      </trkpt>
      <trkpt lat="40.448600" lon="-5.272517">
        <ele>2386.0</ele>
        <time>2015-07-25T12:20:54Z</time>
      </trkpt>
      <trkpt lat="40.448533" lon="-5.272683">
        <ele>2384.0</ele>
        <time>2015-07-25T12:20:56Z</time>
      </trkpt>
      <trkpt lat="40.448383" lon="-5.272800">
        <ele>2384.0</ele>
        <time>2015-07-25T12:20:58Z</time>
      </trkpt>
      <trkpt lat="40.448233" lon="-5.272867">
        <ele>2383.0</ele>
        <time>2015-07-25T12:21:00Z</time>
      </trkpt>
      <trkpt lat="40.448033" lon="-5.272917">
        <ele>2380.0</ele>
        <time>2015-07-25T12:21:02Z</time>
      </trkpt>
      <trkpt lat="40.447767" lon="-5.272800">
        <ele>2378.0</ele>
        <time>2015-07-25T12:21:04Z</time>
      </trkpt>
      <trkpt lat="40.447567" lon="-5.272583">
        <ele>2381.0</ele>
        <time>2015-07-25T12:21:06Z</time>
      </trkpt>
      <trkpt lat="40.447433" lon="-5.272383">
        <ele>2384.0</ele>
        <time>2015-07-25T12:21:08Z</time>
      </trkpt>
      <trkpt lat="40.447383" lon="-5.272050">
        <ele>2382.0</ele>
        <time>2015-07-25T12:21:10Z</time>
      </trkpt>
      <trkpt lat="40.447433" lon="-5.271733">
        <ele>2386.0</ele>
        <time>2015-07-25T12:21:12Z</time>
      </trkpt>
      <trkpt lat="40.447533" lon="-5.271533">
        <ele>2390.0</ele>
        <time>2015-07-25T12:21:14Z</time>
      </trkpt>
      <trkpt lat="40.447633" lon="-5.271367">
        <ele>2390.0</ele>
        <time>2015-07-25T12:21:16Z</time>
      </trkpt>
      <trkpt lat="40.447783" lon="-5.271233">
        <ele>2386.0</ele>
        <time>2015-07-25T12:21:18Z</time>
      </trkpt>
      <trkpt lat="40.448000" lon="-5.271167">
        <ele>2384.0</ele>
        <time>2015-07-25T12:21:20Z</time>
      </trkpt>
      <trkpt lat="40.448150" lon="-5.271083">
        <ele>2387.0</ele>
        <time>2015-07-25T12:21:22Z</time>
      </trkpt>
      <trkpt lat="40.448283" lon="-5.270917">
        <ele>2386.0</ele>
        <time>2015-07-25T12:21:24Z</time>
      </trkpt>
      <trkpt lat="40.448450" lon="-5.270750">
        <ele>2383.0</ele>
        <time>2015-07-25T12:21:26Z</time>
      </trkpt>
      <trkpt lat="40.448600" lon="-5.270617">
        <ele>2381.0</ele>
        <time>2015-07-25T12:21:28Z</time>
      </trkpt>
      <trkpt lat="40.448783" lon="-5.270483">
        <ele>2375.0</ele>
        <time>2015-07-25T12:21:30Z</time>
      </trkpt>
      <trkpt lat="40.448983" lon="-5.270317">
        <ele>2371.0</ele>
        <time>2015-07-25T12:21:32Z</time>
      </trkpt>
      <trkpt lat="40.449167" lon="-5.270217">
        <ele>2372.0</ele>
        <time>2015-07-25T12:21:34Z</time>
      </trkpt>
      <trkpt lat="40.449317" lon="-5.270117">
        <ele>2370.0</ele>
        <time>2015-07-25T12:21:36Z</time>
      </trkpt>
      <trkpt lat="40.449483" lon="-5.269967">
        <ele>2366.0</ele>
        <time>2015-07-25T12:21:38Z</time>
      </trkpt>
      <trkpt lat="40.449633" lon="-5.269800">
        <ele>2365.0</ele>
        <time>2015-07-25T12:21:40Z</time>
      </trkpt>
      <trkpt lat="40.449783" lon="-5.269633">
        <ele>2362.0</ele>
        <time>2015-07-25T12:21:42Z</time>
      </trkpt>
      <trkpt lat="40.449933" lon="-5.269467">
        <ele>2358.0</ele>
        <time>2015-07-25T12:21:44Z</time>
      </trkpt>
      <trkpt lat="40.450117" lon="-5.269317">
        <ele>2355.0</ele>
        <time>2015-07-25T12:21:46Z</time>
      </trkpt>
      <trkpt lat="40.450283" lon="-5.269167">
        <ele>2351.0</ele>
        <time>2015-07-25T12:21:48Z</time>
      </trkpt>
      <trkpt lat="40.450450" lon="-5.268983">
        <ele>2348.0</ele>
        <time>2015-07-25T12:21:50Z</time>
      </trkpt>
      <trkpt lat="40.450633" lon="-5.268833">
        <ele>2344.0</ele>
        <time>2015-07-25T12:21:52Z</time>
      </trkpt>
      <trkpt lat="40.450833" lon="-5.268717">
        <ele>2338.0</ele>
        <time>2015-07-25T12:21:54Z</time>
      </trkpt>
      <trkpt lat="40.451033" lon="-5.268633">
        <ele>2333.0</ele>
        <time>2015-07-25T12:21:56Z</time>
      </trkpt>
      <trkpt lat="40.451233" lon="-5.268567">
        <ele>2329.0</ele>
        <time>2015-07-25T12:21:58Z</time>
      </trkpt>
      <trkpt lat="40.451417" lon="-5.268483">
        <ele>2326.0</ele>
        <time>2015-07-25T12:22:00Z</time>
      </trkpt>
      <trkpt lat="40.451600" lon="-5.268383">
        <ele>2321.0</ele>
        <time>2015-07-25T12:22:02Z</time>
      </trkpt>
      <trkpt lat="40.451800" lon="-5.268283">
        <ele>2316.0</ele>
        <time>2015-07-25T12:22:04Z</time>
      </trkpt>
      <trkpt lat="40.452017" lon="-5.268183">
        <ele>2313.0</ele>
        <time>2015-07-25T12:22:06Z</time>
      </trkpt>
      <trkpt lat="40.452200" lon="-5.268067">
        <ele>2310.0</ele>
        <time>2015-07-25T12:22:08Z</time>
      </trkpt>
      <trkpt lat="40.452383" lon="-5.267950">
        <ele>2306.0</ele>
        <time>2015-07-25T12:22:10Z</time>
      </trkpt>
      <trkpt lat="40.452583" lon="-5.267783">
        <ele>2303.0</ele>
        <time>2015-07-25T12:22:12Z</time>
      </trkpt>
      <trkpt lat="40.452750" lon="-5.267600">
        <ele>2304.0</ele>
        <time>2015-07-25T12:22:14Z</time>
      </trkpt>
      <trkpt lat="40.452917" lon="-5.267467">
        <ele>2301.0</ele>
        <time>2015-07-25T12:22:16Z</time>
      </trkpt>
      <trkpt lat="40.453067" lon="-5.267317">
        <ele>2297.0</ele>
        <time>2015-07-25T12:22:18Z</time>
      </trkpt>
      <trkpt lat="40.453233" lon="-5.267150">
        <ele>2293.0</ele>
        <time>2015-07-25T12:22:20Z</time>
      </trkpt>
      <trkpt lat="40.453400" lon="-5.266983">
        <ele>2290.0</ele>
        <time>2015-07-25T12:22:22Z</time>
      </trkpt>
      <trkpt lat="40.453567" lon="-5.266817">
        <ele>2289.0</ele>
        <time>2015-07-25T12:22:24Z</time>
      </trkpt>
      <trkpt lat="40.453750" lon="-5.266683">
        <ele>2287.0</ele>
        <time>2015-07-25T12:22:26Z</time>
      </trkpt>
      <trkpt lat="40.453900" lon="-5.266533">
        <ele>2286.0</ele>
        <time>2015-07-25T12:22:28Z</time>
      </trkpt>
      <trkpt lat="40.454050" lon="-5.266367">
        <ele>2284.0</ele>
        <time>2015-07-25T12:22:30Z</time>
      </trkpt>
      <trkpt lat="40.454183" lon="-5.266183">
        <ele>2281.0</ele>
        <time>2015-07-25T12:22:32Z</time>
      </trkpt>
      <trkpt lat="40.454350" lon="-5.265983">
        <ele>2279.0</ele>
        <time>2015-07-25T12:22:34Z</time>
      </trkpt>
      <trkpt lat="40.454483" lon="-5.265800">
        <ele>2277.0</ele>
        <time>2015-07-25T12:22:36Z</time>
      </trkpt>
      <trkpt lat="40.454650" lon="-5.265600">
        <ele>2274.0</ele>
        <time>2015-07-25T12:22:38Z</time>
      </trkpt>
      <trkpt lat="40.454800" lon="-5.265400">
        <ele>2271.0</ele>
        <time>2015-07-25T12:22:40Z</time>
      </trkpt>
      <trkpt lat="40.454933" lon="-5.265200">
        <ele>2270.0</ele>
        <time>2015-07-25T12:22:42Z</time>
      </trkpt>
      <trkpt lat="40.455017" lon="-5.264983">
        <ele>2269.0</ele>
        <time>2015-07-25T12:22:44Z</time>
      </trkpt>
      <trkpt lat="40.455133" lon="-5.264767">
        <ele>2267.0</ele>
        <time>2015-07-25T12:22:46Z</time>
      </trkpt>
      <trkpt lat="40.455250" lon="-5.264550">
        <ele>2264.0</ele>
        <time>2015-07-25T12:22:48Z</time>
      </trkpt>
      <trkpt lat="40.455383" lon="-5.264333">
        <ele>2262.0</ele>
        <time>2015-07-25T12:22:50Z</time>
      </trkpt>
      <trkpt lat="40.455517" lon="-5.264133">
        <ele>2260.0</ele>
        <time>2015-07-25T12:22:52Z</time>
      </trkpt>
      <trkpt lat="40.455667" lon="-5.263933">
        <ele>2258.0</ele>
        <time>2015-07-25T12:22:54Z</time>
      </trkpt>
      <trkpt lat="40.455800" lon="-5.263733">
        <ele>2256.0</ele>
        <time>2015-07-25T12:22:56Z</time>
      </trkpt>
      <trkpt lat="40.455933" lon="-5.263550">
        <ele>2252.0</ele>
        <time>2015-07-25T12:22:58Z</time>
      </trkpt>
      <trkpt lat="40.456083" lon="-5.263350">
        <ele>2249.0</ele>
        <time>2015-07-25T12:23:00Z</time>
      </trkpt>
      <trkpt lat="40.456233" lon="-5.263150">
        <ele>2248.0</ele>
        <time>2015-07-25T12:23:02Z</time>
      </trkpt>
      <trkpt lat="40.456367" lon="-5.262983">
        <ele>2247.0</ele>
        <time>2015-07-25T12:23:04Z</time>
      </trkpt>
      <trkpt lat="40.456483" lon="-5.262767">
        <ele>2244.0</ele>
        <time>2015-07-25T12:23:06Z</time>
      </trkpt>
      <trkpt lat="40.456600" lon="-5.262550">
        <ele>2243.0</ele>
        <time>2015-07-25T12:23:08Z</time>
      </trkpt>
      <trkpt lat="40.456700" lon="-5.262350">
        <ele>2245.0</ele>
        <time>2015-07-25T12:23:10Z</time>
      </trkpt>
      <trkpt lat="40.456800" lon="-5.262167">
        <ele>2247.0</ele>
        <time>2015-07-25T12:23:12Z</time>
      </trkpt>
      <trkpt lat="40.456883" lon="-5.261983">
        <ele>2249.0</ele>
        <time>2015-07-25T12:23:14Z</time>
      </trkpt>
      <trkpt lat="40.456950" lon="-5.261750">
        <ele>2252.0</ele>
        <time>2015-07-25T12:23:16Z</time>
      </trkpt>
      <trkpt lat="40.457017" lon="-5.261533">
        <ele>2258.0</ele>
        <time>2015-07-25T12:23:18Z</time>
      </trkpt>
      <trkpt lat="40.457100" lon="-5.261367">
        <ele>2261.0</ele>
        <time>2015-07-25T12:23:20Z</time>
      </trkpt>
      <trkpt lat="40.457183" lon="-5.261167">
        <ele>2260.0</ele>
        <time>2015-07-25T12:23:22Z</time>
      </trkpt>
      <trkpt lat="40.457300" lon="-5.260950">
        <ele>2263.0</ele>
        <time>2015-07-25T12:23:24Z</time>
      </trkpt>
      <trkpt lat="40.457383" lon="-5.260750">
        <ele>2267.0</ele>
        <time>2015-07-25T12:23:26Z</time>
      </trkpt>
      <trkpt lat="40.457467" lon="-5.260583">
        <ele>2267.0</ele>
        <time>2015-07-25T12:23:28Z</time>
      </trkpt>
      <trkpt lat="40.457600" lon="-5.260383">
        <ele>2265.0</ele>
        <time>2015-07-25T12:23:30Z</time>
      </trkpt>
      <trkpt lat="40.457717" lon="-5.260183">
        <ele>2266.0</ele>
        <time>2015-07-25T12:23:32Z</time>
      </trkpt>
      <trkpt lat="40.457817" lon="-5.260000">
        <ele>2265.0</ele>
        <time>2015-07-25T12:23:34Z</time>
      </trkpt>
      <trkpt lat="40.457933" lon="-5.259767">
        <ele>2261.0</ele>
        <time>2015-07-25T12:23:36Z</time>
      </trkpt>
      <trkpt lat="40.458083" lon="-5.259533">
        <ele>2262.0</ele>
        <time>2015-07-25T12:23:38Z</time>
      </trkpt>
      <trkpt lat="40.458233" lon="-5.259383">
        <ele>2265.0</ele>
        <time>2015-07-25T12:23:40Z</time>
      </trkpt>
      <trkpt lat="40.458383" lon="-5.259183">
        <ele>2264.0</ele>
        <time>2015-07-25T12:23:42Z</time>
      </trkpt>
      <trkpt lat="40.458550" lon="-5.259017">
        <ele>2265.0</ele>
        <time>2015-07-25T12:23:44Z</time>
      </trkpt>
      <trkpt lat="40.458733" lon="-5.258883">
        <ele>2268.0</ele>
        <time>2015-07-25T12:23:46Z</time>
      </trkpt>
      <trkpt lat="40.458867" lon="-5.258683">
        <ele>2267.0</ele>
        <time>2015-07-25T12:23:48Z</time>
      </trkpt>
      <trkpt lat="40.459017" lon="-5.258467">
        <ele>2263.0</ele>
        <time>2015-07-25T12:23:50Z</time>
      </trkpt>
      <trkpt lat="40.459167" lon="-5.258233">
        <ele>2260.0</ele>
        <time>2015-07-25T12:23:52Z</time>
      </trkpt>
      <trkpt lat="40.459317" lon="-5.258000">
        <ele>2261.0</ele>
        <time>2015-07-25T12:23:54Z</time>
      </trkpt>
      <trkpt lat="40.459433" lon="-5.257800">
        <ele>2259.0</ele>
        <time>2015-07-25T12:23:56Z</time>
      </trkpt>
      <trkpt lat="40.459567" lon="-5.257600">
        <ele>2254.0</ele>
        <time>2015-07-25T12:23:58Z</time>
      </trkpt>
      <trkpt lat="40.459700" lon="-5.257417">
        <ele>2250.0</ele>
        <time>2015-07-25T12:24:00Z</time>
      </trkpt>
      <trkpt lat="40.459833" lon="-5.257233">
        <ele>2246.0</ele>
        <time>2015-07-25T12:24:02Z</time>
      </trkpt>
      <trkpt lat="40.459967" lon="-5.257067">
        <ele>2243.0</ele>
        <time>2015-07-25T12:24:04Z</time>
      </trkpt>
      <trkpt lat="40.460100" lon="-5.256917">
        <ele>2240.0</ele>
        <time>2015-07-25T12:24:06Z</time>
      </trkpt>
      <trkpt lat="40.460217" lon="-5.256733">
        <ele>2238.0</ele>
        <time>2015-07-25T12:24:08Z</time>
      </trkpt>
      <trkpt lat="40.460350" lon="-5.256583">
        <ele>2236.0</ele>
        <time>2015-07-25T12:24:10Z</time>
      </trkpt>
      <trkpt lat="40.460500" lon="-5.256417">
        <ele>2233.0</ele>
        <time>2015-07-25T12:24:12Z</time>
      </trkpt>
      <trkpt lat="40.460650" lon="-5.256283">
        <ele>2233.0</ele>
        <time>2015-07-25T12:24:14Z</time>
      </trkpt>
      <trkpt lat="40.460767" lon="-5.256167">
        <ele>2234.0</ele>
        <time>2015-07-25T12:24:16Z</time>
      </trkpt>
      <trkpt lat="40.460883" lon="-5.256050">
        <ele>2231.0</ele>
        <time>2015-07-25T12:24:18Z</time>
      </trkpt>
      <trkpt lat="40.461000" lon="-5.255883">
        <ele>2229.0</ele>
        <time>2015-07-25T12:24:20Z</time>
      </trkpt>
      <trkpt lat="40.461133" lon="-5.255683">
        <ele>2230.0</ele>
        <time>2015-07-25T12:24:22Z</time>
      </trkpt>
      <trkpt lat="40.461233" lon="-5.255517">
        <ele>2232.0</ele>
        <time>2015-07-25T12:24:24Z</time>
      </trkpt>
      <trkpt lat="40.461333" lon="-5.255333">
        <ele>2229.0</ele>
        <time>2015-07-25T12:24:26Z</time>
      </trkpt>
      <trkpt lat="40.461483" lon="-5.255133">
        <ele>2227.0</ele>
        <time>2015-07-25T12:24:28Z</time>
      </trkpt>
      <trkpt lat="40.461633" lon="-5.254967">
        <ele>2227.0</ele>
        <time>2015-07-25T12:24:30Z</time>
      </trkpt>
      <trkpt lat="40.461783" lon="-5.254767">
        <ele>2228.0</ele>
        <time>2015-07-25T12:24:32Z</time>
      </trkpt>
      <trkpt lat="40.461933" lon="-5.254600">
        <ele>2229.0</ele>
        <time>2015-07-25T12:24:34Z</time>
      </trkpt>
      <trkpt lat="40.462067" lon="-5.254450">
        <ele>2226.0</ele>
        <time>2015-07-25T12:24:36Z</time>
      </trkpt>
      <trkpt lat="40.462200" lon="-5.254283">
        <ele>2221.0</ele>
        <time>2015-07-25T12:24:38Z</time>
      </trkpt>
      <trkpt lat="40.462367" lon="-5.254117">
        <ele>2218.0</ele>
        <time>2015-07-25T12:24:40Z</time>
      </trkpt>
      <trkpt lat="40.462500" lon="-5.253917">
        <ele>2217.0</ele>
        <time>2015-07-25T12:24:42Z</time>
      </trkpt>
      <trkpt lat="40.462600" lon="-5.253750">
        <ele>2217.0</ele>
        <time>2015-07-25T12:24:44Z</time>
      </trkpt>
      <trkpt lat="40.462717" lon="-5.253583">
        <ele>2212.0</ele>
        <time>2015-07-25T12:24:46Z</time>
      </trkpt>
      <trkpt lat="40.462867" lon="-5.253400">
        <ele>2208.0</ele>
        <time>2015-07-25T12:24:48Z</time>
      </trkpt>
      <trkpt lat="40.463017" lon="-5.253267">
        <ele>2209.0</ele>
        <time>2015-07-25T12:24:50Z</time>
      </trkpt>
      <trkpt lat="40.463133" lon="-5.253117">
        <ele>2209.0</ele>
        <time>2015-07-25T12:24:52Z</time>
      </trkpt>
      <trkpt lat="40.463250" lon="-5.252900">
        <ele>2205.0</ele>
        <time>2015-07-25T12:24:54Z</time>
      </trkpt>
      <trkpt lat="40.463350" lon="-5.252683">
        <ele>2203.0</ele>
        <time>2015-07-25T12:24:56Z</time>
      </trkpt>
      <trkpt lat="40.463450" lon="-5.252483">
        <ele>2199.0</ele>
        <time>2015-07-25T12:24:58Z</time>
      </trkpt>
      <trkpt lat="40.463567" lon="-5.252283">
        <ele>2194.0</ele>
        <time>2015-07-25T12:25:00Z</time>
      </trkpt>
      <trkpt lat="40.463717" lon="-5.252100">
        <ele>2189.0</ele>
        <time>2015-07-25T12:25:02Z</time>
      </trkpt>
      <trkpt lat="40.463850" lon="-5.251917">
        <ele>2185.0</ele>
        <time>2015-07-25T12:25:04Z</time>
      </trkpt>
      <trkpt lat="40.464000" lon="-5.251750">
        <ele>2181.0</ele>
        <time>2015-07-25T12:25:06Z</time>
      </trkpt>
      <trkpt lat="40.464083" lon="-5.251667">
        <ele>2180.0</ele>
        <time>2015-07-25T12:25:07Z</time>
      </trkpt>
      <trkpt lat="40.464217" lon="-5.251500">
        <ele>2178.0</ele>
        <time>2015-07-25T12:25:09Z</time>
      </trkpt>
      <trkpt lat="40.464350" lon="-5.251367">
        <ele>2175.0</ele>
        <time>2015-07-25T12:25:11Z</time>
      </trkpt>
      <trkpt lat="40.464533" lon="-5.251283">
        <ele>2169.0</ele>
        <time>2015-07-25T12:25:13Z</time>
      </trkpt>
      <trkpt lat="40.464717" lon="-5.251317">
        <ele>2166.0</ele>
        <time>2015-07-25T12:25:15Z</time>
      </trkpt>
      <trkpt lat="40.464800" lon="-5.251483">
        <ele>2161.0</ele>
        <time>2015-07-25T12:25:17Z</time>
      </trkpt>
      <trkpt lat="40.464767" lon="-5.251683">
        <ele>2154.0</ele>
        <time>2015-07-25T12:25:19Z</time>
      </trkpt>
      <trkpt lat="40.464667" lon="-5.251967">
        <ele>2148.0</ele>
        <time>2015-07-25T12:25:21Z</time>
      </trkpt>
      <trkpt lat="40.464550" lon="-5.252217">
        <ele>2150.0</ele>
        <time>2015-07-25T12:25:23Z</time>
      </trkpt>
      <trkpt lat="40.464450" lon="-5.252417">
        <ele>2152.0</ele>
        <time>2015-07-25T12:25:25Z</time>
      </trkpt>
      <trkpt lat="40.464350" lon="-5.252650">
        <ele>2152.0</ele>
        <time>2015-07-25T12:25:27Z</time>
      </trkpt>
      <trkpt lat="40.464217" lon="-5.252850">
        <ele>2153.0</ele>
        <time>2015-07-25T12:25:29Z</time>
      </trkpt>
      <trkpt lat="40.464083" lon="-5.252967">
        <ele>2153.0</ele>
        <time>2015-07-25T12:25:31Z</time>
      </trkpt>
      <trkpt lat="40.463917" lon="-5.253067">
        <ele>2147.0</ele>
        <time>2015-07-25T12:25:33Z</time>
      </trkpt>
      <trkpt lat="40.463717" lon="-5.253217">
        <ele>2142.0</ele>
        <time>2015-07-25T12:25:35Z</time>
      </trkpt>
      <trkpt lat="40.463533" lon="-5.253333">
        <ele>2140.0</ele>
        <time>2015-07-25T12:25:37Z</time>
      </trkpt>
      <trkpt lat="40.463367" lon="-5.253367">
        <ele>2135.0</ele>
        <time>2015-07-25T12:25:39Z</time>
      </trkpt>
      <trkpt lat="40.463133" lon="-5.253450">
        <ele>2124.0</ele>
        <time>2015-07-25T12:25:41Z</time>
      </trkpt>
      <trkpt lat="40.462883" lon="-5.253550">
        <ele>2121.0</ele>
        <time>2015-07-25T12:25:43Z</time>
      </trkpt>
      <trkpt lat="40.462667" lon="-5.253617">
        <ele>2126.0</ele>
        <time>2015-07-25T12:25:45Z</time>
      </trkpt>
      <trkpt lat="40.462483" lon="-5.253667">
        <ele>2127.0</ele>
        <time>2015-07-25T12:25:47Z</time>
      </trkpt>
      <trkpt lat="40.462300" lon="-5.253733">
        <ele>2125.0</ele>
        <time>2015-07-25T12:25:49Z</time>
      </trkpt>
      <trkpt lat="40.462117" lon="-5.253850">
        <ele>2123.0</ele>
        <time>2015-07-25T12:25:51Z</time>
      </trkpt>
      <trkpt lat="40.461917" lon="-5.253967">
        <ele>2120.0</ele>
        <time>2015-07-25T12:25:53Z</time>
      </trkpt>
      <trkpt lat="40.461717" lon="-5.254117">
        <ele>2117.0</ele>
        <time>2015-07-25T12:25:55Z</time>
      </trkpt>
      <trkpt lat="40.461500" lon="-5.254250">
        <ele>2117.0</ele>
        <time>2015-07-25T12:25:57Z</time>
      </trkpt>
      <trkpt lat="40.461317" lon="-5.254367">
        <ele>2117.0</ele>
        <time>2015-07-25T12:25:59Z</time>
      </trkpt>
      <trkpt lat="40.461133" lon="-5.254483">
        <ele>2114.0</ele>
        <time>2015-07-25T12:26:01Z</time>
      </trkpt>
      <trkpt lat="40.460917" lon="-5.254600">
        <ele>2112.0</ele>
        <time>2015-07-25T12:26:03Z</time>
      </trkpt>
      <trkpt lat="40.460717" lon="-5.254717">
        <ele>2112.0</ele>
        <time>2015-07-25T12:26:05Z</time>
      </trkpt>
      <trkpt lat="40.460517" lon="-5.254817">
        <ele>2111.0</ele>
        <time>2015-07-25T12:26:07Z</time>
      </trkpt>
      <trkpt lat="40.460317" lon="-5.254917">
        <ele>2109.0</ele>
        <time>2015-07-25T12:26:09Z</time>
      </trkpt>
      <trkpt lat="40.460117" lon="-5.255000">
        <ele>2108.0</ele>
        <time>2015-07-25T12:26:11Z</time>
      </trkpt>
      <trkpt lat="40.460017" lon="-5.255117">
        <ele>2109.0</ele>
        <time>2015-07-25T12:26:13Z</time>
      </trkpt>
      <trkpt lat="40.459967" lon="-5.255250">
        <ele>2105.0</ele>
        <time>2015-07-25T12:26:15Z</time>
      </trkpt>
      <trkpt lat="40.459850" lon="-5.255350">
        <ele>2098.0</ele>
        <time>2015-07-25T12:26:17Z</time>
      </trkpt>
      <trkpt lat="40.459683" lon="-5.255417">
        <ele>2092.0</ele>
        <time>2015-07-25T12:26:19Z</time>
      </trkpt>
      <trkpt lat="40.459517" lon="-5.255483">
        <ele>2087.0</ele>
        <time>2015-07-25T12:26:21Z</time>
      </trkpt>
      <trkpt lat="40.459283" lon="-5.255533">
        <ele>2084.0</ele>
        <time>2015-07-25T12:26:23Z</time>
      </trkpt>
      <trkpt lat="40.459117" lon="-5.255583">
        <ele>2084.0</ele>
        <time>2015-07-25T12:26:25Z</time>
      </trkpt>
      <trkpt lat="40.458967" lon="-5.255633">
        <ele>2081.0</ele>
        <time>2015-07-25T12:26:27Z</time>
      </trkpt>
      <trkpt lat="40.458783" lon="-5.255683">
        <ele>2074.0</ele>
        <time>2015-07-25T12:26:29Z</time>
      </trkpt>
      <trkpt lat="40.458583" lon="-5.255783">
        <ele>2068.0</ele>
        <time>2015-07-25T12:26:31Z</time>
      </trkpt>
      <trkpt lat="40.458433" lon="-5.255900">
        <ele>2066.0</ele>
        <time>2015-07-25T12:26:33Z</time>
      </trkpt>
      <trkpt lat="40.458317" lon="-5.256000">
        <ele>2064.0</ele>
        <time>2015-07-25T12:26:35Z</time>
      </trkpt>
      <trkpt lat="40.458200" lon="-5.256100">
        <ele>2060.0</ele>
        <time>2015-07-25T12:26:37Z</time>
      </trkpt>
      <trkpt lat="40.458050" lon="-5.256250">
        <ele>2058.0</ele>
        <time>2015-07-25T12:26:39Z</time>
      </trkpt>
      <trkpt lat="40.457900" lon="-5.256333">
        <ele>2062.0</ele>
        <time>2015-07-25T12:26:41Z</time>
      </trkpt>
      <trkpt lat="40.457767" lon="-5.256317">
        <ele>2062.0</ele>
        <time>2015-07-25T12:26:43Z</time>
      </trkpt>
      <trkpt lat="40.457567" lon="-5.256267">
        <ele>2060.0</ele>
        <time>2015-07-25T12:26:45Z</time>
      </trkpt>
      <trkpt lat="40.457350" lon="-5.256283">
        <ele>2063.0</ele>
        <time>2015-07-25T12:26:47Z</time>
      </trkpt>
      <trkpt lat="40.457233" lon="-5.256350">
        <ele>2069.0</ele>
        <time>2015-07-25T12:26:49Z</time>
      </trkpt>
      <trkpt lat="40.457133" lon="-5.256467">
        <ele>2071.0</ele>
        <time>2015-07-25T12:26:51Z</time>
      </trkpt>
      <trkpt lat="40.457017" lon="-5.256633">
        <ele>2073.0</ele>
        <time>2015-07-25T12:26:53Z</time>
      </trkpt>
      <trkpt lat="40.456900" lon="-5.256800">
        <ele>2079.0</ele>
        <time>2015-07-25T12:26:55Z</time>
      </trkpt>
      <trkpt lat="40.456767" lon="-5.256850">
        <ele>2084.0</ele>
        <time>2015-07-25T12:26:57Z</time>
      </trkpt>
      <trkpt lat="40.456550" lon="-5.256783">
        <ele>2084.0</ele>
        <time>2015-07-25T12:26:59Z</time>
      </trkpt>
      <trkpt lat="40.456383" lon="-5.256600">
        <ele>2089.0</ele>
        <time>2015-07-25T12:27:01Z</time>
      </trkpt>
      <trkpt lat="40.456383" lon="-5.256350">
        <ele>2091.0</ele>
        <time>2015-07-25T12:27:03Z</time>
      </trkpt>
      <trkpt lat="40.456467" lon="-5.256150">
        <ele>2091.0</ele>
        <time>2015-07-25T12:27:05Z</time>
      </trkpt>
      <trkpt lat="40.456617" lon="-5.255967">
        <ele>2094.0</ele>
        <time>2015-07-25T12:27:07Z</time>
      </trkpt>
      <trkpt lat="40.456783" lon="-5.255900">
        <ele>2099.0</ele>
        <time>2015-07-25T12:27:09Z</time>
      </trkpt>
      <trkpt lat="40.456917" lon="-5.255900">
        <ele>2104.0</ele>
        <time>2015-07-25T12:27:11Z</time>
      </trkpt>
      <trkpt lat="40.457050" lon="-5.255983">
        <ele>2109.0</ele>
        <time>2015-07-25T12:27:13Z</time>
      </trkpt>
      <trkpt lat="40.457100" lon="-5.256133">
        <ele>2114.0</ele>
        <time>2015-07-25T12:27:15Z</time>
      </trkpt>
      <trkpt lat="40.457067" lon="-5.256300">
        <ele>2120.0</ele>
        <time>2015-07-25T12:27:17Z</time>
      </trkpt>
      <trkpt lat="40.457000" lon="-5.256467">
        <ele>2126.0</ele>
        <time>2015-07-25T12:27:19Z</time>
      </trkpt>
      <trkpt lat="40.456867" lon="-5.256567">
        <ele>2130.0</ele>
        <time>2015-07-25T12:27:21Z</time>
      </trkpt>
      <trkpt lat="40.456633" lon="-5.256600">
        <ele>2129.0</ele>
        <time>2015-07-25T12:27:23Z</time>
      </trkpt>
      <trkpt lat="40.456383" lon="-5.256433">
        <ele>2131.0</ele>
        <time>2015-07-25T12:27:25Z</time>
      </trkpt>
      <trkpt lat="40.456283" lon="-5.256183">
        <ele>2139.0</ele>
        <time>2015-07-25T12:27:27Z</time>
      </trkpt>
      <trkpt lat="40.456283" lon="-5.256000">
        <ele>2143.0</ele>
        <time>2015-07-25T12:27:29Z</time>
      </trkpt>
      <trkpt lat="40.456300" lon="-5.255733">
        <ele>2142.0</ele>
        <time>2015-07-25T12:27:31Z</time>
      </trkpt>
      <trkpt lat="40.456383" lon="-5.255450">
        <ele>2143.0</ele>
        <time>2015-07-25T12:27:33Z</time>
      </trkpt>
      <trkpt lat="40.456533" lon="-5.255283">
        <ele>2148.0</ele>
        <time>2015-07-25T12:27:35Z</time>
      </trkpt>
      <trkpt lat="40.456700" lon="-5.255233">
        <ele>2151.0</ele>
        <time>2015-07-25T12:27:37Z</time>
      </trkpt>
      <trkpt lat="40.456867" lon="-5.255250">
        <ele>2152.0</ele>
        <time>2015-07-25T12:27:39Z</time>
      </trkpt>
      <trkpt lat="40.457000" lon="-5.255367">
        <ele>2158.0</ele>
        <time>2015-07-25T12:27:41Z</time>
      </trkpt>
      <trkpt lat="40.457050" lon="-5.255500">
        <ele>2164.0</ele>
        <time>2015-07-25T12:27:43Z</time>
      </trkpt>
      <trkpt lat="40.457083" lon="-5.255683">
        <ele>2168.0</ele>
        <time>2015-07-25T12:27:45Z</time>
      </trkpt>
      <trkpt lat="40.457033" lon="-5.255900">
        <ele>2172.0</ele>
        <time>2015-07-25T12:27:47Z</time>
      </trkpt>
      <trkpt lat="40.456933" lon="-5.256050">
        <ele>2176.0</ele>
        <time>2015-07-25T12:27:49Z</time>
      </trkpt>
      <trkpt lat="40.456817" lon="-5.256167">
        <ele>2177.0</ele>
        <time>2015-07-25T12:27:51Z</time>
      </trkpt>
      <trkpt lat="40.456667" lon="-5.256317">
        <ele>2173.0</ele>
        <time>2015-07-25T12:27:53Z</time>
      </trkpt>
      <trkpt lat="40.456483" lon="-5.256567">
        <ele>2174.0</ele>
        <time>2015-07-25T12:27:55Z</time>
      </trkpt>
      <trkpt lat="40.456350" lon="-5.256817">
        <ele>2180.0</ele>
        <time>2015-07-25T12:27:57Z</time>
      </trkpt>
      <trkpt lat="40.456267" lon="-5.257017">
        <ele>2188.0</ele>
        <time>2015-07-25T12:27:59Z</time>
      </trkpt>
      <trkpt lat="40.456183" lon="-5.257183">
        <ele>2192.0</ele>
        <time>2015-07-25T12:28:01Z</time>
      </trkpt>
      <trkpt lat="40.456033" lon="-5.257317">
        <ele>2193.0</ele>
        <time>2015-07-25T12:28:03Z</time>
      </trkpt>
      <trkpt lat="40.455850" lon="-5.257450">
        <ele>2193.0</ele>
        <time>2015-07-25T12:28:05Z</time>
      </trkpt>
      <trkpt lat="40.455650" lon="-5.257533">
        <ele>2194.0</ele>
        <time>2015-07-25T12:28:07Z</time>
      </trkpt>
      <trkpt lat="40.455483" lon="-5.257600">
        <ele>2194.0</ele>
        <time>2015-07-25T12:28:09Z</time>
      </trkpt>
      <trkpt lat="40.455300" lon="-5.257683">
        <ele>2190.0</ele>
        <time>2015-07-25T12:28:11Z</time>
      </trkpt>
      <trkpt lat="40.455100" lon="-5.257833">
        <ele>2186.0</ele>
        <time>2015-07-25T12:28:13Z</time>
      </trkpt>
      <trkpt lat="40.454933" lon="-5.257950">
        <ele>2187.0</ele>
        <time>2015-07-25T12:28:15Z</time>
      </trkpt>
      <trkpt lat="40.454783" lon="-5.258050">
        <ele>2184.0</ele>
        <time>2015-07-25T12:28:17Z</time>
      </trkpt>
      <trkpt lat="40.454583" lon="-5.258167">
        <ele>2181.0</ele>
        <time>2015-07-25T12:28:19Z</time>
      </trkpt>
      <trkpt lat="40.454417" lon="-5.258317">
        <ele>2180.0</ele>
        <time>2015-07-25T12:28:21Z</time>
      </trkpt>
      <trkpt lat="40.454267" lon="-5.258417">
        <ele>2180.0</ele>
        <time>2015-07-25T12:28:23Z</time>
      </trkpt>
      <trkpt lat="40.454133" lon="-5.258550">
        <ele>2177.0</ele>
        <time>2015-07-25T12:28:25Z</time>
      </trkpt>
      <trkpt lat="40.453983" lon="-5.258700">
        <ele>2175.0</ele>
        <time>2015-07-25T12:28:27Z</time>
      </trkpt>
      <trkpt lat="40.453850" lon="-5.258850">
        <ele>2175.0</ele>
        <time>2015-07-25T12:28:29Z</time>
      </trkpt>
      <trkpt lat="40.453733" lon="-5.258983">
        <ele>2171.0</ele>
        <time>2015-07-25T12:28:31Z</time>
      </trkpt>
      <trkpt lat="40.453600" lon="-5.259150">
        <ele>2167.0</ele>
        <time>2015-07-25T12:28:33Z</time>
      </trkpt>
      <trkpt lat="40.453450" lon="-5.259267">
        <ele>2166.0</ele>
        <time>2015-07-25T12:28:35Z</time>
      </trkpt>
      <trkpt lat="40.453317" lon="-5.259367">
        <ele>2165.0</ele>
        <time>2015-07-25T12:28:37Z</time>
      </trkpt>
      <trkpt lat="40.453167" lon="-5.259483">
        <ele>2161.0</ele>
        <time>2015-07-25T12:28:39Z</time>
      </trkpt>
      <trkpt lat="40.453017" lon="-5.259633">
        <ele>2159.0</ele>
        <time>2015-07-25T12:28:41Z</time>
      </trkpt>
      <trkpt lat="40.452883" lon="-5.259767">
        <ele>2160.0</ele>
        <time>2015-07-25T12:28:43Z</time>
      </trkpt>
      <trkpt lat="40.452767" lon="-5.259883">
        <ele>2158.0</ele>
        <time>2015-07-25T12:28:45Z</time>
      </trkpt>
      <trkpt lat="40.452617" lon="-5.260000">
        <ele>2157.0</ele>
        <time>2015-07-25T12:28:47Z</time>
      </trkpt>
      <trkpt lat="40.452483" lon="-5.260117">
        <ele>2155.0</ele>
        <time>2015-07-25T12:28:49Z</time>
      </trkpt>
      <trkpt lat="40.452317" lon="-5.260217">
        <ele>2151.0</ele>
        <time>2015-07-25T12:28:51Z</time>
      </trkpt>
      <trkpt lat="40.452150" lon="-5.260350">
        <ele>2148.0</ele>
        <time>2015-07-25T12:28:53Z</time>
      </trkpt>
      <trkpt lat="40.451983" lon="-5.260483">
        <ele>2147.0</ele>
        <time>2015-07-25T12:28:55Z</time>
      </trkpt>
      <trkpt lat="40.451833" lon="-5.260583">
        <ele>2145.0</ele>
        <time>2015-07-25T12:28:57Z</time>
      </trkpt>
      <trkpt lat="40.451667" lon="-5.260683">
        <ele>2143.0</ele>
        <time>2015-07-25T12:28:59Z</time>
      </trkpt>
      <trkpt lat="40.451533" lon="-5.260800">
        <ele>2140.0</ele>
        <time>2015-07-25T12:29:01Z</time>
      </trkpt>
      <trkpt lat="40.451400" lon="-5.260950">
        <ele>2136.0</ele>
        <time>2015-07-25T12:29:03Z</time>
      </trkpt>
      <trkpt lat="40.451267" lon="-5.261067">
        <ele>2135.0</ele>
        <time>2015-07-25T12:29:05Z</time>
      </trkpt>
      <trkpt lat="40.451133" lon="-5.261167">
        <ele>2133.0</ele>
        <time>2015-07-25T12:29:07Z</time>
      </trkpt>
      <trkpt lat="40.451017" lon="-5.261283">
        <ele>2129.0</ele>
        <time>2015-07-25T12:29:09Z</time>
      </trkpt>
      <trkpt lat="40.450883" lon="-5.261450">
        <ele>2126.0</ele>
        <time>2015-07-25T12:29:11Z</time>
      </trkpt>
      <trkpt lat="40.450750" lon="-5.261583">
        <ele>2127.0</ele>
        <time>2015-07-25T12:29:13Z</time>
      </trkpt>
      <trkpt lat="40.450667" lon="-5.261717">
        <ele>2126.0</ele>
        <time>2015-07-25T12:29:15Z</time>
      </trkpt>
      <trkpt lat="40.450583" lon="-5.261900">
        <ele>2125.0</ele>
        <time>2015-07-25T12:29:17Z</time>
      </trkpt>
      <trkpt lat="40.450567" lon="-5.262067">
        <ele>2126.0</ele>
        <time>2015-07-25T12:29:19Z</time>
      </trkpt>
      <trkpt lat="40.450583" lon="-5.262217">
        <ele>2126.0</ele>
        <time>2015-07-25T12:29:21Z</time>
      </trkpt>
      <trkpt lat="40.450617" lon="-5.262367">
        <ele>2121.0</ele>
        <time>2015-07-25T12:29:23Z</time>
      </trkpt>
      <trkpt lat="40.450667" lon="-5.262550">
        <ele>2118.0</ele>
        <time>2015-07-25T12:29:25Z</time>
      </trkpt>
      <trkpt lat="40.450667" lon="-5.262717">
        <ele>2118.0</ele>
        <time>2015-07-25T12:29:27Z</time>
      </trkpt>
      <trkpt lat="40.450633" lon="-5.262867">
        <ele>2116.0</ele>
        <time>2015-07-25T12:29:29Z</time>
      </trkpt>
      <trkpt lat="40.450550" lon="-5.263050">
        <ele>2113.0</ele>
        <time>2015-07-25T12:29:31Z</time>
      </trkpt>
      <trkpt lat="40.450450" lon="-5.263250">
        <ele>2111.0</ele>
        <time>2015-07-25T12:29:33Z</time>
      </trkpt>
      <trkpt lat="40.450317" lon="-5.263400">
        <ele>2111.0</ele>
        <time>2015-07-25T12:29:35Z</time>
      </trkpt>
      <trkpt lat="40.450200" lon="-5.263567">
        <ele>2110.0</ele>
        <time>2015-07-25T12:29:37Z</time>
      </trkpt>
      <trkpt lat="40.450083" lon="-5.263750">
        <ele>2111.0</ele>
        <time>2015-07-25T12:29:39Z</time>
      </trkpt>
      <trkpt lat="40.450000" lon="-5.263900">
        <ele>2116.0</ele>
        <time>2015-07-25T12:29:41Z</time>
      </trkpt>
      <trkpt lat="40.449983" lon="-5.264000">
        <ele>2113.0</ele>
        <time>2015-07-25T12:29:43Z</time>
      </trkpt>
      <trkpt lat="40.449950" lon="-5.264200">
        <ele>2106.0</ele>
        <time>2015-07-25T12:29:45Z</time>
      </trkpt>
      <trkpt lat="40.449883" lon="-5.264417">
        <ele>2103.0</ele>
        <time>2015-07-25T12:29:47Z</time>
      </trkpt>
      <trkpt lat="40.449783" lon="-5.264550">
        <ele>2100.0</ele>
        <time>2015-07-25T12:29:49Z</time>
      </trkpt>
      <trkpt lat="40.449633" lon="-5.264650">
        <ele>2096.0</ele>
        <time>2015-07-25T12:29:51Z</time>
      </trkpt>
      <trkpt lat="40.449467" lon="-5.264767">
        <ele>2094.0</ele>
        <time>2015-07-25T12:29:53Z</time>
      </trkpt>
      <trkpt lat="40.449300" lon="-5.264900">
        <ele>2096.0</ele>
        <time>2015-07-25T12:29:55Z</time>
      </trkpt>
      <trkpt lat="40.449150" lon="-5.265017">
        <ele>2099.0</ele>
        <time>2015-07-25T12:29:57Z</time>
      </trkpt>
      <trkpt lat="40.449067" lon="-5.265200">
        <ele>2097.0</ele>
        <time>2015-07-25T12:29:59Z</time>
      </trkpt>
      <trkpt lat="40.448983" lon="-5.265450">
        <ele>2095.0</ele>
        <time>2015-07-25T12:30:01Z</time>
      </trkpt>
      <trkpt lat="40.448900" lon="-5.265650">
        <ele>2097.0</ele>
        <time>2015-07-25T12:30:03Z</time>
      </trkpt>
      <trkpt lat="40.448833" lon="-5.265817">
        <ele>2096.0</ele>
        <time>2015-07-25T12:30:05Z</time>
      </trkpt>
      <trkpt lat="40.448750" lon="-5.265933">
        <ele>2092.0</ele>
        <time>2015-07-25T12:30:07Z</time>
      </trkpt>
      <trkpt lat="40.448633" lon="-5.266067">
        <ele>2086.0</ele>
        <time>2015-07-25T12:30:09Z</time>
      </trkpt>
      <trkpt lat="40.448467" lon="-5.266217">
        <ele>2080.0</ele>
        <time>2015-07-25T12:30:11Z</time>
      </trkpt>
      <trkpt lat="40.448267" lon="-5.266400">
        <ele>2076.0</ele>
        <time>2015-07-25T12:30:13Z</time>
      </trkpt>
      <trkpt lat="40.448117" lon="-5.266517">
        <ele>2077.0</ele>
        <time>2015-07-25T12:30:15Z</time>
      </trkpt>
      <trkpt lat="40.448000" lon="-5.266600">
        <ele>2075.0</ele>
        <time>2015-07-25T12:30:17Z</time>
      </trkpt>
      <trkpt lat="40.447850" lon="-5.266733">
        <ele>2067.0</ele>
        <time>2015-07-25T12:30:19Z</time>
      </trkpt>
      <trkpt lat="40.447683" lon="-5.266933">
        <ele>2064.0</ele>
        <time>2015-07-25T12:30:21Z</time>
      </trkpt>
      <trkpt lat="40.447517" lon="-5.267067">
        <ele>2067.0</ele>
        <time>2015-07-25T12:30:23Z</time>
      </trkpt>
      <trkpt lat="40.447383" lon="-5.267183">
        <ele>2068.0</ele>
        <time>2015-07-25T12:30:25Z</time>
      </trkpt>
      <trkpt lat="40.447250" lon="-5.267367">
        <ele>2066.0</ele>
        <time>2015-07-25T12:30:27Z</time>
      </trkpt>
      <trkpt lat="40.447133" lon="-5.267517">
        <ele>2068.0</ele>
        <time>2015-07-25T12:30:29Z</time>
      </trkpt>
      <trkpt lat="40.447033" lon="-5.267650">
        <ele>2067.0</ele>
        <time>2015-07-25T12:30:31Z</time>
      </trkpt>
      <trkpt lat="40.446983" lon="-5.267833">
        <ele>2064.0</ele>
        <time>2015-07-25T12:30:33Z</time>
      </trkpt>
      <trkpt lat="40.446950" lon="-5.268000">
        <ele>2064.0</ele>
        <time>2015-07-25T12:30:35Z</time>
      </trkpt>
      <trkpt lat="40.446917" lon="-5.268167">
        <ele>2062.0</ele>
        <time>2015-07-25T12:30:37Z</time>
      </trkpt>
      <trkpt lat="40.446867" lon="-5.268367">
        <ele>2061.0</ele>
        <time>2015-07-25T12:30:39Z</time>
      </trkpt>
      <trkpt lat="40.446817" lon="-5.268567">
        <ele>2059.0</ele>
        <time>2015-07-25T12:30:41Z</time>
      </trkpt>
      <trkpt lat="40.446733" lon="-5.268767">
        <ele>2056.0</ele>
        <time>2015-07-25T12:30:43Z</time>
      </trkpt>
      <trkpt lat="40.446617" lon="-5.268950">
        <ele>2053.0</ele>
        <time>2015-07-25T12:30:45Z</time>
      </trkpt>
      <trkpt lat="40.446483" lon="-5.269167">
        <ele>2051.0</ele>
        <time>2015-07-25T12:30:47Z</time>
      </trkpt>
      <trkpt lat="40.446350" lon="-5.269350">
        <ele>2056.0</ele>
        <time>2015-07-25T12:30:49Z</time>
      </trkpt>
      <trkpt lat="40.446250" lon="-5.269467">
        <ele>2060.0</ele>
        <time>2015-07-25T12:30:51Z</time>
      </trkpt>
      <trkpt lat="40.446200" lon="-5.269600">
        <ele>2058.0</ele>
        <time>2015-07-25T12:30:53Z</time>
      </trkpt>
      <trkpt lat="40.446167" lon="-5.269800">
        <ele>2055.0</ele>
        <time>2015-07-25T12:30:55Z</time>
      </trkpt>
      <trkpt lat="40.446133" lon="-5.270017">
        <ele>2054.0</ele>
        <time>2015-07-25T12:30:57Z</time>
      </trkpt>
      <trkpt lat="40.446083" lon="-5.270217">
        <ele>2053.0</ele>
        <time>2015-07-25T12:30:59Z</time>
      </trkpt>
      <trkpt lat="40.446067" lon="-5.270400">
        <ele>2052.0</ele>
        <time>2015-07-25T12:31:01Z</time>
      </trkpt>
      <trkpt lat="40.446050" lon="-5.270617">
        <ele>2050.0</ele>
        <time>2015-07-25T12:31:03Z</time>
      </trkpt>
      <trkpt lat="40.446000" lon="-5.270817">
        <ele>2051.0</ele>
        <time>2015-07-25T12:31:05Z</time>
      </trkpt>
      <trkpt lat="40.445950" lon="-5.271017">
        <ele>2053.0</ele>
        <time>2015-07-25T12:31:07Z</time>
      </trkpt>
      <trkpt lat="40.445917" lon="-5.271183">
        <ele>2054.0</ele>
        <time>2015-07-25T12:31:09Z</time>
      </trkpt>
      <trkpt lat="40.445883" lon="-5.271367">
        <ele>2056.0</ele>
        <time>2015-07-25T12:31:11Z</time>
      </trkpt>
      <trkpt lat="40.445900" lon="-5.271500">
        <ele>2057.0</ele>
        <time>2015-07-25T12:31:13Z</time>
      </trkpt>
      <trkpt lat="40.445967" lon="-5.271533">
        <ele>2059.0</ele>
        <time>2015-07-25T12:31:15Z</time>
      </trkpt>
      <trkpt lat="40.446067" lon="-5.271483">
        <ele>2060.0</ele>
        <time>2015-07-25T12:31:17Z</time>
      </trkpt>
      <trkpt lat="40.446133" lon="-5.271317">
        <ele>2061.0</ele>
        <time>2015-07-25T12:31:19Z</time>
      </trkpt>
      <trkpt lat="40.446150" lon="-5.271067">
        <ele>2063.0</ele>
        <time>2015-07-25T12:31:21Z</time>
      </trkpt>
      <trkpt lat="40.446100" lon="-5.270817">
        <ele>2065.0</ele>
        <time>2015-07-25T12:31:23Z</time>
      </trkpt>
      <trkpt lat="40.446117" lon="-5.270600">
        <ele>2067.0</ele>
        <time>2015-07-25T12:31:25Z</time>
      </trkpt>
      <trkpt lat="40.446200" lon="-5.270500">
        <ele>2067.0</ele>
        <time>2015-07-25T12:31:27Z</time>
      </trkpt>
      <trkpt lat="40.446317" lon="-5.270550">
        <ele>2068.0</ele>
        <time>2015-07-25T12:31:29Z</time>
      </trkpt>
      <trkpt lat="40.446367" lon="-5.270700">
        <ele>2069.0</ele>
        <time>2015-07-25T12:31:31Z</time>
      </trkpt>
      <trkpt lat="40.446350" lon="-5.270883">
        <ele>2068.0</ele>
        <time>2015-07-25T12:31:33Z</time>
      </trkpt>
      <trkpt lat="40.446267" lon="-5.271083">
        <ele>2067.0</ele>
        <time>2015-07-25T12:31:35Z</time>
      </trkpt>
      <trkpt lat="40.446150" lon="-5.271233">
        <ele>2068.0</ele>
        <time>2015-07-25T12:31:37Z</time>
      </trkpt>
      <trkpt lat="40.446017" lon="-5.271367">
        <ele>2069.0</ele>
        <time>2015-07-25T12:31:39Z</time>
      </trkpt>
      <trkpt lat="40.445867" lon="-5.271533">
        <ele>2069.0</ele>
        <time>2015-07-25T12:31:41Z</time>
      </trkpt>
      <trkpt lat="40.445800" lon="-5.271733">
        <ele>2069.0</ele>
        <time>2015-07-25T12:31:43Z</time>
      </trkpt>
      <trkpt lat="40.445817" lon="-5.271883">
        <ele>2070.0</ele>
        <time>2015-07-25T12:31:45Z</time>
      </trkpt>
      <trkpt lat="40.445867" lon="-5.271950">
        <ele>2069.0</ele>
        <time>2015-07-25T12:31:47Z</time>
      </trkpt>
      <trkpt lat="40.445983" lon="-5.271933">
        <ele>2066.0</ele>
        <time>2015-07-25T12:31:49Z</time>
      </trkpt>
      <trkpt lat="40.446117" lon="-5.271783">
        <ele>2065.0</ele>
        <time>2015-07-25T12:31:51Z</time>
      </trkpt>
      <trkpt lat="40.446200" lon="-5.271617">
        <ele>2068.0</ele>
        <time>2015-07-25T12:31:53Z</time>
      </trkpt>
      <trkpt lat="40.446283" lon="-5.271583">
        <ele>2067.0</ele>
        <time>2015-07-25T12:31:55Z</time>
      </trkpt>
      <trkpt lat="40.446367" lon="-5.271633">
        <ele>2063.0</ele>
        <time>2015-07-25T12:31:57Z</time>
      </trkpt>
      <trkpt lat="40.446350" lon="-5.271800">
        <ele>2058.0</ele>
        <time>2015-07-25T12:31:59Z</time>
      </trkpt>
      <trkpt lat="40.446217" lon="-5.271967">
        <ele>2055.0</ele>
        <time>2015-07-25T12:32:01Z</time>
      </trkpt>
      <trkpt lat="40.446083" lon="-5.272100">
        <ele>2051.0</ele>
        <time>2015-07-25T12:32:03Z</time>
      </trkpt>
      <trkpt lat="40.445983" lon="-5.272283">
        <ele>2045.0</ele>
        <time>2015-07-25T12:32:05Z</time>
      </trkpt>
      <trkpt lat="40.445933" lon="-5.272500">
        <ele>2044.0</ele>
        <time>2015-07-25T12:32:07Z</time>
      </trkpt>
      <trkpt lat="40.445917" lon="-5.272650">
        <ele>2048.0</ele>
        <time>2015-07-25T12:32:09Z</time>
      </trkpt>
      <trkpt lat="40.445917" lon="-5.272750">
        <ele>2050.0</ele>
        <time>2015-07-25T12:32:11Z</time>
      </trkpt>
      <trkpt lat="40.445950" lon="-5.272867">
        <ele>2050.0</ele>
        <time>2015-07-25T12:32:13Z</time>
      </trkpt>
      <trkpt lat="40.445983" lon="-5.272967">
        <ele>2051.0</ele>
        <time>2015-07-25T12:32:15Z</time>
      </trkpt>
      <trkpt lat="40.446067" lon="-5.273033">
        <ele>2054.0</ele>
        <time>2015-07-25T12:32:17Z</time>
      </trkpt>
      <trkpt lat="40.446133" lon="-5.273067">
        <ele>2058.0</ele>
        <time>2015-07-25T12:32:19Z</time>
      </trkpt>
      <trkpt lat="40.446233" lon="-5.273017">
        <ele>2059.0</ele>
        <time>2015-07-25T12:32:21Z</time>
      </trkpt>
      <trkpt lat="40.446300" lon="-5.272833">
        <ele>2061.0</ele>
        <time>2015-07-25T12:32:23Z</time>
      </trkpt>
      <trkpt lat="40.446300" lon="-5.272617">
        <ele>2064.0</ele>
        <time>2015-07-25T12:32:25Z</time>
      </trkpt>
      <trkpt lat="40.446283" lon="-5.272400">
        <ele>2065.0</ele>
        <time>2015-07-25T12:32:27Z</time>
      </trkpt>
      <trkpt lat="40.446233" lon="-5.272167">
        <ele>2066.0</ele>
        <time>2015-07-25T12:32:29Z</time>
      </trkpt>
      <trkpt lat="40.446217" lon="-5.271983">
        <ele>2067.0</ele>
        <time>2015-07-25T12:32:31Z</time>
      </trkpt>
      <trkpt lat="40.446217" lon="-5.271817">
        <ele>2066.0</ele>
        <time>2015-07-25T12:32:33Z</time>
      </trkpt>
      <trkpt lat="40.446300" lon="-5.271800">
        <ele>2062.0</ele>
        <time>2015-07-25T12:32:35Z</time>
      </trkpt>
      <trkpt lat="40.446317" lon="-5.271967">
        <ele>2066.0</ele>
        <time>2015-07-25T12:32:37Z</time>
      </trkpt>
      <trkpt lat="40.446233" lon="-5.272100">
        <ele>2076.0</ele>
        <time>2015-07-25T12:32:39Z</time>
      </trkpt>
      <trkpt lat="40.446083" lon="-5.272183">
        <ele>2079.0</ele>
        <time>2015-07-25T12:32:41Z</time>
      </trkpt>
      <trkpt lat="40.445917" lon="-5.272350">
        <ele>2081.0</ele>
        <time>2015-07-25T12:32:43Z</time>
      </trkpt>
      <trkpt lat="40.445750" lon="-5.272533">
        <ele>2083.0</ele>
        <time>2015-07-25T12:32:45Z</time>
      </trkpt>
      <trkpt lat="40.445650" lon="-5.272767">
        <ele>2086.0</ele>
        <time>2015-07-25T12:32:47Z</time>
      </trkpt>
      <trkpt lat="40.445650" lon="-5.272983">
        <ele>2094.0</ele>
        <time>2015-07-25T12:32:49Z</time>
      </trkpt>
      <trkpt lat="40.445700" lon="-5.273067">
        <ele>2103.0</ele>
        <time>2015-07-25T12:32:51Z</time>
      </trkpt>
      <trkpt lat="40.445767" lon="-5.273067">
        <ele>2105.0</ele>
        <time>2015-07-25T12:32:53Z</time>
      </trkpt>
      <trkpt lat="40.445867" lon="-5.273033">
        <ele>2105.0</ele>
        <time>2015-07-25T12:32:55Z</time>
      </trkpt>
      <trkpt lat="40.445983" lon="-5.272900">
        <ele>2105.0</ele>
        <time>2015-07-25T12:32:57Z</time>
      </trkpt>
      <trkpt lat="40.446067" lon="-5.272717">
        <ele>2107.0</ele>
        <time>2015-07-25T12:32:59Z</time>
      </trkpt>
      <trkpt lat="40.446150" lon="-5.272550">
        <ele>2106.0</ele>
        <time>2015-07-25T12:33:01Z</time>
      </trkpt>
      <trkpt lat="40.446283" lon="-5.272467">
        <ele>2103.0</ele>
        <time>2015-07-25T12:33:03Z</time>
      </trkpt>
      <trkpt lat="40.446367" lon="-5.272583">
        <ele>2103.0</ele>
        <time>2015-07-25T12:33:05Z</time>
      </trkpt>
      <trkpt lat="40.446333" lon="-5.272733">
        <ele>2104.0</ele>
        <time>2015-07-25T12:33:07Z</time>
      </trkpt>
      <trkpt lat="40.446267" lon="-5.272867">
        <ele>2103.0</ele>
        <time>2015-07-25T12:33:09Z</time>
      </trkpt>
      <trkpt lat="40.446200" lon="-5.273033">
        <ele>2100.0</ele>
        <time>2015-07-25T12:33:11Z</time>
      </trkpt>
      <trkpt lat="40.446133" lon="-5.273200">
        <ele>2098.0</ele>
        <time>2015-07-25T12:33:13Z</time>
      </trkpt>
      <trkpt lat="40.446133" lon="-5.273350">
        <ele>2096.0</ele>
        <time>2015-07-25T12:33:15Z</time>
      </trkpt>
      <trkpt lat="40.446167" lon="-5.273500">
        <ele>2092.0</ele>
        <time>2015-07-25T12:33:17Z</time>
      </trkpt>
      <trkpt lat="40.446200" lon="-5.273667">
        <ele>2089.0</ele>
        <time>2015-07-25T12:33:19Z</time>
      </trkpt>
      <trkpt lat="40.446233" lon="-5.273783">
        <ele>2089.0</ele>
        <time>2015-07-25T12:33:21Z</time>
      </trkpt>
      <trkpt lat="40.446283" lon="-5.273867">
        <ele>2086.0</ele>
        <time>2015-07-25T12:33:23Z</time>
      </trkpt>
      <trkpt lat="40.446400" lon="-5.273867">
        <ele>2082.0</ele>
        <time>2015-07-25T12:33:25Z</time>
      </trkpt>
      <trkpt lat="40.446533" lon="-5.273817">
        <ele>2080.0</ele>
        <time>2015-07-25T12:33:27Z</time>
      </trkpt>
      <trkpt lat="40.446633" lon="-5.273783">
        <ele>2078.0</ele>
        <time>2015-07-25T12:33:29Z</time>
      </trkpt>
      <trkpt lat="40.446733" lon="-5.273833">
        <ele>2076.0</ele>
        <time>2015-07-25T12:33:31Z</time>
      </trkpt>
      <trkpt lat="40.446783" lon="-5.273950">
        <ele>2073.0</ele>
        <time>2015-07-25T12:33:33Z</time>
      </trkpt>
      <trkpt lat="40.446783" lon="-5.274133">
        <ele>2070.0</ele>
        <time>2015-07-25T12:33:35Z</time>
      </trkpt>
      <trkpt lat="40.446683" lon="-5.274333">
        <ele>2068.0</ele>
        <time>2015-07-25T12:33:37Z</time>
      </trkpt>
      <trkpt lat="40.446550" lon="-5.274483">
        <ele>2066.0</ele>
        <time>2015-07-25T12:33:39Z</time>
      </trkpt>
      <trkpt lat="40.446400" lon="-5.274650">
        <ele>2063.0</ele>
        <time>2015-07-25T12:33:41Z</time>
      </trkpt>
      <trkpt lat="40.446250" lon="-5.274833">
        <ele>2062.0</ele>
        <time>2015-07-25T12:33:43Z</time>
      </trkpt>
      <trkpt lat="40.446133" lon="-5.275033">
        <ele>2061.0</ele>
        <time>2015-07-25T12:33:45Z</time>
      </trkpt>
      <trkpt lat="40.446050" lon="-5.275233">
        <ele>2059.0</ele>
        <time>2015-07-25T12:33:47Z</time>
      </trkpt>
      <trkpt lat="40.446000" lon="-5.275433">
        <ele>2057.0</ele>
        <time>2015-07-25T12:33:49Z</time>
      </trkpt>
      <trkpt lat="40.445950" lon="-5.275650">
        <ele>2054.0</ele>
        <time>2015-07-25T12:33:51Z</time>
      </trkpt>
      <trkpt lat="40.445900" lon="-5.275867">
        <ele>2051.0</ele>
        <time>2015-07-25T12:33:53Z</time>
      </trkpt>
      <trkpt lat="40.445850" lon="-5.276083">
        <ele>2050.0</ele>
        <time>2015-07-25T12:33:55Z</time>
      </trkpt>
      <trkpt lat="40.445800" lon="-5.276267">
        <ele>2048.0</ele>
        <time>2015-07-25T12:33:57Z</time>
      </trkpt>
      <trkpt lat="40.445800" lon="-5.276450">
        <ele>2045.0</ele>
        <time>2015-07-25T12:33:59Z</time>
      </trkpt>
      <trkpt lat="40.445817" lon="-5.276667">
        <ele>2043.0</ele>
        <time>2015-07-25T12:34:01Z</time>
      </trkpt>
      <trkpt lat="40.445800" lon="-5.276867">
        <ele>2046.0</ele>
        <time>2015-07-25T12:34:03Z</time>
      </trkpt>
      <trkpt lat="40.445817" lon="-5.277000">
        <ele>2047.0</ele>
        <time>2015-07-25T12:34:05Z</time>
      </trkpt>
      <trkpt lat="40.445883" lon="-5.277167">
        <ele>2048.0</ele>
        <time>2015-07-25T12:34:07Z</time>
      </trkpt>
      <trkpt lat="40.445917" lon="-5.277333">
        <ele>2053.0</ele>
        <time>2015-07-25T12:34:09Z</time>
      </trkpt>
      <trkpt lat="40.445917" lon="-5.277533">
        <ele>2054.0</ele>
        <time>2015-07-25T12:34:11Z</time>
      </trkpt>
      <trkpt lat="40.445833" lon="-5.277800">
        <ele>2052.0</ele>
        <time>2015-07-25T12:34:13Z</time>
      </trkpt>
      <trkpt lat="40.445683" lon="-5.278033">
        <ele>2054.0</ele>
        <time>2015-07-25T12:34:15Z</time>
      </trkpt>
      <trkpt lat="40.445617" lon="-5.278283">
        <ele>2053.0</ele>
        <time>2015-07-25T12:34:17Z</time>
      </trkpt>
      <trkpt lat="40.445600" lon="-5.278550">
        <ele>2055.0</ele>
        <time>2015-07-25T12:34:19Z</time>
      </trkpt>
      <trkpt lat="40.445567" lon="-5.278783">
        <ele>2059.0</ele>
        <time>2015-07-25T12:34:21Z</time>
      </trkpt>
      <trkpt lat="40.445483" lon="-5.279000">
        <ele>2060.0</ele>
        <time>2015-07-25T12:34:23Z</time>
      </trkpt>
      <trkpt lat="40.445350" lon="-5.279233">
        <ele>2058.0</ele>
        <time>2015-07-25T12:34:25Z</time>
      </trkpt>
      <trkpt lat="40.445150" lon="-5.279433">
        <ele>2064.0</ele>
        <time>2015-07-25T12:34:27Z</time>
      </trkpt>
      <trkpt lat="40.445000" lon="-5.279550">
        <ele>2072.0</ele>
        <time>2015-07-25T12:34:29Z</time>
      </trkpt>
      <trkpt lat="40.444817" lon="-5.279567">
        <ele>2075.0</ele>
        <time>2015-07-25T12:34:31Z</time>
      </trkpt>
      <trkpt lat="40.444600" lon="-5.279433">
        <ele>2075.0</ele>
        <time>2015-07-25T12:34:33Z</time>
      </trkpt>
      <trkpt lat="40.444517" lon="-5.279150">
        <ele>2079.0</ele>
        <time>2015-07-25T12:34:35Z</time>
      </trkpt>
      <trkpt lat="40.444533" lon="-5.278967">
        <ele>2084.0</ele>
        <time>2015-07-25T12:34:37Z</time>
      </trkpt>
      <trkpt lat="40.444567" lon="-5.278833">
        <ele>2083.0</ele>
        <time>2015-07-25T12:34:39Z</time>
      </trkpt>
      <trkpt lat="40.444650" lon="-5.278667">
        <ele>2080.0</ele>
        <time>2015-07-25T12:34:41Z</time>
      </trkpt>
      <trkpt lat="40.444817" lon="-5.278633">
        <ele>2080.0</ele>
        <time>2015-07-25T12:34:43Z</time>
      </trkpt>
      <trkpt lat="40.444917" lon="-5.278783">
        <ele>2080.0</ele>
        <time>2015-07-25T12:34:45Z</time>
      </trkpt>
      <trkpt lat="40.444933" lon="-5.279017">
        <ele>2083.0</ele>
        <time>2015-07-25T12:34:47Z</time>
      </trkpt>
      <trkpt lat="40.444883" lon="-5.279283">
        <ele>2085.0</ele>
        <time>2015-07-25T12:34:49Z</time>
      </trkpt>
      <trkpt lat="40.444800" lon="-5.279517">
        <ele>2088.0</ele>
        <time>2015-07-25T12:34:51Z</time>
      </trkpt>
      <trkpt lat="40.444633" lon="-5.279733">
        <ele>2090.0</ele>
        <time>2015-07-25T12:34:53Z</time>
      </trkpt>
      <trkpt lat="40.444417" lon="-5.279917">
        <ele>2094.0</ele>
        <time>2015-07-25T12:34:55Z</time>
      </trkpt>
      <trkpt lat="40.444200" lon="-5.280033">
        <ele>2101.0</ele>
        <time>2015-07-25T12:34:57Z</time>
      </trkpt>
      <trkpt lat="40.444000" lon="-5.280133">
        <ele>2107.0</ele>
        <time>2015-07-25T12:34:59Z</time>
      </trkpt>
      <trkpt lat="40.443850" lon="-5.280300">
        <ele>2112.0</ele>
        <time>2015-07-25T12:35:01Z</time>
      </trkpt>
      <trkpt lat="40.443783" lon="-5.280450">
        <ele>2117.0</ele>
        <time>2015-07-25T12:35:03Z</time>
      </trkpt>
      <trkpt lat="40.443750" lon="-5.280617">
        <ele>2119.0</ele>
        <time>2015-07-25T12:35:05Z</time>
      </trkpt>
      <trkpt lat="40.443717" lon="-5.280833">
        <ele>2120.0</ele>
        <time>2015-07-25T12:35:07Z</time>
      </trkpt>
      <trkpt lat="40.443600" lon="-5.281033">
        <ele>2123.0</ele>
        <time>2015-07-25T12:35:09Z</time>
      </trkpt>
      <trkpt lat="40.443400" lon="-5.281067">
        <ele>2123.0</ele>
        <time>2015-07-25T12:35:11Z</time>
      </trkpt>
      <trkpt lat="40.443200" lon="-5.281017">
        <ele>2124.0</ele>
        <time>2015-07-25T12:35:13Z</time>
      </trkpt>
      <trkpt lat="40.443033" lon="-5.280850">
        <ele>2124.0</ele>
        <time>2015-07-25T12:35:15Z</time>
      </trkpt>
      <trkpt lat="40.442983" lon="-5.280583">
        <ele>2122.0</ele>
        <time>2015-07-25T12:35:17Z</time>
      </trkpt>
      <trkpt lat="40.443083" lon="-5.280400">
        <ele>2123.0</ele>
        <time>2015-07-25T12:35:19Z</time>
      </trkpt>
      <trkpt lat="40.443200" lon="-5.280333">
        <ele>2128.0</ele>
        <time>2015-07-25T12:35:21Z</time>
      </trkpt>
      <trkpt lat="40.443317" lon="-5.280367">
        <ele>2130.0</ele>
        <time>2015-07-25T12:35:23Z</time>
      </trkpt>
      <trkpt lat="40.443433" lon="-5.280500">
        <ele>2135.0</ele>
        <time>2015-07-25T12:35:25Z</time>
      </trkpt>
      <trkpt lat="40.443483" lon="-5.280650">
        <ele>2139.0</ele>
        <time>2015-07-25T12:35:27Z</time>
      </trkpt>
      <trkpt lat="40.443500" lon="-5.280850">
        <ele>2139.0</ele>
        <time>2015-07-25T12:35:29Z</time>
      </trkpt>
      <trkpt lat="40.443483" lon="-5.281100">
        <ele>2140.0</ele>
        <time>2015-07-25T12:35:31Z</time>
      </trkpt>
      <trkpt lat="40.443400" lon="-5.281350">
        <ele>2143.0</ele>
        <time>2015-07-25T12:35:33Z</time>
      </trkpt>
      <trkpt lat="40.443283" lon="-5.281583">
        <ele>2148.0</ele>
        <time>2015-07-25T12:35:35Z</time>
      </trkpt>
      <trkpt lat="40.443133" lon="-5.281783">
        <ele>2149.0</ele>
        <time>2015-07-25T12:35:37Z</time>
      </trkpt>
      <trkpt lat="40.442917" lon="-5.281933">
        <ele>2147.0</ele>
        <time>2015-07-25T12:35:39Z</time>
      </trkpt>
      <trkpt lat="40.442683" lon="-5.282050">
        <ele>2145.0</ele>
        <time>2015-07-25T12:35:41Z</time>
      </trkpt>
      <trkpt lat="40.442433" lon="-5.282233">
        <ele>2142.0</ele>
        <time>2015-07-25T12:35:43Z</time>
      </trkpt>
      <trkpt lat="40.442183" lon="-5.282417">
        <ele>2147.0</ele>
        <time>2015-07-25T12:35:45Z</time>
      </trkpt>
      <trkpt lat="40.441983" lon="-5.282633">
        <ele>2153.0</ele>
        <time>2015-07-25T12:35:47Z</time>
      </trkpt>
      <trkpt lat="40.441867" lon="-5.282883">
        <ele>2157.0</ele>
        <time>2015-07-25T12:35:49Z</time>
      </trkpt>
      <trkpt lat="40.441717" lon="-5.283150">
        <ele>2161.0</ele>
        <time>2015-07-25T12:35:51Z</time>
      </trkpt>
      <trkpt lat="40.441500" lon="-5.283300">
        <ele>2162.0</ele>
        <time>2015-07-25T12:35:53Z</time>
      </trkpt>
      <trkpt lat="40.441250" lon="-5.283333">
        <ele>2163.0</ele>
        <time>2015-07-25T12:35:55Z</time>
      </trkpt>
      <trkpt lat="40.441017" lon="-5.283250">
        <ele>2161.0</ele>
        <time>2015-07-25T12:35:57Z</time>
      </trkpt>
      <trkpt lat="40.440917" lon="-5.283033">
        <ele>2158.0</ele>
        <time>2015-07-25T12:35:59Z</time>
      </trkpt>
      <trkpt lat="40.440950" lon="-5.282883">
        <ele>2162.0</ele>
        <time>2015-07-25T12:36:01Z</time>
      </trkpt>
      <trkpt lat="40.441000" lon="-5.282933">
        <ele>2165.0</ele>
        <time>2015-07-25T12:36:03Z</time>
      </trkpt>
      <trkpt lat="40.441067" lon="-5.283033">
        <ele>2164.0</ele>
        <time>2015-07-25T12:36:05Z</time>
      </trkpt>
      <trkpt lat="40.441167" lon="-5.283183">
        <ele>2163.0</ele>
        <time>2015-07-25T12:36:07Z</time>
      </trkpt>
      <trkpt lat="40.441233" lon="-5.283400">
        <ele>2166.0</ele>
        <time>2015-07-25T12:36:09Z</time>
      </trkpt>
      <trkpt lat="40.441200" lon="-5.283617">
        <ele>2169.0</ele>
        <time>2015-07-25T12:36:11Z</time>
      </trkpt>
      <trkpt lat="40.441200" lon="-5.283817">
        <ele>2168.0</ele>
        <time>2015-07-25T12:36:13Z</time>
      </trkpt>
      <trkpt lat="40.441250" lon="-5.283967">
        <ele>2167.0</ele>
        <time>2015-07-25T12:36:15Z</time>
      </trkpt>
      <trkpt lat="40.441317" lon="-5.284083">
        <ele>2168.0</ele>
        <time>2015-07-25T12:36:17Z</time>
      </trkpt>
      <trkpt lat="40.441367" lon="-5.284217">
        <ele>2168.0</ele>
        <time>2015-07-25T12:36:19Z</time>
      </trkpt>
      <trkpt lat="40.441400" lon="-5.284383">
        <ele>2168.0</ele>
        <time>2015-07-25T12:36:21Z</time>
      </trkpt>
      <trkpt lat="40.441417" lon="-5.284567">
        <ele>2164.0</ele>
        <time>2015-07-25T12:36:23Z</time>
      </trkpt>
      <trkpt lat="40.441350" lon="-5.284833">
        <ele>2158.0</ele>
        <time>2015-07-25T12:36:25Z</time>
      </trkpt>
      <trkpt lat="40.441167" lon="-5.285067">
        <ele>2156.0</ele>
        <time>2015-07-25T12:36:27Z</time>
      </trkpt>
      <trkpt lat="40.440967" lon="-5.285183">
        <ele>2156.0</ele>
        <time>2015-07-25T12:36:29Z</time>
      </trkpt>
      <trkpt lat="40.440767" lon="-5.285300">
        <ele>2152.0</ele>
        <time>2015-07-25T12:36:31Z</time>
      </trkpt>
      <trkpt lat="40.440500" lon="-5.285417">
        <ele>2147.0</ele>
        <time>2015-07-25T12:36:33Z</time>
      </trkpt>
      <trkpt lat="40.440250" lon="-5.285567">
        <ele>2146.0</ele>
        <time>2015-07-25T12:36:35Z</time>
      </trkpt>
      <trkpt lat="40.440050" lon="-5.285700">
        <ele>2144.0</ele>
        <time>2015-07-25T12:36:37Z</time>
      </trkpt>
      <trkpt lat="40.439833" lon="-5.285817">
        <ele>2140.0</ele>
        <time>2015-07-25T12:36:39Z</time>
      </trkpt>
      <trkpt lat="40.439617" lon="-5.285983">
        <ele>2134.0</ele>
        <time>2015-07-25T12:36:41Z</time>
      </trkpt>
      <trkpt lat="40.439367" lon="-5.286133">
        <ele>2131.0</ele>
        <time>2015-07-25T12:36:43Z</time>
      </trkpt>
      <trkpt lat="40.439117" lon="-5.286250">
        <ele>2129.0</ele>
        <time>2015-07-25T12:36:45Z</time>
      </trkpt>
      <trkpt lat="40.438917" lon="-5.286417">
        <ele>2130.0</ele>
        <time>2015-07-25T12:36:47Z</time>
      </trkpt>
      <trkpt lat="40.438783" lon="-5.286583">
        <ele>2133.0</ele>
        <time>2015-07-25T12:36:49Z</time>
      </trkpt>
      <trkpt lat="40.438633" lon="-5.286733">
        <ele>2133.0</ele>
        <time>2015-07-25T12:36:51Z</time>
      </trkpt>
      <trkpt lat="40.438567" lon="-5.286933">
        <ele>2134.0</ele>
        <time>2015-07-25T12:36:53Z</time>
      </trkpt>
      <trkpt lat="40.438583" lon="-5.287100">
        <ele>2134.0</ele>
        <time>2015-07-25T12:36:55Z</time>
      </trkpt>
      <trkpt lat="40.438550" lon="-5.287300">
        <ele>2131.0</ele>
        <time>2015-07-25T12:36:57Z</time>
      </trkpt>
      <trkpt lat="40.438417" lon="-5.287483">
        <ele>2127.0</ele>
        <time>2015-07-25T12:36:59Z</time>
      </trkpt>
      <trkpt lat="40.438267" lon="-5.287600">
        <ele>2123.0</ele>
        <time>2015-07-25T12:37:01Z</time>
      </trkpt>
      <trkpt lat="40.438067" lon="-5.287667">
        <ele>2117.0</ele>
        <time>2015-07-25T12:37:03Z</time>
      </trkpt>
      <trkpt lat="40.437817" lon="-5.287783">
        <ele>2109.0</ele>
        <time>2015-07-25T12:37:05Z</time>
      </trkpt>
      <trkpt lat="40.437583" lon="-5.287917">
        <ele>2107.0</ele>
        <time>2015-07-25T12:37:07Z</time>
      </trkpt>
      <trkpt lat="40.437350" lon="-5.288033">
        <ele>2107.0</ele>
        <time>2015-07-25T12:37:09Z</time>
      </trkpt>
      <trkpt lat="40.437150" lon="-5.288150">
        <ele>2109.0</ele>
        <time>2015-07-25T12:37:11Z</time>
      </trkpt>
      <trkpt lat="40.436967" lon="-5.288267">
        <ele>2112.0</ele>
        <time>2015-07-25T12:37:13Z</time>
      </trkpt>
      <trkpt lat="40.436750" lon="-5.288383">
        <ele>2119.0</ele>
        <time>2015-07-25T12:37:15Z</time>
      </trkpt>
      <trkpt lat="40.436550" lon="-5.288450">
        <ele>2131.0</ele>
        <time>2015-07-25T12:37:17Z</time>
      </trkpt>
      <trkpt lat="40.436350" lon="-5.288333">
        <ele>2139.0</ele>
        <time>2015-07-25T12:37:19Z</time>
      </trkpt>
      <trkpt lat="40.436200" lon="-5.288083">
        <ele>2144.0</ele>
        <time>2015-07-25T12:37:21Z</time>
      </trkpt>
      <trkpt lat="40.436183" lon="-5.287800">
        <ele>2152.0</ele>
        <time>2015-07-25T12:37:23Z</time>
      </trkpt>
      <trkpt lat="40.436283" lon="-5.287583">
        <ele>2157.0</ele>
        <time>2015-07-25T12:37:25Z</time>
      </trkpt>
      <trkpt lat="40.436400" lon="-5.287567">
        <ele>2164.0</ele>
        <time>2015-07-25T12:37:27Z</time>
      </trkpt>
      <trkpt lat="40.436450" lon="-5.287667">
        <ele>2174.0</ele>
        <time>2015-07-25T12:37:29Z</time>
      </trkpt>
      <trkpt lat="40.436417" lon="-5.287800">
        <ele>2182.0</ele>
        <time>2015-07-25T12:37:31Z</time>
      </trkpt>
      <trkpt lat="40.436333" lon="-5.287950">
        <ele>2188.0</ele>
        <time>2015-07-25T12:37:33Z</time>
      </trkpt>
      <trkpt lat="40.436183" lon="-5.288083">
        <ele>2196.0</ele>
        <time>2015-07-25T12:37:35Z</time>
      </trkpt>
      <trkpt lat="40.435950" lon="-5.288067">
        <ele>2204.0</ele>
        <time>2015-07-25T12:37:37Z</time>
      </trkpt>
      <trkpt lat="40.435750" lon="-5.287917">
        <ele>2212.0</ele>
        <time>2015-07-25T12:37:39Z</time>
      </trkpt>
      <trkpt lat="40.435600" lon="-5.287700">
        <ele>2217.0</ele>
        <time>2015-07-25T12:37:41Z</time>
      </trkpt>
      <trkpt lat="40.435533" lon="-5.287383">
        <ele>2221.0</ele>
        <time>2015-07-25T12:37:43Z</time>
      </trkpt>
      <trkpt lat="40.435633" lon="-5.287133">
        <ele>2224.0</ele>
        <time>2015-07-25T12:37:45Z</time>
      </trkpt>
      <trkpt lat="40.435800" lon="-5.287083">
        <ele>2229.0</ele>
        <time>2015-07-25T12:37:47Z</time>
      </trkpt>
      <trkpt lat="40.435900" lon="-5.287133">
        <ele>2237.0</ele>
        <time>2015-07-25T12:37:49Z</time>
      </trkpt>
      <trkpt lat="40.435950" lon="-5.287233">
        <ele>2244.0</ele>
        <time>2015-07-25T12:37:51Z</time>
      </trkpt>
      <trkpt lat="40.435933" lon="-5.287367">
        <ele>2249.0</ele>
        <time>2015-07-25T12:37:53Z</time>
      </trkpt>
      <trkpt lat="40.435833" lon="-5.287567">
        <ele>2253.0</ele>
        <time>2015-07-25T12:37:55Z</time>
      </trkpt>
      <trkpt lat="40.435633" lon="-5.287650">
        <ele>2262.0</ele>
        <time>2015-07-25T12:37:57Z</time>
      </trkpt>
      <trkpt lat="40.435417" lon="-5.287600">
        <ele>2270.0</ele>
        <time>2015-07-25T12:37:59Z</time>
      </trkpt>
      <trkpt lat="40.435217" lon="-5.287417">
        <ele>2273.0</ele>
        <time>2015-07-25T12:38:01Z</time>
      </trkpt>
      <trkpt lat="40.435100" lon="-5.287100">
        <ele>2277.0</ele>
        <time>2015-07-25T12:38:03Z</time>
      </trkpt>
      <trkpt lat="40.435133" lon="-5.286800">
        <ele>2281.0</ele>
        <time>2015-07-25T12:38:05Z</time>
      </trkpt>
      <trkpt lat="40.435233" lon="-5.286600">
        <ele>2286.0</ele>
        <time>2015-07-25T12:38:07Z</time>
      </trkpt>
      <trkpt lat="40.435350" lon="-5.286550">
        <ele>2289.0</ele>
        <time>2015-07-25T12:38:09Z</time>
      </trkpt>
      <trkpt lat="40.435433" lon="-5.286633">
        <ele>2290.0</ele>
        <time>2015-07-25T12:38:11Z</time>
      </trkpt>
      <trkpt lat="40.435433" lon="-5.286800">
        <ele>2291.0</ele>
        <time>2015-07-25T12:38:13Z</time>
      </trkpt>
      <trkpt lat="40.435417" lon="-5.287000">
        <ele>2294.0</ele>
        <time>2015-07-25T12:38:15Z</time>
      </trkpt>
      <trkpt lat="40.435317" lon="-5.287183">
        <ele>2301.0</ele>
        <time>2015-07-25T12:38:17Z</time>
      </trkpt>
      <trkpt lat="40.435200" lon="-5.287300">
        <ele>2310.0</ele>
        <time>2015-07-25T12:38:19Z</time>
      </trkpt>
      <trkpt lat="40.435133" lon="-5.287400">
        <ele>2315.0</ele>
        <time>2015-07-25T12:38:21Z</time>
      </trkpt>
      <trkpt lat="40.435000" lon="-5.287533">
        <ele>2316.0</ele>
        <time>2015-07-25T12:38:23Z</time>
      </trkpt>
      <trkpt lat="40.434783" lon="-5.287533">
        <ele>2321.0</ele>
        <time>2015-07-25T12:38:25Z</time>
      </trkpt>
      <trkpt lat="40.434600" lon="-5.287333">
        <ele>2326.0</ele>
        <time>2015-07-25T12:38:27Z</time>
      </trkpt>
      <trkpt lat="40.434483" lon="-5.287083">
        <ele>2332.0</ele>
        <time>2015-07-25T12:38:29Z</time>
      </trkpt>
      <trkpt lat="40.434433" lon="-5.286817">
        <ele>2334.0</ele>
        <time>2015-07-25T12:38:31Z</time>
      </trkpt>
      <trkpt lat="40.434417" lon="-5.286533">
        <ele>2336.0</ele>
        <time>2015-07-25T12:38:33Z</time>
      </trkpt>
      <trkpt lat="40.434467" lon="-5.286300">
        <ele>2340.0</ele>
        <time>2015-07-25T12:38:35Z</time>
      </trkpt>
      <trkpt lat="40.434583" lon="-5.286183">
        <ele>2340.0</ele>
        <time>2015-07-25T12:38:37Z</time>
      </trkpt>
      <trkpt lat="40.434717" lon="-5.286217">
        <ele>2341.0</ele>
        <time>2015-07-25T12:38:39Z</time>
      </trkpt>
      <trkpt lat="40.434767" lon="-5.286333">
        <ele>2343.0</ele>
        <time>2015-07-25T12:38:41Z</time>
      </trkpt>
      <trkpt lat="40.434783" lon="-5.286500">
        <ele>2345.0</ele>
        <time>2015-07-25T12:38:43Z</time>
      </trkpt>
      <trkpt lat="40.434750" lon="-5.286683">
        <ele>2348.0</ele>
        <time>2015-07-25T12:38:45Z</time>
      </trkpt>
      <trkpt lat="40.434700" lon="-5.286867">
        <ele>2352.0</ele>
        <time>2015-07-25T12:38:47Z</time>
      </trkpt>
      <trkpt lat="40.434650" lon="-5.287017">
        <ele>2355.0</ele>
        <time>2015-07-25T12:38:49Z</time>
      </trkpt>
      <trkpt lat="40.434600" lon="-5.287183">
        <ele>2357.0</ele>
        <time>2015-07-25T12:38:51Z</time>
      </trkpt>
      <trkpt lat="40.434583" lon="-5.287350">
        <ele>2357.0</ele>
        <time>2015-07-25T12:38:53Z</time>
      </trkpt>
      <trkpt lat="40.434583" lon="-5.287567">
        <ele>2357.0</ele>
        <time>2015-07-25T12:38:55Z</time>
      </trkpt>
      <trkpt lat="40.434533" lon="-5.287783">
        <ele>2360.0</ele>
        <time>2015-07-25T12:38:57Z</time>
      </trkpt>
      <trkpt lat="40.434483" lon="-5.287983">
        <ele>2365.0</ele>
        <time>2015-07-25T12:38:59Z</time>
      </trkpt>
      <trkpt lat="40.434417" lon="-5.288167">
        <ele>2368.0</ele>
        <time>2015-07-25T12:39:01Z</time>
      </trkpt>
      <trkpt lat="40.434317" lon="-5.288383">
        <ele>2370.0</ele>
        <time>2015-07-25T12:39:03Z</time>
      </trkpt>
      <trkpt lat="40.434217" lon="-5.288583">
        <ele>2374.0</ele>
        <time>2015-07-25T12:39:05Z</time>
      </trkpt>
      <trkpt lat="40.434133" lon="-5.288800">
        <ele>2377.0</ele>
        <time>2015-07-25T12:39:07Z</time>
      </trkpt>
      <trkpt lat="40.434033" lon="-5.289017">
        <ele>2382.0</ele>
        <time>2015-07-25T12:39:09Z</time>
      </trkpt>
      <trkpt lat="40.433967" lon="-5.289200">
        <ele>2388.0</ele>
        <time>2015-07-25T12:39:11Z</time>
      </trkpt>
      <trkpt lat="40.433933" lon="-5.289367">
        <ele>2390.0</ele>
        <time>2015-07-25T12:39:13Z</time>
      </trkpt>
      <trkpt lat="40.433900" lon="-5.289567">
        <ele>2389.0</ele>
        <time>2015-07-25T12:39:15Z</time>
      </trkpt>
      <trkpt lat="40.433817" lon="-5.289783">
        <ele>2389.0</ele>
        <time>2015-07-25T12:39:17Z</time>
      </trkpt>
      <trkpt lat="40.433733" lon="-5.289983">
        <ele>2390.0</ele>
        <time>2015-07-25T12:39:19Z</time>
      </trkpt>
      <trkpt lat="40.433683" lon="-5.290200">
        <ele>2389.0</ele>
        <time>2015-07-25T12:39:21Z</time>
      </trkpt>
      <trkpt lat="40.433583" lon="-5.290417">
        <ele>2388.0</ele>
        <time>2015-07-25T12:39:23Z</time>
      </trkpt>
      <trkpt lat="40.433467" lon="-5.290583">
        <ele>2389.0</ele>
        <time>2015-07-25T12:39:25Z</time>
      </trkpt>
      <trkpt lat="40.433350" lon="-5.290733">
        <ele>2389.0</ele>
        <time>2015-07-25T12:39:27Z</time>
      </trkpt>
      <trkpt lat="40.433217" lon="-5.290933">
        <ele>2386.0</ele>
        <time>2015-07-25T12:39:29Z</time>
      </trkpt>
      <trkpt lat="40.433100" lon="-5.291150">
        <ele>2386.0</ele>
        <time>2015-07-25T12:39:31Z</time>
      </trkpt>
      <trkpt lat="40.432983" lon="-5.291333">
        <ele>2386.0</ele>
        <time>2015-07-25T12:39:33Z</time>
      </trkpt>
      <trkpt lat="40.432817" lon="-5.291500">
        <ele>2383.0</ele>
        <time>2015-07-25T12:39:35Z</time>
      </trkpt>
      <trkpt lat="40.432667" lon="-5.291700">
        <ele>2381.0</ele>
        <time>2015-07-25T12:39:37Z</time>
      </trkpt>
      <trkpt lat="40.432533" lon="-5.291883">
        <ele>2380.0</ele>
        <time>2015-07-25T12:39:39Z</time>
      </trkpt>
      <trkpt lat="40.432367" lon="-5.292050">
        <ele>2377.0</ele>
        <time>2015-07-25T12:39:41Z</time>
      </trkpt>
      <trkpt lat="40.432233" lon="-5.292283">
        <ele>2374.0</ele>
        <time>2015-07-25T12:39:43Z</time>
      </trkpt>
      <trkpt lat="40.432100" lon="-5.292500">
        <ele>2373.0</ele>
        <time>2015-07-25T12:39:45Z</time>
      </trkpt>
      <trkpt lat="40.431950" lon="-5.292683">
        <ele>2371.0</ele>
        <time>2015-07-25T12:39:47Z</time>
      </trkpt>
      <trkpt lat="40.431783" lon="-5.292867">
        <ele>2368.0</ele>
        <time>2015-07-25T12:39:49Z</time>
      </trkpt>
      <trkpt lat="40.431617" lon="-5.293067">
        <ele>2367.0</ele>
        <time>2015-07-25T12:39:51Z</time>
      </trkpt>
      <trkpt lat="40.431433" lon="-5.293217">
        <ele>2365.0</ele>
        <time>2015-07-25T12:39:53Z</time>
      </trkpt>
      <trkpt lat="40.431250" lon="-5.293367">
        <ele>2362.0</ele>
        <time>2015-07-25T12:39:55Z</time>
      </trkpt>
      <trkpt lat="40.431083" lon="-5.293550">
        <ele>2360.0</ele>
        <time>2015-07-25T12:39:57Z</time>
      </trkpt>
      <trkpt lat="40.430933" lon="-5.293750">
        <ele>2357.0</ele>
        <time>2015-07-25T12:39:59Z</time>
      </trkpt>
      <trkpt lat="40.430783" lon="-5.293933">
        <ele>2353.0</ele>
        <time>2015-07-25T12:40:01Z</time>
      </trkpt>
      <trkpt lat="40.430617" lon="-5.294133">
        <ele>2348.0</ele>
        <time>2015-07-25T12:40:03Z</time>
      </trkpt>
      <trkpt lat="40.430450" lon="-5.294350">
        <ele>2346.0</ele>
        <time>2015-07-25T12:40:05Z</time>
      </trkpt>
      <trkpt lat="40.430317" lon="-5.294567">
        <ele>2345.0</ele>
        <time>2015-07-25T12:40:07Z</time>
      </trkpt>
      <trkpt lat="40.430183" lon="-5.294750">
        <ele>2342.0</ele>
        <time>2015-07-25T12:40:09Z</time>
      </trkpt>
      <trkpt lat="40.430033" lon="-5.294967">
        <ele>2339.0</ele>
        <time>2015-07-25T12:40:11Z</time>
      </trkpt>
      <trkpt lat="40.429917" lon="-5.295183">
        <ele>2339.0</ele>
        <time>2015-07-25T12:40:13Z</time>
      </trkpt>
      <trkpt lat="40.429783" lon="-5.295367">
        <ele>2338.0</ele>
        <time>2015-07-25T12:40:15Z</time>
      </trkpt>
      <trkpt lat="40.429633" lon="-5.295550">
        <ele>2335.0</ele>
        <time>2015-07-25T12:40:17Z</time>
      </trkpt>
      <trkpt lat="40.429483" lon="-5.295783">
        <ele>2332.0</ele>
        <time>2015-07-25T12:40:19Z</time>
      </trkpt>
      <trkpt lat="40.429350" lon="-5.296000">
        <ele>2332.0</ele>
        <time>2015-07-25T12:40:21Z</time>
      </trkpt>
      <trkpt lat="40.429233" lon="-5.296217">
        <ele>2327.0</ele>
        <time>2015-07-25T12:40:23Z</time>
      </trkpt>
      <trkpt lat="40.429100" lon="-5.296467">
        <ele>2323.0</ele>
        <time>2015-07-25T12:40:25Z</time>
      </trkpt>
      <trkpt lat="40.428950" lon="-5.296733">
        <ele>2323.0</ele>
        <time>2015-07-25T12:40:27Z</time>
      </trkpt>
      <trkpt lat="40.428783" lon="-5.296950">
        <ele>2325.0</ele>
        <time>2015-07-25T12:40:29Z</time>
      </trkpt>
      <trkpt lat="40.428633" lon="-5.297183">
        <ele>2324.0</ele>
        <time>2015-07-25T12:40:31Z</time>
      </trkpt>
      <trkpt lat="40.428517" lon="-5.297467">
        <ele>2322.0</ele>
        <time>2015-07-25T12:40:33Z</time>
      </trkpt>
      <trkpt lat="40.428383" lon="-5.297700">
        <ele>2322.0</ele>
        <time>2015-07-25T12:40:35Z</time>
      </trkpt>
      <trkpt lat="40.428233" lon="-5.297867">
        <ele>2321.0</ele>
        <time>2015-07-25T12:40:37Z</time>
      </trkpt>
      <trkpt lat="40.428083" lon="-5.298067">
        <ele>2314.0</ele>
        <time>2015-07-25T12:40:39Z</time>
      </trkpt>
      <trkpt lat="40.427900" lon="-5.298267">
        <ele>2308.0</ele>
        <time>2015-07-25T12:40:41Z</time>
      </trkpt>
      <trkpt lat="40.427733" lon="-5.298483">
        <ele>2302.0</ele>
        <time>2015-07-25T12:40:43Z</time>
      </trkpt>
      <trkpt lat="40.427567" lon="-5.298733">
        <ele>2297.0</ele>
        <time>2015-07-25T12:40:45Z</time>
      </trkpt>
      <trkpt lat="40.427383" lon="-5.298983">
        <ele>2292.0</ele>
        <time>2015-07-25T12:40:47Z</time>
      </trkpt>
      <trkpt lat="40.427217" lon="-5.299233">
        <ele>2289.0</ele>
        <time>2015-07-25T12:40:49Z</time>
      </trkpt>
      <trkpt lat="40.426983" lon="-5.299450">
        <ele>2284.0</ele>
        <time>2015-07-25T12:40:51Z</time>
      </trkpt>
      <trkpt lat="40.426767" lon="-5.299667">
        <ele>2282.0</ele>
        <time>2015-07-25T12:40:53Z</time>
      </trkpt>
      <trkpt lat="40.426567" lon="-5.299850">
        <ele>2281.0</ele>
        <time>2015-07-25T12:40:55Z</time>
      </trkpt>
      <trkpt lat="40.426333" lon="-5.300000">
        <ele>2275.0</ele>
        <time>2015-07-25T12:40:57Z</time>
      </trkpt>
      <trkpt lat="40.426100" lon="-5.300200">
        <ele>2275.0</ele>
        <time>2015-07-25T12:40:59Z</time>
      </trkpt>
      <trkpt lat="40.425917" lon="-5.300333">
        <ele>2277.0</ele>
        <time>2015-07-25T12:41:01Z</time>
      </trkpt>
      <trkpt lat="40.425717" lon="-5.300467">
        <ele>2277.0</ele>
        <time>2015-07-25T12:41:03Z</time>
      </trkpt>
      <trkpt lat="40.425500" lon="-5.300583">
        <ele>2277.0</ele>
        <time>2015-07-25T12:41:05Z</time>
      </trkpt>
      <trkpt lat="40.425317" lon="-5.300750">
        <ele>2273.0</ele>
        <time>2015-07-25T12:41:07Z</time>
      </trkpt>
      <trkpt lat="40.425117" lon="-5.300917">
        <ele>2270.0</ele>
        <time>2015-07-25T12:41:09Z</time>
      </trkpt>
      <trkpt lat="40.424950" lon="-5.301100">
        <ele>2270.0</ele>
        <time>2015-07-25T12:41:11Z</time>
      </trkpt>
      <trkpt lat="40.424867" lon="-5.301333">
        <ele>2264.0</ele>
        <time>2015-07-25T12:41:13Z</time>
      </trkpt>
      <trkpt lat="40.424883" lon="-5.301650">
        <ele>2260.0</ele>
        <time>2015-07-25T12:41:15Z</time>
      </trkpt>
      <trkpt lat="40.424983" lon="-5.301833">
        <ele>2262.0</ele>
        <time>2015-07-25T12:41:17Z</time>
      </trkpt>
      <trkpt lat="40.425067" lon="-5.301917">
        <ele>2260.0</ele>
        <time>2015-07-25T12:41:19Z</time>
      </trkpt>
      <trkpt lat="40.425183" lon="-5.301950">
        <ele>2255.0</ele>
        <time>2015-07-25T12:41:21Z</time>
      </trkpt>
      <trkpt lat="40.425300" lon="-5.301900">
        <ele>2251.0</ele>
        <time>2015-07-25T12:41:23Z</time>
      </trkpt>
      <trkpt lat="40.425383" lon="-5.301867">
        <ele>2249.0</ele>
        <time>2015-07-25T12:41:25Z</time>
      </trkpt>
      <trkpt lat="40.425483" lon="-5.301817">
        <ele>2244.0</ele>
        <time>2015-07-25T12:41:27Z</time>
      </trkpt>
      <trkpt lat="40.425583" lon="-5.301750">
        <ele>2239.0</ele>
        <time>2015-07-25T12:41:29Z</time>
      </trkpt>
      <trkpt lat="40.425683" lon="-5.301667">
        <ele>2235.0</ele>
        <time>2015-07-25T12:41:31Z</time>
      </trkpt>
      <trkpt lat="40.425800" lon="-5.301583">
        <ele>2231.0</ele>
        <time>2015-07-25T12:41:33Z</time>
      </trkpt>
      <trkpt lat="40.425900" lon="-5.301483">
        <ele>2228.0</ele>
        <time>2015-07-25T12:41:35Z</time>
      </trkpt>
      <trkpt lat="40.426000" lon="-5.301433">
        <ele>2222.0</ele>
        <time>2015-07-25T12:41:37Z</time>
      </trkpt>
      <trkpt lat="40.426133" lon="-5.301367">
        <ele>2214.0</ele>
        <time>2015-07-25T12:41:39Z</time>
      </trkpt>
      <trkpt lat="40.426267" lon="-5.301267">
        <ele>2208.0</ele>
        <time>2015-07-25T12:41:41Z</time>
      </trkpt>
      <trkpt lat="40.426400" lon="-5.301150">
        <ele>2206.0</ele>
        <time>2015-07-25T12:41:43Z</time>
      </trkpt>
      <trkpt lat="40.426500" lon="-5.301100">
        <ele>2203.0</ele>
        <time>2015-07-25T12:41:45Z</time>
      </trkpt>
      <trkpt lat="40.426617" lon="-5.301000">
        <ele>2200.0</ele>
        <time>2015-07-25T12:41:47Z</time>
      </trkpt>
      <trkpt lat="40.426717" lon="-5.300900">
        <ele>2198.0</ele>
        <time>2015-07-25T12:41:49Z</time>
      </trkpt>
      <trkpt lat="40.426833" lon="-5.300817">
        <ele>2195.0</ele>
        <time>2015-07-25T12:41:51Z</time>
      </trkpt>
      <trkpt lat="40.426967" lon="-5.300717">
        <ele>2194.0</ele>
        <time>2015-07-25T12:41:53Z</time>
      </trkpt>
      <trkpt lat="40.427050" lon="-5.300650">
        <ele>2194.0</ele>
        <time>2015-07-25T12:41:55Z</time>
      </trkpt>
      <trkpt lat="40.427150" lon="-5.300567">
        <ele>2188.0</ele>
        <time>2015-07-25T12:41:57Z</time>
      </trkpt>
      <trkpt lat="40.427250" lon="-5.300433">
        <ele>2182.0</ele>
        <time>2015-07-25T12:41:59Z</time>
      </trkpt>
      <trkpt lat="40.427350" lon="-5.300300">
        <ele>2180.0</ele>
        <time>2015-07-25T12:42:01Z</time>
      </trkpt>
      <trkpt lat="40.427417" lon="-5.300200">
        <ele>2176.0</ele>
        <time>2015-07-25T12:42:03Z</time>
      </trkpt>
      <trkpt lat="40.427483" lon="-5.300083">
        <ele>2171.0</ele>
        <time>2015-07-25T12:42:05Z</time>
      </trkpt>
      <trkpt lat="40.427567" lon="-5.299967">
        <ele>2164.0</ele>
        <time>2015-07-25T12:42:07Z</time>
      </trkpt>
      <trkpt lat="40.427650" lon="-5.299833">
        <ele>2158.0</ele>
        <time>2015-07-25T12:42:09Z</time>
      </trkpt>
      <trkpt lat="40.427767" lon="-5.299700">
        <ele>2152.0</ele>
        <time>2015-07-25T12:42:11Z</time>
      </trkpt>
      <trkpt lat="40.427867" lon="-5.299600">
        <ele>2146.0</ele>
        <time>2015-07-25T12:42:13Z</time>
      </trkpt>
      <trkpt lat="40.427950" lon="-5.299467">
        <ele>2138.0</ele>
        <time>2015-07-25T12:42:15Z</time>
      </trkpt>
      <trkpt lat="40.428083" lon="-5.299333">
        <ele>2131.0</ele>
        <time>2015-07-25T12:42:17Z</time>
      </trkpt>
      <trkpt lat="40.428200" lon="-5.299217">
        <ele>2126.0</ele>
        <time>2015-07-25T12:42:19Z</time>
      </trkpt>
      <trkpt lat="40.428283" lon="-5.299100">
        <ele>2121.0</ele>
        <time>2015-07-25T12:42:21Z</time>
      </trkpt>
      <trkpt lat="40.428350" lon="-5.299000">
        <ele>2115.0</ele>
        <time>2015-07-25T12:42:23Z</time>
      </trkpt>
      <trkpt lat="40.428400" lon="-5.298867">
        <ele>2106.0</ele>
        <time>2015-07-25T12:42:25Z</time>
      </trkpt>
      <trkpt lat="40.428467" lon="-5.298700">
        <ele>2098.0</ele>
        <time>2015-07-25T12:42:27Z</time>
      </trkpt>
      <trkpt lat="40.428517" lon="-5.298567">
        <ele>2092.0</ele>
        <time>2015-07-25T12:42:29Z</time>
      </trkpt>
      <trkpt lat="40.428567" lon="-5.298450">
        <ele>2087.0</ele>
        <time>2015-07-25T12:42:31Z</time>
      </trkpt>
      <trkpt lat="40.428667" lon="-5.298350">
        <ele>2085.0</ele>
        <time>2015-07-25T12:42:33Z</time>
      </trkpt>
      <trkpt lat="40.428717" lon="-5.298283">
        <ele>2087.0</ele>
        <time>2015-07-25T12:42:35Z</time>
      </trkpt>
      <trkpt lat="40.428750" lon="-5.298200">
        <ele>2084.0</ele>
        <time>2015-07-25T12:42:37Z</time>
      </trkpt>
      <trkpt lat="40.428817" lon="-5.298083">
        <ele>2078.0</ele>
        <time>2015-07-25T12:42:39Z</time>
      </trkpt>
      <trkpt lat="40.428900" lon="-5.297967">
        <ele>2075.0</ele>
        <time>2015-07-25T12:42:41Z</time>
      </trkpt>
      <trkpt lat="40.428967" lon="-5.297883">
        <ele>2073.0</ele>
        <time>2015-07-25T12:42:43Z</time>
      </trkpt>
      <trkpt lat="40.429050" lon="-5.297800">
        <ele>2068.0</ele>
        <time>2015-07-25T12:42:45Z</time>
      </trkpt>
      <trkpt lat="40.429150" lon="-5.297683">
        <ele>2062.0</ele>
        <time>2015-07-25T12:42:47Z</time>
      </trkpt>
      <trkpt lat="40.429250" lon="-5.297600">
        <ele>2059.0</ele>
        <time>2015-07-25T12:42:49Z</time>
      </trkpt>
      <trkpt lat="40.429317" lon="-5.297517">
        <ele>2057.0</ele>
        <time>2015-07-25T12:42:51Z</time>
      </trkpt>
      <trkpt lat="40.429417" lon="-5.297417">
        <ele>2053.0</ele>
        <time>2015-07-25T12:42:53Z</time>
      </trkpt>
      <trkpt lat="40.429550" lon="-5.297300">
        <ele>2049.0</ele>
        <time>2015-07-25T12:42:55Z</time>
      </trkpt>
      <trkpt lat="40.429650" lon="-5.297100">
        <ele>2048.0</ele>
        <time>2015-07-25T12:42:57Z</time>
      </trkpt>
      <trkpt lat="40.429717" lon="-5.296917">
        <ele>2048.0</ele>
        <time>2015-07-25T12:42:59Z</time>
      </trkpt>
      <trkpt lat="40.429817" lon="-5.296700">
        <ele>2047.0</ele>
        <time>2015-07-25T12:43:01Z</time>
      </trkpt>
      <trkpt lat="40.429933" lon="-5.296500">
        <ele>2047.0</ele>
        <time>2015-07-25T12:43:03Z</time>
      </trkpt>
      <trkpt lat="40.430017" lon="-5.296317">
        <ele>2051.0</ele>
        <time>2015-07-25T12:43:05Z</time>
      </trkpt>
      <trkpt lat="40.430033" lon="-5.296100">
        <ele>2051.0</ele>
        <time>2015-07-25T12:43:07Z</time>
      </trkpt>
      <trkpt lat="40.430083" lon="-5.295817">
        <ele>2048.0</ele>
        <time>2015-07-25T12:43:09Z</time>
      </trkpt>
      <trkpt lat="40.430150" lon="-5.295567">
        <ele>2050.0</ele>
        <time>2015-07-25T12:43:11Z</time>
      </trkpt>
      <trkpt lat="40.430217" lon="-5.295400">
        <ele>2049.0</ele>
        <time>2015-07-25T12:43:13Z</time>
      </trkpt>
      <trkpt lat="40.430300" lon="-5.295217">
        <ele>2042.0</ele>
        <time>2015-07-25T12:43:15Z</time>
      </trkpt>
      <trkpt lat="40.430417" lon="-5.295000">
        <ele>2039.0</ele>
        <time>2015-07-25T12:43:17Z</time>
      </trkpt>
      <trkpt lat="40.430467" lon="-5.294783">
        <ele>2038.0</ele>
        <time>2015-07-25T12:43:19Z</time>
      </trkpt>
      <trkpt lat="40.430567" lon="-5.294583">
        <ele>2034.0</ele>
        <time>2015-07-25T12:43:21Z</time>
      </trkpt>
      <trkpt lat="40.430667" lon="-5.294350">
        <ele>2031.0</ele>
        <time>2015-07-25T12:43:23Z</time>
      </trkpt>
      <trkpt lat="40.430767" lon="-5.294117">
        <ele>2030.0</ele>
        <time>2015-07-25T12:43:25Z</time>
      </trkpt>
      <trkpt lat="40.430867" lon="-5.293883">
        <ele>2029.0</ele>
        <time>2015-07-25T12:43:27Z</time>
      </trkpt>
      <trkpt lat="40.430967" lon="-5.293650">
        <ele>2031.0</ele>
        <time>2015-07-25T12:43:29Z</time>
      </trkpt>
      <trkpt lat="40.431000" lon="-5.293433">
        <ele>2032.0</ele>
        <time>2015-07-25T12:43:31Z</time>
      </trkpt>
      <trkpt lat="40.431033" lon="-5.293200">
        <ele>2029.0</ele>
        <time>2015-07-25T12:43:33Z</time>
      </trkpt>
      <trkpt lat="40.431100" lon="-5.292983">
        <ele>2026.0</ele>
        <time>2015-07-25T12:43:35Z</time>
      </trkpt>
      <trkpt lat="40.431167" lon="-5.292850">
        <ele>2024.0</ele>
        <time>2015-07-25T12:43:37Z</time>
      </trkpt>
      <trkpt lat="40.431267" lon="-5.292783">
        <ele>2020.0</ele>
        <time>2015-07-25T12:43:39Z</time>
      </trkpt>
      <trkpt lat="40.431417" lon="-5.292700">
        <ele>2015.0</ele>
        <time>2015-07-25T12:43:41Z</time>
      </trkpt>
      <trkpt lat="40.431550" lon="-5.292617">
        <ele>2016.0</ele>
        <time>2015-07-25T12:43:43Z</time>
      </trkpt>
      <trkpt lat="40.431650" lon="-5.292533">
        <ele>2019.0</ele>
        <time>2015-07-25T12:43:45Z</time>
      </trkpt>
      <trkpt lat="40.431733" lon="-5.292400">
        <ele>2018.0</ele>
        <time>2015-07-25T12:43:47Z</time>
      </trkpt>
      <trkpt lat="40.431833" lon="-5.292217">
        <ele>2015.0</ele>
        <time>2015-07-25T12:43:49Z</time>
      </trkpt>
      <trkpt lat="40.431967" lon="-5.292033">
        <ele>2012.0</ele>
        <time>2015-07-25T12:43:51Z</time>
      </trkpt>
      <trkpt lat="40.432067" lon="-5.291867">
        <ele>2011.0</ele>
        <time>2015-07-25T12:43:53Z</time>
      </trkpt>
      <trkpt lat="40.432183" lon="-5.291700">
        <ele>2007.0</ele>
        <time>2015-07-25T12:43:55Z</time>
      </trkpt>
      <trkpt lat="40.432333" lon="-5.291550">
        <ele>2003.0</ele>
        <time>2015-07-25T12:43:57Z</time>
      </trkpt>
      <trkpt lat="40.432467" lon="-5.291417">
        <ele>2000.0</ele>
        <time>2015-07-25T12:43:59Z</time>
      </trkpt>
      <trkpt lat="40.432600" lon="-5.291300">
        <ele>1998.0</ele>
        <time>2015-07-25T12:44:01Z</time>
      </trkpt>
      <trkpt lat="40.432733" lon="-5.291167">
        <ele>1993.0</ele>
        <time>2015-07-25T12:44:03Z</time>
      </trkpt>
      <trkpt lat="40.432883" lon="-5.291050">
        <ele>1989.0</ele>
        <time>2015-07-25T12:44:05Z</time>
      </trkpt>
      <trkpt lat="40.433033" lon="-5.290933">
        <ele>1987.0</ele>
        <time>2015-07-25T12:44:07Z</time>
      </trkpt>
      <trkpt lat="40.433183" lon="-5.290817">
        <ele>1986.0</ele>
        <time>2015-07-25T12:44:09Z</time>
      </trkpt>
      <trkpt lat="40.433300" lon="-5.290650">
        <ele>1986.0</ele>
        <time>2015-07-25T12:44:11Z</time>
      </trkpt>
      <trkpt lat="40.433417" lon="-5.290450">
        <ele>1983.0</ele>
        <time>2015-07-25T12:44:13Z</time>
      </trkpt>
      <trkpt lat="40.433550" lon="-5.290233">
        <ele>1979.0</ele>
        <time>2015-07-25T12:44:15Z</time>
      </trkpt>
      <trkpt lat="40.433683" lon="-5.290083">
        <ele>1981.0</ele>
        <time>2015-07-25T12:44:17Z</time>
      </trkpt>
      <trkpt lat="40.433767" lon="-5.290017">
        <ele>1983.0</ele>
        <time>2015-07-25T12:44:19Z</time>
      </trkpt>
      <trkpt lat="40.433867" lon="-5.289983">
        <ele>1983.0</ele>
        <time>2015-07-25T12:44:21Z</time>
      </trkpt>
      <trkpt lat="40.434017" lon="-5.289900">
        <ele>1983.0</ele>
        <time>2015-07-25T12:44:23Z</time>
      </trkpt>
      <trkpt lat="40.434100" lon="-5.289767">
        <ele>1986.0</ele>
        <time>2015-07-25T12:44:25Z</time>
      </trkpt>
      <trkpt lat="40.434167" lon="-5.289600">
        <ele>1985.0</ele>
        <time>2015-07-25T12:44:27Z</time>
      </trkpt>
      <trkpt lat="40.434300" lon="-5.289400">
        <ele>1983.0</ele>
        <time>2015-07-25T12:44:29Z</time>
      </trkpt>
      <trkpt lat="40.434483" lon="-5.289300">
        <ele>1989.0</ele>
        <time>2015-07-25T12:44:31Z</time>
      </trkpt>
      <trkpt lat="40.434583" lon="-5.289317">
        <ele>1995.0</ele>
        <time>2015-07-25T12:44:33Z</time>
      </trkpt>
      <trkpt lat="40.434650" lon="-5.289367">
        <ele>1995.0</ele>
        <time>2015-07-25T12:44:35Z</time>
      </trkpt>
      <trkpt lat="40.434717" lon="-5.289500">
        <ele>1992.0</ele>
        <time>2015-07-25T12:44:37Z</time>
      </trkpt>
      <trkpt lat="40.434767" lon="-5.289683">
        <ele>1993.0</ele>
        <time>2015-07-25T12:44:39Z</time>
      </trkpt>
      <trkpt lat="40.434867" lon="-5.289783">
        <ele>1994.0</ele>
        <time>2015-07-25T12:44:41Z</time>
      </trkpt>
      <trkpt lat="40.435000" lon="-5.289733">
        <ele>1991.0</ele>
        <time>2015-07-25T12:44:43Z</time>
      </trkpt>
      <trkpt lat="40.435150" lon="-5.289617">
        <ele>1987.0</ele>
        <time>2015-07-25T12:44:45Z</time>
      </trkpt>
      <trkpt lat="40.435300" lon="-5.289500">
        <ele>1987.0</ele>
        <time>2015-07-25T12:44:47Z</time>
      </trkpt>
      <trkpt lat="40.435450" lon="-5.289450">
        <ele>1990.0</ele>
        <time>2015-07-25T12:44:49Z</time>
      </trkpt>
      <trkpt lat="40.435533" lon="-5.289467">
        <ele>1992.0</ele>
        <time>2015-07-25T12:44:51Z</time>
      </trkpt>
      <trkpt lat="40.435583" lon="-5.289550">
        <ele>1989.0</ele>
        <time>2015-07-25T12:44:53Z</time>
      </trkpt>
      <trkpt lat="40.435517" lon="-5.289717">
        <ele>1985.0</ele>
        <time>2015-07-25T12:44:55Z</time>
      </trkpt>
      <trkpt lat="40.435300" lon="-5.289783">
        <ele>1983.0</ele>
        <time>2015-07-25T12:44:57Z</time>
      </trkpt>
      <trkpt lat="40.435083" lon="-5.289667">
        <ele>1985.0</ele>
        <time>2015-07-25T12:44:59Z</time>
      </trkpt>
      <trkpt lat="40.434900" lon="-5.289550">
        <ele>1988.0</ele>
        <time>2015-07-25T12:45:01Z</time>
      </trkpt>
      <trkpt lat="40.434733" lon="-5.289500">
        <ele>1987.0</ele>
        <time>2015-07-25T12:45:03Z</time>
      </trkpt>
      <trkpt lat="40.434550" lon="-5.289517">
        <ele>1984.0</ele>
        <time>2015-07-25T12:45:05Z</time>
      </trkpt>
      <trkpt lat="40.434383" lon="-5.289667">
        <ele>1981.0</ele>
        <time>2015-07-25T12:45:07Z</time>
      </trkpt>
      <trkpt lat="40.434300" lon="-5.289833">
        <ele>1982.0</ele>
        <time>2015-07-25T12:45:09Z</time>
      </trkpt>
      <trkpt lat="40.434317" lon="-5.289950">
        <ele>1982.0</ele>
        <time>2015-07-25T12:45:11Z</time>
      </trkpt>
      <trkpt lat="40.434417" lon="-5.290033">
        <ele>1979.0</ele>
        <time>2015-07-25T12:45:13Z</time>
      </trkpt>
      <trkpt lat="40.434550" lon="-5.290017">
        <ele>1981.0</ele>
        <time>2015-07-25T12:45:15Z</time>
      </trkpt>
      <trkpt lat="40.434667" lon="-5.289883">
        <ele>1982.0</ele>
        <time>2015-07-25T12:45:17Z</time>
      </trkpt>
      <trkpt lat="40.434767" lon="-5.289683">
        <ele>1983.0</ele>
        <time>2015-07-25T12:45:19Z</time>
      </trkpt>
      <trkpt lat="40.434867" lon="-5.289433">
        <ele>1986.0</ele>
        <time>2015-07-25T12:45:21Z</time>
      </trkpt>
      <trkpt lat="40.434917" lon="-5.289167">
        <ele>1988.0</ele>
        <time>2015-07-25T12:45:23Z</time>
      </trkpt>
      <trkpt lat="40.434983" lon="-5.288917">
        <ele>1989.0</ele>
        <time>2015-07-25T12:45:25Z</time>
      </trkpt>
      <trkpt lat="40.435067" lon="-5.288683">
        <ele>1987.0</ele>
        <time>2015-07-25T12:45:27Z</time>
      </trkpt>
      <trkpt lat="40.435167" lon="-5.288483">
        <ele>1986.0</ele>
        <time>2015-07-25T12:45:29Z</time>
      </trkpt>
      <trkpt lat="40.435267" lon="-5.288317">
        <ele>1985.0</ele>
        <time>2015-07-25T12:45:31Z</time>
      </trkpt>
      <trkpt lat="40.435383" lon="-5.288150">
        <ele>1981.0</ele>
        <time>2015-07-25T12:45:33Z</time>
      </trkpt>
      <trkpt lat="40.435517" lon="-5.288000">
        <ele>1979.0</ele>
        <time>2015-07-25T12:45:35Z</time>
      </trkpt>
      <trkpt lat="40.435633" lon="-5.287867">
        <ele>1981.0</ele>
        <time>2015-07-25T12:45:37Z</time>
      </trkpt>
      <trkpt lat="40.435767" lon="-5.287733">
        <ele>1983.0</ele>
        <time>2015-07-25T12:45:39Z</time>
      </trkpt>
      <trkpt lat="40.435867" lon="-5.287583">
        <ele>1988.0</ele>
        <time>2015-07-25T12:45:41Z</time>
      </trkpt>
      <trkpt lat="40.435933" lon="-5.287433">
        <ele>1995.0</ele>
        <time>2015-07-25T12:45:43Z</time>
      </trkpt>
      <trkpt lat="40.436000" lon="-5.287283">
        <ele>2003.0</ele>
        <time>2015-07-25T12:45:45Z</time>
      </trkpt>
      <trkpt lat="40.436050" lon="-5.287217">
        <ele>2009.0</ele>
        <time>2015-07-25T12:45:47Z</time>
      </trkpt>
      <trkpt lat="40.436083" lon="-5.287183">
        <ele>2008.0</ele>
        <time>2015-07-25T12:45:49Z</time>
      </trkpt>
      <trkpt lat="40.436183" lon="-5.287117">
        <ele>2005.0</ele>
        <time>2015-07-25T12:45:51Z</time>
      </trkpt>
      <trkpt lat="40.436283" lon="-5.287000">
        <ele>2006.0</ele>
        <time>2015-07-25T12:45:53Z</time>
      </trkpt>
      <trkpt lat="40.436367" lon="-5.286867">
        <ele>2007.0</ele>
        <time>2015-07-25T12:45:55Z</time>
      </trkpt>
      <trkpt lat="40.436450" lon="-5.286717">
        <ele>2003.0</ele>
        <time>2015-07-25T12:45:57Z</time>
      </trkpt>
      <trkpt lat="40.436583" lon="-5.286667">
        <ele>1998.0</ele>
        <time>2015-07-25T12:45:59Z</time>
      </trkpt>
      <trkpt lat="40.436683" lon="-5.286700">
        <ele>1998.0</ele>
        <time>2015-07-25T12:46:01Z</time>
      </trkpt>
      <trkpt lat="40.436733" lon="-5.286767">
        <ele>1996.0</ele>
        <time>2015-07-25T12:46:03Z</time>
      </trkpt>
      <trkpt lat="40.436700" lon="-5.286950">
        <ele>1991.0</ele>
        <time>2015-07-25T12:46:05Z</time>
      </trkpt>
      <trkpt lat="40.436533" lon="-5.287150">
        <ele>1987.0</ele>
        <time>2015-07-25T12:46:07Z</time>
      </trkpt>
      <trkpt lat="40.436283" lon="-5.287150">
        <ele>1985.0</ele>
        <time>2015-07-25T12:46:09Z</time>
      </trkpt>
      <trkpt lat="40.436050" lon="-5.287083">
        <ele>1982.0</ele>
        <time>2015-07-25T12:46:11Z</time>
      </trkpt>
      <trkpt lat="40.435800" lon="-5.287033">
        <ele>1978.0</ele>
        <time>2015-07-25T12:46:13Z</time>
      </trkpt>
      <trkpt lat="40.435567" lon="-5.287067">
        <ele>1972.0</ele>
        <time>2015-07-25T12:46:15Z</time>
      </trkpt>
      <trkpt lat="40.435333" lon="-5.287267">
        <ele>1971.0</ele>
        <time>2015-07-25T12:46:17Z</time>
      </trkpt>
      <trkpt lat="40.435133" lon="-5.287450">
        <ele>1982.0</ele>
        <time>2015-07-25T12:46:19Z</time>
      </trkpt>
      <trkpt lat="40.435033" lon="-5.287500">
        <ele>1987.0</ele>
        <time>2015-07-25T12:46:21Z</time>
      </trkpt>
      <trkpt lat="40.434867" lon="-5.287600">
        <ele>1983.0</ele>
        <time>2015-07-25T12:46:23Z</time>
      </trkpt>
      <trkpt lat="40.434650" lon="-5.287783">
        <ele>1978.0</ele>
        <time>2015-07-25T12:46:25Z</time>
      </trkpt>
      <trkpt lat="40.434533" lon="-5.287967">
        <ele>1978.0</ele>
        <time>2015-07-25T12:46:27Z</time>
      </trkpt>
      <trkpt lat="40.434533" lon="-5.288050">
        <ele>1975.0</ele>
        <time>2015-07-25T12:46:29Z</time>
      </trkpt>
      <trkpt lat="40.434583" lon="-5.288117">
        <ele>1967.0</ele>
        <time>2015-07-25T12:46:31Z</time>
      </trkpt>
      <trkpt lat="40.434700" lon="-5.288150">
        <ele>1962.0</ele>
        <time>2015-07-25T12:46:33Z</time>
      </trkpt>
      <trkpt lat="40.434783" lon="-5.288117">
        <ele>1960.0</ele>
        <time>2015-07-25T12:46:35Z</time>
      </trkpt>
      <trkpt lat="40.434867" lon="-5.288083">
        <ele>1958.0</ele>
        <time>2015-07-25T12:46:37Z</time>
      </trkpt>
      <trkpt lat="40.434967" lon="-5.288067">
        <ele>1954.0</ele>
        <time>2015-07-25T12:46:39Z</time>
      </trkpt>
      <trkpt lat="40.435100" lon="-5.288067">
        <ele>1950.0</ele>
        <time>2015-07-25T12:46:41Z</time>
      </trkpt>
      <trkpt lat="40.435233" lon="-5.288033">
        <ele>1950.0</ele>
        <time>2015-07-25T12:46:43Z</time>
      </trkpt>
      <trkpt lat="40.435300" lon="-5.287933">
        <ele>1951.0</ele>
        <time>2015-07-25T12:46:45Z</time>
      </trkpt>
      <trkpt lat="40.435400" lon="-5.287850">
        <ele>1950.0</ele>
        <time>2015-07-25T12:46:47Z</time>
      </trkpt>
      <trkpt lat="40.435550" lon="-5.287750">
        <ele>1952.0</ele>
        <time>2015-07-25T12:46:49Z</time>
      </trkpt>
      <trkpt lat="40.435650" lon="-5.287700">
        <ele>1960.0</ele>
        <time>2015-07-25T12:46:51Z</time>
      </trkpt>
      <trkpt lat="40.435733" lon="-5.287650">
        <ele>1965.0</ele>
        <time>2015-07-25T12:46:53Z</time>
      </trkpt>
      <trkpt lat="40.435833" lon="-5.287567">
        <ele>1969.0</ele>
        <time>2015-07-25T12:46:55Z</time>
      </trkpt>
      <trkpt lat="40.435917" lon="-5.287483">
        <ele>1975.0</ele>
        <time>2015-07-25T12:46:57Z</time>
      </trkpt>
      <trkpt lat="40.435933" lon="-5.287317">
        <ele>1978.0</ele>
        <time>2015-07-25T12:46:59Z</time>
      </trkpt>
      <trkpt lat="40.435933" lon="-5.287150">
        <ele>1977.0</ele>
        <time>2015-07-25T12:47:01Z</time>
      </trkpt>
      <trkpt lat="40.436033" lon="-5.287067">
        <ele>1972.0</ele>
        <time>2015-07-25T12:47:03Z</time>
      </trkpt>
      <trkpt lat="40.436150" lon="-5.287050">
        <ele>1969.0</ele>
        <time>2015-07-25T12:47:05Z</time>
      </trkpt>
      <trkpt lat="40.436250" lon="-5.287017">
        <ele>1964.0</ele>
        <time>2015-07-25T12:47:07Z</time>
      </trkpt>
      <trkpt lat="40.436383" lon="-5.286967">
        <ele>1957.0</ele>
        <time>2015-07-25T12:47:09Z</time>
      </trkpt>
      <trkpt lat="40.436533" lon="-5.286967">
        <ele>1950.0</ele>
        <time>2015-07-25T12:47:11Z</time>
      </trkpt>
      <trkpt lat="40.436683" lon="-5.286983">
        <ele>1947.0</ele>
        <time>2015-07-25T12:47:13Z</time>
      </trkpt>
      <trkpt lat="40.436833" lon="-5.286950">
        <ele>1944.0</ele>
        <time>2015-07-25T12:47:15Z</time>
      </trkpt>
      <trkpt lat="40.436983" lon="-5.286900">
        <ele>1940.0</ele>
        <time>2015-07-25T12:47:17Z</time>
      </trkpt>
      <trkpt lat="40.437150" lon="-5.286817">
        <ele>1938.0</ele>
        <time>2015-07-25T12:47:19Z</time>
      </trkpt>
      <trkpt lat="40.437300" lon="-5.286733">
        <ele>1939.0</ele>
        <time>2015-07-25T12:47:21Z</time>
      </trkpt>
      <trkpt lat="40.437417" lon="-5.286633">
        <ele>1937.0</ele>
        <time>2015-07-25T12:47:23Z</time>
      </trkpt>
      <trkpt lat="40.437567" lon="-5.286517">
        <ele>1934.0</ele>
        <time>2015-07-25T12:47:25Z</time>
      </trkpt>
      <trkpt lat="40.437700" lon="-5.286367">
        <ele>1933.0</ele>
        <time>2015-07-25T12:47:27Z</time>
      </trkpt>
      <trkpt lat="40.437817" lon="-5.286233">
        <ele>1932.0</ele>
        <time>2015-07-25T12:47:29Z</time>
      </trkpt>
      <trkpt lat="40.437967" lon="-5.286150">
        <ele>1931.0</ele>
        <time>2015-07-25T12:47:31Z</time>
      </trkpt>
      <trkpt lat="40.438100" lon="-5.286100">
        <ele>1933.0</ele>
        <time>2015-07-25T12:47:33Z</time>
      </trkpt>
      <trkpt lat="40.438233" lon="-5.286067">
        <ele>1934.0</ele>
        <time>2015-07-25T12:47:35Z</time>
      </trkpt>
      <trkpt lat="40.438333" lon="-5.286050">
        <ele>1933.0</ele>
        <time>2015-07-25T12:47:37Z</time>
      </trkpt>
      <trkpt lat="40.438467" lon="-5.286050">
        <ele>1930.0</ele>
        <time>2015-07-25T12:47:39Z</time>
      </trkpt>
      <trkpt lat="40.438617" lon="-5.286067">
        <ele>1927.0</ele>
        <time>2015-07-25T12:47:41Z</time>
      </trkpt>
      <trkpt lat="40.438767" lon="-5.286017">
        <ele>1928.0</ele>
        <time>2015-07-25T12:47:43Z</time>
      </trkpt>
      <trkpt lat="40.438883" lon="-5.285950">
        <ele>1926.0</ele>
        <time>2015-07-25T12:47:45Z</time>
      </trkpt>
      <trkpt lat="40.439050" lon="-5.285883">
        <ele>1925.0</ele>
        <time>2015-07-25T12:47:47Z</time>
      </trkpt>
      <trkpt lat="40.439200" lon="-5.285933">
        <ele>1924.0</ele>
        <time>2015-07-25T12:47:49Z</time>
      </trkpt>
      <trkpt lat="40.439283" lon="-5.286000">
        <ele>1925.0</ele>
        <time>2015-07-25T12:47:51Z</time>
      </trkpt>
      <trkpt lat="40.439350" lon="-5.286150">
        <ele>1925.0</ele>
        <time>2015-07-25T12:47:53Z</time>
      </trkpt>
      <trkpt lat="40.439400" lon="-5.286267">
        <ele>1933.0</ele>
        <time>2015-07-25T12:47:55Z</time>
      </trkpt>
      <trkpt lat="40.439417" lon="-5.286333">
        <ele>1935.0</ele>
        <time>2015-07-25T12:47:57Z</time>
      </trkpt>
      <trkpt lat="40.439467" lon="-5.286433">
        <ele>1931.0</ele>
        <time>2015-07-25T12:47:59Z</time>
      </trkpt>
      <trkpt lat="40.439583" lon="-5.286533">
        <ele>1929.0</ele>
        <time>2015-07-25T12:48:01Z</time>
      </trkpt>
      <trkpt lat="40.439700" lon="-5.286583">
        <ele>1931.0</ele>
        <time>2015-07-25T12:48:03Z</time>
      </trkpt>
      <trkpt lat="40.439800" lon="-5.286600">
        <ele>1931.0</ele>
        <time>2015-07-25T12:48:05Z</time>
      </trkpt>
      <trkpt lat="40.439900" lon="-5.286583">
        <ele>1930.0</ele>
        <time>2015-07-25T12:48:07Z</time>
      </trkpt>
      <trkpt lat="40.440000" lon="-5.286550">
        <ele>1928.0</ele>
        <time>2015-07-25T12:48:09Z</time>
      </trkpt>
      <trkpt lat="40.440100" lon="-5.286517">
        <ele>1926.0</ele>
        <time>2015-07-25T12:48:11Z</time>
      </trkpt>
      <trkpt lat="40.440183" lon="-5.286517">
        <ele>1924.0</ele>
        <time>2015-07-25T12:48:13Z</time>
      </trkpt>
      <trkpt lat="40.440283" lon="-5.286500">
        <ele>1920.0</ele>
        <time>2015-07-25T12:48:15Z</time>
      </trkpt>
      <trkpt lat="40.440400" lon="-5.286517">
        <ele>1916.0</ele>
        <time>2015-07-25T12:48:17Z</time>
      </trkpt>
      <trkpt lat="40.440533" lon="-5.286533">
        <ele>1915.0</ele>
        <time>2015-07-25T12:48:19Z</time>
      </trkpt>
      <trkpt lat="40.440633" lon="-5.286533">
        <ele>1915.0</ele>
        <time>2015-07-25T12:48:21Z</time>
      </trkpt>
      <trkpt lat="40.440733" lon="-5.286517">
        <ele>1914.0</ele>
        <time>2015-07-25T12:48:23Z</time>
      </trkpt>
      <trkpt lat="40.440850" lon="-5.286467">
        <ele>1909.0</ele>
        <time>2015-07-25T12:48:25Z</time>
      </trkpt>
      <trkpt lat="40.441000" lon="-5.286433">
        <ele>1909.0</ele>
        <time>2015-07-25T12:48:27Z</time>
      </trkpt>
      <trkpt lat="40.441117" lon="-5.286417">
        <ele>1912.0</ele>
        <time>2015-07-25T12:48:29Z</time>
      </trkpt>
      <trkpt lat="40.441217" lon="-5.286400">
        <ele>1913.0</ele>
        <time>2015-07-25T12:48:31Z</time>
      </trkpt>
      <trkpt lat="40.441283" lon="-5.286417">
        <ele>1914.0</ele>
        <time>2015-07-25T12:48:33Z</time>
      </trkpt>
      <trkpt lat="40.441367" lon="-5.286483">
        <ele>1911.0</ele>
        <time>2015-07-25T12:48:35Z</time>
      </trkpt>
      <trkpt lat="40.441450" lon="-5.286567">
        <ele>1912.0</ele>
        <time>2015-07-25T12:48:37Z</time>
      </trkpt>
      <trkpt lat="40.441533" lon="-5.286583">
        <ele>1916.0</ele>
        <time>2015-07-25T12:48:39Z</time>
      </trkpt>
      <trkpt lat="40.441617" lon="-5.286517">
        <ele>1915.0</ele>
        <time>2015-07-25T12:48:41Z</time>
      </trkpt>
      <trkpt lat="40.441750" lon="-5.286433">
        <ele>1915.0</ele>
        <time>2015-07-25T12:48:43Z</time>
      </trkpt>
      <trkpt lat="40.441867" lon="-5.286400">
        <ele>1919.0</ele>
        <time>2015-07-25T12:48:45Z</time>
      </trkpt>
      <trkpt lat="40.441950" lon="-5.286350">
        <ele>1921.0</ele>
        <time>2015-07-25T12:48:47Z</time>
      </trkpt>
      <trkpt lat="40.442050" lon="-5.286300">
        <ele>1921.0</ele>
        <time>2015-07-25T12:48:49Z</time>
      </trkpt>
      <trkpt lat="40.442183" lon="-5.286267">
        <ele>1923.0</ele>
        <time>2015-07-25T12:48:51Z</time>
      </trkpt>
      <trkpt lat="40.442267" lon="-5.286183">
        <ele>1927.0</ele>
        <time>2015-07-25T12:48:53Z</time>
      </trkpt>
      <trkpt lat="40.442333" lon="-5.286100">
        <ele>1926.0</ele>
        <time>2015-07-25T12:48:55Z</time>
      </trkpt>
      <trkpt lat="40.442450" lon="-5.286017">
        <ele>1925.0</ele>
        <time>2015-07-25T12:48:57Z</time>
      </trkpt>
      <trkpt lat="40.442550" lon="-5.285950">
        <ele>1928.0</ele>
        <time>2015-07-25T12:48:59Z</time>
      </trkpt>
      <trkpt lat="40.442633" lon="-5.285900">
        <ele>1929.0</ele>
        <time>2015-07-25T12:49:01Z</time>
      </trkpt>
      <trkpt lat="40.442733" lon="-5.285800">
        <ele>1928.0</ele>
        <time>2015-07-25T12:49:03Z</time>
      </trkpt>
      <trkpt lat="40.442867" lon="-5.285717">
        <ele>1931.0</ele>
        <time>2015-07-25T12:49:05Z</time>
      </trkpt>
      <trkpt lat="40.442950" lon="-5.285633">
        <ele>1936.0</ele>
        <time>2015-07-25T12:49:07Z</time>
      </trkpt>
      <trkpt lat="40.443033" lon="-5.285533">
        <ele>1935.0</ele>
        <time>2015-07-25T12:49:09Z</time>
      </trkpt>
      <trkpt lat="40.443167" lon="-5.285400">
        <ele>1932.0</ele>
        <time>2015-07-25T12:49:11Z</time>
      </trkpt>
      <trkpt lat="40.443300" lon="-5.285283">
        <ele>1935.0</ele>
        <time>2015-07-25T12:49:13Z</time>
      </trkpt>
      <trkpt lat="40.443417" lon="-5.285183">
        <ele>1939.0</ele>
        <time>2015-07-25T12:49:15Z</time>
      </trkpt>
      <trkpt lat="40.443533" lon="-5.285050">
        <ele>1939.0</ele>
        <time>2015-07-25T12:49:17Z</time>
      </trkpt>
      <trkpt lat="40.443683" lon="-5.284950">
        <ele>1945.0</ele>
        <time>2015-07-25T12:49:19Z</time>
      </trkpt>
      <trkpt lat="40.443783" lon="-5.284817">
        <ele>1951.0</ele>
        <time>2015-07-25T12:49:21Z</time>
      </trkpt>
      <trkpt lat="40.443900" lon="-5.284683">
        <ele>1955.0</ele>
        <time>2015-07-25T12:49:23Z</time>
      </trkpt>
      <trkpt lat="40.444000" lon="-5.284550">
        <ele>1961.0</ele>
        <time>2015-07-25T12:49:25Z</time>
      </trkpt>
      <trkpt lat="40.444083" lon="-5.284367">
        <ele>1966.0</ele>
        <time>2015-07-25T12:49:27Z</time>
      </trkpt>
      <trkpt lat="40.444150" lon="-5.284217">
        <ele>1970.0</ele>
        <time>2015-07-25T12:49:29Z</time>
      </trkpt>
      <trkpt lat="40.444233" lon="-5.284067">
        <ele>1972.0</ele>
        <time>2015-07-25T12:49:31Z</time>
      </trkpt>
      <trkpt lat="40.444333" lon="-5.283917">
        <ele>1971.0</ele>
        <time>2015-07-25T12:49:33Z</time>
      </trkpt>
      <trkpt lat="40.444500" lon="-5.283783">
        <ele>1971.0</ele>
        <time>2015-07-25T12:49:35Z</time>
      </trkpt>
      <trkpt lat="40.444633" lon="-5.283650">
        <ele>1975.0</ele>
        <time>2015-07-25T12:49:37Z</time>
      </trkpt>
      <trkpt lat="40.444733" lon="-5.283483">
        <ele>1976.0</ele>
        <time>2015-07-25T12:49:39Z</time>
      </trkpt>
      <trkpt lat="40.444850" lon="-5.283267">
        <ele>1978.0</ele>
        <time>2015-07-25T12:49:41Z</time>
      </trkpt>
      <trkpt lat="40.444967" lon="-5.283017">
        <ele>1981.0</ele>
        <time>2015-07-25T12:49:43Z</time>
      </trkpt>
      <trkpt lat="40.445083" lon="-5.282833">
        <ele>1977.0</ele>
        <time>2015-07-25T12:49:45Z</time>
      </trkpt>
      <trkpt lat="40.445250" lon="-5.282650">
        <ele>1971.0</ele>
        <time>2015-07-25T12:49:47Z</time>
      </trkpt>
      <trkpt lat="40.445417" lon="-5.282500">
        <ele>1974.0</ele>
        <time>2015-07-25T12:49:49Z</time>
      </trkpt>
      <trkpt lat="40.445517" lon="-5.282333">
        <ele>1978.0</ele>
        <time>2015-07-25T12:49:51Z</time>
      </trkpt>
      <trkpt lat="40.445600" lon="-5.282150">
        <ele>1978.0</ele>
        <time>2015-07-25T12:49:53Z</time>
      </trkpt>
      <trkpt lat="40.445717" lon="-5.281950">
        <ele>1977.0</ele>
        <time>2015-07-25T12:49:55Z</time>
      </trkpt>
      <trkpt lat="40.445817" lon="-5.281733">
        <ele>1978.0</ele>
        <time>2015-07-25T12:49:57Z</time>
      </trkpt>
      <trkpt lat="40.445900" lon="-5.281517">
        <ele>1978.0</ele>
        <time>2015-07-25T12:49:59Z</time>
      </trkpt>
      <trkpt lat="40.445983" lon="-5.281250">
        <ele>1976.0</ele>
        <time>2015-07-25T12:50:01Z</time>
      </trkpt>
      <trkpt lat="40.446083" lon="-5.281000">
        <ele>1976.0</ele>
        <time>2015-07-25T12:50:03Z</time>
      </trkpt>
      <trkpt lat="40.446167" lon="-5.280750">
        <ele>1983.0</ele>
        <time>2015-07-25T12:50:05Z</time>
      </trkpt>
      <trkpt lat="40.446217" lon="-5.280533">
        <ele>1989.0</ele>
        <time>2015-07-25T12:50:07Z</time>
      </trkpt>
      <trkpt lat="40.446267" lon="-5.280267">
        <ele>1991.0</ele>
        <time>2015-07-25T12:50:09Z</time>
      </trkpt>
      <trkpt lat="40.446300" lon="-5.279967">
        <ele>1992.0</ele>
        <time>2015-07-25T12:50:11Z</time>
      </trkpt>
      <trkpt lat="40.446350" lon="-5.279667">
        <ele>1998.0</ele>
        <time>2015-07-25T12:50:13Z</time>
      </trkpt>
      <trkpt lat="40.446350" lon="-5.279383">
        <ele>2002.0</ele>
        <time>2015-07-25T12:50:15Z</time>
      </trkpt>
      <trkpt lat="40.446367" lon="-5.279100">
        <ele>2004.0</ele>
        <time>2015-07-25T12:50:17Z</time>
      </trkpt>
      <trkpt lat="40.446383" lon="-5.278817">
        <ele>2002.0</ele>
        <time>2015-07-25T12:50:19Z</time>
      </trkpt>
      <trkpt lat="40.446450" lon="-5.278533">
        <ele>2002.0</ele>
        <time>2015-07-25T12:50:21Z</time>
      </trkpt>
      <trkpt lat="40.446533" lon="-5.278300">
        <ele>2003.0</ele>
        <time>2015-07-25T12:50:23Z</time>
      </trkpt>
      <trkpt lat="40.446600" lon="-5.278067">
        <ele>2005.0</ele>
        <time>2015-07-25T12:50:25Z</time>
      </trkpt>
      <trkpt lat="40.446617" lon="-5.277783">
        <ele>2005.0</ele>
        <time>2015-07-25T12:50:27Z</time>
      </trkpt>
      <trkpt lat="40.446583" lon="-5.277517">
        <ele>2004.0</ele>
        <time>2015-07-25T12:50:29Z</time>
      </trkpt>
      <trkpt lat="40.446550" lon="-5.277233">
        <ele>2000.0</ele>
        <time>2015-07-25T12:50:31Z</time>
      </trkpt>
      <trkpt lat="40.446483" lon="-5.276917">
        <ele>1998.0</ele>
        <time>2015-07-25T12:50:33Z</time>
      </trkpt>
      <trkpt lat="40.446467" lon="-5.276617">
        <ele>1999.0</ele>
        <time>2015-07-25T12:50:35Z</time>
      </trkpt>
      <trkpt lat="40.446450" lon="-5.276350">
        <ele>1997.0</ele>
        <time>2015-07-25T12:50:37Z</time>
      </trkpt>
      <trkpt lat="40.446417" lon="-5.276033">
        <ele>1993.0</ele>
        <time>2015-07-25T12:50:39Z</time>
      </trkpt>
      <trkpt lat="40.446383" lon="-5.275717">
        <ele>1992.0</ele>
        <time>2015-07-25T12:50:41Z</time>
      </trkpt>
      <trkpt lat="40.446367" lon="-5.275433">
        <ele>1991.0</ele>
        <time>2015-07-25T12:50:43Z</time>
      </trkpt>
      <trkpt lat="40.446383" lon="-5.275133">
        <ele>1988.0</ele>
        <time>2015-07-25T12:50:45Z</time>
      </trkpt>
      <trkpt lat="40.446483" lon="-5.274917">
        <ele>1983.0</ele>
        <time>2015-07-25T12:50:47Z</time>
      </trkpt>
      <trkpt lat="40.446650" lon="-5.274867">
        <ele>1980.0</ele>
        <time>2015-07-25T12:50:49Z</time>
      </trkpt>
      <trkpt lat="40.446750" lon="-5.274917">
        <ele>1981.0</ele>
        <time>2015-07-25T12:50:51Z</time>
      </trkpt>
      <trkpt lat="40.446783" lon="-5.275017">
        <ele>1979.0</ele>
        <time>2015-07-25T12:50:53Z</time>
      </trkpt>
      <trkpt lat="40.446783" lon="-5.275167">
        <ele>1975.0</ele>
        <time>2015-07-25T12:50:55Z</time>
      </trkpt>
      <trkpt lat="40.446800" lon="-5.275350">
        <ele>1973.0</ele>
        <time>2015-07-25T12:50:57Z</time>
      </trkpt>
      <trkpt lat="40.446833" lon="-5.275500">
        <ele>1972.0</ele>
        <time>2015-07-25T12:50:59Z</time>
      </trkpt>
      <trkpt lat="40.446850" lon="-5.275650">
        <ele>1969.0</ele>
        <time>2015-07-25T12:51:01Z</time>
      </trkpt>
      <trkpt lat="40.446883" lon="-5.275850">
        <ele>1966.0</ele>
        <time>2015-07-25T12:51:03Z</time>
      </trkpt>
      <trkpt lat="40.446917" lon="-5.276067">
        <ele>1965.0</ele>
        <time>2015-07-25T12:51:05Z</time>
      </trkpt>
      <trkpt lat="40.446950" lon="-5.276250">
        <ele>1966.0</ele>
        <time>2015-07-25T12:51:07Z</time>
      </trkpt>
      <trkpt lat="40.447000" lon="-5.276417">
        <ele>1968.0</ele>
        <time>2015-07-25T12:51:09Z</time>
      </trkpt>
      <trkpt lat="40.447033" lon="-5.276517">
        <ele>1969.0</ele>
        <time>2015-07-25T12:51:11Z</time>
      </trkpt>
      <trkpt lat="40.447100" lon="-5.276617">
        <ele>1967.0</ele>
        <time>2015-07-25T12:51:13Z</time>
      </trkpt>
      <trkpt lat="40.447150" lon="-5.276750">
        <ele>1968.0</ele>
        <time>2015-07-25T12:51:15Z</time>
      </trkpt>
      <trkpt lat="40.447150" lon="-5.276933">
        <ele>1971.0</ele>
        <time>2015-07-25T12:51:17Z</time>
      </trkpt>
      <trkpt lat="40.447133" lon="-5.277083">
        <ele>1973.0</ele>
        <time>2015-07-25T12:51:19Z</time>
      </trkpt>
      <trkpt lat="40.447183" lon="-5.277167">
        <ele>1971.0</ele>
        <time>2015-07-25T12:51:21Z</time>
      </trkpt>
      <trkpt lat="40.447250" lon="-5.277267">
        <ele>1967.0</ele>
        <time>2015-07-25T12:51:23Z</time>
      </trkpt>
      <trkpt lat="40.447350" lon="-5.277317">
        <ele>1966.0</ele>
        <time>2015-07-25T12:51:25Z</time>
      </trkpt>
      <trkpt lat="40.447467" lon="-5.277267">
        <ele>1967.0</ele>
        <time>2015-07-25T12:51:27Z</time>
      </trkpt>
      <trkpt lat="40.447533" lon="-5.277100">
        <ele>1968.0</ele>
        <time>2015-07-25T12:51:29Z</time>
      </trkpt>
      <trkpt lat="40.447550" lon="-5.276850">
        <ele>1968.0</ele>
        <time>2015-07-25T12:51:31Z</time>
      </trkpt>
      <trkpt lat="40.447450" lon="-5.276567">
        <ele>1969.0</ele>
        <time>2015-07-25T12:51:33Z</time>
      </trkpt>
      <trkpt lat="40.447350" lon="-5.276350">
        <ele>1970.0</ele>
        <time>2015-07-25T12:51:35Z</time>
      </trkpt>
      <trkpt lat="40.447267" lon="-5.276133">
        <ele>1965.0</ele>
        <time>2015-07-25T12:51:37Z</time>
      </trkpt>
      <trkpt lat="40.447233" lon="-5.275833">
        <ele>1960.0</ele>
        <time>2015-07-25T12:51:39Z</time>
      </trkpt>
      <trkpt lat="40.447217" lon="-5.275533">
        <ele>1960.0</ele>
        <time>2015-07-25T12:51:41Z</time>
      </trkpt>
      <trkpt lat="40.447200" lon="-5.275283">
        <ele>1961.0</ele>
        <time>2015-07-25T12:51:43Z</time>
      </trkpt>
      <trkpt lat="40.447183" lon="-5.275017">
        <ele>1959.0</ele>
        <time>2015-07-25T12:51:45Z</time>
      </trkpt>
      <trkpt lat="40.447150" lon="-5.274733">
        <ele>1956.0</ele>
        <time>2015-07-25T12:51:47Z</time>
      </trkpt>
      <trkpt lat="40.447117" lon="-5.274433">
        <ele>1954.0</ele>
        <time>2015-07-25T12:51:49Z</time>
      </trkpt>
      <trkpt lat="40.447167" lon="-5.274183">
        <ele>1953.0</ele>
        <time>2015-07-25T12:51:51Z</time>
      </trkpt>
      <trkpt lat="40.447333" lon="-5.274033">
        <ele>1950.0</ele>
        <time>2015-07-25T12:51:53Z</time>
      </trkpt>
      <trkpt lat="40.447467" lon="-5.274050">
        <ele>1951.0</ele>
        <time>2015-07-25T12:51:55Z</time>
      </trkpt>
      <trkpt lat="40.447550" lon="-5.274117">
        <ele>1950.0</ele>
        <time>2015-07-25T12:51:57Z</time>
      </trkpt>
      <trkpt lat="40.447583" lon="-5.274267">
        <ele>1945.0</ele>
        <time>2015-07-25T12:51:59Z</time>
      </trkpt>
      <trkpt lat="40.447600" lon="-5.274467">
        <ele>1944.0</ele>
        <time>2015-07-25T12:52:01Z</time>
      </trkpt>
      <trkpt lat="40.447583" lon="-5.274650">
        <ele>1948.0</ele>
        <time>2015-07-25T12:52:03Z</time>
      </trkpt>
      <trkpt lat="40.447517" lon="-5.274817">
        <ele>1948.0</ele>
        <time>2015-07-25T12:52:05Z</time>
      </trkpt>
      <trkpt lat="40.447450" lon="-5.275017">
        <ele>1948.0</ele>
        <time>2015-07-25T12:52:07Z</time>
      </trkpt>
      <trkpt lat="40.447417" lon="-5.275183">
        <ele>1951.0</ele>
        <time>2015-07-25T12:52:09Z</time>
      </trkpt>
      <trkpt lat="40.447467" lon="-5.275283">
        <ele>1954.0</ele>
        <time>2015-07-25T12:52:11Z</time>
      </trkpt>
      <trkpt lat="40.447550" lon="-5.275383">
        <ele>1956.0</ele>
        <time>2015-07-25T12:52:13Z</time>
      </trkpt>
      <trkpt lat="40.447633" lon="-5.275383">
        <ele>1958.0</ele>
        <time>2015-07-25T12:52:15Z</time>
      </trkpt>
      <trkpt lat="40.447717" lon="-5.275250">
        <ele>1954.0</ele>
        <time>2015-07-25T12:52:17Z</time>
      </trkpt>
      <trkpt lat="40.447767" lon="-5.274900">
        <ele>1948.0</ele>
        <time>2015-07-25T12:52:19Z</time>
      </trkpt>
      <trkpt lat="40.447717" lon="-5.274517">
        <ele>1948.0</ele>
        <time>2015-07-25T12:52:21Z</time>
      </trkpt>
      <trkpt lat="40.447633" lon="-5.274250">
        <ele>1952.0</ele>
        <time>2015-07-25T12:52:23Z</time>
      </trkpt>
      <trkpt lat="40.447567" lon="-5.273983">
        <ele>1953.0</ele>
        <time>2015-07-25T12:52:25Z</time>
      </trkpt>
      <trkpt lat="40.447467" lon="-5.273667">
        <ele>1955.0</ele>
        <time>2015-07-25T12:52:27Z</time>
      </trkpt>
      <trkpt lat="40.447350" lon="-5.273417">
        <ele>1960.0</ele>
        <time>2015-07-25T12:52:29Z</time>
      </trkpt>
      <trkpt lat="40.447350" lon="-5.273200">
        <ele>1960.0</ele>
        <time>2015-07-25T12:52:31Z</time>
      </trkpt>
      <trkpt lat="40.447467" lon="-5.273000">
        <ele>1959.0</ele>
        <time>2015-07-25T12:52:33Z</time>
      </trkpt>
      <trkpt lat="40.447650" lon="-5.272917">
        <ele>1960.0</ele>
        <time>2015-07-25T12:52:35Z</time>
      </trkpt>
      <trkpt lat="40.447750" lon="-5.272917">
        <ele>1964.0</ele>
        <time>2015-07-25T12:52:37Z</time>
      </trkpt>
      <trkpt lat="40.447833" lon="-5.272950">
        <ele>1962.0</ele>
        <time>2015-07-25T12:52:39Z</time>
      </trkpt>
      <trkpt lat="40.447967" lon="-5.273000">
        <ele>1959.0</ele>
        <time>2015-07-25T12:52:41Z</time>
      </trkpt>
      <trkpt lat="40.448050" lon="-5.273100">
        <ele>1959.0</ele>
        <time>2015-07-25T12:52:43Z</time>
      </trkpt>
      <trkpt lat="40.448117" lon="-5.273217">
        <ele>1959.0</ele>
        <time>2015-07-25T12:52:45Z</time>
      </trkpt>
      <trkpt lat="40.448150" lon="-5.273367">
        <ele>1958.0</ele>
        <time>2015-07-25T12:52:47Z</time>
      </trkpt>
      <trkpt lat="40.448133" lon="-5.273550">
        <ele>1956.0</ele>
        <time>2015-07-25T12:52:49Z</time>
      </trkpt>
      <trkpt lat="40.448133" lon="-5.273733">
        <ele>1957.0</ele>
        <time>2015-07-25T12:52:51Z</time>
      </trkpt>
      <trkpt lat="40.448150" lon="-5.273883">
        <ele>1958.0</ele>
        <time>2015-07-25T12:52:53Z</time>
      </trkpt>
      <trkpt lat="40.448183" lon="-5.274033">
        <ele>1961.0</ele>
        <time>2015-07-25T12:52:55Z</time>
      </trkpt>
      <trkpt lat="40.448233" lon="-5.274183">
        <ele>1965.0</ele>
        <time>2015-07-25T12:52:57Z</time>
      </trkpt>
      <trkpt lat="40.448283" lon="-5.274317">
        <ele>1970.0</ele>
        <time>2015-07-25T12:52:59Z</time>
      </trkpt>
      <trkpt lat="40.448283" lon="-5.274417">
        <ele>1973.0</ele>
        <time>2015-07-25T12:53:01Z</time>
      </trkpt>
      <trkpt lat="40.448200" lon="-5.274583">
        <ele>1972.0</ele>
        <time>2015-07-25T12:53:03Z</time>
      </trkpt>
      <trkpt lat="40.448117" lon="-5.274750">
        <ele>1972.0</ele>
        <time>2015-07-25T12:53:05Z</time>
      </trkpt>
      <trkpt lat="40.448083" lon="-5.274867">
        <ele>1972.0</ele>
        <time>2015-07-25T12:53:07Z</time>
      </trkpt>
      <trkpt lat="40.448133" lon="-5.274983">
        <ele>1968.0</ele>
        <time>2015-07-25T12:53:09Z</time>
      </trkpt>
      <trkpt lat="40.448200" lon="-5.275017">
        <ele>1969.0</ele>
        <time>2015-07-25T12:53:11Z</time>
      </trkpt>
      <trkpt lat="40.448267" lon="-5.274917">
        <ele>1969.0</ele>
        <time>2015-07-25T12:53:13Z</time>
      </trkpt>
      <trkpt lat="40.448333" lon="-5.274767">
        <ele>1967.0</ele>
        <time>2015-07-25T12:53:15Z</time>
      </trkpt>
      <trkpt lat="40.448383" lon="-5.274517">
        <ele>1964.0</ele>
        <time>2015-07-25T12:53:17Z</time>
      </trkpt>
      <trkpt lat="40.448417" lon="-5.274267">
        <ele>1963.0</ele>
        <time>2015-07-25T12:53:19Z</time>
      </trkpt>
      <trkpt lat="40.448450" lon="-5.274033">
        <ele>1964.0</ele>
        <time>2015-07-25T12:53:21Z</time>
      </trkpt>
      <trkpt lat="40.448483" lon="-5.273800">
        <ele>1965.0</ele>
        <time>2015-07-25T12:53:23Z</time>
      </trkpt>
      <trkpt lat="40.448533" lon="-5.273617">
        <ele>1964.0</ele>
        <time>2015-07-25T12:53:25Z</time>
      </trkpt>
      <trkpt lat="40.448650" lon="-5.273383">
        <ele>1965.0</ele>
        <time>2015-07-25T12:53:27Z</time>
      </trkpt>
      <trkpt lat="40.448767" lon="-5.273217">
        <ele>1970.0</ele>
        <time>2015-07-25T12:53:29Z</time>
      </trkpt>
      <trkpt lat="40.448867" lon="-5.273133">
        <ele>1974.0</ele>
        <time>2015-07-25T12:53:31Z</time>
      </trkpt>
      <trkpt lat="40.448967" lon="-5.273167">
        <ele>1974.0</ele>
        <time>2015-07-25T12:53:33Z</time>
      </trkpt>
      <trkpt lat="40.449067" lon="-5.273267">
        <ele>1975.0</ele>
        <time>2015-07-25T12:53:35Z</time>
      </trkpt>
      <trkpt lat="40.449117" lon="-5.273383">
        <ele>1981.0</ele>
        <time>2015-07-25T12:53:37Z</time>
      </trkpt>
      <trkpt lat="40.449100" lon="-5.273517">
        <ele>1984.0</ele>
        <time>2015-07-25T12:53:39Z</time>
      </trkpt>
      <trkpt lat="40.448983" lon="-5.273683">
        <ele>1984.0</ele>
        <time>2015-07-25T12:53:41Z</time>
      </trkpt>
      <trkpt lat="40.448767" lon="-5.273783">
        <ele>1986.0</ele>
        <time>2015-07-25T12:53:43Z</time>
      </trkpt>
      <trkpt lat="40.448517" lon="-5.273700">
        <ele>1988.0</ele>
        <time>2015-07-25T12:53:45Z</time>
      </trkpt>
      <trkpt lat="40.448300" lon="-5.273433">
        <ele>1989.0</ele>
        <time>2015-07-25T12:53:47Z</time>
      </trkpt>
      <trkpt lat="40.448183" lon="-5.273100">
        <ele>1993.0</ele>
        <time>2015-07-25T12:53:49Z</time>
      </trkpt>
      <trkpt lat="40.448167" lon="-5.272800">
        <ele>1997.0</ele>
        <time>2015-07-25T12:53:51Z</time>
      </trkpt>
      <trkpt lat="40.448233" lon="-5.272533">
        <ele>1999.0</ele>
        <time>2015-07-25T12:53:53Z</time>
      </trkpt>
      <trkpt lat="40.448350" lon="-5.272317">
        <ele>2003.0</ele>
        <time>2015-07-25T12:53:55Z</time>
      </trkpt>
      <trkpt lat="40.448467" lon="-5.272150">
        <ele>2010.0</ele>
        <time>2015-07-25T12:53:57Z</time>
      </trkpt>
      <trkpt lat="40.448583" lon="-5.272067">
        <ele>2015.0</ele>
        <time>2015-07-25T12:53:59Z</time>
      </trkpt>
      <trkpt lat="40.448733" lon="-5.272067">
        <ele>2017.0</ele>
        <time>2015-07-25T12:54:01Z</time>
      </trkpt>
      <trkpt lat="40.448833" lon="-5.272133">
        <ele>2019.0</ele>
        <time>2015-07-25T12:54:03Z</time>
      </trkpt>
      <trkpt lat="40.448900" lon="-5.272250">
        <ele>2019.0</ele>
        <time>2015-07-25T12:54:05Z</time>
      </trkpt>
      <trkpt lat="40.448917" lon="-5.272500">
        <ele>2020.0</ele>
        <time>2015-07-25T12:54:07Z</time>
      </trkpt>
      <trkpt lat="40.448850" lon="-5.272717">
        <ele>2026.0</ele>
        <time>2015-07-25T12:54:09Z</time>
      </trkpt>
      <trkpt lat="40.448767" lon="-5.272883">
        <ele>2034.0</ele>
        <time>2015-07-25T12:54:11Z</time>
      </trkpt>
      <trkpt lat="40.448583" lon="-5.273017">
        <ele>2041.0</ele>
        <time>2015-07-25T12:54:13Z</time>
      </trkpt>
      <trkpt lat="40.448333" lon="-5.273033">
        <ele>2046.0</ele>
        <time>2015-07-25T12:54:15Z</time>
      </trkpt>
      <trkpt lat="40.448083" lon="-5.272967">
        <ele>2052.0</ele>
        <time>2015-07-25T12:54:17Z</time>
      </trkpt>
      <trkpt lat="40.447833" lon="-5.272800">
        <ele>2054.0</ele>
        <time>2015-07-25T12:54:19Z</time>
      </trkpt>
      <trkpt lat="40.447667" lon="-5.272483">
        <ele>2056.0</ele>
        <time>2015-07-25T12:54:21Z</time>
      </trkpt>
      <trkpt lat="40.447667" lon="-5.272167">
        <ele>2060.0</ele>
        <time>2015-07-25T12:54:23Z</time>
      </trkpt>
      <trkpt lat="40.447733" lon="-5.271983">
        <ele>2063.0</ele>
        <time>2015-07-25T12:54:25Z</time>
      </trkpt>
      <trkpt lat="40.447833" lon="-5.271833">
        <ele>2065.0</ele>
        <time>2015-07-25T12:54:27Z</time>
      </trkpt>
      <trkpt lat="40.447983" lon="-5.271783">
        <ele>2073.0</ele>
        <time>2015-07-25T12:54:29Z</time>
      </trkpt>
      <trkpt lat="40.448033" lon="-5.271783">
        <ele>2083.0</ele>
        <time>2015-07-25T12:54:31Z</time>
      </trkpt>
      <trkpt lat="40.448067" lon="-5.271833">
        <ele>2086.0</ele>
        <time>2015-07-25T12:54:33Z</time>
      </trkpt>
      <trkpt lat="40.448117" lon="-5.272000">
        <ele>2087.0</ele>
        <time>2015-07-25T12:54:35Z</time>
      </trkpt>
      <trkpt lat="40.448083" lon="-5.272183">
        <ele>2095.0</ele>
        <time>2015-07-25T12:54:37Z</time>
      </trkpt>
      <trkpt lat="40.448000" lon="-5.272317">
        <ele>2103.0</ele>
        <time>2015-07-25T12:54:39Z</time>
      </trkpt>
      <trkpt lat="40.447850" lon="-5.272417">
        <ele>2108.0</ele>
        <time>2015-07-25T12:54:41Z</time>
      </trkpt>
      <trkpt lat="40.447583" lon="-5.272433">
        <ele>2109.0</ele>
        <time>2015-07-25T12:54:43Z</time>
      </trkpt>
      <trkpt lat="40.447317" lon="-5.272317">
        <ele>2118.0</ele>
        <time>2015-07-25T12:54:45Z</time>
      </trkpt>
      <trkpt lat="40.447117" lon="-5.272133">
        <ele>2125.0</ele>
        <time>2015-07-25T12:54:47Z</time>
      </trkpt>
      <trkpt lat="40.446967" lon="-5.271817">
        <ele>2126.0</ele>
        <time>2015-07-25T12:54:49Z</time>
      </trkpt>
      <trkpt lat="40.446967" lon="-5.271450">
        <ele>2128.0</ele>
        <time>2015-07-25T12:54:51Z</time>
      </trkpt>
      <trkpt lat="40.447067" lon="-5.271233">
        <ele>2137.0</ele>
        <time>2015-07-25T12:54:53Z</time>
      </trkpt>
      <trkpt lat="40.447150" lon="-5.271133">
        <ele>2144.0</ele>
        <time>2015-07-25T12:54:55Z</time>
      </trkpt>
      <trkpt lat="40.447233" lon="-5.271117">
        <ele>2146.0</ele>
        <time>2015-07-25T12:54:57Z</time>
      </trkpt>
      <trkpt lat="40.447300" lon="-5.271217">
        <ele>2149.0</ele>
        <time>2015-07-25T12:54:59Z</time>
      </trkpt>
      <trkpt lat="40.447300" lon="-5.271367">
        <ele>2156.0</ele>
        <time>2015-07-25T12:55:01Z</time>
      </trkpt>
      <trkpt lat="40.447250" lon="-5.271517">
        <ele>2160.0</ele>
        <time>2015-07-25T12:55:03Z</time>
      </trkpt>
      <trkpt lat="40.447133" lon="-5.271683">
        <ele>2162.0</ele>
        <time>2015-07-25T12:55:05Z</time>
      </trkpt>
      <trkpt lat="40.446933" lon="-5.271783">
        <ele>2166.0</ele>
        <time>2015-07-25T12:55:07Z</time>
      </trkpt>
      <trkpt lat="40.446700" lon="-5.271750">
        <ele>2171.0</ele>
        <time>2015-07-25T12:55:09Z</time>
      </trkpt>
      <trkpt lat="40.446467" lon="-5.271600">
        <ele>2174.0</ele>
        <time>2015-07-25T12:55:11Z</time>
      </trkpt>
      <trkpt lat="40.446267" lon="-5.271317">
        <ele>2176.0</ele>
        <time>2015-07-25T12:55:13Z</time>
      </trkpt>
      <trkpt lat="40.446217" lon="-5.271017">
        <ele>2180.0</ele>
        <time>2015-07-25T12:55:15Z</time>
      </trkpt>
      <trkpt lat="40.446250" lon="-5.270817">
        <ele>2185.0</ele>
        <time>2015-07-25T12:55:17Z</time>
      </trkpt>
      <trkpt lat="40.446283" lon="-5.270700">
        <ele>2189.0</ele>
        <time>2015-07-25T12:55:19Z</time>
      </trkpt>
      <trkpt lat="40.446367" lon="-5.270633">
        <ele>2192.0</ele>
        <time>2015-07-25T12:55:21Z</time>
      </trkpt>
      <trkpt lat="40.446467" lon="-5.270583">
        <ele>2197.0</ele>
        <time>2015-07-25T12:55:23Z</time>
      </trkpt>
      <trkpt lat="40.446550" lon="-5.270517">
        <ele>2203.0</ele>
        <time>2015-07-25T12:55:25Z</time>
      </trkpt>
      <trkpt lat="40.446617" lon="-5.270433">
        <ele>2206.0</ele>
        <time>2015-07-25T12:55:27Z</time>
      </trkpt>
      <trkpt lat="40.446717" lon="-5.270317">
        <ele>2207.0</ele>
        <time>2015-07-25T12:55:29Z</time>
      </trkpt>
      <trkpt lat="40.446800" lon="-5.270250">
        <ele>2210.0</ele>
        <time>2015-07-25T12:55:31Z</time>
      </trkpt>
      <trkpt lat="40.446883" lon="-5.270233">
        <ele>2211.0</ele>
        <time>2015-07-25T12:55:33Z</time>
      </trkpt>
      <trkpt lat="40.446983" lon="-5.270233">
        <ele>2210.0</ele>
        <time>2015-07-25T12:55:35Z</time>
      </trkpt>
      <trkpt lat="40.447100" lon="-5.270233">
        <ele>2209.0</ele>
        <time>2015-07-25T12:55:37Z</time>
      </trkpt>
      <trkpt lat="40.447233" lon="-5.270267">
        <ele>2208.0</ele>
        <time>2015-07-25T12:55:39Z</time>
      </trkpt>
      <trkpt lat="40.447333" lon="-5.270317">
        <ele>2210.0</ele>
        <time>2015-07-25T12:55:41Z</time>
      </trkpt>
      <trkpt lat="40.447417" lon="-5.270367">
        <ele>2211.0</ele>
        <time>2015-07-25T12:55:43Z</time>
      </trkpt>
      <trkpt lat="40.447550" lon="-5.270417">
        <ele>2209.0</ele>
        <time>2015-07-25T12:55:45Z</time>
      </trkpt>
      <trkpt lat="40.447650" lon="-5.270417">
        <ele>2217.0</ele>
        <time>2015-07-25T12:55:47Z</time>
      </trkpt>
      <trkpt lat="40.447700" lon="-5.270350">
        <ele>2222.0</ele>
        <time>2015-07-25T12:55:49Z</time>
      </trkpt>
      <trkpt lat="40.447783" lon="-5.270283">
        <ele>2222.0</ele>
        <time>2015-07-25T12:55:51Z</time>
      </trkpt>
      <trkpt lat="40.447933" lon="-5.270200">
        <ele>2222.0</ele>
        <time>2015-07-25T12:55:53Z</time>
      </trkpt>
      <trkpt lat="40.448050" lon="-5.270117">
        <ele>2226.0</ele>
        <time>2015-07-25T12:55:55Z</time>
      </trkpt>
      <trkpt lat="40.448183" lon="-5.270033">
        <ele>2227.0</ele>
        <time>2015-07-25T12:55:57Z</time>
      </trkpt>
      <trkpt lat="40.448333" lon="-5.269950">
        <ele>2227.0</ele>
        <time>2015-07-25T12:55:59Z</time>
      </trkpt>
      <trkpt lat="40.448483" lon="-5.269867">
        <ele>2228.0</ele>
        <time>2015-07-25T12:56:01Z</time>
      </trkpt>
      <trkpt lat="40.448650" lon="-5.269833">
        <ele>2230.0</ele>
        <time>2015-07-25T12:56:03Z</time>
      </trkpt>
      <trkpt lat="40.448817" lon="-5.269783">
        <ele>2236.0</ele>
        <time>2015-07-25T12:56:05Z</time>
      </trkpt>
      <trkpt lat="40.448933" lon="-5.269800">
        <ele>2242.0</ele>
        <time>2015-07-25T12:56:07Z</time>
      </trkpt>
      <trkpt lat="40.449033" lon="-5.269917">
        <ele>2244.0</ele>
        <time>2015-07-25T12:56:09Z</time>
      </trkpt>
      <trkpt lat="40.449067" lon="-5.270083">
        <ele>2247.0</ele>
        <time>2015-07-25T12:56:11Z</time>
      </trkpt>
      <trkpt lat="40.449017" lon="-5.270300">
        <ele>2249.0</ele>
        <time>2015-07-25T12:56:13Z</time>
      </trkpt>
      <trkpt lat="40.448883" lon="-5.270500">
        <ele>2252.0</ele>
        <time>2015-07-25T12:56:15Z</time>
      </trkpt>
      <trkpt lat="40.448700" lon="-5.270617">
        <ele>2257.0</ele>
        <time>2015-07-25T12:56:17Z</time>
      </trkpt>
      <trkpt lat="40.448483" lon="-5.270667">
        <ele>2259.0</ele>
        <time>2015-07-25T12:56:19Z</time>
      </trkpt>
      <trkpt lat="40.448233" lon="-5.270633">
        <ele>2261.0</ele>
        <time>2015-07-25T12:56:21Z</time>
      </trkpt>
      <trkpt lat="40.448033" lon="-5.270483">
        <ele>2266.0</ele>
        <time>2015-07-25T12:56:23Z</time>
      </trkpt>
      <trkpt lat="40.447917" lon="-5.270267">
        <ele>2267.0</ele>
        <time>2015-07-25T12:56:25Z</time>
      </trkpt>
      <trkpt lat="40.447883" lon="-5.270017">
        <ele>2269.0</ele>
        <time>2015-07-25T12:56:27Z</time>
      </trkpt>
      <trkpt lat="40.447883" lon="-5.269783">
        <ele>2274.0</ele>
        <time>2015-07-25T12:56:29Z</time>
      </trkpt>
      <trkpt lat="40.447967" lon="-5.269633">
        <ele>2276.0</ele>
        <time>2015-07-25T12:56:31Z</time>
      </trkpt>
      <trkpt lat="40.448117" lon="-5.269583">
        <ele>2277.0</ele>
        <time>2015-07-25T12:56:33Z</time>
      </trkpt>
      <trkpt lat="40.448267" lon="-5.269617">
        <ele>2282.0</ele>
        <time>2015-07-25T12:56:35Z</time>
      </trkpt>
      <trkpt lat="40.448383" lon="-5.269650">
        <ele>2288.0</ele>
        <time>2015-07-25T12:56:37Z</time>
      </trkpt>
      <trkpt lat="40.448517" lon="-5.269750">
        <ele>2291.0</ele>
        <time>2015-07-25T12:56:39Z</time>
      </trkpt>
      <trkpt lat="40.448600" lon="-5.269950">
        <ele>2294.0</ele>
        <time>2015-07-25T12:56:41Z</time>
      </trkpt>
      <trkpt lat="40.448617" lon="-5.270183">
        <ele>2298.0</ele>
        <time>2015-07-25T12:56:43Z</time>
      </trkpt>
      <trkpt lat="40.448533" lon="-5.270417">
        <ele>2300.0</ele>
        <time>2015-07-25T12:56:45Z</time>
      </trkpt>
      <trkpt lat="40.448367" lon="-5.270600">
        <ele>2302.0</ele>
        <time>2015-07-25T12:56:47Z</time>
      </trkpt>
      <trkpt lat="40.448167" lon="-5.270650">
        <ele>2305.0</ele>
        <time>2015-07-25T12:56:49Z</time>
      </trkpt>
      <trkpt lat="40.447983" lon="-5.270600">
        <ele>2306.0</ele>
        <time>2015-07-25T12:56:51Z</time>
      </trkpt>
      <trkpt lat="40.447867" lon="-5.270417">
        <ele>2305.0</ele>
        <time>2015-07-25T12:56:53Z</time>
      </trkpt>
      <trkpt lat="40.447900" lon="-5.270183">
        <ele>2306.0</ele>
        <time>2015-07-25T12:56:55Z</time>
      </trkpt>
      <trkpt lat="40.447950" lon="-5.270033">
        <ele>2310.0</ele>
        <time>2015-07-25T12:56:57Z</time>
      </trkpt>
      <trkpt lat="40.448050" lon="-5.269933">
        <ele>2310.0</ele>
        <time>2015-07-25T12:56:59Z</time>
      </trkpt>
      <trkpt lat="40.448200" lon="-5.269817">
        <ele>2312.0</ele>
        <time>2015-07-25T12:57:01Z</time>
      </trkpt>
      <trkpt lat="40.448350" lon="-5.269800">
        <ele>2320.0</ele>
        <time>2015-07-25T12:57:03Z</time>
      </trkpt>
      <trkpt lat="40.448483" lon="-5.269850">
        <ele>2323.0</ele>
        <time>2015-07-25T12:57:05Z</time>
      </trkpt>
      <trkpt lat="40.448600" lon="-5.269967">
        <ele>2323.0</ele>
        <time>2015-07-25T12:57:07Z</time>
      </trkpt>
      <trkpt lat="40.448700" lon="-5.270200">
        <ele>2325.0</ele>
        <time>2015-07-25T12:57:09Z</time>
      </trkpt>
      <trkpt lat="40.448717" lon="-5.270450">
        <ele>2329.0</ele>
        <time>2015-07-25T12:57:11Z</time>
      </trkpt>
      <trkpt lat="40.448667" lon="-5.270667">
        <ele>2331.0</ele>
        <time>2015-07-25T12:57:13Z</time>
      </trkpt>
      <trkpt lat="40.448583" lon="-5.270900">
        <ele>2330.0</ele>
        <time>2015-07-25T12:57:15Z</time>
      </trkpt>
      <trkpt lat="40.448450" lon="-5.271083">
        <ele>2333.0</ele>
        <time>2015-07-25T12:57:17Z</time>
      </trkpt>
      <trkpt lat="40.448267" lon="-5.271167">
        <ele>2331.0</ele>
        <time>2015-07-25T12:57:19Z</time>
      </trkpt>
      <trkpt lat="40.448033" lon="-5.271167">
        <ele>2327.0</ele>
        <time>2015-07-25T12:57:21Z</time>
      </trkpt>
      <trkpt lat="40.447833" lon="-5.271017">
        <ele>2326.0</ele>
        <time>2015-07-25T12:57:23Z</time>
      </trkpt>
      <trkpt lat="40.447750" lon="-5.270800">
        <ele>2326.0</ele>
        <time>2015-07-25T12:57:25Z</time>
      </trkpt>
      <trkpt lat="40.447783" lon="-5.270600">
        <ele>2324.0</ele>
        <time>2015-07-25T12:57:27Z</time>
      </trkpt>
      <trkpt lat="40.447917" lon="-5.270467">
        <ele>2322.0</ele>
        <time>2015-07-25T12:57:29Z</time>
      </trkpt>
      <trkpt lat="40.448067" lon="-5.270433">
        <ele>2323.0</ele>
        <time>2015-07-25T12:57:31Z</time>
      </trkpt>
      <trkpt lat="40.448217" lon="-5.270400">
        <ele>2323.0</ele>
        <time>2015-07-25T12:57:33Z</time>
      </trkpt>
      <trkpt lat="40.448383" lon="-5.270367">
        <ele>2324.0</ele>
        <time>2015-07-25T12:57:35Z</time>
      </trkpt>
      <trkpt lat="40.448517" lon="-5.270350">
        <ele>2325.0</ele>
        <time>2015-07-25T12:57:37Z</time>
      </trkpt>
      <trkpt lat="40.448667" lon="-5.270350">
        <ele>2324.0</ele>
        <time>2015-07-25T12:57:39Z</time>
      </trkpt>
      <trkpt lat="40.448800" lon="-5.270350">
        <ele>2324.0</ele>
        <time>2015-07-25T12:57:41Z</time>
      </trkpt>
      <trkpt lat="40.448917" lon="-5.270333">
        <ele>2324.0</ele>
        <time>2015-07-25T12:57:43Z</time>
      </trkpt>
      <trkpt lat="40.449050" lon="-5.270283">
        <ele>2320.0</ele>
        <time>2015-07-25T12:57:45Z</time>
      </trkpt>
      <trkpt lat="40.449200" lon="-5.270200">
        <ele>2318.0</ele>
        <time>2015-07-25T12:57:47Z</time>
      </trkpt>
      <trkpt lat="40.449317" lon="-5.270100">
        <ele>2317.0</ele>
        <time>2015-07-25T12:57:49Z</time>
      </trkpt>
      <trkpt lat="40.449433" lon="-5.270000">
        <ele>2313.0</ele>
        <time>2015-07-25T12:57:51Z</time>
      </trkpt>
      <trkpt lat="40.449583" lon="-5.269867">
        <ele>2309.0</ele>
        <time>2015-07-25T12:57:53Z</time>
      </trkpt>
      <trkpt lat="40.449717" lon="-5.269767">
        <ele>2306.0</ele>
        <time>2015-07-25T12:57:55Z</time>
      </trkpt>
      <trkpt lat="40.449867" lon="-5.269683">
        <ele>2303.0</ele>
        <time>2015-07-25T12:57:57Z</time>
      </trkpt>
      <trkpt lat="40.450033" lon="-5.269583">
        <ele>2299.0</ele>
        <time>2015-07-25T12:57:59Z</time>
      </trkpt>
      <trkpt lat="40.450200" lon="-5.269500">
        <ele>2298.0</ele>
        <time>2015-07-25T12:58:01Z</time>
      </trkpt>
      <trkpt lat="40.450350" lon="-5.269417">
        <ele>2295.0</ele>
        <time>2015-07-25T12:58:03Z</time>
      </trkpt>
      <trkpt lat="40.450517" lon="-5.269350">
        <ele>2291.0</ele>
        <time>2015-07-25T12:58:05Z</time>
      </trkpt>
      <trkpt lat="40.450700" lon="-5.269300">
        <ele>2286.0</ele>
        <time>2015-07-25T12:58:07Z</time>
      </trkpt>
      <trkpt lat="40.450883" lon="-5.269267">
        <ele>2285.0</ele>
        <time>2015-07-25T12:58:09Z</time>
      </trkpt>
      <trkpt lat="40.451033" lon="-5.269250">
        <ele>2284.0</ele>
        <time>2015-07-25T12:58:11Z</time>
      </trkpt>
      <trkpt lat="40.451167" lon="-5.269183">
        <ele>2281.0</ele>
        <time>2015-07-25T12:58:13Z</time>
      </trkpt>
      <trkpt lat="40.451300" lon="-5.269083">
        <ele>2275.0</ele>
        <time>2015-07-25T12:58:15Z</time>
      </trkpt>
      <trkpt lat="40.451450" lon="-5.269000">
        <ele>2271.0</ele>
        <time>2015-07-25T12:58:17Z</time>
      </trkpt>
      <trkpt lat="40.451600" lon="-5.268917">
        <ele>2265.0</ele>
        <time>2015-07-25T12:58:19Z</time>
      </trkpt>
      <trkpt lat="40.451750" lon="-5.268817">
        <ele>2257.0</ele>
        <time>2015-07-25T12:58:21Z</time>
      </trkpt>
      <trkpt lat="40.451933" lon="-5.268717">
        <ele>2252.0</ele>
        <time>2015-07-25T12:58:23Z</time>
      </trkpt>
      <trkpt lat="40.452083" lon="-5.268633">
        <ele>2249.0</ele>
        <time>2015-07-25T12:58:25Z</time>
      </trkpt>
      <trkpt lat="40.452233" lon="-5.268550">
        <ele>2243.0</ele>
        <time>2015-07-25T12:58:27Z</time>
      </trkpt>
      <trkpt lat="40.452400" lon="-5.268450">
        <ele>2235.0</ele>
        <time>2015-07-25T12:58:29Z</time>
      </trkpt>
      <trkpt lat="40.452583" lon="-5.268317">
        <ele>2228.0</ele>
        <time>2015-07-25T12:58:31Z</time>
      </trkpt>
      <trkpt lat="40.452767" lon="-5.268233">
        <ele>2224.0</ele>
        <time>2015-07-25T12:58:33Z</time>
      </trkpt>
      <trkpt lat="40.452917" lon="-5.268133">
        <ele>2217.0</ele>
        <time>2015-07-25T12:58:35Z</time>
      </trkpt>
      <trkpt lat="40.453100" lon="-5.268000">
        <ele>2209.0</ele>
        <time>2015-07-25T12:58:37Z</time>
      </trkpt>
      <trkpt lat="40.453283" lon="-5.267883">
        <ele>2202.0</ele>
        <time>2015-07-25T12:58:39Z</time>
      </trkpt>
      <trkpt lat="40.453467" lon="-5.267750">
        <ele>2195.0</ele>
        <time>2015-07-25T12:58:41Z</time>
      </trkpt>
      <trkpt lat="40.453667" lon="-5.267667">
        <ele>2186.0</ele>
        <time>2015-07-25T12:58:43Z</time>
      </trkpt>
      <trkpt lat="40.453883" lon="-5.267617">
        <ele>2182.0</ele>
        <time>2015-07-25T12:58:45Z</time>
      </trkpt>
      <trkpt lat="40.454050" lon="-5.267533">
        <ele>2180.0</ele>
        <time>2015-07-25T12:58:47Z</time>
      </trkpt>
      <trkpt lat="40.454183" lon="-5.267450">
        <ele>2176.0</ele>
        <time>2015-07-25T12:58:49Z</time>
      </trkpt>
      <trkpt lat="40.454333" lon="-5.267317">
        <ele>2170.0</ele>
        <time>2015-07-25T12:58:51Z</time>
      </trkpt>
      <trkpt lat="40.454483" lon="-5.267133">
        <ele>2166.0</ele>
        <time>2015-07-25T12:58:53Z</time>
      </trkpt>
      <trkpt lat="40.454617" lon="-5.266950">
        <ele>2164.0</ele>
        <time>2015-07-25T12:58:55Z</time>
      </trkpt>
      <trkpt lat="40.454750" lon="-5.266783">
        <ele>2160.0</ele>
        <time>2015-07-25T12:58:57Z</time>
      </trkpt>
      <trkpt lat="40.454883" lon="-5.266633">
        <ele>2157.0</ele>
        <time>2015-07-25T12:58:59Z</time>
      </trkpt>
      <trkpt lat="40.455033" lon="-5.266467">
        <ele>2153.0</ele>
        <time>2015-07-25T12:59:01Z</time>
      </trkpt>
      <trkpt lat="40.455150" lon="-5.266283">
        <ele>2150.0</ele>
        <time>2015-07-25T12:59:03Z</time>
      </trkpt>
      <trkpt lat="40.455300" lon="-5.266133">
        <ele>2149.0</ele>
        <time>2015-07-25T12:59:05Z</time>
      </trkpt>
      <trkpt lat="40.455417" lon="-5.266000">
        <ele>2147.0</ele>
        <time>2015-07-25T12:59:07Z</time>
      </trkpt>
      <trkpt lat="40.455517" lon="-5.265867">
        <ele>2140.0</ele>
        <time>2015-07-25T12:59:09Z</time>
      </trkpt>
      <trkpt lat="40.455667" lon="-5.265700">
        <ele>2134.0</ele>
        <time>2015-07-25T12:59:11Z</time>
      </trkpt>
      <trkpt lat="40.455817" lon="-5.265567">
        <ele>2132.0</ele>
        <time>2015-07-25T12:59:13Z</time>
      </trkpt>
      <trkpt lat="40.455933" lon="-5.265467">
        <ele>2128.0</ele>
        <time>2015-07-25T12:59:15Z</time>
      </trkpt>
      <trkpt lat="40.456100" lon="-5.265433">
        <ele>2123.0</ele>
        <time>2015-07-25T12:59:17Z</time>
      </trkpt>
      <trkpt lat="40.456283" lon="-5.265450">
        <ele>2119.0</ele>
        <time>2015-07-25T12:59:19Z</time>
      </trkpt>
      <trkpt lat="40.456450" lon="-5.265450">
        <ele>2114.0</ele>
        <time>2015-07-25T12:59:21Z</time>
      </trkpt>
      <trkpt lat="40.456633" lon="-5.265483">
        <ele>2108.0</ele>
        <time>2015-07-25T12:59:23Z</time>
      </trkpt>
      <trkpt lat="40.456817" lon="-5.265533">
        <ele>2103.0</ele>
        <time>2015-07-25T12:59:25Z</time>
      </trkpt>
      <trkpt lat="40.456983" lon="-5.265600">
        <ele>2099.0</ele>
        <time>2015-07-25T12:59:27Z</time>
      </trkpt>
      <trkpt lat="40.457150" lon="-5.265667">
        <ele>2097.0</ele>
        <time>2015-07-25T12:59:29Z</time>
      </trkpt>
      <trkpt lat="40.457250" lon="-5.265750">
        <ele>2092.0</ele>
        <time>2015-07-25T12:59:31Z</time>
      </trkpt>
      <trkpt lat="40.457333" lon="-5.265933">
        <ele>2083.0</ele>
        <time>2015-07-25T12:59:33Z</time>
      </trkpt>
      <trkpt lat="40.457417" lon="-5.266150">
        <ele>2078.0</ele>
        <time>2015-07-25T12:59:35Z</time>
      </trkpt>
      <trkpt lat="40.457467" lon="-5.266333">
        <ele>2076.0</ele>
        <time>2015-07-25T12:59:37Z</time>
      </trkpt>
      <trkpt lat="40.457500" lon="-5.266500">
        <ele>2073.0</ele>
        <time>2015-07-25T12:59:39Z</time>
      </trkpt>
      <trkpt lat="40.457517" lon="-5.266683">
        <ele>2068.0</ele>
        <time>2015-07-25T12:59:41Z</time>
      </trkpt>
      <trkpt lat="40.457500" lon="-5.266917">
        <ele>2063.0</ele>
        <time>2015-07-25T12:59:43Z</time>
      </trkpt>
      <trkpt lat="40.457483" lon="-5.267150">
        <ele>2060.0</ele>
        <time>2015-07-25T12:59:45Z</time>
      </trkpt>
      <trkpt lat="40.457467" lon="-5.267350">
        <ele>2057.0</ele>
        <time>2015-07-25T12:59:47Z</time>
      </trkpt>
      <trkpt lat="40.457483" lon="-5.267533">
        <ele>2053.0</ele>
        <time>2015-07-25T12:59:49Z</time>
      </trkpt>
      <trkpt lat="40.457533" lon="-5.267717">
        <ele>2050.0</ele>
        <time>2015-07-25T12:59:51Z</time>
      </trkpt>
      <trkpt lat="40.457617" lon="-5.267867">
        <ele>2047.0</ele>
        <time>2015-07-25T12:59:53Z</time>
      </trkpt>
      <trkpt lat="40.457683" lon="-5.268050">
        <ele>2039.0</ele>
        <time>2015-07-25T12:59:55Z</time>
      </trkpt>
      <trkpt lat="40.457767" lon="-5.268250">
        <ele>2033.0</ele>
        <time>2015-07-25T12:59:57Z</time>
      </trkpt>
      <trkpt lat="40.457850" lon="-5.268467">
        <ele>2031.0</ele>
        <time>2015-07-25T12:59:59Z</time>
      </trkpt>
      <trkpt lat="40.457900" lon="-5.268667">
        <ele>2031.0</ele>
        <time>2015-07-25T13:00:01Z</time>
      </trkpt>
      <trkpt lat="40.457917" lon="-5.268833">
        <ele>2032.0</ele>
        <time>2015-07-25T13:00:03Z</time>
      </trkpt>
      <trkpt lat="40.457950" lon="-5.268967">
        <ele>2029.0</ele>
        <time>2015-07-25T13:00:05Z</time>
      </trkpt>
      <trkpt lat="40.458017" lon="-5.269117">
        <ele>2023.0</ele>
        <time>2015-07-25T13:00:07Z</time>
      </trkpt>
      <trkpt lat="40.458033" lon="-5.269317">
        <ele>2021.0</ele>
        <time>2015-07-25T13:00:09Z</time>
      </trkpt>
      <trkpt lat="40.458050" lon="-5.269483">
        <ele>2018.0</ele>
        <time>2015-07-25T13:00:11Z</time>
      </trkpt>
      <trkpt lat="40.458067" lon="-5.269683">
        <ele>2013.0</ele>
        <time>2015-07-25T13:00:13Z</time>
      </trkpt>
      <trkpt lat="40.458100" lon="-5.269883">
        <ele>2011.0</ele>
        <time>2015-07-25T13:00:15Z</time>
      </trkpt>
      <trkpt lat="40.458150" lon="-5.270000">
        <ele>2009.0</ele>
        <time>2015-07-25T13:00:17Z</time>
      </trkpt>
      <trkpt lat="40.458217" lon="-5.270150">
        <ele>2004.0</ele>
        <time>2015-07-25T13:00:19Z</time>
      </trkpt>
      <trkpt lat="40.458267" lon="-5.270350">
        <ele>2000.0</ele>
        <time>2015-07-25T13:00:21Z</time>
      </trkpt>
      <trkpt lat="40.458317" lon="-5.270533">
        <ele>1998.0</ele>
        <time>2015-07-25T13:00:23Z</time>
      </trkpt>
      <trkpt lat="40.458367" lon="-5.270700">
        <ele>1995.0</ele>
        <time>2015-07-25T13:00:25Z</time>
      </trkpt>
      <trkpt lat="40.458433" lon="-5.270917">
        <ele>1992.0</ele>
        <time>2015-07-25T13:00:27Z</time>
      </trkpt>
      <trkpt lat="40.458500" lon="-5.271100">
        <ele>1993.0</ele>
        <time>2015-07-25T13:00:29Z</time>
      </trkpt>
      <trkpt lat="40.458517" lon="-5.271283">
        <ele>1991.0</ele>
        <time>2015-07-25T13:00:31Z</time>
      </trkpt>
      <trkpt lat="40.458550" lon="-5.271450">
        <ele>1987.0</ele>
        <time>2015-07-25T13:00:33Z</time>
      </trkpt>
      <trkpt lat="40.458617" lon="-5.271633">
        <ele>1980.0</ele>
        <time>2015-07-25T13:00:35Z</time>
      </trkpt>
      <trkpt lat="40.458667" lon="-5.271833">
        <ele>1978.0</ele>
        <time>2015-07-25T13:00:37Z</time>
      </trkpt>
      <trkpt lat="40.458700" lon="-5.272017">
        <ele>1977.0</ele>
        <time>2015-07-25T13:00:39Z</time>
      </trkpt>
      <trkpt lat="40.458733" lon="-5.272167">
        <ele>1975.0</ele>
        <time>2015-07-25T13:00:41Z</time>
      </trkpt>
      <trkpt lat="40.458767" lon="-5.272317">
        <ele>1969.0</ele>
        <time>2015-07-25T13:00:43Z</time>
      </trkpt>
      <trkpt lat="40.458833" lon="-5.272500">
        <ele>1963.0</ele>
        <time>2015-07-25T13:00:45Z</time>
      </trkpt>
      <trkpt lat="40.458883" lon="-5.272667">
        <ele>1961.0</ele>
        <time>2015-07-25T13:00:47Z</time>
      </trkpt>
      <trkpt lat="40.458900" lon="-5.272817">
        <ele>1961.0</ele>
        <time>2015-07-25T13:00:49Z</time>
      </trkpt>
      <trkpt lat="40.458900" lon="-5.272967">
        <ele>1960.0</ele>
        <time>2015-07-25T13:00:51Z</time>
      </trkpt>
      <trkpt lat="40.458883" lon="-5.273133">
        <ele>1956.0</ele>
        <time>2015-07-25T13:00:53Z</time>
      </trkpt>
      <trkpt lat="40.458900" lon="-5.273300">
        <ele>1953.0</ele>
        <time>2015-07-25T13:00:55Z</time>
      </trkpt>
      <trkpt lat="40.458917" lon="-5.273467">
        <ele>1951.0</ele>
        <time>2015-07-25T13:00:57Z</time>
      </trkpt>
      <trkpt lat="40.458933" lon="-5.273617">
        <ele>1950.0</ele>
        <time>2015-07-25T13:00:59Z</time>
      </trkpt>
      <trkpt lat="40.458950" lon="-5.273767">
        <ele>1948.0</ele>
        <time>2015-07-25T13:01:01Z</time>
      </trkpt>
      <trkpt lat="40.459000" lon="-5.273900">
        <ele>1944.0</ele>
        <time>2015-07-25T13:01:03Z</time>
      </trkpt>
      <trkpt lat="40.459033" lon="-5.274033">
        <ele>1941.0</ele>
        <time>2015-07-25T13:01:05Z</time>
      </trkpt>
      <trkpt lat="40.459067" lon="-5.274150">
        <ele>1942.0</ele>
        <time>2015-07-25T13:01:07Z</time>
      </trkpt>
      <trkpt lat="40.459100" lon="-5.274267">
        <ele>1942.0</ele>
        <time>2015-07-25T13:01:09Z</time>
      </trkpt>
      <trkpt lat="40.459150" lon="-5.274367">
        <ele>1940.0</ele>
        <time>2015-07-25T13:01:11Z</time>
      </trkpt>
      <trkpt lat="40.459233" lon="-5.274483">
        <ele>1939.0</ele>
        <time>2015-07-25T13:01:13Z</time>
      </trkpt>
      <trkpt lat="40.459300" lon="-5.274567">
        <ele>1936.0</ele>
        <time>2015-07-25T13:01:15Z</time>
      </trkpt>
      <trkpt lat="40.459350" lon="-5.274683">
        <ele>1930.0</ele>
        <time>2015-07-25T13:01:17Z</time>
      </trkpt>
      <trkpt lat="40.459450" lon="-5.274867">
        <ele>1925.0</ele>
        <time>2015-07-25T13:01:19Z</time>
      </trkpt>
      <trkpt lat="40.459550" lon="-5.275017">
        <ele>1929.0</ele>
        <time>2015-07-25T13:01:21Z</time>
      </trkpt>
      <trkpt lat="40.459617" lon="-5.275100">
        <ele>1932.0</ele>
        <time>2015-07-25T13:01:23Z</time>
      </trkpt>
      <trkpt lat="40.459717" lon="-5.275150">
        <ele>1929.0</ele>
        <time>2015-07-25T13:01:25Z</time>
      </trkpt>
      <trkpt lat="40.459850" lon="-5.275183">
        <ele>1927.0</ele>
        <time>2015-07-25T13:01:27Z</time>
      </trkpt>
      <trkpt lat="40.459983" lon="-5.275233">
        <ele>1926.0</ele>
        <time>2015-07-25T13:01:29Z</time>
      </trkpt>
      <trkpt lat="40.460050" lon="-5.275300">
        <ele>1925.0</ele>
        <time>2015-07-25T13:01:31Z</time>
      </trkpt>
      <trkpt lat="40.460117" lon="-5.275400">
        <ele>1920.0</ele>
        <time>2015-07-25T13:01:33Z</time>
      </trkpt>
      <trkpt lat="40.460200" lon="-5.275517">
        <ele>1914.0</ele>
        <time>2015-07-25T13:01:35Z</time>
      </trkpt>
      <trkpt lat="40.460283" lon="-5.275633">
        <ele>1910.0</ele>
        <time>2015-07-25T13:01:37Z</time>
      </trkpt>
      <trkpt lat="40.460383" lon="-5.275783">
        <ele>1908.0</ele>
        <time>2015-07-25T13:01:39Z</time>
      </trkpt>
      <trkpt lat="40.460450" lon="-5.275900">
        <ele>1907.0</ele>
        <time>2015-07-25T13:01:41Z</time>
      </trkpt>
      <trkpt lat="40.460517" lon="-5.276050">
        <ele>1903.0</ele>
        <time>2015-07-25T13:01:43Z</time>
      </trkpt>
      <trkpt lat="40.460600" lon="-5.276217">
        <ele>1901.0</ele>
        <time>2015-07-25T13:01:45Z</time>
      </trkpt>
      <trkpt lat="40.460667" lon="-5.276317">
        <ele>1900.0</ele>
        <time>2015-07-25T13:01:47Z</time>
      </trkpt>
      <trkpt lat="40.460717" lon="-5.276433">
        <ele>1894.0</ele>
        <time>2015-07-25T13:01:49Z</time>
      </trkpt>
      <trkpt lat="40.460817" lon="-5.276583">
        <ele>1887.0</ele>
        <time>2015-07-25T13:01:51Z</time>
      </trkpt>
      <trkpt lat="40.460917" lon="-5.276733">
        <ele>1884.0</ele>
        <time>2015-07-25T13:01:53Z</time>
      </trkpt>
      <trkpt lat="40.461000" lon="-5.276850">
        <ele>1882.0</ele>
        <time>2015-07-25T13:01:55Z</time>
      </trkpt>
      <trkpt lat="40.461117" lon="-5.276983">
        <ele>1880.0</ele>
        <time>2015-07-25T13:01:57Z</time>
      </trkpt>
      <trkpt lat="40.461250" lon="-5.277083">
        <ele>1881.0</ele>
        <time>2015-07-25T13:01:59Z</time>
      </trkpt>
      <trkpt lat="40.461350" lon="-5.277167">
        <ele>1880.0</ele>
        <time>2015-07-25T13:02:01Z</time>
      </trkpt>
      <trkpt lat="40.461450" lon="-5.277317">
        <ele>1874.0</ele>
        <time>2015-07-25T13:02:03Z</time>
      </trkpt>
      <trkpt lat="40.461550" lon="-5.277500">
        <ele>1871.0</ele>
        <time>2015-07-25T13:02:05Z</time>
      </trkpt>
      <trkpt lat="40.461667" lon="-5.277650">
        <ele>1867.0</ele>
        <time>2015-07-25T13:02:07Z</time>
      </trkpt>
      <trkpt lat="40.461783" lon="-5.277833">
        <ele>1862.0</ele>
        <time>2015-07-25T13:02:09Z</time>
      </trkpt>
      <trkpt lat="40.461900" lon="-5.278017">
        <ele>1861.0</ele>
        <time>2015-07-25T13:02:11Z</time>
      </trkpt>
      <trkpt lat="40.461983" lon="-5.278167">
        <ele>1858.0</ele>
        <time>2015-07-25T13:02:13Z</time>
      </trkpt>
      <trkpt lat="40.462083" lon="-5.278350">
        <ele>1852.0</ele>
        <time>2015-07-25T13:02:15Z</time>
      </trkpt>
      <trkpt lat="40.462200" lon="-5.278533">
        <ele>1852.0</ele>
        <time>2015-07-25T13:02:17Z</time>
      </trkpt>
      <trkpt lat="40.462300" lon="-5.278650">
        <ele>1854.0</ele>
        <time>2015-07-25T13:02:19Z</time>
      </trkpt>
      <trkpt lat="40.462417" lon="-5.278717">
        <ele>1853.0</ele>
        <time>2015-07-25T13:02:21Z</time>
      </trkpt>
      <trkpt lat="40.462567" lon="-5.278783">
        <ele>1856.0</ele>
        <time>2015-07-25T13:02:23Z</time>
      </trkpt>
      <trkpt lat="40.462683" lon="-5.278800">
        <ele>1859.0</ele>
        <time>2015-07-25T13:02:25Z</time>
      </trkpt>
      <trkpt lat="40.462817" lon="-5.278767">
        <ele>1858.0</ele>
        <time>2015-07-25T13:02:27Z</time>
      </trkpt>
      <trkpt lat="40.463000" lon="-5.278767">
        <ele>1856.0</ele>
        <time>2015-07-25T13:02:29Z</time>
      </trkpt>
      <trkpt lat="40.463117" lon="-5.278867">
        <ele>1857.0</ele>
        <time>2015-07-25T13:02:31Z</time>
      </trkpt>
      <trkpt lat="40.463200" lon="-5.278983">
        <ele>1859.0</ele>
        <time>2015-07-25T13:02:33Z</time>
      </trkpt>
      <trkpt lat="40.463283" lon="-5.279100">
        <ele>1860.0</ele>
        <time>2015-07-25T13:02:35Z</time>
      </trkpt>
      <trkpt lat="40.463367" lon="-5.279200">
        <ele>1861.0</ele>
        <time>2015-07-25T13:02:37Z</time>
      </trkpt>
      <trkpt lat="40.463450" lon="-5.279300">
        <ele>1861.0</ele>
        <time>2015-07-25T13:02:39Z</time>
      </trkpt>
      <trkpt lat="40.463517" lon="-5.279417">
        <ele>1863.0</ele>
        <time>2015-07-25T13:02:41Z</time>
      </trkpt>
      <trkpt lat="40.463600" lon="-5.279517">
        <ele>1864.0</ele>
        <time>2015-07-25T13:02:43Z</time>
      </trkpt>
      <trkpt lat="40.463683" lon="-5.279600">
        <ele>1865.0</ele>
        <time>2015-07-25T13:02:45Z</time>
      </trkpt>
      <trkpt lat="40.463783" lon="-5.279683">
        <ele>1864.0</ele>
        <time>2015-07-25T13:02:47Z</time>
      </trkpt>
      <trkpt lat="40.463883" lon="-5.279767">
        <ele>1863.0</ele>
        <time>2015-07-25T13:02:49Z</time>
      </trkpt>
      <trkpt lat="40.463967" lon="-5.279867">
        <ele>1863.0</ele>
        <time>2015-07-25T13:02:51Z</time>
      </trkpt>
      <trkpt lat="40.464050" lon="-5.279983">
        <ele>1862.0</ele>
        <time>2015-07-25T13:02:53Z</time>
      </trkpt>
      <trkpt lat="40.464117" lon="-5.280117">
        <ele>1862.0</ele>
        <time>2015-07-25T13:02:55Z</time>
      </trkpt>
      <trkpt lat="40.464150" lon="-5.280250">
        <ele>1861.0</ele>
        <time>2015-07-25T13:02:57Z</time>
      </trkpt>
      <trkpt lat="40.464200" lon="-5.280400">
        <ele>1859.0</ele>
        <time>2015-07-25T13:02:59Z</time>
      </trkpt>
      <trkpt lat="40.464233" lon="-5.280583">
        <ele>1858.0</ele>
        <time>2015-07-25T13:03:01Z</time>
      </trkpt>
      <trkpt lat="40.464267" lon="-5.280767">
        <ele>1858.0</ele>
        <time>2015-07-25T13:03:03Z</time>
      </trkpt>
      <trkpt lat="40.464283" lon="-5.280933">
        <ele>1855.0</ele>
        <time>2015-07-25T13:03:05Z</time>
      </trkpt>
      <trkpt lat="40.464317" lon="-5.281100">
        <ele>1849.0</ele>
        <time>2015-07-25T13:03:07Z</time>
      </trkpt>
      <trkpt lat="40.464350" lon="-5.281317">
        <ele>1845.0</ele>
        <time>2015-07-25T13:03:09Z</time>
      </trkpt>
      <trkpt lat="40.464383" lon="-5.281500">
        <ele>1844.0</ele>
        <time>2015-07-25T13:03:11Z</time>
      </trkpt>
      <trkpt lat="40.464417" lon="-5.281650">
        <ele>1841.0</ele>
        <time>2015-07-25T13:03:13Z</time>
      </trkpt>
      <trkpt lat="40.464433" lon="-5.281817">
        <ele>1838.0</ele>
        <time>2015-07-25T13:03:15Z</time>
      </trkpt>
      <trkpt lat="40.464467" lon="-5.281967">
        <ele>1835.0</ele>
        <time>2015-07-25T13:03:17Z</time>
      </trkpt>
      <trkpt lat="40.464517" lon="-5.282083">
        <ele>1832.0</ele>
        <time>2015-07-25T13:03:19Z</time>
      </trkpt>
      <trkpt lat="40.464600" lon="-5.282217">
        <ele>1826.0</ele>
        <time>2015-07-25T13:03:21Z</time>
      </trkpt>
      <trkpt lat="40.464700" lon="-5.282367">
        <ele>1821.0</ele>
        <time>2015-07-25T13:03:23Z</time>
      </trkpt>
      <trkpt lat="40.464850" lon="-5.282417">
        <ele>1817.0</ele>
        <time>2015-07-25T13:03:25Z</time>
      </trkpt>
      <trkpt lat="40.464983" lon="-5.282467">
        <ele>1813.0</ele>
        <time>2015-07-25T13:03:27Z</time>
      </trkpt>
      <trkpt lat="40.465033" lon="-5.282617">
        <ele>1807.0</ele>
        <time>2015-07-25T13:03:29Z</time>
      </trkpt>
      <trkpt lat="40.465033" lon="-5.282767">
        <ele>1804.0</ele>
        <time>2015-07-25T13:03:31Z</time>
      </trkpt>
      <trkpt lat="40.465067" lon="-5.282900">
        <ele>1798.0</ele>
        <time>2015-07-25T13:03:33Z</time>
      </trkpt>
      <trkpt lat="40.465083" lon="-5.283067">
        <ele>1792.0</ele>
        <time>2015-07-25T13:03:35Z</time>
      </trkpt>
      <trkpt lat="40.465133" lon="-5.283233">
        <ele>1787.0</ele>
        <time>2015-07-25T13:03:37Z</time>
      </trkpt>
      <trkpt lat="40.465150" lon="-5.283367">
        <ele>1783.0</ele>
        <time>2015-07-25T13:03:39Z</time>
      </trkpt>
      <trkpt lat="40.465167" lon="-5.283500">
        <ele>1775.0</ele>
        <time>2015-07-25T13:03:41Z</time>
      </trkpt>
      <trkpt lat="40.465200" lon="-5.283667">
        <ele>1768.0</ele>
        <time>2015-07-25T13:03:43Z</time>
      </trkpt>
      <trkpt lat="40.465200" lon="-5.283817">
        <ele>1763.0</ele>
        <time>2015-07-25T13:03:45Z</time>
      </trkpt>
      <trkpt lat="40.465200" lon="-5.283983">
        <ele>1757.0</ele>
        <time>2015-07-25T13:03:47Z</time>
      </trkpt>
      <trkpt lat="40.465233" lon="-5.284167">
        <ele>1751.0</ele>
        <time>2015-07-25T13:03:49Z</time>
      </trkpt>
      <trkpt lat="40.465267" lon="-5.284350">
        <ele>1746.0</ele>
        <time>2015-07-25T13:03:51Z</time>
      </trkpt>
      <trkpt lat="40.465317" lon="-5.284533">
        <ele>1742.0</ele>
        <time>2015-07-25T13:03:53Z</time>
      </trkpt>
      <trkpt lat="40.465350" lon="-5.284733">
        <ele>1738.0</ele>
        <time>2015-07-25T13:03:55Z</time>
      </trkpt>
      <trkpt lat="40.465400" lon="-5.284933">
        <ele>1733.0</ele>
        <time>2015-07-25T13:03:57Z</time>
      </trkpt>
      <trkpt lat="40.465467" lon="-5.285150">
        <ele>1729.0</ele>
        <time>2015-07-25T13:03:59Z</time>
      </trkpt>
      <trkpt lat="40.465533" lon="-5.285367">
        <ele>1727.0</ele>
        <time>2015-07-25T13:04:01Z</time>
      </trkpt>
      <trkpt lat="40.465567" lon="-5.285567">
        <ele>1725.0</ele>
        <time>2015-07-25T13:04:03Z</time>
      </trkpt>
      <trkpt lat="40.465600" lon="-5.285767">
        <ele>1719.0</ele>
        <time>2015-07-25T13:04:05Z</time>
      </trkpt>
      <trkpt lat="40.465633" lon="-5.285983">
        <ele>1715.0</ele>
        <time>2015-07-25T13:04:07Z</time>
      </trkpt>
      <trkpt lat="40.465650" lon="-5.286167">
        <ele>1713.0</ele>
        <time>2015-07-25T13:04:09Z</time>
      </trkpt>
      <trkpt lat="40.465683" lon="-5.286350">
        <ele>1709.0</ele>
        <time>2015-07-25T13:04:11Z</time>
      </trkpt>
      <trkpt lat="40.465717" lon="-5.286517">
        <ele>1706.0</ele>
        <time>2015-07-25T13:04:13Z</time>
      </trkpt>
      <trkpt lat="40.465750" lon="-5.286650">
        <ele>1705.0</ele>
        <time>2015-07-25T13:04:15Z</time>
      </trkpt>
      <trkpt lat="40.465767" lon="-5.286783">
        <ele>1699.0</ele>
        <time>2015-07-25T13:04:17Z</time>
      </trkpt>
      <trkpt lat="40.465833" lon="-5.286933">
        <ele>1695.0</ele>
        <time>2015-07-25T13:04:19Z</time>
      </trkpt>
      <trkpt lat="40.465883" lon="-5.287067">
        <ele>1693.0</ele>
        <time>2015-07-25T13:04:21Z</time>
      </trkpt>
      <trkpt lat="40.465917" lon="-5.287200">
        <ele>1691.0</ele>
        <time>2015-07-25T13:04:23Z</time>
      </trkpt>
      <trkpt lat="40.465933" lon="-5.287367">
        <ele>1688.0</ele>
        <time>2015-07-25T13:04:25Z</time>
      </trkpt>
      <trkpt lat="40.465950" lon="-5.287550">
        <ele>1686.0</ele>
        <time>2015-07-25T13:04:27Z</time>
      </trkpt>
      <trkpt lat="40.465967" lon="-5.287717">
        <ele>1684.0</ele>
        <time>2015-07-25T13:04:29Z</time>
      </trkpt>
      <trkpt lat="40.465983" lon="-5.287917">
        <ele>1681.0</ele>
        <time>2015-07-25T13:04:31Z</time>
      </trkpt>
      <trkpt lat="40.466000" lon="-5.288083">
        <ele>1680.0</ele>
        <time>2015-07-25T13:04:33Z</time>
      </trkpt>
      <trkpt lat="40.466000" lon="-5.288250">
        <ele>1678.0</ele>
        <time>2015-07-25T13:04:35Z</time>
      </trkpt>
      <trkpt lat="40.466000" lon="-5.288433">
        <ele>1676.0</ele>
        <time>2015-07-25T13:04:37Z</time>
      </trkpt>
      <trkpt lat="40.466000" lon="-5.288600">
        <ele>1675.0</ele>
        <time>2015-07-25T13:04:39Z</time>
      </trkpt>
      <trkpt lat="40.466017" lon="-5.288750">
        <ele>1672.0</ele>
        <time>2015-07-25T13:04:41Z</time>
      </trkpt>
      <trkpt lat="40.466017" lon="-5.288933">
        <ele>1668.0</ele>
        <time>2015-07-25T13:04:43Z</time>
      </trkpt>
      <trkpt lat="40.466050" lon="-5.289133">
        <ele>1666.0</ele>
        <time>2015-07-25T13:04:45Z</time>
      </trkpt>
      <trkpt lat="40.466100" lon="-5.289317">
        <ele>1670.0</ele>
        <time>2015-07-25T13:04:47Z</time>
      </trkpt>
      <trkpt lat="40.466150" lon="-5.289383">
        <ele>1673.0</ele>
        <time>2015-07-25T13:04:49Z</time>
      </trkpt>
      <trkpt lat="40.466233" lon="-5.289433">
        <ele>1668.0</ele>
        <time>2015-07-25T13:04:51Z</time>
      </trkpt>
      <trkpt lat="40.466367" lon="-5.289550">
        <ele>1663.0</ele>
        <time>2015-07-25T13:04:53Z</time>
      </trkpt>
      <trkpt lat="40.466450" lon="-5.289733">
        <ele>1665.0</ele>
        <time>2015-07-25T13:04:55Z</time>
      </trkpt>
      <trkpt lat="40.466550" lon="-5.289883">
        <ele>1669.0</ele>
        <time>2015-07-25T13:04:57Z</time>
      </trkpt>
      <trkpt lat="40.466683" lon="-5.289967">
        <ele>1672.0</ele>
        <time>2015-07-25T13:04:59Z</time>
      </trkpt>
      <trkpt lat="40.466867" lon="-5.289983">
        <ele>1675.0</ele>
        <time>2015-07-25T13:05:01Z</time>
      </trkpt>
      <trkpt lat="40.467050" lon="-5.289933">
        <ele>1677.0</ele>
        <time>2015-07-25T13:05:03Z</time>
      </trkpt>
      <trkpt lat="40.467200" lon="-5.289933">
        <ele>1680.0</ele>
        <time>2015-07-25T13:05:05Z</time>
      </trkpt>
      <trkpt lat="40.467350" lon="-5.290033">
        <ele>1681.0</ele>
        <time>2015-07-25T13:05:07Z</time>
      </trkpt>
      <trkpt lat="40.467450" lon="-5.290167">
        <ele>1685.0</ele>
        <time>2015-07-25T13:05:09Z</time>
      </trkpt>
      <trkpt lat="40.467467" lon="-5.290233">
        <ele>1689.0</ele>
        <time>2015-07-25T13:05:11Z</time>
      </trkpt>
      <trkpt lat="40.467467" lon="-5.290317">
        <ele>1685.0</ele>
        <time>2015-07-25T13:05:13Z</time>
      </trkpt>
      <trkpt lat="40.467483" lon="-5.290450">
        <ele>1680.0</ele>
        <time>2015-07-25T13:05:15Z</time>
      </trkpt>
      <trkpt lat="40.467517" lon="-5.290617">
        <ele>1676.0</ele>
        <time>2015-07-25T13:05:17Z</time>
      </trkpt>
      <trkpt lat="40.467550" lon="-5.290783">
        <ele>1671.0</ele>
        <time>2015-07-25T13:05:19Z</time>
      </trkpt>
      <trkpt lat="40.467550" lon="-5.290967">
        <ele>1667.0</ele>
        <time>2015-07-25T13:05:21Z</time>
      </trkpt>
      <trkpt lat="40.467533" lon="-5.291183">
        <ele>1661.0</ele>
        <time>2015-07-25T13:05:23Z</time>
      </trkpt>
      <trkpt lat="40.467517" lon="-5.291417">
        <ele>1658.0</ele>
        <time>2015-07-25T13:05:25Z</time>
      </trkpt>
      <trkpt lat="40.467550" lon="-5.291650">
        <ele>1661.0</ele>
        <time>2015-07-25T13:05:27Z</time>
      </trkpt>
      <trkpt lat="40.467617" lon="-5.291767">
        <ele>1666.0</ele>
        <time>2015-07-25T13:05:29Z</time>
      </trkpt>
      <trkpt lat="40.467767" lon="-5.291850">
        <ele>1665.0</ele>
        <time>2015-07-25T13:05:31Z</time>
      </trkpt>
      <trkpt lat="40.467933" lon="-5.291967">
        <ele>1666.0</ele>
        <time>2015-07-25T13:05:33Z</time>
      </trkpt>
      <trkpt lat="40.468017" lon="-5.292117">
        <ele>1667.0</ele>
        <time>2015-07-25T13:05:35Z</time>
      </trkpt>
      <trkpt lat="40.468017" lon="-5.292267">
        <ele>1666.0</ele>
        <time>2015-07-25T13:05:37Z</time>
      </trkpt>
      <trkpt lat="40.468017" lon="-5.292417">
        <ele>1666.0</ele>
        <time>2015-07-25T13:05:39Z</time>
      </trkpt>
      <trkpt lat="40.468033" lon="-5.292567">
        <ele>1664.0</ele>
        <time>2015-07-25T13:05:41Z</time>
      </trkpt>
      <trkpt lat="40.468100" lon="-5.292683">
        <ele>1661.0</ele>
        <time>2015-07-25T13:05:43Z</time>
      </trkpt>
      <trkpt lat="40.468133" lon="-5.292833">
        <ele>1655.0</ele>
        <time>2015-07-25T13:05:45Z</time>
      </trkpt>
      <trkpt lat="40.468150" lon="-5.293017">
        <ele>1647.0</ele>
        <time>2015-07-25T13:05:47Z</time>
      </trkpt>
      <trkpt lat="40.468200" lon="-5.293200">
        <ele>1640.0</ele>
        <time>2015-07-25T13:05:49Z</time>
      </trkpt>
      <trkpt lat="40.468250" lon="-5.293350">
        <ele>1634.0</ele>
        <time>2015-07-25T13:05:51Z</time>
      </trkpt>
      <trkpt lat="40.468283" lon="-5.293500">
        <ele>1625.0</ele>
        <time>2015-07-25T13:05:53Z</time>
      </trkpt>
      <trkpt lat="40.468317" lon="-5.293733">
        <ele>1617.0</ele>
        <time>2015-07-25T13:05:55Z</time>
      </trkpt>
      <trkpt lat="40.468367" lon="-5.293933">
        <ele>1615.0</ele>
        <time>2015-07-25T13:05:57Z</time>
      </trkpt>
      <trkpt lat="40.468367" lon="-5.294083">
        <ele>1611.0</ele>
        <time>2015-07-25T13:05:59Z</time>
      </trkpt>
      <trkpt lat="40.468367" lon="-5.294283">
        <ele>1601.0</ele>
        <time>2015-07-25T13:06:01Z</time>
      </trkpt>
      <trkpt lat="40.468367" lon="-5.294500">
        <ele>1595.0</ele>
        <time>2015-07-25T13:06:03Z</time>
      </trkpt>
      <trkpt lat="40.468383" lon="-5.294683">
        <ele>1591.0</ele>
        <time>2015-07-25T13:06:05Z</time>
      </trkpt>
      <trkpt lat="40.468383" lon="-5.294850">
        <ele>1585.0</ele>
        <time>2015-07-25T13:06:07Z</time>
      </trkpt>
      <trkpt lat="40.468383" lon="-5.295033">
        <ele>1577.0</ele>
        <time>2015-07-25T13:06:09Z</time>
      </trkpt>
      <trkpt lat="40.468383" lon="-5.295250">
        <ele>1570.0</ele>
        <time>2015-07-25T13:06:11Z</time>
      </trkpt>
      <trkpt lat="40.468367" lon="-5.295433">
        <ele>1563.0</ele>
        <time>2015-07-25T13:06:13Z</time>
      </trkpt>
      <trkpt lat="40.468383" lon="-5.295633">
        <ele>1557.0</ele>
        <time>2015-07-25T13:06:15Z</time>
      </trkpt>
      <trkpt lat="40.468417" lon="-5.295800">
        <ele>1553.0</ele>
        <time>2015-07-25T13:06:17Z</time>
      </trkpt>
      <trkpt lat="40.468450" lon="-5.295967">
        <ele>1546.0</ele>
        <time>2015-07-25T13:06:19Z</time>
      </trkpt>
      <trkpt lat="40.468483" lon="-5.296167">
        <ele>1540.0</ele>
        <time>2015-07-25T13:06:21Z</time>
      </trkpt>
      <trkpt lat="40.468517" lon="-5.296367">
        <ele>1534.0</ele>
        <time>2015-07-25T13:06:23Z</time>
      </trkpt>
      <trkpt lat="40.468533" lon="-5.296467">
        <ele>1530.0</ele>
        <time>2015-07-25T13:06:24Z</time>
      </trkpt>
      <trkpt lat="40.468583" lon="-5.296717">
        <ele>1523.0</ele>
        <time>2015-07-25T13:06:26Z</time>
      </trkpt>
      <trkpt lat="40.468633" lon="-5.296933">
        <ele>1522.0</ele>
        <time>2015-07-25T13:06:28Z</time>
      </trkpt>
      <trkpt lat="40.468650" lon="-5.297100">
        <ele>1520.0</ele>
        <time>2015-07-25T13:06:30Z</time>
      </trkpt>
      <trkpt lat="40.468667" lon="-5.297283">
        <ele>1515.0</ele>
        <time>2015-07-25T13:06:32Z</time>
      </trkpt>
      <trkpt lat="40.468683" lon="-5.297483">
        <ele>1508.0</ele>
        <time>2015-07-25T13:06:34Z</time>
      </trkpt>
      <trkpt lat="40.468750" lon="-5.297617">
        <ele>1502.0</ele>
        <time>2015-07-25T13:06:36Z</time>
      </trkpt>
      <trkpt lat="40.468833" lon="-5.297717">
        <ele>1495.0</ele>
        <time>2015-07-25T13:06:38Z</time>
      </trkpt>
      <trkpt lat="40.468933" lon="-5.297883">
        <ele>1487.0</ele>
        <time>2015-07-25T13:06:40Z</time>
      </trkpt>
      <trkpt lat="40.468983" lon="-5.298083">
        <ele>1484.0</ele>
        <time>2015-07-25T13:06:42Z</time>
      </trkpt>
      <trkpt lat="40.469000" lon="-5.298233">
        <ele>1481.0</ele>
        <time>2015-07-25T13:06:44Z</time>
      </trkpt>
      <trkpt lat="40.469017" lon="-5.298417">
        <ele>1476.0</ele>
        <time>2015-07-25T13:06:46Z</time>
      </trkpt>
      <trkpt lat="40.469017" lon="-5.298650">
        <ele>1471.0</ele>
        <time>2015-07-25T13:06:48Z</time>
      </trkpt>
      <trkpt lat="40.469017" lon="-5.298833">
        <ele>1469.0</ele>
        <time>2015-07-25T13:06:50Z</time>
      </trkpt>
      <trkpt lat="40.468967" lon="-5.299017">
        <ele>1466.0</ele>
        <time>2015-07-25T13:06:52Z</time>
      </trkpt>
      <trkpt lat="40.468900" lon="-5.299233">
        <ele>1461.0</ele>
        <time>2015-07-25T13:06:54Z</time>
      </trkpt>
      <trkpt lat="40.468750" lon="-5.299400">
        <ele>1455.0</ele>
        <time>2015-07-25T13:06:56Z</time>
      </trkpt>
      <trkpt lat="40.468600" lon="-5.299533">
        <ele>1449.0</ele>
        <time>2015-07-25T13:06:58Z</time>
      </trkpt>
      <trkpt lat="40.468433" lon="-5.299683">
        <ele>1443.0</ele>
        <time>2015-07-25T13:07:00Z</time>
      </trkpt>
      <trkpt lat="40.468250" lon="-5.299883">
        <ele>1436.0</ele>
        <time>2015-07-25T13:07:02Z</time>
      </trkpt>
      <trkpt lat="40.468100" lon="-5.300083">
        <ele>1435.0</ele>
        <time>2015-07-25T13:07:04Z</time>
      </trkpt>
      <trkpt lat="40.467983" lon="-5.300233">
        <ele>1430.0</ele>
        <time>2015-07-25T13:07:06Z</time>
      </trkpt>
      <trkpt lat="40.467883" lon="-5.300467">
        <ele>1424.0</ele>
        <time>2015-07-25T13:07:08Z</time>
      </trkpt>
      <trkpt lat="40.467800" lon="-5.300717">
        <ele>1422.0</ele>
        <time>2015-07-25T13:07:10Z</time>
      </trkpt>
      <trkpt lat="40.467767" lon="-5.300917">
        <ele>1420.0</ele>
        <time>2015-07-25T13:07:12Z</time>
      </trkpt>
      <trkpt lat="40.467767" lon="-5.301133">
        <ele>1414.0</ele>
        <time>2015-07-25T13:07:14Z</time>
      </trkpt>
      <trkpt lat="40.467767" lon="-5.301417">
        <ele>1411.0</ele>
        <time>2015-07-25T13:07:16Z</time>
      </trkpt>
      <trkpt lat="40.467750" lon="-5.301633">
        <ele>1411.0</ele>
        <time>2015-07-25T13:07:18Z</time>
      </trkpt>
      <trkpt lat="40.467683" lon="-5.301850">
        <ele>1409.0</ele>
        <time>2015-07-25T13:07:20Z</time>
      </trkpt>
      <trkpt lat="40.467567" lon="-5.302067">
        <ele>1406.0</ele>
        <time>2015-07-25T13:07:22Z</time>
      </trkpt>
      <trkpt lat="40.467433" lon="-5.302233">
        <ele>1405.0</ele>
        <time>2015-07-25T13:07:24Z</time>
      </trkpt>
      <trkpt lat="40.467283" lon="-5.302350">
        <ele>1403.0</ele>
        <time>2015-07-25T13:07:26Z</time>
      </trkpt>
      <trkpt lat="40.467133" lon="-5.302483">
        <ele>1400.0</ele>
        <time>2015-07-25T13:07:28Z</time>
      </trkpt>
      <trkpt lat="40.466950" lon="-5.302600">
        <ele>1397.0</ele>
        <time>2015-07-25T13:07:30Z</time>
      </trkpt>
      <trkpt lat="40.466783" lon="-5.302717">
        <ele>1394.0</ele>
        <time>2015-07-25T13:07:32Z</time>
      </trkpt>
      <trkpt lat="40.466617" lon="-5.302817">
        <ele>1389.0</ele>
        <time>2015-07-25T13:07:34Z</time>
      </trkpt>
      <trkpt lat="40.466450" lon="-5.302950">
        <ele>1384.0</ele>
        <time>2015-07-25T13:07:36Z</time>
      </trkpt>
      <trkpt lat="40.466300" lon="-5.303100">
        <ele>1382.0</ele>
        <time>2015-07-25T13:07:38Z</time>
      </trkpt>
      <trkpt lat="40.466200" lon="-5.303267">
        <ele>1385.0</ele>
        <time>2015-07-25T13:07:40Z</time>
      </trkpt>
      <trkpt lat="40.466167" lon="-5.303433">
        <ele>1387.0</ele>
        <time>2015-07-25T13:07:42Z</time>
      </trkpt>
      <trkpt lat="40.466183" lon="-5.303583">
        <ele>1389.0</ele>
        <time>2015-07-25T13:07:44Z</time>
      </trkpt>
      <trkpt lat="40.466267" lon="-5.303633">
        <ele>1390.0</ele>
        <time>2015-07-25T13:07:46Z</time>
      </trkpt>
      <trkpt lat="40.466400" lon="-5.303633">
        <ele>1391.0</ele>
        <time>2015-07-25T13:07:48Z</time>
      </trkpt>
      <trkpt lat="40.466483" lon="-5.303583">
        <ele>1394.0</ele>
        <time>2015-07-25T13:07:50Z</time>
      </trkpt>
      <trkpt lat="40.466517" lon="-5.303450">
        <ele>1394.0</ele>
        <time>2015-07-25T13:07:52Z</time>
      </trkpt>
      <trkpt lat="40.466517" lon="-5.303250">
        <ele>1390.0</ele>
        <time>2015-07-25T13:07:54Z</time>
      </trkpt>
      <trkpt lat="40.466417" lon="-5.303000">
        <ele>1389.0</ele>
        <time>2015-07-25T13:07:56Z</time>
      </trkpt>
      <trkpt lat="40.466283" lon="-5.302867">
        <ele>1391.0</ele>
        <time>2015-07-25T13:07:58Z</time>
      </trkpt>
      <trkpt lat="40.466117" lon="-5.302783">
        <ele>1389.0</ele>
        <time>2015-07-25T13:08:00Z</time>
      </trkpt>
      <trkpt lat="40.465883" lon="-5.302717">
        <ele>1387.0</ele>
        <time>2015-07-25T13:08:02Z</time>
      </trkpt>
      <trkpt lat="40.465667" lon="-5.302700">
        <ele>1393.0</ele>
        <time>2015-07-25T13:08:04Z</time>
      </trkpt>
      <trkpt lat="40.465483" lon="-5.302733">
        <ele>1397.0</ele>
        <time>2015-07-25T13:08:06Z</time>
      </trkpt>
      <trkpt lat="40.465317" lon="-5.302850">
        <ele>1401.0</ele>
        <time>2015-07-25T13:08:08Z</time>
      </trkpt>
      <trkpt lat="40.465217" lon="-5.303017">
        <ele>1406.0</ele>
        <time>2015-07-25T13:08:10Z</time>
      </trkpt>
      <trkpt lat="40.465133" lon="-5.303133">
        <ele>1409.0</ele>
        <time>2015-07-25T13:08:12Z</time>
      </trkpt>
      <trkpt lat="40.465100" lon="-5.303317">
        <ele>1407.0</ele>
        <time>2015-07-25T13:08:14Z</time>
      </trkpt>
      <trkpt lat="40.465167" lon="-5.303483">
        <ele>1406.0</ele>
        <time>2015-07-25T13:08:16Z</time>
      </trkpt>
      <trkpt lat="40.465267" lon="-5.303550">
        <ele>1408.0</ele>
        <time>2015-07-25T13:08:18Z</time>
      </trkpt>
      <trkpt lat="40.465333" lon="-5.303533">
        <ele>1408.0</ele>
        <time>2015-07-25T13:08:20Z</time>
      </trkpt>
      <trkpt lat="40.465383" lon="-5.303450">
        <ele>1405.0</ele>
        <time>2015-07-25T13:08:22Z</time>
      </trkpt>
      <trkpt lat="40.465417" lon="-5.303267">
        <ele>1401.0</ele>
        <time>2015-07-25T13:08:24Z</time>
      </trkpt>
      <trkpt lat="40.465383" lon="-5.303033">
        <ele>1399.0</ele>
        <time>2015-07-25T13:08:26Z</time>
      </trkpt>
      <trkpt lat="40.465267" lon="-5.302817">
        <ele>1400.0</ele>
        <time>2015-07-25T13:08:28Z</time>
      </trkpt>
      <trkpt lat="40.465117" lon="-5.302650">
        <ele>1400.0</ele>
        <time>2015-07-25T13:08:30Z</time>
      </trkpt>
      <trkpt lat="40.464933" lon="-5.302483">
        <ele>1400.0</ele>
        <time>2015-07-25T13:08:32Z</time>
      </trkpt>
      <trkpt lat="40.464733" lon="-5.302333">
        <ele>1401.0</ele>
        <time>2015-07-25T13:08:34Z</time>
      </trkpt>
      <trkpt lat="40.464600" lon="-5.302083">
        <ele>1403.0</ele>
        <time>2015-07-25T13:08:36Z</time>
      </trkpt>
      <trkpt lat="40.464567" lon="-5.301800">
        <ele>1407.0</ele>
        <time>2015-07-25T13:08:38Z</time>
      </trkpt>
      <trkpt lat="40.464650" lon="-5.301600">
        <ele>1410.0</ele>
        <time>2015-07-25T13:08:40Z</time>
      </trkpt>
      <trkpt lat="40.464750" lon="-5.301483">
        <ele>1413.0</ele>
        <time>2015-07-25T13:08:42Z</time>
      </trkpt>
      <trkpt lat="40.464833" lon="-5.301483">
        <ele>1413.0</ele>
        <time>2015-07-25T13:08:44Z</time>
      </trkpt>
      <trkpt lat="40.464900" lon="-5.301600">
        <ele>1410.0</ele>
        <time>2015-07-25T13:08:46Z</time>
      </trkpt>
      <trkpt lat="40.464933" lon="-5.301800">
        <ele>1409.0</ele>
        <time>2015-07-25T13:08:48Z</time>
      </trkpt>
      <trkpt lat="40.464883" lon="-5.302017">
        <ele>1408.0</ele>
        <time>2015-07-25T13:08:50Z</time>
      </trkpt>
      <trkpt lat="40.464750" lon="-5.302217">
        <ele>1408.0</ele>
        <time>2015-07-25T13:08:52Z</time>
      </trkpt>
      <trkpt lat="40.464567" lon="-5.302350">
        <ele>1405.0</ele>
        <time>2015-07-25T13:08:54Z</time>
      </trkpt>
      <trkpt lat="40.464317" lon="-5.302383">
        <ele>1402.0</ele>
        <time>2015-07-25T13:08:56Z</time>
      </trkpt>
      <trkpt lat="40.464050" lon="-5.302333">
        <ele>1405.0</ele>
        <time>2015-07-25T13:08:58Z</time>
      </trkpt>
      <trkpt lat="40.463833" lon="-5.302250">
        <ele>1408.0</ele>
        <time>2015-07-25T13:09:00Z</time>
      </trkpt>
      <trkpt lat="40.463567" lon="-5.302117">
        <ele>1412.0</ele>
        <time>2015-07-25T13:09:02Z</time>
      </trkpt>
      <trkpt lat="40.463417" lon="-5.301800">
        <ele>1421.0</ele>
        <time>2015-07-25T13:09:04Z</time>
      </trkpt>
      <trkpt lat="40.463417" lon="-5.301467">
        <ele>1428.0</ele>
        <time>2015-07-25T13:09:06Z</time>
      </trkpt>
      <trkpt lat="40.463417" lon="-5.301167">
        <ele>1434.0</ele>
        <time>2015-07-25T13:09:08Z</time>
      </trkpt>
      <trkpt lat="40.463517" lon="-5.300917">
        <ele>1435.0</ele>
        <time>2015-07-25T13:09:10Z</time>
      </trkpt>
      <trkpt lat="40.463650" lon="-5.300817">
        <ele>1438.0</ele>
        <time>2015-07-25T13:09:12Z</time>
      </trkpt>
      <trkpt lat="40.463733" lon="-5.300850">
        <ele>1443.0</ele>
        <time>2015-07-25T13:09:14Z</time>
      </trkpt>
      <trkpt lat="40.463767" lon="-5.300933">
        <ele>1444.0</ele>
        <time>2015-07-25T13:09:16Z</time>
      </trkpt>
      <trkpt lat="40.463783" lon="-5.301117">
        <ele>1441.0</ele>
        <time>2015-07-25T13:09:18Z</time>
      </trkpt>
      <trkpt lat="40.463733" lon="-5.301333">
        <ele>1442.0</ele>
        <time>2015-07-25T13:09:20Z</time>
      </trkpt>
      <trkpt lat="40.463633" lon="-5.301517">
        <ele>1446.0</ele>
        <time>2015-07-25T13:09:22Z</time>
      </trkpt>
      <trkpt lat="40.463517" lon="-5.301683">
        <ele>1447.0</ele>
        <time>2015-07-25T13:09:24Z</time>
      </trkpt>
      <trkpt lat="40.463400" lon="-5.301883">
        <ele>1447.0</ele>
        <time>2015-07-25T13:09:26Z</time>
      </trkpt>
      <trkpt lat="40.463267" lon="-5.302050">
        <ele>1444.0</ele>
        <time>2015-07-25T13:09:28Z</time>
      </trkpt>
      <trkpt lat="40.463100" lon="-5.302233">
        <ele>1441.0</ele>
        <time>2015-07-25T13:09:30Z</time>
      </trkpt>
      <trkpt lat="40.462867" lon="-5.302350">
        <ele>1439.0</ele>
        <time>2015-07-25T13:09:32Z</time>
      </trkpt>
      <trkpt lat="40.462633" lon="-5.302400">
        <ele>1437.0</ele>
        <time>2015-07-25T13:09:34Z</time>
      </trkpt>
      <trkpt lat="40.462400" lon="-5.302417">
        <ele>1436.0</ele>
        <time>2015-07-25T13:09:36Z</time>
      </trkpt>
      <trkpt lat="40.462167" lon="-5.302400">
        <ele>1436.0</ele>
        <time>2015-07-25T13:09:38Z</time>
      </trkpt>
      <trkpt lat="40.461917" lon="-5.302367">
        <ele>1433.0</ele>
        <time>2015-07-25T13:09:40Z</time>
      </trkpt>
      <trkpt lat="40.461617" lon="-5.302317">
        <ele>1431.0</ele>
        <time>2015-07-25T13:09:42Z</time>
      </trkpt>
      <trkpt lat="40.461333" lon="-5.302283">
        <ele>1434.0</ele>
        <time>2015-07-25T13:09:44Z</time>
      </trkpt>
      <trkpt lat="40.461117" lon="-5.302317">
        <ele>1437.0</ele>
        <time>2015-07-25T13:09:46Z</time>
      </trkpt>
      <trkpt lat="40.460917" lon="-5.302367">
        <ele>1437.0</ele>
        <time>2015-07-25T13:09:48Z</time>
      </trkpt>
      <trkpt lat="40.460700" lon="-5.302450">
        <ele>1437.0</ele>
        <time>2015-07-25T13:09:50Z</time>
      </trkpt>
      <trkpt lat="40.460533" lon="-5.302617">
        <ele>1433.0</ele>
        <time>2015-07-25T13:09:52Z</time>
      </trkpt>
      <trkpt lat="40.460433" lon="-5.302800">
        <ele>1428.0</ele>
        <time>2015-07-25T13:09:54Z</time>
      </trkpt>
      <trkpt lat="40.460417" lon="-5.302950">
        <ele>1421.0</ele>
        <time>2015-07-25T13:09:56Z</time>
      </trkpt>
      <trkpt lat="40.460517" lon="-5.303000">
        <ele>1411.0</ele>
        <time>2015-07-25T13:09:58Z</time>
      </trkpt>
      <trkpt lat="40.460650" lon="-5.302883">
        <ele>1403.0</ele>
        <time>2015-07-25T13:10:00Z</time>
      </trkpt>
      <trkpt lat="40.460683" lon="-5.302633">
        <ele>1397.0</ele>
        <time>2015-07-25T13:10:02Z</time>
      </trkpt>
      <trkpt lat="40.460667" lon="-5.302317">
        <ele>1390.0</ele>
        <time>2015-07-25T13:10:04Z</time>
      </trkpt>
      <trkpt lat="40.460600" lon="-5.301950">
        <ele>1388.0</ele>
        <time>2015-07-25T13:10:06Z</time>
      </trkpt>
      <trkpt lat="40.460517" lon="-5.301667">
        <ele>1389.0</ele>
        <time>2015-07-25T13:10:08Z</time>
      </trkpt>
      <trkpt lat="40.460433" lon="-5.301350">
        <ele>1389.0</ele>
        <time>2015-07-25T13:10:10Z</time>
      </trkpt>
      <trkpt lat="40.460317" lon="-5.301033">
        <ele>1388.0</ele>
        <time>2015-07-25T13:10:12Z</time>
      </trkpt>
      <trkpt lat="40.460167" lon="-5.300733">
        <ele>1388.0</ele>
        <time>2015-07-25T13:10:14Z</time>
      </trkpt>
      <trkpt lat="40.460000" lon="-5.300517">
        <ele>1387.0</ele>
        <time>2015-07-25T13:10:16Z</time>
      </trkpt>
      <trkpt lat="40.459817" lon="-5.300317">
        <ele>1382.0</ele>
        <time>2015-07-25T13:10:18Z</time>
      </trkpt>
      <trkpt lat="40.459617" lon="-5.300017">
        <ele>1377.0</ele>
        <time>2015-07-25T13:10:20Z</time>
      </trkpt>
      <trkpt lat="40.459517" lon="-5.299700">
        <ele>1376.0</ele>
        <time>2015-07-25T13:10:22Z</time>
      </trkpt>
      <trkpt lat="40.459517" lon="-5.299450">
        <ele>1374.0</ele>
        <time>2015-07-25T13:10:24Z</time>
      </trkpt>
      <trkpt lat="40.459600" lon="-5.299167">
        <ele>1367.0</ele>
        <time>2015-07-25T13:10:26Z</time>
      </trkpt>
      <trkpt lat="40.459733" lon="-5.298900">
        <ele>1366.0</ele>
        <time>2015-07-25T13:10:28Z</time>
      </trkpt>
      <trkpt lat="40.459850" lon="-5.298700">
        <ele>1366.0</ele>
        <time>2015-07-25T13:10:30Z</time>
      </trkpt>
      <trkpt lat="40.460000" lon="-5.298517">
        <ele>1363.0</ele>
        <time>2015-07-25T13:10:32Z</time>
      </trkpt>
      <trkpt lat="40.460167" lon="-5.298383">
        <ele>1359.0</ele>
        <time>2015-07-25T13:10:34Z</time>
      </trkpt>
      <trkpt lat="40.460333" lon="-5.298350">
        <ele>1356.0</ele>
        <time>2015-07-25T13:10:36Z</time>
      </trkpt>
      <trkpt lat="40.460500" lon="-5.298300">
        <ele>1354.0</ele>
        <time>2015-07-25T13:10:38Z</time>
      </trkpt>
      <trkpt lat="40.460667" lon="-5.298217">
        <ele>1353.0</ele>
        <time>2015-07-25T13:10:40Z</time>
      </trkpt>
      <trkpt lat="40.460850" lon="-5.298117">
        <ele>1352.0</ele>
        <time>2015-07-25T13:10:42Z</time>
      </trkpt>
      <trkpt lat="40.461017" lon="-5.298017">
        <ele>1355.0</ele>
        <time>2015-07-25T13:10:44Z</time>
      </trkpt>
      <trkpt lat="40.461133" lon="-5.297900">
        <ele>1359.0</ele>
        <time>2015-07-25T13:10:46Z</time>
      </trkpt>
      <trkpt lat="40.461217" lon="-5.297700">
        <ele>1361.0</ele>
        <time>2015-07-25T13:10:48Z</time>
      </trkpt>
      <trkpt lat="40.461317" lon="-5.297483">
        <ele>1362.0</ele>
        <time>2015-07-25T13:10:50Z</time>
      </trkpt>
      <trkpt lat="40.461350" lon="-5.297250">
        <ele>1364.0</ele>
        <time>2015-07-25T13:10:52Z</time>
      </trkpt>
      <trkpt lat="40.461300" lon="-5.296967">
        <ele>1362.0</ele>
        <time>2015-07-25T13:10:54Z</time>
      </trkpt>
      <trkpt lat="40.461117" lon="-5.296783">
        <ele>1363.0</ele>
        <time>2015-07-25T13:10:56Z</time>
      </trkpt>
      <trkpt lat="40.460950" lon="-5.296750">
        <ele>1366.0</ele>
        <time>2015-07-25T13:10:58Z</time>
      </trkpt>
      <trkpt lat="40.460817" lon="-5.296800">
        <ele>1367.0</ele>
        <time>2015-07-25T13:11:00Z</time>
      </trkpt>
      <trkpt lat="40.460783" lon="-5.296950">
        <ele>1365.0</ele>
        <time>2015-07-25T13:11:02Z</time>
      </trkpt>
      <trkpt lat="40.460867" lon="-5.297083">
        <ele>1365.0</ele>
        <time>2015-07-25T13:11:04Z</time>
      </trkpt>
      <trkpt lat="40.460950" lon="-5.297167">
        <ele>1367.0</ele>
        <time>2015-07-25T13:11:06Z</time>
      </trkpt>
      <trkpt lat="40.461050" lon="-5.297233">
        <ele>1366.0</ele>
        <time>2015-07-25T13:11:08Z</time>
      </trkpt>
      <trkpt lat="40.461217" lon="-5.297217">
        <ele>1369.0</ele>
        <time>2015-07-25T13:11:10Z</time>
      </trkpt>
      <trkpt lat="40.461333" lon="-5.297167">
        <ele>1376.0</ele>
        <time>2015-07-25T13:11:12Z</time>
      </trkpt>
      <trkpt lat="40.461400" lon="-5.297067">
        <ele>1380.0</ele>
        <time>2015-07-25T13:11:14Z</time>
      </trkpt>
      <trkpt lat="40.461467" lon="-5.296850">
        <ele>1378.0</ele>
        <time>2015-07-25T13:11:16Z</time>
      </trkpt>
      <trkpt lat="40.461467" lon="-5.296550">
        <ele>1379.0</ele>
        <time>2015-07-25T13:11:18Z</time>
      </trkpt>
      <trkpt lat="40.461367" lon="-5.296300">
        <ele>1383.0</ele>
        <time>2015-07-25T13:11:20Z</time>
      </trkpt>
      <trkpt lat="40.461217" lon="-5.296133">
        <ele>1386.0</ele>
        <time>2015-07-25T13:11:22Z</time>
      </trkpt>
      <trkpt lat="40.461050" lon="-5.296050">
        <ele>1389.0</ele>
        <time>2015-07-25T13:11:24Z</time>
      </trkpt>
      <trkpt lat="40.460883" lon="-5.296033">
        <ele>1390.0</ele>
        <time>2015-07-25T13:11:26Z</time>
      </trkpt>
      <trkpt lat="40.460733" lon="-5.296117">
        <ele>1390.0</ele>
        <time>2015-07-25T13:11:28Z</time>
      </trkpt>
      <trkpt lat="40.460633" lon="-5.296233">
        <ele>1389.0</ele>
        <time>2015-07-25T13:11:30Z</time>
      </trkpt>
      <trkpt lat="40.460633" lon="-5.296400">
        <ele>1387.0</ele>
        <time>2015-07-25T13:11:32Z</time>
      </trkpt>
      <trkpt lat="40.460667" lon="-5.296567">
        <ele>1387.0</ele>
        <time>2015-07-25T13:11:34Z</time>
      </trkpt>
      <trkpt lat="40.460783" lon="-5.296667">
        <ele>1388.0</ele>
        <time>2015-07-25T13:11:36Z</time>
      </trkpt>
      <trkpt lat="40.460950" lon="-5.296733">
        <ele>1392.0</ele>
        <time>2015-07-25T13:11:38Z</time>
      </trkpt>
      <trkpt lat="40.461050" lon="-5.296767">
        <ele>1399.0</ele>
        <time>2015-07-25T13:11:40Z</time>
      </trkpt>
      <trkpt lat="40.461167" lon="-5.296733">
        <ele>1401.0</ele>
        <time>2015-07-25T13:11:42Z</time>
      </trkpt>
      <trkpt lat="40.461300" lon="-5.296600">
        <ele>1401.0</ele>
        <time>2015-07-25T13:11:44Z</time>
      </trkpt>
      <trkpt lat="40.461400" lon="-5.296350">
        <ele>1404.0</ele>
        <time>2015-07-25T13:11:46Z</time>
      </trkpt>
      <trkpt lat="40.461367" lon="-5.296083">
        <ele>1408.0</ele>
        <time>2015-07-25T13:11:48Z</time>
      </trkpt>
      <trkpt lat="40.461300" lon="-5.295817">
        <ele>1408.0</ele>
        <time>2015-07-25T13:11:50Z</time>
      </trkpt>
      <trkpt lat="40.461167" lon="-5.295633">
        <ele>1411.0</ele>
        <time>2015-07-25T13:11:52Z</time>
      </trkpt>
      <trkpt lat="40.460983" lon="-5.295550">
        <ele>1413.0</ele>
        <time>2015-07-25T13:11:54Z</time>
      </trkpt>
      <trkpt lat="40.460800" lon="-5.295533">
        <ele>1415.0</ele>
        <time>2015-07-25T13:11:56Z</time>
      </trkpt>
      <trkpt lat="40.460600" lon="-5.295550">
        <ele>1416.0</ele>
        <time>2015-07-25T13:11:58Z</time>
      </trkpt>
      <trkpt lat="40.460450" lon="-5.295617">
        <ele>1420.0</ele>
        <time>2015-07-25T13:12:00Z</time>
      </trkpt>
      <trkpt lat="40.460333" lon="-5.295767">
        <ele>1421.0</ele>
        <time>2015-07-25T13:12:02Z</time>
      </trkpt>
      <trkpt lat="40.460283" lon="-5.295933">
        <ele>1421.0</ele>
        <time>2015-07-25T13:12:04Z</time>
      </trkpt>
      <trkpt lat="40.460300" lon="-5.296100">
        <ele>1423.0</ele>
        <time>2015-07-25T13:12:06Z</time>
      </trkpt>
      <trkpt lat="40.460350" lon="-5.296200">
        <ele>1427.0</ele>
        <time>2015-07-25T13:12:08Z</time>
      </trkpt>
      <trkpt lat="40.460433" lon="-5.296233">
        <ele>1432.0</ele>
        <time>2015-07-25T13:12:10Z</time>
      </trkpt>
      <trkpt lat="40.460533" lon="-5.296183">
        <ele>1435.0</ele>
        <time>2015-07-25T13:12:12Z</time>
      </trkpt>
      <trkpt lat="40.460650" lon="-5.296000">
        <ele>1437.0</ele>
        <time>2015-07-25T13:12:14Z</time>
      </trkpt>
      <trkpt lat="40.460700" lon="-5.295750">
        <ele>1442.0</ele>
        <time>2015-07-25T13:12:16Z</time>
      </trkpt>
      <trkpt lat="40.460650" lon="-5.295483">
        <ele>1443.0</ele>
        <time>2015-07-25T13:12:18Z</time>
      </trkpt>
      <trkpt lat="40.460567" lon="-5.295200">
        <ele>1441.0</ele>
        <time>2015-07-25T13:12:20Z</time>
      </trkpt>
      <trkpt lat="40.460417" lon="-5.294967">
        <ele>1441.0</ele>
        <time>2015-07-25T13:12:22Z</time>
      </trkpt>
      <trkpt lat="40.460200" lon="-5.294817">
        <ele>1441.0</ele>
        <time>2015-07-25T13:12:24Z</time>
      </trkpt>
      <trkpt lat="40.459983" lon="-5.294800">
        <ele>1442.0</ele>
        <time>2015-07-25T13:12:26Z</time>
      </trkpt>
      <trkpt lat="40.459817" lon="-5.294867">
        <ele>1445.0</ele>
        <time>2015-07-25T13:12:28Z</time>
      </trkpt>
      <trkpt lat="40.459683" lon="-5.294950">
        <ele>1446.0</ele>
        <time>2015-07-25T13:12:30Z</time>
      </trkpt>
      <trkpt lat="40.459533" lon="-5.295050">
        <ele>1445.0</ele>
        <time>2015-07-25T13:12:32Z</time>
      </trkpt>
      <trkpt lat="40.459383" lon="-5.295200">
        <ele>1446.0</ele>
        <time>2015-07-25T13:12:34Z</time>
      </trkpt>
      <trkpt lat="40.459283" lon="-5.295367">
        <ele>1448.0</ele>
        <time>2015-07-25T13:12:36Z</time>
      </trkpt>
      <trkpt lat="40.459267" lon="-5.295517">
        <ele>1450.0</ele>
        <time>2015-07-25T13:12:38Z</time>
      </trkpt>
      <trkpt lat="40.459300" lon="-5.295633">
        <ele>1452.0</ele>
        <time>2015-07-25T13:12:40Z</time>
      </trkpt>
      <trkpt lat="40.459383" lon="-5.295717">
        <ele>1457.0</ele>
        <time>2015-07-25T13:12:42Z</time>
      </trkpt>
      <trkpt lat="40.459483" lon="-5.295700">
        <ele>1463.0</ele>
        <time>2015-07-25T13:12:44Z</time>
      </trkpt>
      <trkpt lat="40.459583" lon="-5.295567">
        <ele>1466.0</ele>
        <time>2015-07-25T13:12:46Z</time>
      </trkpt>
      <trkpt lat="40.459650" lon="-5.295317">
        <ele>1467.0</ele>
        <time>2015-07-25T13:12:48Z</time>
      </trkpt>
      <trkpt lat="40.459600" lon="-5.294967">
        <ele>1470.0</ele>
        <time>2015-07-25T13:12:50Z</time>
      </trkpt>
      <trkpt lat="40.459433" lon="-5.294683">
        <ele>1475.0</ele>
        <time>2015-07-25T13:12:52Z</time>
      </trkpt>
      <trkpt lat="40.459267" lon="-5.294483">
        <ele>1479.0</ele>
        <time>2015-07-25T13:12:54Z</time>
      </trkpt>
      <trkpt lat="40.459067" lon="-5.294350">
        <ele>1480.0</ele>
        <time>2015-07-25T13:12:56Z</time>
      </trkpt>
      <trkpt lat="40.458817" lon="-5.294317">
        <ele>1480.0</ele>
        <time>2015-07-25T13:12:58Z</time>
      </trkpt>
      <trkpt lat="40.458600" lon="-5.294400">
        <ele>1481.0</ele>
        <time>2015-07-25T13:13:00Z</time>
      </trkpt>
      <trkpt lat="40.458433" lon="-5.294517">
        <ele>1483.0</ele>
        <time>2015-07-25T13:13:02Z</time>
      </trkpt>
      <trkpt lat="40.458317" lon="-5.294633">
        <ele>1486.0</ele>
        <time>2015-07-25T13:13:04Z</time>
      </trkpt>
      <trkpt lat="40.458200" lon="-5.294800">
        <ele>1487.0</ele>
        <time>2015-07-25T13:13:06Z</time>
      </trkpt>
      <trkpt lat="40.458133" lon="-5.294933">
        <ele>1492.0</ele>
        <time>2015-07-25T13:13:08Z</time>
      </trkpt>
      <trkpt lat="40.458183" lon="-5.295000">
        <ele>1492.0</ele>
        <time>2015-07-25T13:13:10Z</time>
      </trkpt>
      <trkpt lat="40.458300" lon="-5.295000">
        <ele>1494.0</ele>
        <time>2015-07-25T13:13:12Z</time>
      </trkpt>
      <trkpt lat="40.458400" lon="-5.294883">
        <ele>1501.0</ele>
        <time>2015-07-25T13:13:14Z</time>
      </trkpt>
      <trkpt lat="40.458450" lon="-5.294717">
        <ele>1508.0</ele>
        <time>2015-07-25T13:13:16Z</time>
      </trkpt>
      <trkpt lat="40.458483" lon="-5.294517">
        <ele>1510.0</ele>
        <time>2015-07-25T13:13:18Z</time>
      </trkpt>
      <trkpt lat="40.458467" lon="-5.294233">
        <ele>1508.0</ele>
        <time>2015-07-25T13:13:20Z</time>
      </trkpt>
      <trkpt lat="40.458333" lon="-5.293983">
        <ele>1509.0</ele>
        <time>2015-07-25T13:13:22Z</time>
      </trkpt>
      <trkpt lat="40.458117" lon="-5.293883">
        <ele>1511.0</ele>
        <time>2015-07-25T13:13:24Z</time>
      </trkpt>
      <trkpt lat="40.457917" lon="-5.293900">
        <ele>1512.0</ele>
        <time>2015-07-25T13:13:26Z</time>
      </trkpt>
      <trkpt lat="40.457700" lon="-5.293917">
        <ele>1513.0</ele>
        <time>2015-07-25T13:13:28Z</time>
      </trkpt>
      <trkpt lat="40.457517" lon="-5.293983">
        <ele>1515.0</ele>
        <time>2015-07-25T13:13:30Z</time>
      </trkpt>
      <trkpt lat="40.457417" lon="-5.294100">
        <ele>1516.0</ele>
        <time>2015-07-25T13:13:32Z</time>
      </trkpt>
      <trkpt lat="40.457350" lon="-5.294233">
        <ele>1517.0</ele>
        <time>2015-07-25T13:13:34Z</time>
      </trkpt>
      <trkpt lat="40.457333" lon="-5.294367">
        <ele>1518.0</ele>
        <time>2015-07-25T13:13:36Z</time>
      </trkpt>
      <trkpt lat="40.457383" lon="-5.294467">
        <ele>1521.0</ele>
        <time>2015-07-25T13:13:38Z</time>
      </trkpt>
      <trkpt lat="40.457467" lon="-5.294433">
        <ele>1522.0</ele>
        <time>2015-07-25T13:13:40Z</time>
      </trkpt>
      <trkpt lat="40.457550" lon="-5.294333">
        <ele>1522.0</ele>
        <time>2015-07-25T13:13:42Z</time>
      </trkpt>
      <trkpt lat="40.457633" lon="-5.294167">
        <ele>1526.0</ele>
        <time>2015-07-25T13:13:44Z</time>
      </trkpt>
      <trkpt lat="40.457650" lon="-5.293917">
        <ele>1531.0</ele>
        <time>2015-07-25T13:13:46Z</time>
      </trkpt>
      <trkpt lat="40.457583" lon="-5.293683">
        <ele>1535.0</ele>
        <time>2015-07-25T13:13:48Z</time>
      </trkpt>
      <trkpt lat="40.457433" lon="-5.293450">
        <ele>1536.0</ele>
        <time>2015-07-25T13:13:50Z</time>
      </trkpt>
      <trkpt lat="40.457233" lon="-5.293217">
        <ele>1539.0</ele>
        <time>2015-07-25T13:13:52Z</time>
      </trkpt>
      <trkpt lat="40.457050" lon="-5.293033">
        <ele>1545.0</ele>
        <time>2015-07-25T13:13:54Z</time>
      </trkpt>
      <trkpt lat="40.456883" lon="-5.292917">
        <ele>1547.0</ele>
        <time>2015-07-25T13:13:56Z</time>
      </trkpt>
      <trkpt lat="40.456667" lon="-5.292883">
        <ele>1546.0</ele>
        <time>2015-07-25T13:13:58Z</time>
      </trkpt>
      <trkpt lat="40.456483" lon="-5.292917">
        <ele>1546.0</ele>
        <time>2015-07-25T13:14:00Z</time>
      </trkpt>
      <trkpt lat="40.456333" lon="-5.292983">
        <ele>1547.0</ele>
        <time>2015-07-25T13:14:02Z</time>
      </trkpt>
      <trkpt lat="40.456183" lon="-5.293050">
        <ele>1544.0</ele>
        <time>2015-07-25T13:14:04Z</time>
      </trkpt>
      <trkpt lat="40.456067" lon="-5.293183">
        <ele>1540.0</ele>
        <time>2015-07-25T13:14:06Z</time>
      </trkpt>
      <trkpt lat="40.455950" lon="-5.293317">
        <ele>1539.0</ele>
        <time>2015-07-25T13:14:08Z</time>
      </trkpt>
      <trkpt lat="40.455883" lon="-5.293417">
        <ele>1537.0</ele>
        <time>2015-07-25T13:14:10Z</time>
      </trkpt>
      <trkpt lat="40.455917" lon="-5.293550">
        <ele>1532.0</ele>
        <time>2015-07-25T13:14:12Z</time>
      </trkpt>
      <trkpt lat="40.455967" lon="-5.293700">
        <ele>1530.0</ele>
        <time>2015-07-25T13:14:14Z</time>
      </trkpt>
      <trkpt lat="40.456033" lon="-5.293783">
        <ele>1529.0</ele>
        <time>2015-07-25T13:14:16Z</time>
      </trkpt>
      <trkpt lat="40.456117" lon="-5.293767">
        <ele>1527.0</ele>
        <time>2015-07-25T13:14:18Z</time>
      </trkpt>
      <trkpt lat="40.456233" lon="-5.293617">
        <ele>1524.0</ele>
        <time>2015-07-25T13:14:20Z</time>
      </trkpt>
      <trkpt lat="40.456283" lon="-5.293317">
        <ele>1520.0</ele>
        <time>2015-07-25T13:14:22Z</time>
      </trkpt>
      <trkpt lat="40.456250" lon="-5.292983">
        <ele>1518.0</ele>
        <time>2015-07-25T13:14:24Z</time>
      </trkpt>
      <trkpt lat="40.456150" lon="-5.292650">
        <ele>1514.0</ele>
        <time>2015-07-25T13:14:26Z</time>
      </trkpt>
      <trkpt lat="40.455933" lon="-5.292417">
        <ele>1510.0</ele>
        <time>2015-07-25T13:14:28Z</time>
      </trkpt>
      <trkpt lat="40.455683" lon="-5.292350">
        <ele>1510.0</ele>
        <time>2015-07-25T13:14:30Z</time>
      </trkpt>
      <trkpt lat="40.455500" lon="-5.292367">
        <ele>1513.0</ele>
        <time>2015-07-25T13:14:32Z</time>
      </trkpt>
      <trkpt lat="40.455383" lon="-5.292417">
        <ele>1512.0</ele>
        <time>2015-07-25T13:14:34Z</time>
      </trkpt>
      <trkpt lat="40.455300" lon="-5.292533">
        <ele>1507.0</ele>
        <time>2015-07-25T13:14:36Z</time>
      </trkpt>
      <trkpt lat="40.455200" lon="-5.292667">
        <ele>1504.0</ele>
        <time>2015-07-25T13:14:38Z</time>
      </trkpt>
      <trkpt lat="40.455117" lon="-5.292800">
        <ele>1501.0</ele>
        <time>2015-07-25T13:14:40Z</time>
      </trkpt>
      <trkpt lat="40.455033" lon="-5.292933">
        <ele>1502.0</ele>
        <time>2015-07-25T13:14:42Z</time>
      </trkpt>
      <trkpt lat="40.454967" lon="-5.293067">
        <ele>1502.0</ele>
        <time>2015-07-25T13:14:44Z</time>
      </trkpt>
      <trkpt lat="40.454917" lon="-5.293217">
        <ele>1501.0</ele>
        <time>2015-07-25T13:14:46Z</time>
      </trkpt>
      <trkpt lat="40.454850" lon="-5.293367">
        <ele>1498.0</ele>
        <time>2015-07-25T13:14:48Z</time>
      </trkpt>
      <trkpt lat="40.454783" lon="-5.293517">
        <ele>1496.0</ele>
        <time>2015-07-25T13:14:50Z</time>
      </trkpt>
      <trkpt lat="40.454783" lon="-5.293683">
        <ele>1495.0</ele>
        <time>2015-07-25T13:14:52Z</time>
      </trkpt>
      <trkpt lat="40.454850" lon="-5.293817">
        <ele>1495.0</ele>
        <time>2015-07-25T13:14:54Z</time>
      </trkpt>
      <trkpt lat="40.454883" lon="-5.293950">
        <ele>1496.0</ele>
        <time>2015-07-25T13:14:56Z</time>
      </trkpt>
      <trkpt lat="40.454883" lon="-5.294067">
        <ele>1495.0</ele>
        <time>2015-07-25T13:14:58Z</time>
      </trkpt>
      <trkpt lat="40.454833" lon="-5.294217">
        <ele>1491.0</ele>
        <time>2015-07-25T13:15:00Z</time>
      </trkpt>
      <trkpt lat="40.454783" lon="-5.294383">
        <ele>1488.0</ele>
        <time>2015-07-25T13:15:02Z</time>
      </trkpt>
      <trkpt lat="40.454800" lon="-5.294533">
        <ele>1484.0</ele>
        <time>2015-07-25T13:15:04Z</time>
      </trkpt>
      <trkpt lat="40.454917" lon="-5.294667">
        <ele>1480.0</ele>
        <time>2015-07-25T13:15:06Z</time>
      </trkpt>
      <trkpt lat="40.455050" lon="-5.294667">
        <ele>1479.0</ele>
        <time>2015-07-25T13:15:08Z</time>
      </trkpt>
      <trkpt lat="40.455200" lon="-5.294567">
        <ele>1477.0</ele>
        <time>2015-07-25T13:15:10Z</time>
      </trkpt>
      <trkpt lat="40.455350" lon="-5.294417">
        <ele>1477.0</ele>
        <time>2015-07-25T13:15:12Z</time>
      </trkpt>
      <trkpt lat="40.455483" lon="-5.294267">
        <ele>1477.0</ele>
        <time>2015-07-25T13:15:14Z</time>
      </trkpt>
      <trkpt lat="40.455567" lon="-5.294083">
        <ele>1471.0</ele>
        <time>2015-07-25T13:15:16Z</time>
      </trkpt>
      <trkpt lat="40.455683" lon="-5.293850">
        <ele>1464.0</ele>
        <time>2015-07-25T13:15:18Z</time>
      </trkpt>
      <trkpt lat="40.455817" lon="-5.293617">
        <ele>1459.0</ele>
        <time>2015-07-25T13:15:20Z</time>
      </trkpt>
      <trkpt lat="40.455950" lon="-5.293433">
        <ele>1458.0</ele>
        <time>2015-07-25T13:15:22Z</time>
      </trkpt>
      <trkpt lat="40.456050" lon="-5.293283">
        <ele>1457.0</ele>
        <time>2015-07-25T13:15:24Z</time>
      </trkpt>
      <trkpt lat="40.456150" lon="-5.293083">
        <ele>1451.0</ele>
        <time>2015-07-25T13:15:26Z</time>
      </trkpt>
      <trkpt lat="40.456267" lon="-5.292833">
        <ele>1446.0</ele>
        <time>2015-07-25T13:15:28Z</time>
      </trkpt>
      <trkpt lat="40.456400" lon="-5.292667">
        <ele>1443.0</ele>
        <time>2015-07-25T13:15:30Z</time>
      </trkpt>
      <trkpt lat="40.456550" lon="-5.292567">
        <ele>1440.0</ele>
        <time>2015-07-25T13:15:32Z</time>
      </trkpt>
      <trkpt lat="40.456717" lon="-5.292433">
        <ele>1438.0</ele>
        <time>2015-07-25T13:15:34Z</time>
      </trkpt>
      <trkpt lat="40.456867" lon="-5.292300">
        <ele>1440.0</ele>
        <time>2015-07-25T13:15:36Z</time>
      </trkpt>
      <trkpt lat="40.456983" lon="-5.292117">
        <ele>1440.0</ele>
        <time>2015-07-25T13:15:38Z</time>
      </trkpt>
      <trkpt lat="40.457117" lon="-5.291900">
        <ele>1436.0</ele>
        <time>2015-07-25T13:15:40Z</time>
      </trkpt>
      <trkpt lat="40.457217" lon="-5.291633">
        <ele>1437.0</ele>
        <time>2015-07-25T13:15:42Z</time>
      </trkpt>
      <trkpt lat="40.457233" lon="-5.291367">
        <ele>1440.0</ele>
        <time>2015-07-25T13:15:44Z</time>
      </trkpt>
      <trkpt lat="40.457200" lon="-5.291067">
        <ele>1438.0</ele>
        <time>2015-07-25T13:15:46Z</time>
      </trkpt>
      <trkpt lat="40.457233" lon="-5.290767">
        <ele>1438.0</ele>
        <time>2015-07-25T13:15:48Z</time>
      </trkpt>
      <trkpt lat="40.457317" lon="-5.290567">
        <ele>1438.0</ele>
        <time>2015-07-25T13:15:50Z</time>
      </trkpt>
      <trkpt lat="40.457433" lon="-5.290483">
        <ele>1437.0</ele>
        <time>2015-07-25T13:15:52Z</time>
      </trkpt>
      <trkpt lat="40.457550" lon="-5.290583">
        <ele>1437.0</ele>
        <time>2015-07-25T13:15:54Z</time>
      </trkpt>
      <trkpt lat="40.457600" lon="-5.290700">
        <ele>1442.0</ele>
        <time>2015-07-25T13:15:56Z</time>
      </trkpt>
      <trkpt lat="40.457667" lon="-5.290717">
        <ele>1443.0</ele>
        <time>2015-07-25T13:15:58Z</time>
      </trkpt>
      <trkpt lat="40.457817" lon="-5.290683">
        <ele>1441.0</ele>
        <time>2015-07-25T13:16:00Z</time>
      </trkpt>
      <trkpt lat="40.457967" lon="-5.290567">
        <ele>1443.0</ele>
        <time>2015-07-25T13:16:02Z</time>
      </trkpt>
      <trkpt lat="40.458050" lon="-5.290283">
        <ele>1445.0</ele>
        <time>2015-07-25T13:16:04Z</time>
      </trkpt>
      <trkpt lat="40.458017" lon="-5.290000">
        <ele>1453.0</ele>
        <time>2015-07-25T13:16:06Z</time>
      </trkpt>
      <trkpt lat="40.457867" lon="-5.289833">
        <ele>1457.0</ele>
        <time>2015-07-25T13:16:08Z</time>
      </trkpt>
      <trkpt lat="40.457667" lon="-5.289767">
        <ele>1458.0</ele>
        <time>2015-07-25T13:16:10Z</time>
      </trkpt>
      <trkpt lat="40.457467" lon="-5.289783">
        <ele>1463.0</ele>
        <time>2015-07-25T13:16:12Z</time>
      </trkpt>
      <trkpt lat="40.457350" lon="-5.289900">
        <ele>1466.0</ele>
        <time>2015-07-25T13:16:14Z</time>
      </trkpt>
      <trkpt lat="40.457283" lon="-5.290050">
        <ele>1467.0</ele>
        <time>2015-07-25T13:16:16Z</time>
      </trkpt>
      <trkpt lat="40.457317" lon="-5.290217">
        <ele>1468.0</ele>
        <time>2015-07-25T13:16:18Z</time>
      </trkpt>
      <trkpt lat="40.457400" lon="-5.290317">
        <ele>1472.0</ele>
        <time>2015-07-25T13:16:20Z</time>
      </trkpt>
      <trkpt lat="40.457500" lon="-5.290350">
        <ele>1477.0</ele>
        <time>2015-07-25T13:16:22Z</time>
      </trkpt>
      <trkpt lat="40.457617" lon="-5.290333">
        <ele>1477.0</ele>
        <time>2015-07-25T13:16:24Z</time>
      </trkpt>
      <trkpt lat="40.457800" lon="-5.290217">
        <ele>1474.0</ele>
        <time>2015-07-25T13:16:26Z</time>
      </trkpt>
      <trkpt lat="40.457933" lon="-5.289950">
        <ele>1475.0</ele>
        <time>2015-07-25T13:16:28Z</time>
      </trkpt>
      <trkpt lat="40.457967" lon="-5.289633">
        <ele>1476.0</ele>
        <time>2015-07-25T13:16:30Z</time>
      </trkpt>
      <trkpt lat="40.457950" lon="-5.289317">
        <ele>1476.0</ele>
        <time>2015-07-25T13:16:32Z</time>
      </trkpt>
      <trkpt lat="40.457867" lon="-5.288967">
        <ele>1476.0</ele>
        <time>2015-07-25T13:16:34Z</time>
      </trkpt>
      <trkpt lat="40.457683" lon="-5.288700">
        <ele>1479.0</ele>
        <time>2015-07-25T13:16:36Z</time>
      </trkpt>
      <trkpt lat="40.457467" lon="-5.288583">
        <ele>1487.0</ele>
        <time>2015-07-25T13:16:38Z</time>
      </trkpt>
      <trkpt lat="40.457300" lon="-5.288533">
        <ele>1496.0</ele>
        <time>2015-07-25T13:16:40Z</time>
      </trkpt>
      <trkpt lat="40.457150" lon="-5.288583">
        <ele>1500.0</ele>
        <time>2015-07-25T13:16:42Z</time>
      </trkpt>
      <trkpt lat="40.457017" lon="-5.288733">
        <ele>1504.0</ele>
        <time>2015-07-25T13:16:44Z</time>
      </trkpt>
      <trkpt lat="40.456983" lon="-5.288867">
        <ele>1509.0</ele>
        <time>2015-07-25T13:16:46Z</time>
      </trkpt>
      <trkpt lat="40.457017" lon="-5.288967">
        <ele>1514.0</ele>
        <time>2015-07-25T13:16:48Z</time>
      </trkpt>
      <trkpt lat="40.457100" lon="-5.289033">
        <ele>1517.0</ele>
        <time>2015-07-25T13:16:50Z</time>
      </trkpt>
      <trkpt lat="40.457250" lon="-5.288950">
        <ele>1517.0</ele>
        <time>2015-07-25T13:16:52Z</time>
      </trkpt>
      <trkpt lat="40.457417" lon="-5.288700">
        <ele>1520.0</ele>
        <time>2015-07-25T13:16:54Z</time>
      </trkpt>
      <trkpt lat="40.457483" lon="-5.288433">
        <ele>1528.0</ele>
        <time>2015-07-25T13:16:56Z</time>
      </trkpt>
      <trkpt lat="40.457450" lon="-5.288167">
        <ele>1530.0</ele>
        <time>2015-07-25T13:16:58Z</time>
      </trkpt>
      <trkpt lat="40.457283" lon="-5.287917">
        <ele>1531.0</ele>
        <time>2015-07-25T13:17:00Z</time>
      </trkpt>
      <trkpt lat="40.457100" lon="-5.287733">
        <ele>1537.0</ele>
        <time>2015-07-25T13:17:02Z</time>
      </trkpt>
      <trkpt lat="40.456917" lon="-5.287667">
        <ele>1542.0</ele>
        <time>2015-07-25T13:17:04Z</time>
      </trkpt>
      <trkpt lat="40.456733" lon="-5.287750">
        <ele>1546.0</ele>
        <time>2015-07-25T13:17:06Z</time>
      </trkpt>
      <trkpt lat="40.456617" lon="-5.287867">
        <ele>1552.0</ele>
        <time>2015-07-25T13:17:08Z</time>
      </trkpt>
      <trkpt lat="40.456567" lon="-5.287983">
        <ele>1558.0</ele>
        <time>2015-07-25T13:17:10Z</time>
      </trkpt>
      <trkpt lat="40.456617" lon="-5.288100">
        <ele>1562.0</ele>
        <time>2015-07-25T13:17:12Z</time>
      </trkpt>
      <trkpt lat="40.456750" lon="-5.288133">
        <ele>1566.0</ele>
        <time>2015-07-25T13:17:14Z</time>
      </trkpt>
      <trkpt lat="40.456900" lon="-5.288067">
        <ele>1571.0</ele>
        <time>2015-07-25T13:17:16Z</time>
      </trkpt>
      <trkpt lat="40.457067" lon="-5.287883">
        <ele>1573.0</ele>
        <time>2015-07-25T13:17:18Z</time>
      </trkpt>
      <trkpt lat="40.457133" lon="-5.287583">
        <ele>1577.0</ele>
        <time>2015-07-25T13:17:20Z</time>
      </trkpt>
      <trkpt lat="40.457133" lon="-5.287300">
        <ele>1587.0</ele>
        <time>2015-07-25T13:17:22Z</time>
      </trkpt>
      <trkpt lat="40.457083" lon="-5.287083">
        <ele>1595.0</ele>
        <time>2015-07-25T13:17:24Z</time>
      </trkpt>
      <trkpt lat="40.456933" lon="-5.286883">
        <ele>1599.0</ele>
        <time>2015-07-25T13:17:26Z</time>
      </trkpt>
      <trkpt lat="40.456733" lon="-5.286750">
        <ele>1605.0</ele>
        <time>2015-07-25T13:17:28Z</time>
      </trkpt>
      <trkpt lat="40.456550" lon="-5.286783">
        <ele>1610.0</ele>
        <time>2015-07-25T13:17:30Z</time>
      </trkpt>
      <trkpt lat="40.456417" lon="-5.286900">
        <ele>1616.0</ele>
        <time>2015-07-25T13:17:32Z</time>
      </trkpt>
      <trkpt lat="40.456367" lon="-5.287050">
        <ele>1620.0</ele>
        <time>2015-07-25T13:17:34Z</time>
      </trkpt>
      <trkpt lat="40.456417" lon="-5.287167">
        <ele>1626.0</ele>
        <time>2015-07-25T13:17:36Z</time>
      </trkpt>
      <trkpt lat="40.456567" lon="-5.287150">
        <ele>1629.0</ele>
        <time>2015-07-25T13:17:38Z</time>
      </trkpt>
      <trkpt lat="40.456733" lon="-5.286983">
        <ele>1632.0</ele>
        <time>2015-07-25T13:17:40Z</time>
      </trkpt>
      <trkpt lat="40.456817" lon="-5.286683">
        <ele>1636.0</ele>
        <time>2015-07-25T13:17:42Z</time>
      </trkpt>
      <trkpt lat="40.456750" lon="-5.286367">
        <ele>1646.0</ele>
        <time>2015-07-25T13:17:44Z</time>
      </trkpt>
      <trkpt lat="40.456633" lon="-5.286183">
        <ele>1656.0</ele>
        <time>2015-07-25T13:17:46Z</time>
      </trkpt>
      <trkpt lat="40.456450" lon="-5.286067">
        <ele>1660.0</ele>
        <time>2015-07-25T13:17:48Z</time>
      </trkpt>
      <trkpt lat="40.456217" lon="-5.286050">
        <ele>1665.0</ele>
        <time>2015-07-25T13:17:50Z</time>
      </trkpt>
      <trkpt lat="40.456067" lon="-5.286150">
        <ele>1670.0</ele>
        <time>2015-07-25T13:17:52Z</time>
      </trkpt>
      <trkpt lat="40.455967" lon="-5.286300">
        <ele>1676.0</ele>
        <time>2015-07-25T13:17:54Z</time>
      </trkpt>
      <trkpt lat="40.455950" lon="-5.286433">
        <ele>1684.0</ele>
        <time>2015-07-25T13:17:56Z</time>
      </trkpt>
      <trkpt lat="40.456017" lon="-5.286500">
        <ele>1689.0</ele>
        <time>2015-07-25T13:17:58Z</time>
      </trkpt>
      <trkpt lat="40.456183" lon="-5.286467">
        <ele>1692.0</ele>
        <time>2015-07-25T13:18:00Z</time>
      </trkpt>
      <trkpt lat="40.456350" lon="-5.286250">
        <ele>1696.0</ele>
        <time>2015-07-25T13:18:02Z</time>
      </trkpt>
      <trkpt lat="40.456367" lon="-5.285933">
        <ele>1704.0</ele>
        <time>2015-07-25T13:18:04Z</time>
      </trkpt>
      <trkpt lat="40.456283" lon="-5.285683">
        <ele>1713.0</ele>
        <time>2015-07-25T13:18:06Z</time>
      </trkpt>
      <trkpt lat="40.456167" lon="-5.285467">
        <ele>1719.0</ele>
        <time>2015-07-25T13:18:08Z</time>
      </trkpt>
      <trkpt lat="40.455967" lon="-5.285300">
        <ele>1722.0</ele>
        <time>2015-07-25T13:18:10Z</time>
      </trkpt>
      <trkpt lat="40.455733" lon="-5.285217">
        <ele>1728.0</ele>
        <time>2015-07-25T13:18:12Z</time>
      </trkpt>
      <trkpt lat="40.455583" lon="-5.285133">
        <ele>1735.0</ele>
        <time>2015-07-25T13:18:14Z</time>
      </trkpt>
      <trkpt lat="40.455433" lon="-5.285167">
        <ele>1736.0</ele>
        <time>2015-07-25T13:18:16Z</time>
      </trkpt>
      <trkpt lat="40.455333" lon="-5.285300">
        <ele>1738.0</ele>
        <time>2015-07-25T13:18:18Z</time>
      </trkpt>
      <trkpt lat="40.455333" lon="-5.285467">
        <ele>1745.0</ele>
        <time>2015-07-25T13:18:20Z</time>
      </trkpt>
      <trkpt lat="40.455400" lon="-5.285533">
        <ele>1749.0</ele>
        <time>2015-07-25T13:18:22Z</time>
      </trkpt>
      <trkpt lat="40.455517" lon="-5.285550">
        <ele>1751.0</ele>
        <time>2015-07-25T13:18:24Z</time>
      </trkpt>
      <trkpt lat="40.455667" lon="-5.285500">
        <ele>1757.0</ele>
        <time>2015-07-25T13:18:26Z</time>
      </trkpt>
      <trkpt lat="40.455783" lon="-5.285350">
        <ele>1764.0</ele>
        <time>2015-07-25T13:18:28Z</time>
      </trkpt>
      <trkpt lat="40.455833" lon="-5.285117">
        <ele>1771.0</ele>
        <time>2015-07-25T13:18:30Z</time>
      </trkpt>
      <trkpt lat="40.455800" lon="-5.284850">
        <ele>1778.0</ele>
        <time>2015-07-25T13:18:32Z</time>
      </trkpt>
      <trkpt lat="40.455700" lon="-5.284617">
        <ele>1783.0</ele>
        <time>2015-07-25T13:18:34Z</time>
      </trkpt>
      <trkpt lat="40.455533" lon="-5.284450">
        <ele>1787.0</ele>
        <time>2015-07-25T13:18:36Z</time>
      </trkpt>
      <trkpt lat="40.455350" lon="-5.284400">
        <ele>1792.0</ele>
        <time>2015-07-25T13:18:38Z</time>
      </trkpt>
      <trkpt lat="40.455200" lon="-5.284433">
        <ele>1798.0</ele>
        <time>2015-07-25T13:18:40Z</time>
      </trkpt>
      <trkpt lat="40.455083" lon="-5.284550">
        <ele>1803.0</ele>
        <time>2015-07-25T13:18:42Z</time>
      </trkpt>
      <trkpt lat="40.455083" lon="-5.284700">
        <ele>1806.0</ele>
        <time>2015-07-25T13:18:44Z</time>
      </trkpt>
      <trkpt lat="40.455167" lon="-5.284833">
        <ele>1808.0</ele>
        <time>2015-07-25T13:18:46Z</time>
      </trkpt>
      <trkpt lat="40.455267" lon="-5.284917">
        <ele>1812.0</ele>
        <time>2015-07-25T13:18:48Z</time>
      </trkpt>
      <trkpt lat="40.455400" lon="-5.284917">
        <ele>1816.0</ele>
        <time>2015-07-25T13:18:50Z</time>
      </trkpt>
      <trkpt lat="40.455550" lon="-5.284783">
        <ele>1818.0</ele>
        <time>2015-07-25T13:18:52Z</time>
      </trkpt>
      <trkpt lat="40.455650" lon="-5.284583">
        <ele>1826.0</ele>
        <time>2015-07-25T13:18:54Z</time>
      </trkpt>
      <trkpt lat="40.455650" lon="-5.284317">
        <ele>1833.0</ele>
        <time>2015-07-25T13:18:56Z</time>
      </trkpt>
      <trkpt lat="40.455533" lon="-5.284083">
        <ele>1840.0</ele>
        <time>2015-07-25T13:18:58Z</time>
      </trkpt>
      <trkpt lat="40.455367" lon="-5.283917">
        <ele>1845.0</ele>
        <time>2015-07-25T13:19:00Z</time>
      </trkpt>
      <trkpt lat="40.455167" lon="-5.283817">
        <ele>1852.0</ele>
        <time>2015-07-25T13:19:02Z</time>
      </trkpt>
      <trkpt lat="40.454950" lon="-5.283833">
        <ele>1857.0</ele>
        <time>2015-07-25T13:19:04Z</time>
      </trkpt>
      <trkpt lat="40.454800" lon="-5.283950">
        <ele>1862.0</ele>
        <time>2015-07-25T13:19:06Z</time>
      </trkpt>
      <trkpt lat="40.454700" lon="-5.284067">
        <ele>1866.0</ele>
        <time>2015-07-25T13:19:08Z</time>
      </trkpt>
      <trkpt lat="40.454717" lon="-5.284183">
        <ele>1864.0</ele>
        <time>2015-07-25T13:19:10Z</time>
      </trkpt>
      <trkpt lat="40.454867" lon="-5.284317">
        <ele>1861.0</ele>
        <time>2015-07-25T13:19:12Z</time>
      </trkpt>
      <trkpt lat="40.455017" lon="-5.284300">
        <ele>1869.0</ele>
        <time>2015-07-25T13:19:14Z</time>
      </trkpt>
      <trkpt lat="40.455083" lon="-5.284233">
        <ele>1872.0</ele>
        <time>2015-07-25T13:19:16Z</time>
      </trkpt>
      <trkpt lat="40.455200" lon="-5.284100">
        <ele>1872.0</ele>
        <time>2015-07-25T13:19:18Z</time>
      </trkpt>
      <trkpt lat="40.455317" lon="-5.283850">
        <ele>1874.0</ele>
        <time>2015-07-25T13:19:20Z</time>
      </trkpt>
      <trkpt lat="40.455267" lon="-5.283533">
        <ele>1879.0</ele>
        <time>2015-07-25T13:19:22Z</time>
      </trkpt>
      <trkpt lat="40.455150" lon="-5.283317">
        <ele>1887.0</ele>
        <time>2015-07-25T13:19:24Z</time>
      </trkpt>
      <trkpt lat="40.454967" lon="-5.283200">
        <ele>1892.0</ele>
        <time>2015-07-25T13:19:26Z</time>
      </trkpt>
      <trkpt lat="40.454800" lon="-5.283183">
        <ele>1899.0</ele>
        <time>2015-07-25T13:19:28Z</time>
      </trkpt>
      <trkpt lat="40.454667" lon="-5.283283">
        <ele>1904.0</ele>
        <time>2015-07-25T13:19:30Z</time>
      </trkpt>
      <trkpt lat="40.454617" lon="-5.283433">
        <ele>1906.0</ele>
        <time>2015-07-25T13:19:32Z</time>
      </trkpt>
      <trkpt lat="40.454667" lon="-5.283583">
        <ele>1906.0</ele>
        <time>2015-07-25T13:19:34Z</time>
      </trkpt>
      <trkpt lat="40.454800" lon="-5.283617">
        <ele>1909.0</ele>
        <time>2015-07-25T13:19:36Z</time>
      </trkpt>
      <trkpt lat="40.454933" lon="-5.283517">
        <ele>1912.0</ele>
        <time>2015-07-25T13:19:38Z</time>
      </trkpt>
      <trkpt lat="40.455017" lon="-5.283267">
        <ele>1913.0</ele>
        <time>2015-07-25T13:19:40Z</time>
      </trkpt>
      <trkpt lat="40.454967" lon="-5.282933">
        <ele>1916.0</ele>
        <time>2015-07-25T13:19:42Z</time>
      </trkpt>
      <trkpt lat="40.454867" lon="-5.282683">
        <ele>1923.0</ele>
        <time>2015-07-25T13:19:44Z</time>
      </trkpt>
      <trkpt lat="40.454700" lon="-5.282567">
        <ele>1925.0</ele>
        <time>2015-07-25T13:19:46Z</time>
      </trkpt>
      <trkpt lat="40.454533" lon="-5.282483">
        <ele>1927.0</ele>
        <time>2015-07-25T13:19:48Z</time>
      </trkpt>
      <trkpt lat="40.454350" lon="-5.282483">
        <ele>1929.0</ele>
        <time>2015-07-25T13:19:50Z</time>
      </trkpt>
      <trkpt lat="40.454233" lon="-5.282583">
        <ele>1931.0</ele>
        <time>2015-07-25T13:19:52Z</time>
      </trkpt>
      <trkpt lat="40.454183" lon="-5.282750">
        <ele>1934.0</ele>
        <time>2015-07-25T13:19:54Z</time>
      </trkpt>
      <trkpt lat="40.454167" lon="-5.282867">
        <ele>1938.0</ele>
        <time>2015-07-25T13:19:56Z</time>
      </trkpt>
      <trkpt lat="40.454233" lon="-5.282967">
        <ele>1937.0</ele>
        <time>2015-07-25T13:19:58Z</time>
      </trkpt>
      <trkpt lat="40.454400" lon="-5.283000">
        <ele>1937.0</ele>
        <time>2015-07-25T13:20:00Z</time>
      </trkpt>
      <trkpt lat="40.454550" lon="-5.282900">
        <ele>1940.0</ele>
        <time>2015-07-25T13:20:02Z</time>
      </trkpt>
      <trkpt lat="40.454650" lon="-5.282700">
        <ele>1941.0</ele>
        <time>2015-07-25T13:20:04Z</time>
      </trkpt>
      <trkpt lat="40.454683" lon="-5.282383">
        <ele>1941.0</ele>
        <time>2015-07-25T13:20:06Z</time>
      </trkpt>
      <trkpt lat="40.454583" lon="-5.282067">
        <ele>1943.0</ele>
        <time>2015-07-25T13:20:08Z</time>
      </trkpt>
      <trkpt lat="40.454383" lon="-5.281850">
        <ele>1946.0</ele>
        <time>2015-07-25T13:20:10Z</time>
      </trkpt>
      <trkpt lat="40.454183" lon="-5.281783">
        <ele>1950.0</ele>
        <time>2015-07-25T13:20:12Z</time>
      </trkpt>
      <trkpt lat="40.454033" lon="-5.281733">
        <ele>1952.0</ele>
        <time>2015-07-25T13:20:14Z</time>
      </trkpt>
      <trkpt lat="40.453867" lon="-5.281733">
        <ele>1950.0</ele>
        <time>2015-07-25T13:20:16Z</time>
      </trkpt>
      <trkpt lat="40.453700" lon="-5.281817">
        <ele>1947.0</ele>
        <time>2015-07-25T13:20:18Z</time>
      </trkpt>
      <trkpt lat="40.453533" lon="-5.281933">
        <ele>1947.0</ele>
        <time>2015-07-25T13:20:20Z</time>
      </trkpt>
      <trkpt lat="40.453333" lon="-5.282000">
        <ele>1947.0</ele>
        <time>2015-07-25T13:20:22Z</time>
      </trkpt>
      <trkpt lat="40.453150" lon="-5.282083">
        <ele>1946.0</ele>
        <time>2015-07-25T13:20:24Z</time>
      </trkpt>
      <trkpt lat="40.452950" lon="-5.282117">
        <ele>1947.0</ele>
        <time>2015-07-25T13:20:26Z</time>
      </trkpt>
      <trkpt lat="40.452750" lon="-5.282083">
        <ele>1947.0</ele>
        <time>2015-07-25T13:20:28Z</time>
      </trkpt>
      <trkpt lat="40.452550" lon="-5.282000">
        <ele>1947.0</ele>
        <time>2015-07-25T13:20:30Z</time>
      </trkpt>
      <trkpt lat="40.452333" lon="-5.281917">
        <ele>1944.0</ele>
        <time>2015-07-25T13:20:32Z</time>
      </trkpt>
      <trkpt lat="40.452083" lon="-5.281850">
        <ele>1945.0</ele>
        <time>2015-07-25T13:20:34Z</time>
      </trkpt>
      <trkpt lat="40.451867" lon="-5.281833">
        <ele>1947.0</ele>
        <time>2015-07-25T13:20:36Z</time>
      </trkpt>
      <trkpt lat="40.451683" lon="-5.281867">
        <ele>1947.0</ele>
        <time>2015-07-25T13:20:38Z</time>
      </trkpt>
      <trkpt lat="40.451517" lon="-5.282017">
        <ele>1948.0</ele>
        <time>2015-07-25T13:20:40Z</time>
      </trkpt>
      <trkpt lat="40.451400" lon="-5.282167">
        <ele>1952.0</ele>
        <time>2015-07-25T13:20:42Z</time>
      </trkpt>
      <trkpt lat="40.451250" lon="-5.282200">
        <ele>1952.0</ele>
        <time>2015-07-25T13:20:44Z</time>
      </trkpt>
      <trkpt lat="40.451050" lon="-5.282200">
        <ele>1953.0</ele>
        <time>2015-07-25T13:20:46Z</time>
      </trkpt>
      <trkpt lat="40.450867" lon="-5.282050">
        <ele>1955.0</ele>
        <time>2015-07-25T13:20:48Z</time>
      </trkpt>
      <trkpt lat="40.450733" lon="-5.281800">
        <ele>1957.0</ele>
        <time>2015-07-25T13:20:50Z</time>
      </trkpt>
      <trkpt lat="40.450683" lon="-5.281517">
        <ele>1960.0</ele>
        <time>2015-07-25T13:20:52Z</time>
      </trkpt>
      <trkpt lat="40.450750" lon="-5.281283">
        <ele>1960.0</ele>
        <time>2015-07-25T13:20:54Z</time>
      </trkpt>
      <trkpt lat="40.450867" lon="-5.281167">
        <ele>1959.0</ele>
        <time>2015-07-25T13:20:56Z</time>
      </trkpt>
      <trkpt lat="40.450950" lon="-5.281167">
        <ele>1960.0</ele>
        <time>2015-07-25T13:20:58Z</time>
      </trkpt>
      <trkpt lat="40.451017" lon="-5.281300">
        <ele>1957.0</ele>
        <time>2015-07-25T13:21:00Z</time>
      </trkpt>
      <trkpt lat="40.451000" lon="-5.281500">
        <ele>1956.0</ele>
        <time>2015-07-25T13:21:02Z</time>
      </trkpt>
      <trkpt lat="40.450850" lon="-5.281667">
        <ele>1956.0</ele>
        <time>2015-07-25T13:21:04Z</time>
      </trkpt>
      <trkpt lat="40.450683" lon="-5.281717">
        <ele>1958.0</ele>
        <time>2015-07-25T13:21:06Z</time>
      </trkpt>
      <trkpt lat="40.450483" lon="-5.281700">
        <ele>1961.0</ele>
        <time>2015-07-25T13:21:08Z</time>
      </trkpt>
      <trkpt lat="40.450283" lon="-5.281633">
        <ele>1966.0</ele>
        <time>2015-07-25T13:21:10Z</time>
      </trkpt>
      <trkpt lat="40.450117" lon="-5.281517">
        <ele>1969.0</ele>
        <time>2015-07-25T13:21:12Z</time>
      </trkpt>
      <trkpt lat="40.449933" lon="-5.281383">
        <ele>1969.0</ele>
        <time>2015-07-25T13:21:14Z</time>
      </trkpt>
      <trkpt lat="40.449750" lon="-5.281250">
        <ele>1969.0</ele>
        <time>2015-07-25T13:21:16Z</time>
      </trkpt>
      <trkpt lat="40.449550" lon="-5.281150">
        <ele>1971.0</ele>
        <time>2015-07-25T13:21:18Z</time>
      </trkpt>
      <trkpt lat="40.449383" lon="-5.281117">
        <ele>1971.0</ele>
        <time>2015-07-25T13:21:20Z</time>
      </trkpt>
      <trkpt lat="40.449200" lon="-5.281150">
        <ele>1967.0</ele>
        <time>2015-07-25T13:21:22Z</time>
      </trkpt>
      <trkpt lat="40.448983" lon="-5.281150">
        <ele>1964.0</ele>
        <time>2015-07-25T13:21:24Z</time>
      </trkpt>
      <trkpt lat="40.448767" lon="-5.281083">
        <ele>1963.0</ele>
        <time>2015-07-25T13:21:26Z</time>
      </trkpt>
      <trkpt lat="40.448533" lon="-5.281000">
        <ele>1961.0</ele>
        <time>2015-07-25T13:21:28Z</time>
      </trkpt>
      <trkpt lat="40.448283" lon="-5.280900">
        <ele>1959.0</ele>
        <time>2015-07-25T13:21:30Z</time>
      </trkpt>
      <trkpt lat="40.448050" lon="-5.280817">
        <ele>1957.0</ele>
        <time>2015-07-25T13:21:32Z</time>
      </trkpt>
      <trkpt lat="40.447800" lon="-5.280783">
        <ele>1956.0</ele>
        <time>2015-07-25T13:21:34Z</time>
      </trkpt>
      <trkpt lat="40.447567" lon="-5.280817">
        <ele>1960.0</ele>
        <time>2015-07-25T13:21:36Z</time>
      </trkpt>
      <trkpt lat="40.447417" lon="-5.280883">
        <ele>1962.0</ele>
        <time>2015-07-25T13:21:38Z</time>
      </trkpt>
      <trkpt lat="40.447233" lon="-5.280983">
        <ele>1964.0</ele>
        <time>2015-07-25T13:21:40Z</time>
      </trkpt>
      <trkpt lat="40.447050" lon="-5.281083">
        <ele>1971.0</ele>
        <time>2015-07-25T13:21:42Z</time>
      </trkpt>
      <trkpt lat="40.446933" lon="-5.281200">
        <ele>1975.0</ele>
        <time>2015-07-25T13:21:44Z</time>
      </trkpt>
      <trkpt lat="40.446883" lon="-5.281400">
        <ele>1979.0</ele>
        <time>2015-07-25T13:21:46Z</time>
      </trkpt>
      <trkpt lat="40.446900" lon="-5.281550">
        <ele>1988.0</ele>
        <time>2015-07-25T13:21:48Z</time>
      </trkpt>
      <trkpt lat="40.446983" lon="-5.281617">
        <ele>1992.0</ele>
        <time>2015-07-25T13:21:50Z</time>
      </trkpt>
      <trkpt lat="40.447100" lon="-5.281650">
        <ele>1996.0</ele>
        <time>2015-07-25T13:21:52Z</time>
      </trkpt>
      <trkpt lat="40.447250" lon="-5.281583">
        <ele>2002.0</ele>
        <time>2015-07-25T13:21:54Z</time>
      </trkpt>
      <trkpt lat="40.447350" lon="-5.281383">
        <ele>2008.0</ele>
        <time>2015-07-25T13:21:56Z</time>
      </trkpt>
      <trkpt lat="40.447367" lon="-5.281133">
        <ele>2011.0</ele>
        <time>2015-07-25T13:21:58Z</time>
      </trkpt>
      <trkpt lat="40.447367" lon="-5.280833">
        <ele>2017.0</ele>
        <time>2015-07-25T13:22:00Z</time>
      </trkpt>
      <trkpt lat="40.447383" lon="-5.280600">
        <ele>2025.0</ele>
        <time>2015-07-25T13:22:02Z</time>
      </trkpt>
      <trkpt lat="40.447450" lon="-5.280483">
        <ele>2026.0</ele>
        <time>2015-07-25T13:22:04Z</time>
      </trkpt>
      <trkpt lat="40.447550" lon="-5.280467">
        <ele>2024.0</ele>
        <time>2015-07-25T13:22:06Z</time>
      </trkpt>
      <trkpt lat="40.447600" lon="-5.280633">
        <ele>2020.0</ele>
        <time>2015-07-25T13:22:08Z</time>
      </trkpt>
      <trkpt lat="40.447417" lon="-5.280883">
        <ele>2020.0</ele>
        <time>2015-07-25T13:22:10Z</time>
      </trkpt>
      <trkpt lat="40.447217" lon="-5.280950">
        <ele>2031.0</ele>
        <time>2015-07-25T13:22:12Z</time>
      </trkpt>
      <trkpt lat="40.447083" lon="-5.280917">
        <ele>2036.0</ele>
        <time>2015-07-25T13:22:14Z</time>
      </trkpt>
      <trkpt lat="40.446883" lon="-5.280867">
        <ele>2036.0</ele>
        <time>2015-07-25T13:22:16Z</time>
      </trkpt>
      <trkpt lat="40.446667" lon="-5.280733">
        <ele>2039.0</ele>
        <time>2015-07-25T13:22:18Z</time>
      </trkpt>
      <trkpt lat="40.446517" lon="-5.280467">
        <ele>2045.0</ele>
        <time>2015-07-25T13:22:20Z</time>
      </trkpt>
      <trkpt lat="40.446467" lon="-5.280200">
        <ele>2051.0</ele>
        <time>2015-07-25T13:22:22Z</time>
      </trkpt>
      <trkpt lat="40.446483" lon="-5.279983">
        <ele>2054.0</ele>
        <time>2015-07-25T13:22:24Z</time>
      </trkpt>
      <trkpt lat="40.446567" lon="-5.279883">
        <ele>2055.0</ele>
        <time>2015-07-25T13:22:26Z</time>
      </trkpt>
      <trkpt lat="40.446650" lon="-5.279917">
        <ele>2055.0</ele>
        <time>2015-07-25T13:22:28Z</time>
      </trkpt>
      <trkpt lat="40.446683" lon="-5.280050">
        <ele>2054.0</ele>
        <time>2015-07-25T13:22:30Z</time>
      </trkpt>
      <trkpt lat="40.446617" lon="-5.280267">
        <ele>2052.0</ele>
        <time>2015-07-25T13:22:32Z</time>
      </trkpt>
      <trkpt lat="40.446500" lon="-5.280450">
        <ele>2057.0</ele>
        <time>2015-07-25T13:22:34Z</time>
      </trkpt>
      <trkpt lat="40.446367" lon="-5.280567">
        <ele>2062.0</ele>
        <time>2015-07-25T13:22:36Z</time>
      </trkpt>
      <trkpt lat="40.446233" lon="-5.280650">
        <ele>2065.0</ele>
        <time>2015-07-25T13:22:38Z</time>
      </trkpt>
      <trkpt lat="40.446033" lon="-5.280667">
        <ele>2067.0</ele>
        <time>2015-07-25T13:22:40Z</time>
      </trkpt>
      <trkpt lat="40.445883" lon="-5.280700">
        <ele>2071.0</ele>
        <time>2015-07-25T13:22:42Z</time>
      </trkpt>
      <trkpt lat="40.445783" lon="-5.280817">
        <ele>2074.0</ele>
        <time>2015-07-25T13:22:44Z</time>
      </trkpt>
      <trkpt lat="40.445650" lon="-5.280883">
        <ele>2079.0</ele>
        <time>2015-07-25T13:22:46Z</time>
      </trkpt>
      <trkpt lat="40.445467" lon="-5.280867">
        <ele>2082.0</ele>
        <time>2015-07-25T13:22:48Z</time>
      </trkpt>
      <trkpt lat="40.445300" lon="-5.280750">
        <ele>2085.0</ele>
        <time>2015-07-25T13:22:50Z</time>
      </trkpt>
      <trkpt lat="40.445167" lon="-5.280517">
        <ele>2086.0</ele>
        <time>2015-07-25T13:22:52Z</time>
      </trkpt>
      <trkpt lat="40.445133" lon="-5.280200">
        <ele>2088.0</ele>
        <time>2015-07-25T13:22:54Z</time>
      </trkpt>
      <trkpt lat="40.445183" lon="-5.279917">
        <ele>2095.0</ele>
        <time>2015-07-25T13:22:56Z</time>
      </trkpt>
      <trkpt lat="40.445267" lon="-5.279733">
        <ele>2104.0</ele>
        <time>2015-07-25T13:22:58Z</time>
      </trkpt>
      <trkpt lat="40.445350" lon="-5.279633">
        <ele>2109.0</ele>
        <time>2015-07-25T13:23:00Z</time>
      </trkpt>
      <trkpt lat="40.445467" lon="-5.279583">
        <ele>2111.0</ele>
        <time>2015-07-25T13:23:02Z</time>
      </trkpt>
      <trkpt lat="40.445583" lon="-5.279617">
        <ele>2111.0</ele>
        <time>2015-07-25T13:23:04Z</time>
      </trkpt>
      <trkpt lat="40.445633" lon="-5.279783">
        <ele>2113.0</ele>
        <time>2015-07-25T13:23:06Z</time>
      </trkpt>
      <trkpt lat="40.445600" lon="-5.279950">
        <ele>2117.0</ele>
        <time>2015-07-25T13:23:08Z</time>
      </trkpt>
      <trkpt lat="40.445533" lon="-5.280050">
        <ele>2121.0</ele>
        <time>2015-07-25T13:23:10Z</time>
      </trkpt>
      <trkpt lat="40.445433" lon="-5.280133">
        <ele>2123.0</ele>
        <time>2015-07-25T13:23:12Z</time>
      </trkpt>
      <trkpt lat="40.445283" lon="-5.280167">
        <ele>2124.0</ele>
        <time>2015-07-25T13:23:14Z</time>
      </trkpt>
      <trkpt lat="40.445100" lon="-5.280200">
        <ele>2128.0</ele>
        <time>2015-07-25T13:23:16Z</time>
      </trkpt>
      <trkpt lat="40.444917" lon="-5.280217">
        <ele>2129.0</ele>
        <time>2015-07-25T13:23:18Z</time>
      </trkpt>
      <trkpt lat="40.444733" lon="-5.280267">
        <ele>2129.0</ele>
        <time>2015-07-25T13:23:20Z</time>
      </trkpt>
      <trkpt lat="40.444600" lon="-5.280367">
        <ele>2130.0</ele>
        <time>2015-07-25T13:23:22Z</time>
      </trkpt>
      <trkpt lat="40.444483" lon="-5.280467">
        <ele>2132.0</ele>
        <time>2015-07-25T13:23:24Z</time>
      </trkpt>
      <trkpt lat="40.444350" lon="-5.280550">
        <ele>2133.0</ele>
        <time>2015-07-25T13:23:26Z</time>
      </trkpt>
      <trkpt lat="40.444250" lon="-5.280667">
        <ele>2134.0</ele>
        <time>2015-07-25T13:23:28Z</time>
      </trkpt>
      <trkpt lat="40.444217" lon="-5.280817">
        <ele>2134.0</ele>
        <time>2015-07-25T13:23:30Z</time>
      </trkpt>
      <trkpt lat="40.444250" lon="-5.280917">
        <ele>2136.0</ele>
        <time>2015-07-25T13:23:32Z</time>
      </trkpt>
      <trkpt lat="40.444283" lon="-5.280983">
        <ele>2136.0</ele>
        <time>2015-07-25T13:23:34Z</time>
      </trkpt>
      <trkpt lat="40.444333" lon="-5.281083">
        <ele>2134.0</ele>
        <time>2015-07-25T13:23:36Z</time>
      </trkpt>
      <trkpt lat="40.444300" lon="-5.281233">
        <ele>2133.0</ele>
        <time>2015-07-25T13:23:38Z</time>
      </trkpt>
      <trkpt lat="40.444167" lon="-5.281350">
        <ele>2132.0</ele>
        <time>2015-07-25T13:23:40Z</time>
      </trkpt>
      <trkpt lat="40.444000" lon="-5.281433">
        <ele>2131.0</ele>
        <time>2015-07-25T13:23:42Z</time>
      </trkpt>
      <trkpt lat="40.443800" lon="-5.281483">
        <ele>2129.0</ele>
        <time>2015-07-25T13:23:44Z</time>
      </trkpt>
      <trkpt lat="40.443567" lon="-5.281550">
        <ele>2126.0</ele>
        <time>2015-07-25T13:23:46Z</time>
      </trkpt>
      <trkpt lat="40.443350" lon="-5.281617">
        <ele>2126.0</ele>
        <time>2015-07-25T13:23:48Z</time>
      </trkpt>
      <trkpt lat="40.443150" lon="-5.281683">
        <ele>2125.0</ele>
        <time>2015-07-25T13:23:50Z</time>
      </trkpt>
      <trkpt lat="40.442950" lon="-5.281783">
        <ele>2122.0</ele>
        <time>2015-07-25T13:23:52Z</time>
      </trkpt>
      <trkpt lat="40.442767" lon="-5.281917">
        <ele>2120.0</ele>
        <time>2015-07-25T13:23:54Z</time>
      </trkpt>
      <trkpt lat="40.442600" lon="-5.282067">
        <ele>2120.0</ele>
        <time>2015-07-25T13:23:56Z</time>
      </trkpt>
      <trkpt lat="40.442433" lon="-5.282217">
        <ele>2119.0</ele>
        <time>2015-07-25T13:23:58Z</time>
      </trkpt>
      <trkpt lat="40.442250" lon="-5.282367">
        <ele>2118.0</ele>
        <time>2015-07-25T13:24:00Z</time>
      </trkpt>
      <trkpt lat="40.442067" lon="-5.282517">
        <ele>2116.0</ele>
        <time>2015-07-25T13:24:02Z</time>
      </trkpt>
      <trkpt lat="40.441883" lon="-5.282667">
        <ele>2114.0</ele>
        <time>2015-07-25T13:24:04Z</time>
      </trkpt>
      <trkpt lat="40.441683" lon="-5.282817">
        <ele>2109.0</ele>
        <time>2015-07-25T13:24:06Z</time>
      </trkpt>
      <trkpt lat="40.441467" lon="-5.282983">
        <ele>2105.0</ele>
        <time>2015-07-25T13:24:08Z</time>
      </trkpt>
      <trkpt lat="40.441233" lon="-5.283150">
        <ele>2104.0</ele>
        <time>2015-07-25T13:24:10Z</time>
      </trkpt>
      <trkpt lat="40.441033" lon="-5.283283">
        <ele>2106.0</ele>
        <time>2015-07-25T13:24:12Z</time>
      </trkpt>
      <trkpt lat="40.440867" lon="-5.283417">
        <ele>2104.0</ele>
        <time>2015-07-25T13:24:14Z</time>
      </trkpt>
      <trkpt lat="40.440700" lon="-5.283550">
        <ele>2103.0</ele>
        <time>2015-07-25T13:24:16Z</time>
      </trkpt>
      <trkpt lat="40.440533" lon="-5.283717">
        <ele>2104.0</ele>
        <time>2015-07-25T13:24:18Z</time>
      </trkpt>
      <trkpt lat="40.440367" lon="-5.283867">
        <ele>2103.0</ele>
        <time>2015-07-25T13:24:20Z</time>
      </trkpt>
      <trkpt lat="40.440200" lon="-5.284000">
        <ele>2102.0</ele>
        <time>2015-07-25T13:24:22Z</time>
      </trkpt>
      <trkpt lat="40.440033" lon="-5.284100">
        <ele>2101.0</ele>
        <time>2015-07-25T13:24:24Z</time>
      </trkpt>
      <trkpt lat="40.439883" lon="-5.284233">
        <ele>2097.0</ele>
        <time>2015-07-25T13:24:26Z</time>
      </trkpt>
      <trkpt lat="40.439700" lon="-5.284433">
        <ele>2091.0</ele>
        <time>2015-07-25T13:24:28Z</time>
      </trkpt>
      <trkpt lat="40.439550" lon="-5.284667">
        <ele>2091.0</ele>
        <time>2015-07-25T13:24:30Z</time>
      </trkpt>
      <trkpt lat="40.439433" lon="-5.284833">
        <ele>2092.0</ele>
        <time>2015-07-25T13:24:32Z</time>
      </trkpt>
      <trkpt lat="40.439250" lon="-5.284933">
        <ele>2088.0</ele>
        <time>2015-07-25T13:24:34Z</time>
      </trkpt>
      <trkpt lat="40.439017" lon="-5.285033">
        <ele>2080.0</ele>
        <time>2015-07-25T13:24:36Z</time>
      </trkpt>
      <trkpt lat="40.438800" lon="-5.285167">
        <ele>2077.0</ele>
        <time>2015-07-25T13:24:38Z</time>
      </trkpt>
      <trkpt lat="40.438583" lon="-5.285250">
        <ele>2074.0</ele>
        <time>2015-07-25T13:24:40Z</time>
      </trkpt>
      <trkpt lat="40.438367" lon="-5.285367">
        <ele>2069.0</ele>
        <time>2015-07-25T13:24:42Z</time>
      </trkpt>
      <trkpt lat="40.438133" lon="-5.285467">
        <ele>2068.0</ele>
        <time>2015-07-25T13:24:44Z</time>
      </trkpt>
      <trkpt lat="40.437933" lon="-5.285550">
        <ele>2068.0</ele>
        <time>2015-07-25T13:24:46Z</time>
      </trkpt>
      <trkpt lat="40.437717" lon="-5.285583">
        <ele>2065.0</ele>
        <time>2015-07-25T13:24:48Z</time>
      </trkpt>
      <trkpt lat="40.437467" lon="-5.285650">
        <ele>2060.0</ele>
        <time>2015-07-25T13:24:50Z</time>
      </trkpt>
      <trkpt lat="40.437233" lon="-5.285733">
        <ele>2059.0</ele>
        <time>2015-07-25T13:24:52Z</time>
      </trkpt>
      <trkpt lat="40.437033" lon="-5.285783">
        <ele>2057.0</ele>
        <time>2015-07-25T13:24:54Z</time>
      </trkpt>
      <trkpt lat="40.436833" lon="-5.285883">
        <ele>2055.0</ele>
        <time>2015-07-25T13:24:56Z</time>
      </trkpt>
      <trkpt lat="40.436600" lon="-5.285983">
        <ele>2054.0</ele>
        <time>2015-07-25T13:24:58Z</time>
      </trkpt>
      <trkpt lat="40.436383" lon="-5.286100">
        <ele>2054.0</ele>
        <time>2015-07-25T13:25:00Z</time>
      </trkpt>
      <trkpt lat="40.436167" lon="-5.286200">
        <ele>2054.0</ele>
        <time>2015-07-25T13:25:02Z</time>
      </trkpt>
      <trkpt lat="40.435950" lon="-5.286300">
        <ele>2053.0</ele>
        <time>2015-07-25T13:25:04Z</time>
      </trkpt>
      <trkpt lat="40.435750" lon="-5.286400">
        <ele>2053.0</ele>
        <time>2015-07-25T13:25:06Z</time>
      </trkpt>
      <trkpt lat="40.435567" lon="-5.286500">
        <ele>2052.0</ele>
        <time>2015-07-25T13:25:08Z</time>
      </trkpt>
      <trkpt lat="40.435400" lon="-5.286600">
        <ele>2052.0</ele>
        <time>2015-07-25T13:25:10Z</time>
      </trkpt>
      <trkpt lat="40.435267" lon="-5.286717">
        <ele>2050.0</ele>
        <time>2015-07-25T13:25:12Z</time>
      </trkpt>
      <trkpt lat="40.435133" lon="-5.286833">
        <ele>2048.0</ele>
        <time>2015-07-25T13:25:14Z</time>
      </trkpt>
      <trkpt lat="40.434983" lon="-5.286967">
        <ele>2047.0</ele>
        <time>2015-07-25T13:25:16Z</time>
      </trkpt>
      <trkpt lat="40.434833" lon="-5.287133">
        <ele>2045.0</ele>
        <time>2015-07-25T13:25:18Z</time>
      </trkpt>
      <trkpt lat="40.434683" lon="-5.287300">
        <ele>2047.0</ele>
        <time>2015-07-25T13:25:20Z</time>
      </trkpt>
      <trkpt lat="40.434483" lon="-5.287417">
        <ele>2050.0</ele>
        <time>2015-07-25T13:25:22Z</time>
      </trkpt>
      <trkpt lat="40.434250" lon="-5.287450">
        <ele>2053.0</ele>
        <time>2015-07-25T13:25:24Z</time>
      </trkpt>
      <trkpt lat="40.433983" lon="-5.287350">
        <ele>2058.0</ele>
        <time>2015-07-25T13:25:26Z</time>
      </trkpt>
      <trkpt lat="40.433800" lon="-5.287117">
        <ele>2062.0</ele>
        <time>2015-07-25T13:25:28Z</time>
      </trkpt>
      <trkpt lat="40.433717" lon="-5.286833">
        <ele>2063.0</ele>
        <time>2015-07-25T13:25:30Z</time>
      </trkpt>
      <trkpt lat="40.433733" lon="-5.286583">
        <ele>2064.0</ele>
        <time>2015-07-25T13:25:32Z</time>
      </trkpt>
      <trkpt lat="40.433817" lon="-5.286417">
        <ele>2063.0</ele>
        <time>2015-07-25T13:25:34Z</time>
      </trkpt>
      <trkpt lat="40.433933" lon="-5.286400">
        <ele>2062.0</ele>
        <time>2015-07-25T13:25:36Z</time>
      </trkpt>
      <trkpt lat="40.433950" lon="-5.286533">
        <ele>2064.0</ele>
        <time>2015-07-25T13:25:38Z</time>
      </trkpt>
      <trkpt lat="40.433933" lon="-5.286683">
        <ele>2069.0</ele>
        <time>2015-07-25T13:25:40Z</time>
      </trkpt>
      <trkpt lat="40.433917" lon="-5.286817">
        <ele>2073.0</ele>
        <time>2015-07-25T13:25:42Z</time>
      </trkpt>
      <trkpt lat="40.433917" lon="-5.286933">
        <ele>2075.0</ele>
        <time>2015-07-25T13:25:44Z</time>
      </trkpt>
      <trkpt lat="40.433900" lon="-5.287067">
        <ele>2076.0</ele>
        <time>2015-07-25T13:25:46Z</time>
      </trkpt>
      <trkpt lat="40.433867" lon="-5.287217">
        <ele>2077.0</ele>
        <time>2015-07-25T13:25:48Z</time>
      </trkpt>
      <trkpt lat="40.433850" lon="-5.287333">
        <ele>2076.0</ele>
        <time>2015-07-25T13:25:50Z</time>
      </trkpt>
      <trkpt lat="40.433933" lon="-5.287417">
        <ele>2075.0</ele>
        <time>2015-07-25T13:25:52Z</time>
      </trkpt>
      <trkpt lat="40.434033" lon="-5.287483">
        <ele>2078.0</ele>
        <time>2015-07-25T13:25:54Z</time>
      </trkpt>
      <trkpt lat="40.434083" lon="-5.287517">
        <ele>2081.0</ele>
        <time>2015-07-25T13:25:56Z</time>
      </trkpt>
      <trkpt lat="40.434150" lon="-5.287567">
        <ele>2078.0</ele>
        <time>2015-07-25T13:25:58Z</time>
      </trkpt>
      <trkpt lat="40.434183" lon="-5.287733">
        <ele>2075.0</ele>
        <time>2015-07-25T13:26:00Z</time>
      </trkpt>
      <trkpt lat="40.434200" lon="-5.287883">
        <ele>2077.0</ele>
        <time>2015-07-25T13:26:02Z</time>
      </trkpt>
      <trkpt lat="40.434167" lon="-5.288033">
        <ele>2077.0</ele>
        <time>2015-07-25T13:26:04Z</time>
      </trkpt>
      <trkpt lat="40.434117" lon="-5.288233">
        <ele>2076.0</ele>
        <time>2015-07-25T13:26:06Z</time>
      </trkpt>
      <trkpt lat="40.434017" lon="-5.288417">
        <ele>2077.0</ele>
        <time>2015-07-25T13:26:08Z</time>
      </trkpt>
      <trkpt lat="40.433867" lon="-5.288567">
        <ele>2076.0</ele>
        <time>2015-07-25T13:26:10Z</time>
      </trkpt>
      <trkpt lat="40.433683" lon="-5.288717">
        <ele>2073.0</ele>
        <time>2015-07-25T13:26:12Z</time>
      </trkpt>
      <trkpt lat="40.433483" lon="-5.288867">
        <ele>2072.0</ele>
        <time>2015-07-25T13:26:14Z</time>
      </trkpt>
      <trkpt lat="40.433367" lon="-5.289017">
        <ele>2072.0</ele>
        <time>2015-07-25T13:26:16Z</time>
      </trkpt>
      <trkpt lat="40.433283" lon="-5.289200">
        <ele>2071.0</ele>
        <time>2015-07-25T13:26:18Z</time>
      </trkpt>
      <trkpt lat="40.433267" lon="-5.289367">
        <ele>2071.0</ele>
        <time>2015-07-25T13:26:20Z</time>
      </trkpt>
      <trkpt lat="40.433283" lon="-5.289500">
        <ele>2069.0</ele>
        <time>2015-07-25T13:26:22Z</time>
      </trkpt>
      <trkpt lat="40.433317" lon="-5.289633">
        <ele>2065.0</ele>
        <time>2015-07-25T13:26:24Z</time>
      </trkpt>
      <trkpt lat="40.433367" lon="-5.289817">
        <ele>2064.0</ele>
        <time>2015-07-25T13:26:26Z</time>
      </trkpt>
      <trkpt lat="40.433417" lon="-5.289950">
        <ele>2064.0</ele>
        <time>2015-07-25T13:26:28Z</time>
      </trkpt>
      <trkpt lat="40.433500" lon="-5.290033">
        <ele>2062.0</ele>
        <time>2015-07-25T13:26:30Z</time>
      </trkpt>
      <trkpt lat="40.433617" lon="-5.290083">
        <ele>2060.0</ele>
        <time>2015-07-25T13:26:32Z</time>
      </trkpt>
      <trkpt lat="40.433717" lon="-5.290133">
        <ele>2059.0</ele>
        <time>2015-07-25T13:26:34Z</time>
      </trkpt>
      <trkpt lat="40.433833" lon="-5.290150">
        <ele>2058.0</ele>
        <time>2015-07-25T13:26:36Z</time>
      </trkpt>
      <trkpt lat="40.433950" lon="-5.290117">
        <ele>2058.0</ele>
        <time>2015-07-25T13:26:38Z</time>
      </trkpt>
      <trkpt lat="40.434050" lon="-5.290050">
        <ele>2058.0</ele>
        <time>2015-07-25T13:26:40Z</time>
      </trkpt>
      <trkpt lat="40.434150" lon="-5.289950">
        <ele>2057.0</ele>
        <time>2015-07-25T13:26:42Z</time>
      </trkpt>
      <trkpt lat="40.434233" lon="-5.289817">
        <ele>2056.0</ele>
        <time>2015-07-25T13:26:44Z</time>
      </trkpt>
      <trkpt lat="40.434317" lon="-5.289733">
        <ele>2054.0</ele>
        <time>2015-07-25T13:26:46Z</time>
      </trkpt>
      <trkpt lat="40.434417" lon="-5.289683">
        <ele>2050.0</ele>
        <time>2015-07-25T13:26:48Z</time>
      </trkpt>
      <trkpt lat="40.434500" lon="-5.289717">
        <ele>2045.0</ele>
        <time>2015-07-25T13:26:50Z</time>
      </trkpt>
      <trkpt lat="40.434550" lon="-5.289883">
        <ele>2038.0</ele>
        <time>2015-07-25T13:26:52Z</time>
      </trkpt>
      <trkpt lat="40.434500" lon="-5.290117">
        <ele>2035.0</ele>
        <time>2015-07-25T13:26:54Z</time>
      </trkpt>
      <trkpt lat="40.434417" lon="-5.290333">
        <ele>2032.0</ele>
        <time>2015-07-25T13:26:56Z</time>
      </trkpt>
      <trkpt lat="40.434350" lon="-5.290567">
        <ele>2029.0</ele>
        <time>2015-07-25T13:26:58Z</time>
      </trkpt>
      <trkpt lat="40.434250" lon="-5.290750">
        <ele>2028.0</ele>
        <time>2015-07-25T13:27:00Z</time>
      </trkpt>
      <trkpt lat="40.434100" lon="-5.290917">
        <ele>2026.0</ele>
        <time>2015-07-25T13:27:02Z</time>
      </trkpt>
      <trkpt lat="40.433967" lon="-5.291117">
        <ele>2022.0</ele>
        <time>2015-07-25T13:27:04Z</time>
      </trkpt>
      <trkpt lat="40.433800" lon="-5.291333">
        <ele>2018.0</ele>
        <time>2015-07-25T13:27:06Z</time>
      </trkpt>
      <trkpt lat="40.433667" lon="-5.291533">
        <ele>2016.0</ele>
        <time>2015-07-25T13:27:08Z</time>
      </trkpt>
      <trkpt lat="40.433533" lon="-5.291717">
        <ele>2013.0</ele>
        <time>2015-07-25T13:27:10Z</time>
      </trkpt>
      <trkpt lat="40.433350" lon="-5.291883">
        <ele>2010.0</ele>
        <time>2015-07-25T13:27:12Z</time>
      </trkpt>
      <trkpt lat="40.433150" lon="-5.292050">
        <ele>2009.0</ele>
        <time>2015-07-25T13:27:14Z</time>
      </trkpt>
      <trkpt lat="40.432950" lon="-5.292200">
        <ele>2012.0</ele>
        <time>2015-07-25T13:27:16Z</time>
      </trkpt>
      <trkpt lat="40.432767" lon="-5.292367">
        <ele>2016.0</ele>
        <time>2015-07-25T13:27:18Z</time>
      </trkpt>
      <trkpt lat="40.432683" lon="-5.292533">
        <ele>2019.0</ele>
        <time>2015-07-25T13:27:20Z</time>
      </trkpt>
      <trkpt lat="40.432633" lon="-5.292750">
        <ele>2020.0</ele>
        <time>2015-07-25T13:27:22Z</time>
      </trkpt>
      <trkpt lat="40.432483" lon="-5.292917">
        <ele>2024.0</ele>
        <time>2015-07-25T13:27:24Z</time>
      </trkpt>
      <trkpt lat="40.432283" lon="-5.292967">
        <ele>2028.0</ele>
        <time>2015-07-25T13:27:26Z</time>
      </trkpt>
      <trkpt lat="40.432067" lon="-5.292933">
        <ele>2030.0</ele>
        <time>2015-07-25T13:27:28Z</time>
      </trkpt>
      <trkpt lat="40.431867" lon="-5.292750">
        <ele>2028.0</ele>
        <time>2015-07-25T13:27:30Z</time>
      </trkpt>
      <trkpt lat="40.431750" lon="-5.292450">
        <ele>2029.0</ele>
        <time>2015-07-25T13:27:32Z</time>
      </trkpt>
      <trkpt lat="40.431767" lon="-5.292200">
        <ele>2033.0</ele>
        <time>2015-07-25T13:27:34Z</time>
      </trkpt>
      <trkpt lat="40.431850" lon="-5.292033">
        <ele>2038.0</ele>
        <time>2015-07-25T13:27:36Z</time>
      </trkpt>
      <trkpt lat="40.431917" lon="-5.291933">
        <ele>2044.0</ele>
        <time>2015-07-25T13:27:38Z</time>
      </trkpt>
      <trkpt lat="40.432000" lon="-5.291867">
        <ele>2047.0</ele>
        <time>2015-07-25T13:27:40Z</time>
      </trkpt>
      <trkpt lat="40.432083" lon="-5.291900">
        <ele>2049.0</ele>
        <time>2015-07-25T13:27:42Z</time>
      </trkpt>
      <trkpt lat="40.432150" lon="-5.292000">
        <ele>2051.0</ele>
        <time>2015-07-25T13:27:44Z</time>
      </trkpt>
      <trkpt lat="40.432150" lon="-5.292150">
        <ele>2054.0</ele>
        <time>2015-07-25T13:27:46Z</time>
      </trkpt>
      <trkpt lat="40.432117" lon="-5.292283">
        <ele>2056.0</ele>
        <time>2015-07-25T13:27:48Z</time>
      </trkpt>
      <trkpt lat="40.432033" lon="-5.292450">
        <ele>2055.0</ele>
        <time>2015-07-25T13:27:50Z</time>
      </trkpt>
      <trkpt lat="40.431883" lon="-5.292600">
        <ele>2054.0</ele>
        <time>2015-07-25T13:27:52Z</time>
      </trkpt>
      <trkpt lat="40.431733" lon="-5.292767">
        <ele>2053.0</ele>
        <time>2015-07-25T13:27:54Z</time>
      </trkpt>
      <trkpt lat="40.431600" lon="-5.292933">
        <ele>2053.0</ele>
        <time>2015-07-25T13:27:56Z</time>
      </trkpt>
      <trkpt lat="40.431450" lon="-5.293067">
        <ele>2052.0</ele>
        <time>2015-07-25T13:27:58Z</time>
      </trkpt>
      <trkpt lat="40.431300" lon="-5.293233">
        <ele>2049.0</ele>
        <time>2015-07-25T13:28:00Z</time>
      </trkpt>
      <trkpt lat="40.431183" lon="-5.293400">
        <ele>2045.0</ele>
        <time>2015-07-25T13:28:02Z</time>
      </trkpt>
      <trkpt lat="40.431067" lon="-5.293600">
        <ele>2041.0</ele>
        <time>2015-07-25T13:28:04Z</time>
      </trkpt>
      <trkpt lat="40.430950" lon="-5.293800">
        <ele>2038.0</ele>
        <time>2015-07-25T13:28:06Z</time>
      </trkpt>
      <trkpt lat="40.430850" lon="-5.293983">
        <ele>2037.0</ele>
        <time>2015-07-25T13:28:08Z</time>
      </trkpt>
      <trkpt lat="40.430733" lon="-5.294167">
        <ele>2034.0</ele>
        <time>2015-07-25T13:28:10Z</time>
      </trkpt>
      <trkpt lat="40.430583" lon="-5.294350">
        <ele>2032.0</ele>
        <time>2015-07-25T13:28:12Z</time>
      </trkpt>
      <trkpt lat="40.430433" lon="-5.294533">
        <ele>2029.0</ele>
        <time>2015-07-25T13:28:14Z</time>
      </trkpt>
      <trkpt lat="40.430283" lon="-5.294700">
        <ele>2026.0</ele>
        <time>2015-07-25T13:28:16Z</time>
      </trkpt>
      <trkpt lat="40.430083" lon="-5.294867">
        <ele>2024.0</ele>
        <time>2015-07-25T13:28:18Z</time>
      </trkpt>
      <trkpt lat="40.429883" lon="-5.295017">
        <ele>2023.0</ele>
        <time>2015-07-25T13:28:20Z</time>
      </trkpt>
      <trkpt lat="40.429683" lon="-5.295183">
        <ele>2021.0</ele>
        <time>2015-07-25T13:28:22Z</time>
      </trkpt>
      <trkpt lat="40.429500" lon="-5.295350">
        <ele>2018.0</ele>
        <time>2015-07-25T13:28:24Z</time>
      </trkpt>
      <trkpt lat="40.429317" lon="-5.295500">
        <ele>2016.0</ele>
        <time>2015-07-25T13:28:26Z</time>
      </trkpt>
      <trkpt lat="40.429117" lon="-5.295667">
        <ele>2014.0</ele>
        <time>2015-07-25T13:28:28Z</time>
      </trkpt>
      <trkpt lat="40.428917" lon="-5.295850">
        <ele>2013.0</ele>
        <time>2015-07-25T13:28:30Z</time>
      </trkpt>
      <trkpt lat="40.428717" lon="-5.296000">
        <ele>2010.0</ele>
        <time>2015-07-25T13:28:32Z</time>
      </trkpt>
      <trkpt lat="40.428517" lon="-5.296133">
        <ele>2009.0</ele>
        <time>2015-07-25T13:28:34Z</time>
      </trkpt>
      <trkpt lat="40.428333" lon="-5.296300">
        <ele>2007.0</ele>
        <time>2015-07-25T13:28:36Z</time>
      </trkpt>
      <trkpt lat="40.428150" lon="-5.296483">
        <ele>2006.0</ele>
        <time>2015-07-25T13:28:38Z</time>
      </trkpt>
      <trkpt lat="40.427967" lon="-5.296683">
        <ele>2004.0</ele>
        <time>2015-07-25T13:28:40Z</time>
      </trkpt>
      <trkpt lat="40.427783" lon="-5.296900">
        <ele>2003.0</ele>
        <time>2015-07-25T13:28:42Z</time>
      </trkpt>
      <trkpt lat="40.427583" lon="-5.297100">
        <ele>2004.0</ele>
        <time>2015-07-25T13:28:44Z</time>
      </trkpt>
      <trkpt lat="40.427417" lon="-5.297267">
        <ele>2006.0</ele>
        <time>2015-07-25T13:28:46Z</time>
      </trkpt>
      <trkpt lat="40.427267" lon="-5.297450">
        <ele>2006.0</ele>
        <time>2015-07-25T13:28:48Z</time>
      </trkpt>
      <trkpt lat="40.427100" lon="-5.297633">
        <ele>2007.0</ele>
        <time>2015-07-25T13:28:50Z</time>
      </trkpt>
      <trkpt lat="40.426933" lon="-5.297817">
        <ele>2008.0</ele>
        <time>2015-07-25T13:28:52Z</time>
      </trkpt>
      <trkpt lat="40.426750" lon="-5.298000">
        <ele>2009.0</ele>
        <time>2015-07-25T13:28:54Z</time>
      </trkpt>
      <trkpt lat="40.426583" lon="-5.298167">
        <ele>2011.0</ele>
        <time>2015-07-25T13:28:56Z</time>
      </trkpt>
      <trkpt lat="40.426433" lon="-5.298317">
        <ele>2012.0</ele>
        <time>2015-07-25T13:28:58Z</time>
      </trkpt>
      <trkpt lat="40.426283" lon="-5.298500">
        <ele>2013.0</ele>
        <time>2015-07-25T13:29:00Z</time>
      </trkpt>
      <trkpt lat="40.426117" lon="-5.298667">
        <ele>2015.0</ele>
        <time>2015-07-25T13:29:02Z</time>
      </trkpt>
      <trkpt lat="40.425967" lon="-5.298867">
        <ele>2017.0</ele>
        <time>2015-07-25T13:29:04Z</time>
      </trkpt>
      <trkpt lat="40.425800" lon="-5.299050">
        <ele>2022.0</ele>
        <time>2015-07-25T13:29:06Z</time>
      </trkpt>
      <trkpt lat="40.425650" lon="-5.299167">
        <ele>2026.0</ele>
        <time>2015-07-25T13:29:08Z</time>
      </trkpt>
      <trkpt lat="40.425517" lon="-5.299317">
        <ele>2026.0</ele>
        <time>2015-07-25T13:29:10Z</time>
      </trkpt>
      <trkpt lat="40.425333" lon="-5.299467">
        <ele>2027.0</ele>
        <time>2015-07-25T13:29:12Z</time>
      </trkpt>
      <trkpt lat="40.425183" lon="-5.299600">
        <ele>2029.0</ele>
        <time>2015-07-25T13:29:14Z</time>
      </trkpt>
      <trkpt lat="40.425050" lon="-5.299733">
        <ele>2026.0</ele>
        <time>2015-07-25T13:29:16Z</time>
      </trkpt>
      <trkpt lat="40.424967" lon="-5.299883">
        <ele>2025.0</ele>
        <time>2015-07-25T13:29:18Z</time>
      </trkpt>
      <trkpt lat="40.424900" lon="-5.300017">
        <ele>2024.0</ele>
        <time>2015-07-25T13:29:20Z</time>
      </trkpt>
      <trkpt lat="40.424917" lon="-5.300117">
        <ele>2021.0</ele>
        <time>2015-07-25T13:29:22Z</time>
      </trkpt>
      <trkpt lat="40.425017" lon="-5.300167">
        <ele>2019.0</ele>
        <time>2015-07-25T13:29:24Z</time>
      </trkpt>
      <trkpt lat="40.425133" lon="-5.300117">
        <ele>2019.0</ele>
        <time>2015-07-25T13:29:26Z</time>
      </trkpt>
      <trkpt lat="40.425233" lon="-5.300000">
        <ele>2018.0</ele>
        <time>2015-07-25T13:29:28Z</time>
      </trkpt>
      <trkpt lat="40.425350" lon="-5.299833">
        <ele>2014.0</ele>
        <time>2015-07-25T13:29:30Z</time>
      </trkpt>
      <trkpt lat="40.425483" lon="-5.299633">
        <ele>2012.0</ele>
        <time>2015-07-25T13:29:32Z</time>
      </trkpt>
      <trkpt lat="40.425583" lon="-5.299483">
        <ele>2017.0</ele>
        <time>2015-07-25T13:29:34Z</time>
      </trkpt>
      <trkpt lat="40.425600" lon="-5.299283">
        <ele>2017.0</ele>
        <time>2015-07-25T13:29:36Z</time>
      </trkpt>
      <trkpt lat="40.425650" lon="-5.299033">
        <ele>2013.0</ele>
        <time>2015-07-25T13:29:38Z</time>
      </trkpt>
      <trkpt lat="40.425717" lon="-5.298850">
        <ele>2014.0</ele>
        <time>2015-07-25T13:29:40Z</time>
      </trkpt>
      <trkpt lat="40.425833" lon="-5.298717">
        <ele>2014.0</ele>
        <time>2015-07-25T13:29:42Z</time>
      </trkpt>
      <trkpt lat="40.425950" lon="-5.298683">
        <ele>2017.0</ele>
        <time>2015-07-25T13:29:44Z</time>
      </trkpt>
      <trkpt lat="40.426067" lon="-5.298717">
        <ele>2019.0</ele>
        <time>2015-07-25T13:29:46Z</time>
      </trkpt>
      <trkpt lat="40.426167" lon="-5.298683">
        <ele>2020.0</ele>
        <time>2015-07-25T13:29:48Z</time>
      </trkpt>
      <trkpt lat="40.426283" lon="-5.298617">
        <ele>2021.0</ele>
        <time>2015-07-25T13:29:50Z</time>
      </trkpt>
      <trkpt lat="40.426383" lon="-5.298533">
        <ele>2023.0</ele>
        <time>2015-07-25T13:29:52Z</time>
      </trkpt>
      <trkpt lat="40.426450" lon="-5.298400">
        <ele>2026.0</ele>
        <time>2015-07-25T13:29:54Z</time>
      </trkpt>
      <trkpt lat="40.426500" lon="-5.298217">
        <ele>2028.0</ele>
        <time>2015-07-25T13:29:56Z</time>
      </trkpt>
      <trkpt lat="40.426500" lon="-5.298033">
        <ele>2031.0</ele>
        <time>2015-07-25T13:29:58Z</time>
      </trkpt>
      <trkpt lat="40.426533" lon="-5.297883">
        <ele>2031.0</ele>
        <time>2015-07-25T13:30:00Z</time>
      </trkpt>
      <trkpt lat="40.426650" lon="-5.297783">
        <ele>2029.0</ele>
        <time>2015-07-25T13:30:02Z</time>
      </trkpt>
      <trkpt lat="40.426783" lon="-5.297800">
        <ele>2031.0</ele>
        <time>2015-07-25T13:30:04Z</time>
      </trkpt>
      <trkpt lat="40.426867" lon="-5.297950">
        <ele>2035.0</ele>
        <time>2015-07-25T13:30:06Z</time>
      </trkpt>
      <trkpt lat="40.426900" lon="-5.298100">
        <ele>2040.0</ele>
        <time>2015-07-25T13:30:08Z</time>
      </trkpt>
      <trkpt lat="40.426917" lon="-5.298267">
        <ele>2043.0</ele>
        <time>2015-07-25T13:30:10Z</time>
      </trkpt>
      <trkpt lat="40.426867" lon="-5.298483">
        <ele>2043.0</ele>
        <time>2015-07-25T13:30:12Z</time>
      </trkpt>
      <trkpt lat="40.426733" lon="-5.298683">
        <ele>2045.0</ele>
        <time>2015-07-25T13:30:14Z</time>
      </trkpt>
      <trkpt lat="40.426567" lon="-5.298817">
        <ele>2050.0</ele>
        <time>2015-07-25T13:30:16Z</time>
      </trkpt>
      <trkpt lat="40.426350" lon="-5.298817">
        <ele>2051.0</ele>
        <time>2015-07-25T13:30:18Z</time>
      </trkpt>
      <trkpt lat="40.426117" lon="-5.298683">
        <ele>2053.0</ele>
        <time>2015-07-25T13:30:20Z</time>
      </trkpt>
      <trkpt lat="40.425983" lon="-5.298467">
        <ele>2056.0</ele>
        <time>2015-07-25T13:30:22Z</time>
      </trkpt>
      <trkpt lat="40.425983" lon="-5.298233">
        <ele>2055.0</ele>
        <time>2015-07-25T13:30:24Z</time>
      </trkpt>
      <trkpt lat="40.426067" lon="-5.298033">
        <ele>2056.0</ele>
        <time>2015-07-25T13:30:26Z</time>
      </trkpt>
      <trkpt lat="40.426167" lon="-5.297933">
        <ele>2058.0</ele>
        <time>2015-07-25T13:30:28Z</time>
      </trkpt>
      <trkpt lat="40.426283" lon="-5.297867">
        <ele>2061.0</ele>
        <time>2015-07-25T13:30:30Z</time>
      </trkpt>
      <trkpt lat="40.426367" lon="-5.297783">
        <ele>2064.0</ele>
        <time>2015-07-25T13:30:32Z</time>
      </trkpt>
      <trkpt lat="40.426467" lon="-5.297683">
        <ele>2067.0</ele>
        <time>2015-07-25T13:30:34Z</time>
      </trkpt>
      <trkpt lat="40.426567" lon="-5.297600">
        <ele>2071.0</ele>
        <time>2015-07-25T13:30:36Z</time>
      </trkpt>
      <trkpt lat="40.426650" lon="-5.297517">
        <ele>2071.0</ele>
        <time>2015-07-25T13:30:38Z</time>
      </trkpt>
      <trkpt lat="40.426733" lon="-5.297433">
        <ele>2072.0</ele>
        <time>2015-07-25T13:30:40Z</time>
      </trkpt>
      <trkpt lat="40.426817" lon="-5.297467">
        <ele>2070.0</ele>
        <time>2015-07-25T13:30:42Z</time>
      </trkpt>
      <trkpt lat="40.426867" lon="-5.297583">
        <ele>2066.0</ele>
        <time>2015-07-25T13:30:44Z</time>
      </trkpt>
      <trkpt lat="40.426833" lon="-5.297767">
        <ele>2065.0</ele>
        <time>2015-07-25T13:30:46Z</time>
      </trkpt>
      <trkpt lat="40.426717" lon="-5.297950">
        <ele>2064.0</ele>
        <time>2015-07-25T13:30:48Z</time>
      </trkpt>
      <trkpt lat="40.426583" lon="-5.298117">
        <ele>2065.0</ele>
        <time>2015-07-25T13:30:50Z</time>
      </trkpt>
      <trkpt lat="40.426500" lon="-5.298283">
        <ele>2066.0</ele>
        <time>2015-07-25T13:30:52Z</time>
      </trkpt>
      <trkpt lat="40.426450" lon="-5.298450">
        <ele>2065.0</ele>
        <time>2015-07-25T13:30:54Z</time>
      </trkpt>
      <trkpt lat="40.426467" lon="-5.298650">
        <ele>2064.0</ele>
        <time>2015-07-25T13:30:56Z</time>
      </trkpt>
      <trkpt lat="40.426550" lon="-5.298767">
        <ele>2068.0</ele>
        <time>2015-07-25T13:30:58Z</time>
      </trkpt>
      <trkpt lat="40.426650" lon="-5.298767">
        <ele>2071.0</ele>
        <time>2015-07-25T13:31:00Z</time>
      </trkpt>
      <trkpt lat="40.426733" lon="-5.298683">
        <ele>2073.0</ele>
        <time>2015-07-25T13:31:02Z</time>
      </trkpt>
      <trkpt lat="40.426833" lon="-5.298533">
        <ele>2074.0</ele>
        <time>2015-07-25T13:31:04Z</time>
      </trkpt>
      <trkpt lat="40.426917" lon="-5.298350">
        <ele>2076.0</ele>
        <time>2015-07-25T13:31:06Z</time>
      </trkpt>
      <trkpt lat="40.426950" lon="-5.298183">
        <ele>2079.0</ele>
        <time>2015-07-25T13:31:08Z</time>
      </trkpt>
      <trkpt lat="40.427033" lon="-5.298050">
        <ele>2080.0</ele>
        <time>2015-07-25T13:31:10Z</time>
      </trkpt>
      <trkpt lat="40.427133" lon="-5.297933">
        <ele>2081.0</ele>
        <time>2015-07-25T13:31:12Z</time>
      </trkpt>
      <trkpt lat="40.427250" lon="-5.297867">
        <ele>2085.0</ele>
        <time>2015-07-25T13:31:14Z</time>
      </trkpt>
      <trkpt lat="40.427367" lon="-5.297850">
        <ele>2089.0</ele>
        <time>2015-07-25T13:31:16Z</time>
      </trkpt>
      <trkpt lat="40.427483" lon="-5.297917">
        <ele>2096.0</ele>
        <time>2015-07-25T13:31:18Z</time>
      </trkpt>
      <trkpt lat="40.427533" lon="-5.298067">
        <ele>2102.0</ele>
        <time>2015-07-25T13:31:20Z</time>
      </trkpt>
      <trkpt lat="40.427517" lon="-5.298250">
        <ele>2107.0</ele>
        <time>2015-07-25T13:31:22Z</time>
      </trkpt>
      <trkpt lat="40.427417" lon="-5.298467">
        <ele>2113.0</ele>
        <time>2015-07-25T13:31:24Z</time>
      </trkpt>
      <trkpt lat="40.427267" lon="-5.298583">
        <ele>2120.0</ele>
        <time>2015-07-25T13:31:26Z</time>
      </trkpt>
      <trkpt lat="40.427067" lon="-5.298650">
        <ele>2122.0</ele>
        <time>2015-07-25T13:31:28Z</time>
      </trkpt>
      <trkpt lat="40.426817" lon="-5.298583">
        <ele>2122.0</ele>
        <time>2015-07-25T13:31:30Z</time>
      </trkpt>
      <trkpt lat="40.426650" lon="-5.298350">
        <ele>2125.0</ele>
        <time>2015-07-25T13:31:32Z</time>
      </trkpt>
      <trkpt lat="40.426617" lon="-5.298117">
        <ele>2128.0</ele>
        <time>2015-07-25T13:31:34Z</time>
      </trkpt>
      <trkpt lat="40.426667" lon="-5.297917">
        <ele>2131.0</ele>
        <time>2015-07-25T13:31:36Z</time>
      </trkpt>
      <trkpt lat="40.426783" lon="-5.297800">
        <ele>2136.0</ele>
        <time>2015-07-25T13:31:38Z</time>
      </trkpt>
      <trkpt lat="40.426883" lon="-5.297817">
        <ele>2143.0</ele>
        <time>2015-07-25T13:31:40Z</time>
      </trkpt>
      <trkpt lat="40.426967" lon="-5.297883">
        <ele>2148.0</ele>
        <time>2015-07-25T13:31:42Z</time>
      </trkpt>
      <trkpt lat="40.427067" lon="-5.298000">
        <ele>2152.0</ele>
        <time>2015-07-25T13:31:44Z</time>
      </trkpt>
      <trkpt lat="40.427100" lon="-5.298150">
        <ele>2157.0</ele>
        <time>2015-07-25T13:31:46Z</time>
      </trkpt>
      <trkpt lat="40.427050" lon="-5.298333">
        <ele>2159.0</ele>
        <time>2015-07-25T13:31:48Z</time>
      </trkpt>
      <trkpt lat="40.426950" lon="-5.298500">
        <ele>2162.0</ele>
        <time>2015-07-25T13:31:50Z</time>
      </trkpt>
      <trkpt lat="40.426817" lon="-5.298683">
        <ele>2164.0</ele>
        <time>2015-07-25T13:31:52Z</time>
      </trkpt>
      <trkpt lat="40.426583" lon="-5.298767">
        <ele>2164.0</ele>
        <time>2015-07-25T13:31:54Z</time>
      </trkpt>
      <trkpt lat="40.426333" lon="-5.298700">
        <ele>2164.0</ele>
        <time>2015-07-25T13:31:56Z</time>
      </trkpt>
      <trkpt lat="40.426150" lon="-5.298517">
        <ele>2165.0</ele>
        <time>2015-07-25T13:31:58Z</time>
      </trkpt>
      <trkpt lat="40.426050" lon="-5.298250">
        <ele>2164.0</ele>
        <time>2015-07-25T13:32:00Z</time>
      </trkpt>
      <trkpt lat="40.426067" lon="-5.297967">
        <ele>2165.0</ele>
        <time>2015-07-25T13:32:02Z</time>
      </trkpt>
      <trkpt lat="40.426167" lon="-5.297750">
        <ele>2168.0</ele>
        <time>2015-07-25T13:32:04Z</time>
      </trkpt>
      <trkpt lat="40.426283" lon="-5.297633">
        <ele>2171.0</ele>
        <time>2015-07-25T13:32:06Z</time>
      </trkpt>
      <trkpt lat="40.426417" lon="-5.297583">
        <ele>2173.0</ele>
        <time>2015-07-25T13:32:08Z</time>
      </trkpt>
      <trkpt lat="40.426533" lon="-5.297583">
        <ele>2176.0</ele>
        <time>2015-07-25T13:32:10Z</time>
      </trkpt>
      <trkpt lat="40.426633" lon="-5.297633">
        <ele>2180.0</ele>
        <time>2015-07-25T13:32:12Z</time>
      </trkpt>
      <trkpt lat="40.426733" lon="-5.297683">
        <ele>2183.0</ele>
        <time>2015-07-25T13:32:14Z</time>
      </trkpt>
      <trkpt lat="40.426817" lon="-5.297717">
        <ele>2184.0</ele>
        <time>2015-07-25T13:32:16Z</time>
      </trkpt>
      <trkpt lat="40.426867" lon="-5.297817">
        <ele>2184.0</ele>
        <time>2015-07-25T13:32:18Z</time>
      </trkpt>
      <trkpt lat="40.426867" lon="-5.297967">
        <ele>2183.0</ele>
        <time>2015-07-25T13:32:20Z</time>
      </trkpt>
      <trkpt lat="40.426850" lon="-5.298117">
        <ele>2184.0</ele>
        <time>2015-07-25T13:32:22Z</time>
      </trkpt>
      <trkpt lat="40.426850" lon="-5.298250">
        <ele>2183.0</ele>
        <time>2015-07-25T13:32:24Z</time>
      </trkpt>
      <trkpt lat="40.426850" lon="-5.298450">
        <ele>2181.0</ele>
        <time>2015-07-25T13:32:26Z</time>
      </trkpt>
      <trkpt lat="40.426800" lon="-5.298633">
        <ele>2183.0</ele>
        <time>2015-07-25T13:32:28Z</time>
      </trkpt>
      <trkpt lat="40.426717" lon="-5.298817">
        <ele>2184.0</ele>
        <time>2015-07-25T13:32:30Z</time>
      </trkpt>
      <trkpt lat="40.426633" lon="-5.299017">
        <ele>2184.0</ele>
        <time>2015-07-25T13:32:32Z</time>
      </trkpt>
      <trkpt lat="40.426567" lon="-5.299200">
        <ele>2186.0</ele>
        <time>2015-07-25T13:32:34Z</time>
      </trkpt>
      <trkpt lat="40.426550" lon="-5.299367">
        <ele>2185.0</ele>
        <time>2015-07-25T13:32:36Z</time>
      </trkpt>
      <trkpt lat="40.426567" lon="-5.299533">
        <ele>2183.0</ele>
        <time>2015-07-25T13:32:38Z</time>
      </trkpt>
      <trkpt lat="40.426583" lon="-5.299733">
        <ele>2181.0</ele>
        <time>2015-07-25T13:32:40Z</time>
      </trkpt>
      <trkpt lat="40.426550" lon="-5.299917">
        <ele>2183.0</ele>
        <time>2015-07-25T13:32:42Z</time>
      </trkpt>
      <trkpt lat="40.426467" lon="-5.300100">
        <ele>2182.0</ele>
        <time>2015-07-25T13:32:44Z</time>
      </trkpt>
      <trkpt lat="40.426350" lon="-5.300283">
        <ele>2178.0</ele>
        <time>2015-07-25T13:32:46Z</time>
      </trkpt>
      <trkpt lat="40.426233" lon="-5.300517">
        <ele>2177.0</ele>
        <time>2015-07-25T13:32:48Z</time>
      </trkpt>
      <trkpt lat="40.426133" lon="-5.300733">
        <ele>2179.0</ele>
        <time>2015-07-25T13:32:50Z</time>
      </trkpt>
      <trkpt lat="40.426033" lon="-5.300933">
        <ele>2180.0</ele>
        <time>2015-07-25T13:32:52Z</time>
      </trkpt>
      <trkpt lat="40.425933" lon="-5.301117">
        <ele>2179.0</ele>
        <time>2015-07-25T13:32:54Z</time>
      </trkpt>
      <trkpt lat="40.425867" lon="-5.301333">
        <ele>2177.0</ele>
        <time>2015-07-25T13:32:56Z</time>
      </trkpt>
      <trkpt lat="40.425750" lon="-5.301550">
        <ele>2176.0</ele>
        <time>2015-07-25T13:32:58Z</time>
      </trkpt>
      <trkpt lat="40.425550" lon="-5.301733">
        <ele>2177.0</ele>
        <time>2015-07-25T13:33:00Z</time>
      </trkpt>
      <trkpt lat="40.425317" lon="-5.301900">
        <ele>2181.0</ele>
        <time>2015-07-25T13:33:02Z</time>
      </trkpt>
      <trkpt lat="40.425117" lon="-5.302067">
        <ele>2189.0</ele>
        <time>2015-07-25T13:33:04Z</time>
      </trkpt>
      <trkpt lat="40.424933" lon="-5.302183">
        <ele>2197.0</ele>
        <time>2015-07-25T13:33:06Z</time>
      </trkpt>
      <trkpt lat="40.424683" lon="-5.302217">
        <ele>2201.0</ele>
        <time>2015-07-25T13:33:08Z</time>
      </trkpt>
      <trkpt lat="40.424400" lon="-5.302200">
        <ele>2206.0</ele>
        <time>2015-07-25T13:33:10Z</time>
      </trkpt>
      <trkpt lat="40.424133" lon="-5.302100">
        <ele>2213.0</ele>
        <time>2015-07-25T13:33:12Z</time>
      </trkpt>
      <trkpt lat="40.423933" lon="-5.301933">
        <ele>2218.0</ele>
        <time>2015-07-25T13:33:14Z</time>
      </trkpt>
      <trkpt lat="40.423783" lon="-5.301700">
        <ele>2221.0</ele>
        <time>2015-07-25T13:33:16Z</time>
      </trkpt>
      <trkpt lat="40.423717" lon="-5.301450">
        <ele>2222.0</ele>
        <time>2015-07-25T13:33:18Z</time>
      </trkpt>
      <trkpt lat="40.423750" lon="-5.301283">
        <ele>2224.0</ele>
        <time>2015-07-25T13:33:20Z</time>
      </trkpt>
      <trkpt lat="40.423817" lon="-5.301217">
        <ele>2227.0</ele>
        <time>2015-07-25T13:33:22Z</time>
      </trkpt>
      <trkpt lat="40.423850" lon="-5.301217">
        <ele>2228.0</ele>
        <time>2015-07-25T13:33:24Z</time>
      </trkpt>
      <trkpt lat="40.423917" lon="-5.301300">
        <ele>2226.0</ele>
        <time>2015-07-25T13:33:26Z</time>
      </trkpt>
      <trkpt lat="40.423967" lon="-5.301433">
        <ele>2230.0</ele>
        <time>2015-07-25T13:33:28Z</time>
      </trkpt>
      <trkpt lat="40.424000" lon="-5.301583">
        <ele>2237.0</ele>
        <time>2015-07-25T13:33:30Z</time>
      </trkpt>
      <trkpt lat="40.424000" lon="-5.301717">
        <ele>2243.0</ele>
        <time>2015-07-25T13:33:32Z</time>
      </trkpt>
      <trkpt lat="40.424033" lon="-5.301850">
        <ele>2246.0</ele>
        <time>2015-07-25T13:33:34Z</time>
      </trkpt>
      <trkpt lat="40.424067" lon="-5.302017">
        <ele>2251.0</ele>
        <time>2015-07-25T13:33:36Z</time>
      </trkpt>
      <trkpt lat="40.424117" lon="-5.302167">
        <ele>2257.0</ele>
        <time>2015-07-25T13:33:38Z</time>
      </trkpt>
      <trkpt lat="40.424183" lon="-5.302317">
        <ele>2264.0</ele>
        <time>2015-07-25T13:33:40Z</time>
      </trkpt>
      <trkpt lat="40.424183" lon="-5.302517">
        <ele>2269.0</ele>
        <time>2015-07-25T13:33:42Z</time>
      </trkpt>
      <trkpt lat="40.424150" lon="-5.302700">
        <ele>2277.0</ele>
        <time>2015-07-25T13:33:44Z</time>
      </trkpt>
      <trkpt lat="40.424050" lon="-5.302883">
        <ele>2283.0</ele>
        <time>2015-07-25T13:33:46Z</time>
      </trkpt>
      <trkpt lat="40.423850" lon="-5.303050">
        <ele>2285.0</ele>
        <time>2015-07-25T13:33:48Z</time>
      </trkpt>
      <trkpt lat="40.423583" lon="-5.303067">
        <ele>2289.0</ele>
        <time>2015-07-25T13:33:50Z</time>
      </trkpt>
      <trkpt lat="40.423333" lon="-5.302917">
        <ele>2293.0</ele>
        <time>2015-07-25T13:33:52Z</time>
      </trkpt>
      <trkpt lat="40.423200" lon="-5.302667">
        <ele>2296.0</ele>
        <time>2015-07-25T13:33:54Z</time>
      </trkpt>
      <trkpt lat="40.423150" lon="-5.302417">
        <ele>2298.0</ele>
        <time>2015-07-25T13:33:56Z</time>
      </trkpt>
      <trkpt lat="40.423200" lon="-5.302200">
        <ele>2301.0</ele>
        <time>2015-07-25T13:33:58Z</time>
      </trkpt>
      <trkpt lat="40.423317" lon="-5.302067">
        <ele>2306.0</ele>
        <time>2015-07-25T13:34:00Z</time>
      </trkpt>
      <trkpt lat="40.423417" lon="-5.302017">
        <ele>2314.0</ele>
        <time>2015-07-25T13:34:02Z</time>
      </trkpt>
      <trkpt lat="40.423483" lon="-5.302050">
        <ele>2319.0</ele>
        <time>2015-07-25T13:34:04Z</time>
      </trkpt>
      <trkpt lat="40.423533" lon="-5.302167">
        <ele>2324.0</ele>
        <time>2015-07-25T13:34:06Z</time>
      </trkpt>
      <trkpt lat="40.423533" lon="-5.302283">
        <ele>2329.0</ele>
        <time>2015-07-25T13:34:08Z</time>
      </trkpt>
      <trkpt lat="40.423450" lon="-5.302467">
        <ele>2331.0</ele>
        <time>2015-07-25T13:34:10Z</time>
      </trkpt>
      <trkpt lat="40.423317" lon="-5.302683">
        <ele>2334.0</ele>
        <time>2015-07-25T13:34:12Z</time>
      </trkpt>
      <trkpt lat="40.423083" lon="-5.302783">
        <ele>2337.0</ele>
        <time>2015-07-25T13:34:14Z</time>
      </trkpt>
      <trkpt lat="40.422817" lon="-5.302733">
        <ele>2339.0</ele>
        <time>2015-07-25T13:34:16Z</time>
      </trkpt>
      <trkpt lat="40.422600" lon="-5.302583">
        <ele>2344.0</ele>
        <time>2015-07-25T13:34:18Z</time>
      </trkpt>
      <trkpt lat="40.422500" lon="-5.302317">
        <ele>2344.0</ele>
        <time>2015-07-25T13:34:20Z</time>
      </trkpt>
      <trkpt lat="40.422533" lon="-5.302050">
        <ele>2346.0</ele>
        <time>2015-07-25T13:34:22Z</time>
      </trkpt>
      <trkpt lat="40.422567" lon="-5.301850">
        <ele>2354.0</ele>
        <time>2015-07-25T13:34:24Z</time>
      </trkpt>
      <trkpt lat="40.422600" lon="-5.301717">
        <ele>2360.0</ele>
        <time>2015-07-25T13:34:26Z</time>
      </trkpt>
      <trkpt lat="40.422683" lon="-5.301633">
        <ele>2362.0</ele>
        <time>2015-07-25T13:34:28Z</time>
      </trkpt>
      <trkpt lat="40.422783" lon="-5.301667">
        <ele>2367.0</ele>
        <time>2015-07-25T13:34:30Z</time>
      </trkpt>
      <trkpt lat="40.422833" lon="-5.301733">
        <ele>2373.0</ele>
        <time>2015-07-25T13:34:32Z</time>
      </trkpt>
      <trkpt lat="40.422833" lon="-5.301900">
        <ele>2376.0</ele>
        <time>2015-07-25T13:34:34Z</time>
      </trkpt>
      <trkpt lat="40.422750" lon="-5.302117">
        <ele>2381.0</ele>
        <time>2015-07-25T13:34:36Z</time>
      </trkpt>
      <trkpt lat="40.422517" lon="-5.302283">
        <ele>2384.0</ele>
        <time>2015-07-25T13:34:38Z</time>
      </trkpt>
      <trkpt lat="40.422233" lon="-5.302333">
        <ele>2388.0</ele>
        <time>2015-07-25T13:34:40Z</time>
      </trkpt>
      <trkpt lat="40.421967" lon="-5.302250">
        <ele>2395.0</ele>
        <time>2015-07-25T13:34:42Z</time>
      </trkpt>
      <trkpt lat="40.421800" lon="-5.302067">
        <ele>2399.0</ele>
        <time>2015-07-25T13:34:44Z</time>
      </trkpt>
      <trkpt lat="40.421683" lon="-5.301850">
        <ele>2401.0</ele>
        <time>2015-07-25T13:34:46Z</time>
      </trkpt>
      <trkpt lat="40.421633" lon="-5.301600">
        <ele>2401.0</ele>
        <time>2015-07-25T13:34:48Z</time>
      </trkpt>
      <trkpt lat="40.421600" lon="-5.301350">
        <ele>2404.0</ele>
        <time>2015-07-25T13:34:50Z</time>
      </trkpt>
      <trkpt lat="40.421567" lon="-5.301100">
        <ele>2408.0</ele>
        <time>2015-07-25T13:34:52Z</time>
      </trkpt>
      <trkpt lat="40.421650" lon="-5.300900">
        <ele>2408.0</ele>
        <time>2015-07-25T13:34:54Z</time>
      </trkpt>
      <trkpt lat="40.421767" lon="-5.300783">
        <ele>2413.0</ele>
        <time>2015-07-25T13:34:56Z</time>
      </trkpt>
      <trkpt lat="40.421817" lon="-5.300717">
        <ele>2420.0</ele>
        <time>2015-07-25T13:34:58Z</time>
      </trkpt>
      <trkpt lat="40.421900" lon="-5.300683">
        <ele>2422.0</ele>
        <time>2015-07-25T13:35:00Z</time>
      </trkpt>
      <trkpt lat="40.421983" lon="-5.300700">
        <ele>2428.0</ele>
        <time>2015-07-25T13:35:02Z</time>
      </trkpt>
      <trkpt lat="40.422000" lon="-5.300800">
        <ele>2432.0</ele>
        <time>2015-07-25T13:35:04Z</time>
      </trkpt>
      <trkpt lat="40.422017" lon="-5.300917">
        <ele>2432.0</ele>
        <time>2015-07-25T13:35:06Z</time>
      </trkpt>
      <trkpt lat="40.421983" lon="-5.301133">
        <ele>2432.0</ele>
        <time>2015-07-25T13:35:08Z</time>
      </trkpt>
      <trkpt lat="40.421933" lon="-5.301333">
        <ele>2433.0</ele>
        <time>2015-07-25T13:35:10Z</time>
      </trkpt>
      <trkpt lat="40.421933" lon="-5.301500">
        <ele>2435.0</ele>
        <time>2015-07-25T13:35:12Z</time>
      </trkpt>
      <trkpt lat="40.421933" lon="-5.301633">
        <ele>2436.0</ele>
        <time>2015-07-25T13:35:14Z</time>
      </trkpt>
      <trkpt lat="40.421900" lon="-5.301800">
        <ele>2433.0</ele>
        <time>2015-07-25T13:35:16Z</time>
      </trkpt>
      <trkpt lat="40.421900" lon="-5.301983">
        <ele>2430.0</ele>
        <time>2015-07-25T13:35:18Z</time>
      </trkpt>
      <trkpt lat="40.421900" lon="-5.302183">
        <ele>2430.0</ele>
        <time>2015-07-25T13:35:20Z</time>
      </trkpt>
      <trkpt lat="40.421867" lon="-5.302367">
        <ele>2432.0</ele>
        <time>2015-07-25T13:35:22Z</time>
      </trkpt>
      <trkpt lat="40.421850" lon="-5.302550">
        <ele>2431.0</ele>
        <time>2015-07-25T13:35:24Z</time>
      </trkpt>
      <trkpt lat="40.421850" lon="-5.302750">
        <ele>2428.0</ele>
        <time>2015-07-25T13:35:26Z</time>
      </trkpt>
      <trkpt lat="40.421833" lon="-5.302950">
        <ele>2428.0</ele>
        <time>2015-07-25T13:35:28Z</time>
      </trkpt>
      <trkpt lat="40.421833" lon="-5.303133">
        <ele>2427.0</ele>
        <time>2015-07-25T13:35:30Z</time>
      </trkpt>
      <trkpt lat="40.421850" lon="-5.303300">
        <ele>2425.0</ele>
        <time>2015-07-25T13:35:32Z</time>
      </trkpt>
      <trkpt lat="40.421833" lon="-5.303500">
        <ele>2421.0</ele>
        <time>2015-07-25T13:35:34Z</time>
      </trkpt>
      <trkpt lat="40.421883" lon="-5.303717">
        <ele>2420.0</ele>
        <time>2015-07-25T13:35:36Z</time>
      </trkpt>
      <trkpt lat="40.421933" lon="-5.303867">
        <ele>2421.0</ele>
        <time>2015-07-25T13:35:38Z</time>
      </trkpt>
      <trkpt lat="40.421983" lon="-5.303983">
        <ele>2421.0</ele>
        <time>2015-07-25T13:35:40Z</time>
      </trkpt>
      <trkpt lat="40.422050" lon="-5.304100">
        <ele>2418.0</ele>
        <time>2015-07-25T13:35:42Z</time>
      </trkpt>
      <trkpt lat="40.422150" lon="-5.304233">
        <ele>2416.0</ele>
        <time>2015-07-25T13:35:44Z</time>
      </trkpt>
      <trkpt lat="40.422233" lon="-5.304367">
        <ele>2417.0</ele>
        <time>2015-07-25T13:35:46Z</time>
      </trkpt>
      <trkpt lat="40.422317" lon="-5.304483">
        <ele>2416.0</ele>
        <time>2015-07-25T13:35:48Z</time>
      </trkpt>
      <trkpt lat="40.422417" lon="-5.304583">
        <ele>2415.0</ele>
        <time>2015-07-25T13:35:50Z</time>
      </trkpt>
      <trkpt lat="40.422517" lon="-5.304700">
        <ele>2415.0</ele>
        <time>2015-07-25T13:35:52Z</time>
      </trkpt>
      <trkpt lat="40.422600" lon="-5.304783">
        <ele>2417.0</ele>
        <time>2015-07-25T13:35:54Z</time>
      </trkpt>
      <trkpt lat="40.422667" lon="-5.304867">
        <ele>2415.0</ele>
        <time>2015-07-25T13:35:56Z</time>
      </trkpt>
      <trkpt lat="40.422783" lon="-5.304917">
        <ele>2410.0</ele>
        <time>2015-07-25T13:35:58Z</time>
      </trkpt>
      <trkpt lat="40.422900" lon="-5.304917">
        <ele>2407.0</ele>
        <time>2015-07-25T13:36:00Z</time>
      </trkpt>
      <trkpt lat="40.422983" lon="-5.304917">
        <ele>2404.0</ele>
        <time>2015-07-25T13:36:02Z</time>
      </trkpt>
      <trkpt lat="40.423050" lon="-5.304967">
        <ele>2399.0</ele>
        <time>2015-07-25T13:36:04Z</time>
      </trkpt>
      <trkpt lat="40.423133" lon="-5.305083">
        <ele>2391.0</ele>
        <time>2015-07-25T13:36:06Z</time>
      </trkpt>
      <trkpt lat="40.423233" lon="-5.305217">
        <ele>2386.0</ele>
        <time>2015-07-25T13:36:08Z</time>
      </trkpt>
      <trkpt lat="40.423300" lon="-5.305333">
        <ele>2383.0</ele>
        <time>2015-07-25T13:36:10Z</time>
      </trkpt>
      <trkpt lat="40.423367" lon="-5.305483">
        <ele>2378.0</ele>
        <time>2015-07-25T13:36:12Z</time>
      </trkpt>
      <trkpt lat="40.423433" lon="-5.305633">
        <ele>2370.0</ele>
        <time>2015-07-25T13:36:14Z</time>
      </trkpt>
      <trkpt lat="40.423533" lon="-5.305800">
        <ele>2364.0</ele>
        <time>2015-07-25T13:36:16Z</time>
      </trkpt>
      <trkpt lat="40.423617" lon="-5.305983">
        <ele>2358.0</ele>
        <time>2015-07-25T13:36:18Z</time>
      </trkpt>
      <trkpt lat="40.423683" lon="-5.306150">
        <ele>2352.0</ele>
        <time>2015-07-25T13:36:20Z</time>
      </trkpt>
      <trkpt lat="40.423750" lon="-5.306350">
        <ele>2346.0</ele>
        <time>2015-07-25T13:36:22Z</time>
      </trkpt>
      <trkpt lat="40.423800" lon="-5.306550">
        <ele>2341.0</ele>
        <time>2015-07-25T13:36:24Z</time>
      </trkpt>
      <trkpt lat="40.423883" lon="-5.306733">
        <ele>2335.0</ele>
        <time>2015-07-25T13:36:26Z</time>
      </trkpt>
      <trkpt lat="40.423983" lon="-5.306933">
        <ele>2330.0</ele>
        <time>2015-07-25T13:36:28Z</time>
      </trkpt>
      <trkpt lat="40.424067" lon="-5.307083">
        <ele>2325.0</ele>
        <time>2015-07-25T13:36:30Z</time>
      </trkpt>
      <trkpt lat="40.424150" lon="-5.307250">
        <ele>2320.0</ele>
        <time>2015-07-25T13:36:32Z</time>
      </trkpt>
      <trkpt lat="40.424217" lon="-5.307417">
        <ele>2313.0</ele>
        <time>2015-07-25T13:36:34Z</time>
      </trkpt>
      <trkpt lat="40.424317" lon="-5.307600">
        <ele>2306.0</ele>
        <time>2015-07-25T13:36:36Z</time>
      </trkpt>
      <trkpt lat="40.424400" lon="-5.307767">
        <ele>2301.0</ele>
        <time>2015-07-25T13:36:38Z</time>
      </trkpt>
      <trkpt lat="40.424467" lon="-5.307950">
        <ele>2297.0</ele>
        <time>2015-07-25T13:36:40Z</time>
      </trkpt>
      <trkpt lat="40.424533" lon="-5.308117">
        <ele>2291.0</ele>
        <time>2015-07-25T13:36:42Z</time>
      </trkpt>
      <trkpt lat="40.424617" lon="-5.308300">
        <ele>2284.0</ele>
        <time>2015-07-25T13:36:44Z</time>
      </trkpt>
      <trkpt lat="40.424700" lon="-5.308467">
        <ele>2280.0</ele>
        <time>2015-07-25T13:36:46Z</time>
      </trkpt>
      <trkpt lat="40.424783" lon="-5.308617">
        <ele>2274.0</ele>
        <time>2015-07-25T13:36:48Z</time>
      </trkpt>
      <trkpt lat="40.424883" lon="-5.308783">
        <ele>2268.0</ele>
        <time>2015-07-25T13:36:50Z</time>
      </trkpt>
      <trkpt lat="40.424983" lon="-5.308933">
        <ele>2263.0</ele>
        <time>2015-07-25T13:36:52Z</time>
      </trkpt>
      <trkpt lat="40.425050" lon="-5.309083">
        <ele>2258.0</ele>
        <time>2015-07-25T13:36:54Z</time>
      </trkpt>
      <trkpt lat="40.425133" lon="-5.309250">
        <ele>2252.0</ele>
        <time>2015-07-25T13:36:56Z</time>
      </trkpt>
      <trkpt lat="40.425250" lon="-5.309400">
        <ele>2247.0</ele>
        <time>2015-07-25T13:36:58Z</time>
      </trkpt>
      <trkpt lat="40.425333" lon="-5.309550">
        <ele>2242.0</ele>
        <time>2015-07-25T13:37:00Z</time>
      </trkpt>
      <trkpt lat="40.425417" lon="-5.309700">
        <ele>2237.0</ele>
        <time>2015-07-25T13:37:02Z</time>
      </trkpt>
      <trkpt lat="40.425500" lon="-5.309883">
        <ele>2231.0</ele>
        <time>2015-07-25T13:37:04Z</time>
      </trkpt>
      <trkpt lat="40.425583" lon="-5.310083">
        <ele>2227.0</ele>
        <time>2015-07-25T13:37:06Z</time>
      </trkpt>
      <trkpt lat="40.425667" lon="-5.310283">
        <ele>2225.0</ele>
        <time>2015-07-25T13:37:08Z</time>
      </trkpt>
      <trkpt lat="40.425717" lon="-5.310467">
        <ele>2223.0</ele>
        <time>2015-07-25T13:37:10Z</time>
      </trkpt>
      <trkpt lat="40.425783" lon="-5.310633">
        <ele>2221.0</ele>
        <time>2015-07-25T13:37:12Z</time>
      </trkpt>
      <trkpt lat="40.425883" lon="-5.310750">
        <ele>2219.0</ele>
        <time>2015-07-25T13:37:14Z</time>
      </trkpt>
      <trkpt lat="40.425967" lon="-5.310867">
        <ele>2217.0</ele>
        <time>2015-07-25T13:37:16Z</time>
      </trkpt>
      <trkpt lat="40.426050" lon="-5.310983">
        <ele>2215.0</ele>
        <time>2015-07-25T13:37:18Z</time>
      </trkpt>
      <trkpt lat="40.426150" lon="-5.311100">
        <ele>2212.0</ele>
        <time>2015-07-25T13:37:20Z</time>
      </trkpt>
      <trkpt lat="40.426267" lon="-5.311200">
        <ele>2209.0</ele>
        <time>2015-07-25T13:37:22Z</time>
      </trkpt>
      <trkpt lat="40.426367" lon="-5.311300">
        <ele>2206.0</ele>
        <time>2015-07-25T13:37:24Z</time>
      </trkpt>
      <trkpt lat="40.426467" lon="-5.311417">
        <ele>2203.0</ele>
        <time>2015-07-25T13:37:26Z</time>
      </trkpt>
      <trkpt lat="40.426550" lon="-5.311550">
        <ele>2201.0</ele>
        <time>2015-07-25T13:37:28Z</time>
      </trkpt>
      <trkpt lat="40.426650" lon="-5.311683">
        <ele>2197.0</ele>
        <time>2015-07-25T13:37:30Z</time>
      </trkpt>
      <trkpt lat="40.426750" lon="-5.311833">
        <ele>2193.0</ele>
        <time>2015-07-25T13:37:32Z</time>
      </trkpt>
      <trkpt lat="40.426867" lon="-5.311983">
        <ele>2189.0</ele>
        <time>2015-07-25T13:37:34Z</time>
      </trkpt>
      <trkpt lat="40.426950" lon="-5.312150">
        <ele>2186.0</ele>
        <time>2015-07-25T13:37:36Z</time>
      </trkpt>
      <trkpt lat="40.427050" lon="-5.312300">
        <ele>2183.0</ele>
        <time>2015-07-25T13:37:38Z</time>
      </trkpt>
      <trkpt lat="40.427133" lon="-5.312433">
        <ele>2180.0</ele>
        <time>2015-07-25T13:37:40Z</time>
      </trkpt>
      <trkpt lat="40.427233" lon="-5.312567">
        <ele>2178.0</ele>
        <time>2015-07-25T13:37:42Z</time>
      </trkpt>
      <trkpt lat="40.427300" lon="-5.312700">
        <ele>2175.0</ele>
        <time>2015-07-25T13:37:44Z</time>
      </trkpt>
      <trkpt lat="40.427367" lon="-5.312833">
        <ele>2172.0</ele>
        <time>2015-07-25T13:37:46Z</time>
      </trkpt>
      <trkpt lat="40.427433" lon="-5.313000">
        <ele>2169.0</ele>
        <time>2015-07-25T13:37:48Z</time>
      </trkpt>
      <trkpt lat="40.427533" lon="-5.313117">
        <ele>2166.0</ele>
        <time>2015-07-25T13:37:50Z</time>
      </trkpt>
      <trkpt lat="40.427617" lon="-5.313217">
        <ele>2163.0</ele>
        <time>2015-07-25T13:37:52Z</time>
      </trkpt>
      <trkpt lat="40.427683" lon="-5.313350">
        <ele>2160.0</ele>
        <time>2015-07-25T13:37:54Z</time>
      </trkpt>
      <trkpt lat="40.427733" lon="-5.313533">
        <ele>2157.0</ele>
        <time>2015-07-25T13:37:56Z</time>
      </trkpt>
      <trkpt lat="40.427733" lon="-5.313733">
        <ele>2156.0</ele>
        <time>2015-07-25T13:37:58Z</time>
      </trkpt>
      <trkpt lat="40.427750" lon="-5.313917">
        <ele>2154.0</ele>
        <time>2015-07-25T13:38:00Z</time>
      </trkpt>
      <trkpt lat="40.427783" lon="-5.314117">
        <ele>2151.0</ele>
        <time>2015-07-25T13:38:02Z</time>
      </trkpt>
      <trkpt lat="40.427817" lon="-5.314317">
        <ele>2150.0</ele>
        <time>2015-07-25T13:38:04Z</time>
      </trkpt>
      <trkpt lat="40.427850" lon="-5.314483">
        <ele>2149.0</ele>
        <time>2015-07-25T13:38:06Z</time>
      </trkpt>
      <trkpt lat="40.427917" lon="-5.314650">
        <ele>2147.0</ele>
        <time>2015-07-25T13:38:08Z</time>
      </trkpt>
      <trkpt lat="40.427983" lon="-5.314817">
        <ele>2145.0</ele>
        <time>2015-07-25T13:38:10Z</time>
      </trkpt>
      <trkpt lat="40.428050" lon="-5.314967">
        <ele>2144.0</ele>
        <time>2015-07-25T13:38:12Z</time>
      </trkpt>
      <trkpt lat="40.428117" lon="-5.315117">
        <ele>2142.0</ele>
        <time>2015-07-25T13:38:14Z</time>
      </trkpt>
      <trkpt lat="40.428183" lon="-5.315300">
        <ele>2139.0</ele>
        <time>2015-07-25T13:38:16Z</time>
      </trkpt>
      <trkpt lat="40.428250" lon="-5.315467">
        <ele>2136.0</ele>
        <time>2015-07-25T13:38:18Z</time>
      </trkpt>
      <trkpt lat="40.428317" lon="-5.315633">
        <ele>2133.0</ele>
        <time>2015-07-25T13:38:20Z</time>
      </trkpt>
      <trkpt lat="40.428383" lon="-5.315783">
        <ele>2131.0</ele>
        <time>2015-07-25T13:38:22Z</time>
      </trkpt>
      <trkpt lat="40.428433" lon="-5.315967">
        <ele>2127.0</ele>
        <time>2015-07-25T13:38:24Z</time>
      </trkpt>
      <trkpt lat="40.428483" lon="-5.316150">
        <ele>2123.0</ele>
        <time>2015-07-25T13:38:26Z</time>
      </trkpt>
      <trkpt lat="40.428550" lon="-5.316333">
        <ele>2120.0</ele>
        <time>2015-07-25T13:38:28Z</time>
      </trkpt>
      <trkpt lat="40.428600" lon="-5.316517">
        <ele>2116.0</ele>
        <time>2015-07-25T13:38:30Z</time>
      </trkpt>
      <trkpt lat="40.428650" lon="-5.316717">
        <ele>2111.0</ele>
        <time>2015-07-25T13:38:32Z</time>
      </trkpt>
      <trkpt lat="40.428700" lon="-5.316933">
        <ele>2107.0</ele>
        <time>2015-07-25T13:38:34Z</time>
      </trkpt>
      <trkpt lat="40.428717" lon="-5.317150">
        <ele>2105.0</ele>
        <time>2015-07-25T13:38:36Z</time>
      </trkpt>
      <trkpt lat="40.428717" lon="-5.317350">
        <ele>2102.0</ele>
        <time>2015-07-25T13:38:38Z</time>
      </trkpt>
      <trkpt lat="40.428750" lon="-5.317583">
        <ele>2097.0</ele>
        <time>2015-07-25T13:38:40Z</time>
      </trkpt>
      <trkpt lat="40.428783" lon="-5.317817">
        <ele>2094.0</ele>
        <time>2015-07-25T13:38:42Z</time>
      </trkpt>
      <trkpt lat="40.428833" lon="-5.318000">
        <ele>2092.0</ele>
        <time>2015-07-25T13:38:44Z</time>
      </trkpt>
      <trkpt lat="40.428900" lon="-5.318183">
        <ele>2088.0</ele>
        <time>2015-07-25T13:38:46Z</time>
      </trkpt>
      <trkpt lat="40.429000" lon="-5.318383">
        <ele>2083.0</ele>
        <time>2015-07-25T13:38:48Z</time>
      </trkpt>
      <trkpt lat="40.429083" lon="-5.318567">
        <ele>2080.0</ele>
        <time>2015-07-25T13:38:50Z</time>
      </trkpt>
      <trkpt lat="40.429150" lon="-5.318767">
        <ele>2077.0</ele>
        <time>2015-07-25T13:38:52Z</time>
      </trkpt>
      <trkpt lat="40.429200" lon="-5.318983">
        <ele>2072.0</ele>
        <time>2015-07-25T13:38:54Z</time>
      </trkpt>
      <trkpt lat="40.429233" lon="-5.319217">
        <ele>2068.0</ele>
        <time>2015-07-25T13:38:56Z</time>
      </trkpt>
      <trkpt lat="40.429233" lon="-5.319450">
        <ele>2064.0</ele>
        <time>2015-07-25T13:38:58Z</time>
      </trkpt>
      <trkpt lat="40.429233" lon="-5.319683">
        <ele>2061.0</ele>
        <time>2015-07-25T13:39:00Z</time>
      </trkpt>
      <trkpt lat="40.429250" lon="-5.319933">
        <ele>2058.0</ele>
        <time>2015-07-25T13:39:02Z</time>
      </trkpt>
      <trkpt lat="40.429267" lon="-5.320183">
        <ele>2054.0</ele>
        <time>2015-07-25T13:39:04Z</time>
      </trkpt>
      <trkpt lat="40.429283" lon="-5.320450">
        <ele>2051.0</ele>
        <time>2015-07-25T13:39:06Z</time>
      </trkpt>
      <trkpt lat="40.429317" lon="-5.320683">
        <ele>2051.0</ele>
        <time>2015-07-25T13:39:08Z</time>
      </trkpt>
      <trkpt lat="40.429383" lon="-5.320867">
        <ele>2048.0</ele>
        <time>2015-07-25T13:39:10Z</time>
      </trkpt>
      <trkpt lat="40.429500" lon="-5.321033">
        <ele>2044.0</ele>
        <time>2015-07-25T13:39:12Z</time>
      </trkpt>
      <trkpt lat="40.429617" lon="-5.321200">
        <ele>2043.0</ele>
        <time>2015-07-25T13:39:14Z</time>
      </trkpt>
      <trkpt lat="40.429750" lon="-5.321250">
        <ele>2044.0</ele>
        <time>2015-07-25T13:39:16Z</time>
      </trkpt>
      <trkpt lat="40.429867" lon="-5.321183">
        <ele>2045.0</ele>
        <time>2015-07-25T13:39:18Z</time>
      </trkpt>
      <trkpt lat="40.429933" lon="-5.321083">
        <ele>2045.0</ele>
        <time>2015-07-25T13:39:20Z</time>
      </trkpt>
      <trkpt lat="40.430017" lon="-5.320983">
        <ele>2043.0</ele>
        <time>2015-07-25T13:39:22Z</time>
      </trkpt>
      <trkpt lat="40.430117" lon="-5.320917">
        <ele>2041.0</ele>
        <time>2015-07-25T13:39:24Z</time>
      </trkpt>
      <trkpt lat="40.430250" lon="-5.320950">
        <ele>2039.0</ele>
        <time>2015-07-25T13:39:26Z</time>
      </trkpt>
      <trkpt lat="40.430383" lon="-5.321033">
        <ele>2036.0</ele>
        <time>2015-07-25T13:39:28Z</time>
      </trkpt>
      <trkpt lat="40.430533" lon="-5.321117">
        <ele>2034.0</ele>
        <time>2015-07-25T13:39:30Z</time>
      </trkpt>
      <trkpt lat="40.430650" lon="-5.321200">
        <ele>2032.0</ele>
        <time>2015-07-25T13:39:32Z</time>
      </trkpt>
      <trkpt lat="40.430800" lon="-5.321317">
        <ele>2032.0</ele>
        <time>2015-07-25T13:39:34Z</time>
      </trkpt>
      <trkpt lat="40.430917" lon="-5.321367">
        <ele>2035.0</ele>
        <time>2015-07-25T13:39:36Z</time>
      </trkpt>
      <trkpt lat="40.431017" lon="-5.321317">
        <ele>2034.0</ele>
        <time>2015-07-25T13:39:38Z</time>
      </trkpt>
      <trkpt lat="40.431117" lon="-5.321183">
        <ele>2032.0</ele>
        <time>2015-07-25T13:39:40Z</time>
      </trkpt>
      <trkpt lat="40.431233" lon="-5.321017">
        <ele>2029.0</ele>
        <time>2015-07-25T13:39:42Z</time>
      </trkpt>
      <trkpt lat="40.431350" lon="-5.320867">
        <ele>2030.0</ele>
        <time>2015-07-25T13:39:44Z</time>
      </trkpt>
      <trkpt lat="40.431433" lon="-5.320767">
        <ele>2034.0</ele>
        <time>2015-07-25T13:39:46Z</time>
      </trkpt>
      <trkpt lat="40.431450" lon="-5.320583">
        <ele>2033.0</ele>
        <time>2015-07-25T13:39:48Z</time>
      </trkpt>
      <trkpt lat="40.431367" lon="-5.320350">
        <ele>2032.0</ele>
        <time>2015-07-25T13:39:50Z</time>
      </trkpt>
      <trkpt lat="40.431167" lon="-5.320200">
        <ele>2035.0</ele>
        <time>2015-07-25T13:39:52Z</time>
      </trkpt>
      <trkpt lat="40.430967" lon="-5.320183">
        <ele>2037.0</ele>
        <time>2015-07-25T13:39:54Z</time>
      </trkpt>
      <trkpt lat="40.430750" lon="-5.320250">
        <ele>2037.0</ele>
        <time>2015-07-25T13:39:56Z</time>
      </trkpt>
      <trkpt lat="40.430567" lon="-5.320400">
        <ele>2036.0</ele>
        <time>2015-07-25T13:39:58Z</time>
      </trkpt>
      <trkpt lat="40.430450" lon="-5.320617">
        <ele>2036.0</ele>
        <time>2015-07-25T13:40:00Z</time>
      </trkpt>
      <trkpt lat="40.430433" lon="-5.320850">
        <ele>2036.0</ele>
        <time>2015-07-25T13:40:02Z</time>
      </trkpt>
      <trkpt lat="40.430467" lon="-5.321033">
        <ele>2036.0</ele>
        <time>2015-07-25T13:40:04Z</time>
      </trkpt>
      <trkpt lat="40.430567" lon="-5.321183">
        <ele>2033.0</ele>
        <time>2015-07-25T13:40:06Z</time>
      </trkpt>
      <trkpt lat="40.430700" lon="-5.321267">
        <ele>2031.0</ele>
        <time>2015-07-25T13:40:08Z</time>
      </trkpt>
      <trkpt lat="40.430833" lon="-5.321283">
        <ele>2030.0</ele>
        <time>2015-07-25T13:40:10Z</time>
      </trkpt>
      <trkpt lat="40.430983" lon="-5.321217">
        <ele>2028.0</ele>
        <time>2015-07-25T13:40:12Z</time>
      </trkpt>
      <trkpt lat="40.431167" lon="-5.321150">
        <ele>2026.0</ele>
        <time>2015-07-25T13:40:14Z</time>
      </trkpt>
      <trkpt lat="40.431367" lon="-5.321083">
        <ele>2026.0</ele>
        <time>2015-07-25T13:40:16Z</time>
      </trkpt>
      <trkpt lat="40.431517" lon="-5.321033">
        <ele>2031.0</ele>
        <time>2015-07-25T13:40:18Z</time>
      </trkpt>
      <trkpt lat="40.431650" lon="-5.321017">
        <ele>2034.0</ele>
        <time>2015-07-25T13:40:20Z</time>
      </trkpt>
      <trkpt lat="40.431783" lon="-5.320917">
        <ele>2036.0</ele>
        <time>2015-07-25T13:40:22Z</time>
      </trkpt>
      <trkpt lat="40.431883" lon="-5.320767">
        <ele>2039.0</ele>
        <time>2015-07-25T13:40:24Z</time>
      </trkpt>
      <trkpt lat="40.431983" lon="-5.320650">
        <ele>2047.0</ele>
        <time>2015-07-25T13:40:26Z</time>
      </trkpt>
      <trkpt lat="40.432117" lon="-5.320650">
        <ele>2054.0</ele>
        <time>2015-07-25T13:40:28Z</time>
      </trkpt>
      <trkpt lat="40.432233" lon="-5.320750">
        <ele>2058.0</ele>
        <time>2015-07-25T13:40:30Z</time>
      </trkpt>
      <trkpt lat="40.432317" lon="-5.320967">
        <ele>2059.0</ele>
        <time>2015-07-25T13:40:32Z</time>
      </trkpt>
      <trkpt lat="40.432267" lon="-5.321200">
        <ele>2060.0</ele>
        <time>2015-07-25T13:40:34Z</time>
      </trkpt>
      <trkpt lat="40.432167" lon="-5.321417">
        <ele>2061.0</ele>
        <time>2015-07-25T13:40:36Z</time>
      </trkpt>
      <trkpt lat="40.432000" lon="-5.321600">
        <ele>2060.0</ele>
        <time>2015-07-25T13:40:38Z</time>
      </trkpt>
      <trkpt lat="40.431833" lon="-5.321650">
        <ele>2063.0</ele>
        <time>2015-07-25T13:40:40Z</time>
      </trkpt>
      <trkpt lat="40.431667" lon="-5.321600">
        <ele>2063.0</ele>
        <time>2015-07-25T13:40:42Z</time>
      </trkpt>
      <trkpt lat="40.431533" lon="-5.321483">
        <ele>2062.0</ele>
        <time>2015-07-25T13:40:44Z</time>
      </trkpt>
      <trkpt lat="40.431450" lon="-5.321267">
        <ele>2063.0</ele>
        <time>2015-07-25T13:40:46Z</time>
      </trkpt>
      <trkpt lat="40.431433" lon="-5.321050">
        <ele>2066.0</ele>
        <time>2015-07-25T13:40:48Z</time>
      </trkpt>
      <trkpt lat="40.431500" lon="-5.320883">
        <ele>2068.0</ele>
        <time>2015-07-25T13:40:50Z</time>
      </trkpt>
      <trkpt lat="40.431633" lon="-5.320750">
        <ele>2070.0</ele>
        <time>2015-07-25T13:40:52Z</time>
      </trkpt>
      <trkpt lat="40.431817" lon="-5.320717">
        <ele>2075.0</ele>
        <time>2015-07-25T13:40:54Z</time>
      </trkpt>
      <trkpt lat="40.431983" lon="-5.320733">
        <ele>2078.0</ele>
        <time>2015-07-25T13:40:56Z</time>
      </trkpt>
      <trkpt lat="40.432133" lon="-5.320817">
        <ele>2079.0</ele>
        <time>2015-07-25T13:40:58Z</time>
      </trkpt>
      <trkpt lat="40.432233" lon="-5.320967">
        <ele>2081.0</ele>
        <time>2015-07-25T13:41:00Z</time>
      </trkpt>
      <trkpt lat="40.432300" lon="-5.321100">
        <ele>2081.0</ele>
        <time>2015-07-25T13:41:02Z</time>
      </trkpt>
      <trkpt lat="40.432367" lon="-5.321250">
        <ele>2081.0</ele>
        <time>2015-07-25T13:41:04Z</time>
      </trkpt>
      <trkpt lat="40.432483" lon="-5.321383">
        <ele>2079.0</ele>
        <time>2015-07-25T13:41:06Z</time>
      </trkpt>
      <trkpt lat="40.432650" lon="-5.321483">
        <ele>2081.0</ele>
        <time>2015-07-25T13:41:08Z</time>
      </trkpt>
      <trkpt lat="40.432800" lon="-5.321483">
        <ele>2084.0</ele>
        <time>2015-07-25T13:41:10Z</time>
      </trkpt>
      <trkpt lat="40.432933" lon="-5.321400">
        <ele>2081.0</ele>
        <time>2015-07-25T13:41:12Z</time>
      </trkpt>
      <trkpt lat="40.433083" lon="-5.321283">
        <ele>2079.0</ele>
        <time>2015-07-25T13:41:14Z</time>
      </trkpt>
      <trkpt lat="40.433183" lon="-5.321083">
        <ele>2078.0</ele>
        <time>2015-07-25T13:41:16Z</time>
      </trkpt>
      <trkpt lat="40.433183" lon="-5.320833">
        <ele>2077.0</ele>
        <time>2015-07-25T13:41:18Z</time>
      </trkpt>
      <trkpt lat="40.433133" lon="-5.320583">
        <ele>2077.0</ele>
        <time>2015-07-25T13:41:20Z</time>
      </trkpt>
      <trkpt lat="40.433033" lon="-5.320367">
        <ele>2078.0</ele>
        <time>2015-07-25T13:41:22Z</time>
      </trkpt>
      <trkpt lat="40.432900" lon="-5.320150">
        <ele>2079.0</ele>
        <time>2015-07-25T13:41:24Z</time>
      </trkpt>
      <trkpt lat="40.432733" lon="-5.319983">
        <ele>2082.0</ele>
        <time>2015-07-25T13:41:26Z</time>
      </trkpt>
      <trkpt lat="40.432600" lon="-5.319917">
        <ele>2085.0</ele>
        <time>2015-07-25T13:41:28Z</time>
      </trkpt>
      <trkpt lat="40.432433" lon="-5.319900">
        <ele>2083.0</ele>
        <time>2015-07-25T13:41:30Z</time>
      </trkpt>
      <trkpt lat="40.432217" lon="-5.319917">
        <ele>2084.0</ele>
        <time>2015-07-25T13:41:32Z</time>
      </trkpt>
      <trkpt lat="40.432033" lon="-5.319933">
        <ele>2088.0</ele>
        <time>2015-07-25T13:41:34Z</time>
      </trkpt>
      <trkpt lat="40.431883" lon="-5.320083">
        <ele>2089.0</ele>
        <time>2015-07-25T13:41:36Z</time>
      </trkpt>
      <trkpt lat="40.431800" lon="-5.320283">
        <ele>2091.0</ele>
        <time>2015-07-25T13:41:38Z</time>
      </trkpt>
      <trkpt lat="40.431817" lon="-5.320467">
        <ele>2091.0</ele>
        <time>2015-07-25T13:41:40Z</time>
      </trkpt>
      <trkpt lat="40.431933" lon="-5.320650">
        <ele>2093.0</ele>
        <time>2015-07-25T13:41:42Z</time>
      </trkpt>
      <trkpt lat="40.432083" lon="-5.320733">
        <ele>2096.0</ele>
        <time>2015-07-25T13:41:44Z</time>
      </trkpt>
      <trkpt lat="40.432233" lon="-5.320700">
        <ele>2094.0</ele>
        <time>2015-07-25T13:41:46Z</time>
      </trkpt>
      <trkpt lat="40.432383" lon="-5.320550">
        <ele>2091.0</ele>
        <time>2015-07-25T13:41:48Z</time>
      </trkpt>
      <trkpt lat="40.432450" lon="-5.320283">
        <ele>2090.0</ele>
        <time>2015-07-25T13:41:50Z</time>
      </trkpt>
      <trkpt lat="40.432450" lon="-5.320033">
        <ele>2092.0</ele>
        <time>2015-07-25T13:41:52Z</time>
      </trkpt>
      <trkpt lat="40.432400" lon="-5.319817">
        <ele>2091.0</ele>
        <time>2015-07-25T13:41:54Z</time>
      </trkpt>
      <trkpt lat="40.432250" lon="-5.319650">
        <ele>2089.0</ele>
        <time>2015-07-25T13:41:56Z</time>
      </trkpt>
      <trkpt lat="40.432067" lon="-5.319633">
        <ele>2088.0</ele>
        <time>2015-07-25T13:41:58Z</time>
      </trkpt>
      <trkpt lat="40.431933" lon="-5.319717">
        <ele>2089.0</ele>
        <time>2015-07-25T13:42:00Z</time>
      </trkpt>
      <trkpt lat="40.431850" lon="-5.319817">
        <ele>2091.0</ele>
        <time>2015-07-25T13:42:02Z</time>
      </trkpt>
      <trkpt lat="40.431800" lon="-5.319983">
        <ele>2090.0</ele>
        <time>2015-07-25T13:42:04Z</time>
      </trkpt>
      <trkpt lat="40.431817" lon="-5.320167">
        <ele>2090.0</ele>
        <time>2015-07-25T13:42:06Z</time>
      </trkpt>
      <trkpt lat="40.431850" lon="-5.320300">
        <ele>2091.0</ele>
        <time>2015-07-25T13:42:08Z</time>
      </trkpt>
      <trkpt lat="40.431933" lon="-5.320400">
        <ele>2090.0</ele>
        <time>2015-07-25T13:42:10Z</time>
      </trkpt>
      <trkpt lat="40.432017" lon="-5.320500">
        <ele>2086.0</ele>
        <time>2015-07-25T13:42:12Z</time>
      </trkpt>
      <trkpt lat="40.432150" lon="-5.320583">
        <ele>2081.0</ele>
        <time>2015-07-25T13:42:14Z</time>
      </trkpt>
      <trkpt lat="40.432317" lon="-5.320600">
        <ele>2076.0</ele>
        <time>2015-07-25T13:42:16Z</time>
      </trkpt>
      <trkpt lat="40.432467" lon="-5.320517">
        <ele>2071.0</ele>
        <time>2015-07-25T13:42:18Z</time>
      </trkpt>
      <trkpt lat="40.432567" lon="-5.320367">
        <ele>2069.0</ele>
        <time>2015-07-25T13:42:20Z</time>
      </trkpt>
      <trkpt lat="40.432667" lon="-5.320250">
        <ele>2065.0</ele>
        <time>2015-07-25T13:42:22Z</time>
      </trkpt>
      <trkpt lat="40.432783" lon="-5.320217">
        <ele>2059.0</ele>
        <time>2015-07-25T13:42:24Z</time>
      </trkpt>
      <trkpt lat="40.432883" lon="-5.320250">
        <ele>2054.0</ele>
        <time>2015-07-25T13:42:26Z</time>
      </trkpt>
      <trkpt lat="40.432917" lon="-5.320350">
        <ele>2046.0</ele>
        <time>2015-07-25T13:42:28Z</time>
      </trkpt>
      <trkpt lat="40.432950" lon="-5.320517">
        <ele>2039.0</ele>
        <time>2015-07-25T13:42:30Z</time>
      </trkpt>
      <trkpt lat="40.432967" lon="-5.320717">
        <ele>2032.0</ele>
        <time>2015-07-25T13:42:32Z</time>
      </trkpt>
      <trkpt lat="40.433033" lon="-5.320917">
        <ele>2028.0</ele>
        <time>2015-07-25T13:42:34Z</time>
      </trkpt>
      <trkpt lat="40.433117" lon="-5.321133">
        <ele>2024.0</ele>
        <time>2015-07-25T13:42:36Z</time>
      </trkpt>
      <trkpt lat="40.433200" lon="-5.321267">
        <ele>2024.0</ele>
        <time>2015-07-25T13:42:38Z</time>
      </trkpt>
      <trkpt lat="40.433333" lon="-5.321317">
        <ele>2022.0</ele>
        <time>2015-07-25T13:42:40Z</time>
      </trkpt>
      <trkpt lat="40.433433" lon="-5.321383">
        <ele>2019.0</ele>
        <time>2015-07-25T13:42:42Z</time>
      </trkpt>
      <trkpt lat="40.433550" lon="-5.321500">
        <ele>2016.0</ele>
        <time>2015-07-25T13:42:44Z</time>
      </trkpt>
      <trkpt lat="40.433667" lon="-5.321650">
        <ele>2014.0</ele>
        <time>2015-07-25T13:42:46Z</time>
      </trkpt>
      <trkpt lat="40.433783" lon="-5.321750">
        <ele>2011.0</ele>
        <time>2015-07-25T13:42:48Z</time>
      </trkpt>
      <trkpt lat="40.433900" lon="-5.321867">
        <ele>2005.0</ele>
        <time>2015-07-25T13:42:50Z</time>
      </trkpt>
      <trkpt lat="40.434050" lon="-5.322033">
        <ele>2001.0</ele>
        <time>2015-07-25T13:42:52Z</time>
      </trkpt>
      <trkpt lat="40.434150" lon="-5.322167">
        <ele>2002.0</ele>
        <time>2015-07-25T13:42:54Z</time>
      </trkpt>
      <trkpt lat="40.434200" lon="-5.322283">
        <ele>1998.0</ele>
        <time>2015-07-25T13:42:56Z</time>
      </trkpt>
      <trkpt lat="40.434317" lon="-5.322400">
        <ele>1991.0</ele>
        <time>2015-07-25T13:42:58Z</time>
      </trkpt>
      <trkpt lat="40.434450" lon="-5.322567">
        <ele>1988.0</ele>
        <time>2015-07-25T13:43:00Z</time>
      </trkpt>
      <trkpt lat="40.434533" lon="-5.322717">
        <ele>1987.0</ele>
        <time>2015-07-25T13:43:02Z</time>
      </trkpt>
      <trkpt lat="40.434617" lon="-5.322850">
        <ele>1984.0</ele>
        <time>2015-07-25T13:43:04Z</time>
      </trkpt>
      <trkpt lat="40.434733" lon="-5.323017">
        <ele>1983.0</ele>
        <time>2015-07-25T13:43:06Z</time>
      </trkpt>
      <trkpt lat="40.434800" lon="-5.323167">
        <ele>1984.0</ele>
        <time>2015-07-25T13:43:08Z</time>
      </trkpt>
      <trkpt lat="40.434850" lon="-5.323317">
        <ele>1981.0</ele>
        <time>2015-07-25T13:43:10Z</time>
      </trkpt>
      <trkpt lat="40.434950" lon="-5.323483">
        <ele>1976.0</ele>
        <time>2015-07-25T13:43:12Z</time>
      </trkpt>
      <trkpt lat="40.435033" lon="-5.323667">
        <ele>1977.0</ele>
        <time>2015-07-25T13:43:14Z</time>
      </trkpt>
      <trkpt lat="40.435067" lon="-5.323800">
        <ele>1978.0</ele>
        <time>2015-07-25T13:43:16Z</time>
      </trkpt>
      <trkpt lat="40.435083" lon="-5.323950">
        <ele>1975.0</ele>
        <time>2015-07-25T13:43:18Z</time>
      </trkpt>
      <trkpt lat="40.435150" lon="-5.324117">
        <ele>1971.0</ele>
        <time>2015-07-25T13:43:20Z</time>
      </trkpt>
      <trkpt lat="40.435183" lon="-5.324300">
        <ele>1971.0</ele>
        <time>2015-07-25T13:43:22Z</time>
      </trkpt>
      <trkpt lat="40.435200" lon="-5.324417">
        <ele>1971.0</ele>
        <time>2015-07-25T13:43:24Z</time>
      </trkpt>
      <trkpt lat="40.435217" lon="-5.324550">
        <ele>1967.0</ele>
        <time>2015-07-25T13:43:26Z</time>
      </trkpt>
      <trkpt lat="40.435250" lon="-5.324683">
        <ele>1963.0</ele>
        <time>2015-07-25T13:43:28Z</time>
      </trkpt>
      <trkpt lat="40.435283" lon="-5.324800">
        <ele>1962.0</ele>
        <time>2015-07-25T13:43:30Z</time>
      </trkpt>
      <trkpt lat="40.435283" lon="-5.324933">
        <ele>1959.0</ele>
        <time>2015-07-25T13:43:32Z</time>
      </trkpt>
      <trkpt lat="40.435300" lon="-5.325083">
        <ele>1954.0</ele>
        <time>2015-07-25T13:43:34Z</time>
      </trkpt>
      <trkpt lat="40.435333" lon="-5.325217">
        <ele>1953.0</ele>
        <time>2015-07-25T13:43:36Z</time>
      </trkpt>
      <trkpt lat="40.435317" lon="-5.325350">
        <ele>1950.0</ele>
        <time>2015-07-25T13:43:38Z</time>
      </trkpt>
      <trkpt lat="40.435350" lon="-5.325483">
        <ele>1946.0</ele>
        <time>2015-07-25T13:43:40Z</time>
      </trkpt>
      <trkpt lat="40.435400" lon="-5.325617">
        <ele>1944.0</ele>
        <time>2015-07-25T13:43:42Z</time>
      </trkpt>
      <trkpt lat="40.435450" lon="-5.325750">
        <ele>1945.0</ele>
        <time>2015-07-25T13:43:44Z</time>
      </trkpt>
      <trkpt lat="40.435483" lon="-5.325900">
        <ele>1948.0</ele>
        <time>2015-07-25T13:43:46Z</time>
      </trkpt>
      <trkpt lat="40.435533" lon="-5.326033">
        <ele>1950.0</ele>
        <time>2015-07-25T13:43:48Z</time>
      </trkpt>
      <trkpt lat="40.435583" lon="-5.326183">
        <ele>1951.0</ele>
        <time>2015-07-25T13:43:50Z</time>
      </trkpt>
      <trkpt lat="40.435650" lon="-5.326267">
        <ele>1954.0</ele>
        <time>2015-07-25T13:43:52Z</time>
      </trkpt>
      <trkpt lat="40.435733" lon="-5.326233">
        <ele>1956.0</ele>
        <time>2015-07-25T13:43:54Z</time>
      </trkpt>
      <trkpt lat="40.435833" lon="-5.326100">
        <ele>1957.0</ele>
        <time>2015-07-25T13:43:56Z</time>
      </trkpt>
      <trkpt lat="40.435867" lon="-5.325900">
        <ele>1961.0</ele>
        <time>2015-07-25T13:43:58Z</time>
      </trkpt>
      <trkpt lat="40.435833" lon="-5.325667">
        <ele>1963.0</ele>
        <time>2015-07-25T13:44:00Z</time>
      </trkpt>
      <trkpt lat="40.435700" lon="-5.325400">
        <ele>1963.0</ele>
        <time>2015-07-25T13:44:02Z</time>
      </trkpt>
      <trkpt lat="40.435450" lon="-5.325233">
        <ele>1964.0</ele>
        <time>2015-07-25T13:44:04Z</time>
      </trkpt>
      <trkpt lat="40.435200" lon="-5.325200">
        <ele>1968.0</ele>
        <time>2015-07-25T13:44:06Z</time>
      </trkpt>
      <trkpt lat="40.434983" lon="-5.325217">
        <ele>1971.0</ele>
        <time>2015-07-25T13:44:08Z</time>
      </trkpt>
      <trkpt lat="40.434800" lon="-5.325317">
        <ele>1973.0</ele>
        <time>2015-07-25T13:44:10Z</time>
      </trkpt>
      <trkpt lat="40.434650" lon="-5.325517">
        <ele>1977.0</ele>
        <time>2015-07-25T13:44:12Z</time>
      </trkpt>
      <trkpt lat="40.434567" lon="-5.325717">
        <ele>1985.0</ele>
        <time>2015-07-25T13:44:14Z</time>
      </trkpt>
      <trkpt lat="40.434533" lon="-5.325850">
        <ele>1990.0</ele>
        <time>2015-07-25T13:44:16Z</time>
      </trkpt>
      <trkpt lat="40.434567" lon="-5.325967">
        <ele>1988.0</ele>
        <time>2015-07-25T13:44:18Z</time>
      </trkpt>
      <trkpt lat="40.434683" lon="-5.325983">
        <ele>1984.0</ele>
        <time>2015-07-25T13:44:20Z</time>
      </trkpt>
      <trkpt lat="40.434817" lon="-5.325850">
        <ele>1985.0</ele>
        <time>2015-07-25T13:44:22Z</time>
      </trkpt>
      <trkpt lat="40.434883" lon="-5.325700">
        <ele>1993.0</ele>
        <time>2015-07-25T13:44:24Z</time>
      </trkpt>
      <trkpt lat="40.434883" lon="-5.325517">
        <ele>1998.0</ele>
        <time>2015-07-25T13:44:26Z</time>
      </trkpt>
      <trkpt lat="40.434833" lon="-5.325267">
        <ele>1998.0</ele>
        <time>2015-07-25T13:44:28Z</time>
      </trkpt>
      <trkpt lat="40.434700" lon="-5.324983">
        <ele>2000.0</ele>
        <time>2015-07-25T13:44:30Z</time>
      </trkpt>
      <trkpt lat="40.434500" lon="-5.324800">
        <ele>2003.0</ele>
        <time>2015-07-25T13:44:32Z</time>
      </trkpt>
      <trkpt lat="40.434267" lon="-5.324767">
        <ele>2003.0</ele>
        <time>2015-07-25T13:44:34Z</time>
      </trkpt>
      <trkpt lat="40.434033" lon="-5.324833">
        <ele>2004.0</ele>
        <time>2015-07-25T13:44:36Z</time>
      </trkpt>
      <trkpt lat="40.433883" lon="-5.325017">
        <ele>2006.0</ele>
        <time>2015-07-25T13:44:38Z</time>
      </trkpt>
      <trkpt lat="40.433783" lon="-5.325250">
        <ele>2013.0</ele>
        <time>2015-07-25T13:44:40Z</time>
      </trkpt>
      <trkpt lat="40.433733" lon="-5.325350">
        <ele>2020.0</ele>
        <time>2015-07-25T13:44:42Z</time>
      </trkpt>
      <trkpt lat="40.433750" lon="-5.325433">
        <ele>2019.0</ele>
        <time>2015-07-25T13:44:44Z</time>
      </trkpt>
      <trkpt lat="40.433817" lon="-5.325550">
        <ele>2017.0</ele>
        <time>2015-07-25T13:44:46Z</time>
      </trkpt>
      <trkpt lat="40.433950" lon="-5.325567">
        <ele>2017.0</ele>
        <time>2015-07-25T13:44:48Z</time>
      </trkpt>
      <trkpt lat="40.434067" lon="-5.325450">
        <ele>2022.0</ele>
        <time>2015-07-25T13:44:50Z</time>
      </trkpt>
      <trkpt lat="40.434117" lon="-5.325233">
        <ele>2026.0</ele>
        <time>2015-07-25T13:44:52Z</time>
      </trkpt>
      <trkpt lat="40.434067" lon="-5.324950">
        <ele>2031.0</ele>
        <time>2015-07-25T13:44:54Z</time>
      </trkpt>
      <trkpt lat="40.433917" lon="-5.324700">
        <ele>2035.0</ele>
        <time>2015-07-25T13:44:56Z</time>
      </trkpt>
      <trkpt lat="40.433717" lon="-5.324467">
        <ele>2038.0</ele>
        <time>2015-07-25T13:44:58Z</time>
      </trkpt>
      <trkpt lat="40.433467" lon="-5.324367">
        <ele>2040.0</ele>
        <time>2015-07-25T13:45:00Z</time>
      </trkpt>
      <trkpt lat="40.433217" lon="-5.324450">
        <ele>2042.0</ele>
        <time>2015-07-25T13:45:02Z</time>
      </trkpt>
      <trkpt lat="40.433050" lon="-5.324583">
        <ele>2048.0</ele>
        <time>2015-07-25T13:45:04Z</time>
      </trkpt>
      <trkpt lat="40.432967" lon="-5.324683">
        <ele>2053.0</ele>
        <time>2015-07-25T13:45:06Z</time>
      </trkpt>
      <trkpt lat="40.432917" lon="-5.324850">
        <ele>2055.0</ele>
        <time>2015-07-25T13:45:08Z</time>
      </trkpt>
      <trkpt lat="40.432950" lon="-5.324950">
        <ele>2058.0</ele>
        <time>2015-07-25T13:45:10Z</time>
      </trkpt>
      <trkpt lat="40.433050" lon="-5.324983">
        <ele>2060.0</ele>
        <time>2015-07-25T13:45:12Z</time>
      </trkpt>
      <trkpt lat="40.433167" lon="-5.324983">
        <ele>2064.0</ele>
        <time>2015-07-25T13:45:14Z</time>
      </trkpt>
      <trkpt lat="40.433250" lon="-5.324900">
        <ele>2066.0</ele>
        <time>2015-07-25T13:45:16Z</time>
      </trkpt>
      <trkpt lat="40.433317" lon="-5.324700">
        <ele>2068.0</ele>
        <time>2015-07-25T13:45:18Z</time>
      </trkpt>
      <trkpt lat="40.433300" lon="-5.324417">
        <ele>2071.0</ele>
        <time>2015-07-25T13:45:20Z</time>
      </trkpt>
      <trkpt lat="40.433167" lon="-5.324133">
        <ele>2073.0</ele>
        <time>2015-07-25T13:45:22Z</time>
      </trkpt>
      <trkpt lat="40.432933" lon="-5.323950">
        <ele>2076.0</ele>
        <time>2015-07-25T13:45:24Z</time>
      </trkpt>
      <trkpt lat="40.432683" lon="-5.323900">
        <ele>2078.0</ele>
        <time>2015-07-25T13:45:26Z</time>
      </trkpt>
      <trkpt lat="40.432483" lon="-5.324017">
        <ele>2079.0</ele>
        <time>2015-07-25T13:45:28Z</time>
      </trkpt>
      <trkpt lat="40.432350" lon="-5.324183">
        <ele>2082.0</ele>
        <time>2015-07-25T13:45:30Z</time>
      </trkpt>
      <trkpt lat="40.432300" lon="-5.324317">
        <ele>2086.0</ele>
        <time>2015-07-25T13:45:32Z</time>
      </trkpt>
      <trkpt lat="40.432300" lon="-5.324450">
        <ele>2087.0</ele>
        <time>2015-07-25T13:45:34Z</time>
      </trkpt>
      <trkpt lat="40.432383" lon="-5.324483">
        <ele>2090.0</ele>
        <time>2015-07-25T13:45:36Z</time>
      </trkpt>
      <trkpt lat="40.432467" lon="-5.324400">
        <ele>2094.0</ele>
        <time>2015-07-25T13:45:38Z</time>
      </trkpt>
      <trkpt lat="40.432517" lon="-5.324233">
        <ele>2098.0</ele>
        <time>2015-07-25T13:45:40Z</time>
      </trkpt>
      <trkpt lat="40.432517" lon="-5.323967">
        <ele>2100.0</ele>
        <time>2015-07-25T13:45:42Z</time>
      </trkpt>
      <trkpt lat="40.432400" lon="-5.323667">
        <ele>2101.0</ele>
        <time>2015-07-25T13:45:44Z</time>
      </trkpt>
      <trkpt lat="40.432167" lon="-5.323450">
        <ele>2102.0</ele>
        <time>2015-07-25T13:45:46Z</time>
      </trkpt>
      <trkpt lat="40.431900" lon="-5.323367">
        <ele>2104.0</ele>
        <time>2015-07-25T13:45:48Z</time>
      </trkpt>
      <trkpt lat="40.431667" lon="-5.323417">
        <ele>2104.0</ele>
        <time>2015-07-25T13:45:50Z</time>
      </trkpt>
      <trkpt lat="40.431467" lon="-5.323550">
        <ele>2106.0</ele>
        <time>2015-07-25T13:45:52Z</time>
      </trkpt>
      <trkpt lat="40.431350" lon="-5.323717">
        <ele>2109.0</ele>
        <time>2015-07-25T13:45:54Z</time>
      </trkpt>
      <trkpt lat="40.431300" lon="-5.323867">
        <ele>2111.0</ele>
        <time>2015-07-25T13:45:56Z</time>
      </trkpt>
      <trkpt lat="40.431333" lon="-5.324017">
        <ele>2115.0</ele>
        <time>2015-07-25T13:45:58Z</time>
      </trkpt>
      <trkpt lat="40.431400" lon="-5.324083">
        <ele>2121.0</ele>
        <time>2015-07-25T13:46:00Z</time>
      </trkpt>
      <trkpt lat="40.431450" lon="-5.324050">
        <ele>2127.0</ele>
        <time>2015-07-25T13:46:02Z</time>
      </trkpt>
      <trkpt lat="40.431533" lon="-5.323933">
        <ele>2129.0</ele>
        <time>2015-07-25T13:46:04Z</time>
      </trkpt>
      <trkpt lat="40.431583" lon="-5.323700">
        <ele>2129.0</ele>
        <time>2015-07-25T13:46:06Z</time>
      </trkpt>
      <trkpt lat="40.431517" lon="-5.323417">
        <ele>2131.0</ele>
        <time>2015-07-25T13:46:08Z</time>
      </trkpt>
      <trkpt lat="40.431367" lon="-5.323183">
        <ele>2131.0</ele>
        <time>2015-07-25T13:46:10Z</time>
      </trkpt>
      <trkpt lat="40.431150" lon="-5.322950">
        <ele>2128.0</ele>
        <time>2015-07-25T13:46:12Z</time>
      </trkpt>
      <trkpt lat="40.430883" lon="-5.322783">
        <ele>2127.0</ele>
        <time>2015-07-25T13:46:14Z</time>
      </trkpt>
      <trkpt lat="40.430600" lon="-5.322800">
        <ele>2128.0</ele>
        <time>2015-07-25T13:46:16Z</time>
      </trkpt>
      <trkpt lat="40.430400" lon="-5.322900">
        <ele>2131.0</ele>
        <time>2015-07-25T13:46:18Z</time>
      </trkpt>
      <trkpt lat="40.430250" lon="-5.323033">
        <ele>2132.0</ele>
        <time>2015-07-25T13:46:20Z</time>
      </trkpt>
      <trkpt lat="40.430200" lon="-5.323217">
        <ele>2132.0</ele>
        <time>2015-07-25T13:46:22Z</time>
      </trkpt>
      <trkpt lat="40.430183" lon="-5.323383">
        <ele>2135.0</ele>
        <time>2015-07-25T13:46:24Z</time>
      </trkpt>
      <trkpt lat="40.430233" lon="-5.323500">
        <ele>2137.0</ele>
        <time>2015-07-25T13:46:26Z</time>
      </trkpt>
      <trkpt lat="40.430333" lon="-5.323533">
        <ele>2139.0</ele>
        <time>2015-07-25T13:46:28Z</time>
      </trkpt>
      <trkpt lat="40.430383" lon="-5.323433">
        <ele>2142.0</ele>
        <time>2015-07-25T13:46:30Z</time>
      </trkpt>
      <trkpt lat="40.430383" lon="-5.323250">
        <ele>2142.0</ele>
        <time>2015-07-25T13:46:32Z</time>
      </trkpt>
      <trkpt lat="40.430300" lon="-5.322967">
        <ele>2140.0</ele>
        <time>2015-07-25T13:46:34Z</time>
      </trkpt>
      <trkpt lat="40.430100" lon="-5.322717">
        <ele>2139.0</ele>
        <time>2015-07-25T13:46:36Z</time>
      </trkpt>
      <trkpt lat="40.429833" lon="-5.322600">
        <ele>2138.0</ele>
        <time>2015-07-25T13:46:38Z</time>
      </trkpt>
      <trkpt lat="40.429550" lon="-5.322600">
        <ele>2136.0</ele>
        <time>2015-07-25T13:46:40Z</time>
      </trkpt>
      <trkpt lat="40.429317" lon="-5.322733">
        <ele>2137.0</ele>
        <time>2015-07-25T13:46:42Z</time>
      </trkpt>
      <trkpt lat="40.429133" lon="-5.322900">
        <ele>2141.0</ele>
        <time>2015-07-25T13:46:44Z</time>
      </trkpt>
      <trkpt lat="40.429017" lon="-5.323067">
        <ele>2145.0</ele>
        <time>2015-07-25T13:46:46Z</time>
      </trkpt>
      <trkpt lat="40.428983" lon="-5.323217">
        <ele>2147.0</ele>
        <time>2015-07-25T13:46:48Z</time>
      </trkpt>
      <trkpt lat="40.429033" lon="-5.323350">
        <ele>2149.0</ele>
        <time>2015-07-25T13:46:50Z</time>
      </trkpt>
      <trkpt lat="40.429117" lon="-5.323400">
        <ele>2154.0</ele>
        <time>2015-07-25T13:46:52Z</time>
      </trkpt>
      <trkpt lat="40.429200" lon="-5.323333">
        <ele>2158.0</ele>
        <time>2015-07-25T13:46:54Z</time>
      </trkpt>
      <trkpt lat="40.429283" lon="-5.323150">
        <ele>2161.0</ele>
        <time>2015-07-25T13:46:56Z</time>
      </trkpt>
      <trkpt lat="40.429267" lon="-5.322883">
        <ele>2164.0</ele>
        <time>2015-07-25T13:46:58Z</time>
      </trkpt>
      <trkpt lat="40.429133" lon="-5.322633">
        <ele>2167.0</ele>
        <time>2015-07-25T13:47:00Z</time>
      </trkpt>
      <trkpt lat="40.428917" lon="-5.322433">
        <ele>2165.0</ele>
        <time>2015-07-25T13:47:02Z</time>
      </trkpt>
      <trkpt lat="40.428650" lon="-5.322317">
        <ele>2163.0</ele>
        <time>2015-07-25T13:47:04Z</time>
      </trkpt>
      <trkpt lat="40.428367" lon="-5.322367">
        <ele>2162.0</ele>
        <time>2015-07-25T13:47:06Z</time>
      </trkpt>
      <trkpt lat="40.428183" lon="-5.322533">
        <ele>2165.0</ele>
        <time>2015-07-25T13:47:08Z</time>
      </trkpt>
      <trkpt lat="40.428083" lon="-5.322683">
        <ele>2169.0</ele>
        <time>2015-07-25T13:47:10Z</time>
      </trkpt>
      <trkpt lat="40.428033" lon="-5.322833">
        <ele>2171.0</ele>
        <time>2015-07-25T13:47:12Z</time>
      </trkpt>
      <trkpt lat="40.428050" lon="-5.322967">
        <ele>2173.0</ele>
        <time>2015-07-25T13:47:14Z</time>
      </trkpt>
      <trkpt lat="40.428067" lon="-5.323067">
        <ele>2178.0</ele>
        <time>2015-07-25T13:47:16Z</time>
      </trkpt>
      <trkpt lat="40.428117" lon="-5.323100">
        <ele>2182.0</ele>
        <time>2015-07-25T13:47:18Z</time>
      </trkpt>
      <trkpt lat="40.428217" lon="-5.323067">
        <ele>2187.0</ele>
        <time>2015-07-25T13:47:20Z</time>
      </trkpt>
      <trkpt lat="40.428283" lon="-5.322950">
        <ele>2193.0</ele>
        <time>2015-07-25T13:47:22Z</time>
      </trkpt>
      <trkpt lat="40.428300" lon="-5.322767">
        <ele>2197.0</ele>
        <time>2015-07-25T13:47:24Z</time>
      </trkpt>
      <trkpt lat="40.428250" lon="-5.322483">
        <ele>2198.0</ele>
        <time>2015-07-25T13:47:26Z</time>
      </trkpt>
      <trkpt lat="40.428067" lon="-5.322233">
        <ele>2201.0</ele>
        <time>2015-07-25T13:47:28Z</time>
      </trkpt>
      <trkpt lat="40.427833" lon="-5.322133">
        <ele>2203.0</ele>
        <time>2015-07-25T13:47:30Z</time>
      </trkpt>
      <trkpt lat="40.427583" lon="-5.322183">
        <ele>2202.0</ele>
        <time>2015-07-25T13:47:32Z</time>
      </trkpt>
      <trkpt lat="40.427400" lon="-5.322333">
        <ele>2205.0</ele>
        <time>2015-07-25T13:47:34Z</time>
      </trkpt>
      <trkpt lat="40.427317" lon="-5.322533">
        <ele>2207.0</ele>
        <time>2015-07-25T13:47:36Z</time>
      </trkpt>
      <trkpt lat="40.427317" lon="-5.322717">
        <ele>2211.0</ele>
        <time>2015-07-25T13:47:38Z</time>
      </trkpt>
      <trkpt lat="40.427350" lon="-5.322850">
        <ele>2214.0</ele>
        <time>2015-07-25T13:47:40Z</time>
      </trkpt>
      <trkpt lat="40.427383" lon="-5.322967">
        <ele>2221.0</ele>
        <time>2015-07-25T13:47:42Z</time>
      </trkpt>
      <trkpt lat="40.427450" lon="-5.322967">
        <ele>2227.0</ele>
        <time>2015-07-25T13:47:44Z</time>
      </trkpt>
      <trkpt lat="40.427550" lon="-5.322900">
        <ele>2231.0</ele>
        <time>2015-07-25T13:47:46Z</time>
      </trkpt>
      <trkpt lat="40.427600" lon="-5.322700">
        <ele>2235.0</ele>
        <time>2015-07-25T13:47:48Z</time>
      </trkpt>
      <trkpt lat="40.427533" lon="-5.322417">
        <ele>2238.0</ele>
        <time>2015-07-25T13:47:50Z</time>
      </trkpt>
      <trkpt lat="40.427383" lon="-5.322167">
        <ele>2245.0</ele>
        <time>2015-07-25T13:47:52Z</time>
      </trkpt>
      <trkpt lat="40.427167" lon="-5.322050">
        <ele>2248.0</ele>
        <time>2015-07-25T13:47:54Z</time>
      </trkpt>
      <trkpt lat="40.426917" lon="-5.322083">
        <ele>2251.0</ele>
        <time>2015-07-25T13:47:56Z</time>
      </trkpt>
      <trkpt lat="40.426750" lon="-5.322267">
        <ele>2253.0</ele>
        <time>2015-07-25T13:47:58Z</time>
      </trkpt>
      <trkpt lat="40.426700" lon="-5.322483">
        <ele>2259.0</ele>
        <time>2015-07-25T13:48:00Z</time>
      </trkpt>
      <trkpt lat="40.426700" lon="-5.322617">
        <ele>2267.0</ele>
        <time>2015-07-25T13:48:02Z</time>
      </trkpt>
      <trkpt lat="40.426733" lon="-5.322700">
        <ele>2271.0</ele>
        <time>2015-07-25T13:48:04Z</time>
      </trkpt>
      <trkpt lat="40.426817" lon="-5.322750">
        <ele>2274.0</ele>
        <time>2015-07-25T13:48:06Z</time>
      </trkpt>
      <trkpt lat="40.426917" lon="-5.322650">
        <ele>2277.0</ele>
        <time>2015-07-25T13:48:08Z</time>
      </trkpt>
      <trkpt lat="40.426950" lon="-5.322383">
        <ele>2278.0</ele>
        <time>2015-07-25T13:48:10Z</time>
      </trkpt>
      <trkpt lat="40.426833" lon="-5.322050">
        <ele>2283.0</ele>
        <time>2015-07-25T13:48:12Z</time>
      </trkpt>
      <trkpt lat="40.426683" lon="-5.321833">
        <ele>2292.0</ele>
        <time>2015-07-25T13:48:14Z</time>
      </trkpt>
      <trkpt lat="40.426483" lon="-5.321733">
        <ele>2296.0</ele>
        <time>2015-07-25T13:48:16Z</time>
      </trkpt>
      <trkpt lat="40.426250" lon="-5.321700">
        <ele>2297.0</ele>
        <time>2015-07-25T13:48:18Z</time>
      </trkpt>
      <trkpt lat="40.426017" lon="-5.321800">
        <ele>2300.0</ele>
        <time>2015-07-25T13:48:20Z</time>
      </trkpt>
      <trkpt lat="40.425850" lon="-5.321983">
        <ele>2304.0</ele>
        <time>2015-07-25T13:48:22Z</time>
      </trkpt>
      <trkpt lat="40.425750" lon="-5.322167">
        <ele>2309.0</ele>
        <time>2015-07-25T13:48:24Z</time>
      </trkpt>
      <trkpt lat="40.425700" lon="-5.322333">
        <ele>2313.0</ele>
        <time>2015-07-25T13:48:26Z</time>
      </trkpt>
      <trkpt lat="40.425717" lon="-5.322483">
        <ele>2316.0</ele>
        <time>2015-07-25T13:48:28Z</time>
      </trkpt>
      <trkpt lat="40.425767" lon="-5.322583">
        <ele>2322.0</ele>
        <time>2015-07-25T13:48:30Z</time>
      </trkpt>
      <trkpt lat="40.425867" lon="-5.322600">
        <ele>2329.0</ele>
        <time>2015-07-25T13:48:32Z</time>
      </trkpt>
      <trkpt lat="40.425967" lon="-5.322533">
        <ele>2334.0</ele>
        <time>2015-07-25T13:48:34Z</time>
      </trkpt>
      <trkpt lat="40.426017" lon="-5.322333">
        <ele>2339.0</ele>
        <time>2015-07-25T13:48:36Z</time>
      </trkpt>
      <trkpt lat="40.425983" lon="-5.322067">
        <ele>2343.0</ele>
        <time>2015-07-25T13:48:38Z</time>
      </trkpt>
      <trkpt lat="40.425850" lon="-5.321817">
        <ele>2348.0</ele>
        <time>2015-07-25T13:48:40Z</time>
      </trkpt>
      <trkpt lat="40.425650" lon="-5.321650">
        <ele>2351.0</ele>
        <time>2015-07-25T13:48:42Z</time>
      </trkpt>
      <trkpt lat="40.425400" lon="-5.321550">
        <ele>2356.0</ele>
        <time>2015-07-25T13:48:44Z</time>
      </trkpt>
      <trkpt lat="40.425183" lon="-5.321600">
        <ele>2360.0</ele>
        <time>2015-07-25T13:48:46Z</time>
      </trkpt>
      <trkpt lat="40.425033" lon="-5.321767">
        <ele>2364.0</ele>
        <time>2015-07-25T13:48:48Z</time>
      </trkpt>
      <trkpt lat="40.424967" lon="-5.321950">
        <ele>2370.0</ele>
        <time>2015-07-25T13:48:50Z</time>
      </trkpt>
      <trkpt lat="40.424967" lon="-5.322100">
        <ele>2374.0</ele>
        <time>2015-07-25T13:48:52Z</time>
      </trkpt>
      <trkpt lat="40.425033" lon="-5.322200">
        <ele>2378.0</ele>
        <time>2015-07-25T13:48:54Z</time>
      </trkpt>
      <trkpt lat="40.425117" lon="-5.322217">
        <ele>2384.0</ele>
        <time>2015-07-25T13:48:56Z</time>
      </trkpt>
      <trkpt lat="40.425200" lon="-5.322133">
        <ele>2388.0</ele>
        <time>2015-07-25T13:48:58Z</time>
      </trkpt>
      <trkpt lat="40.425250" lon="-5.321917">
        <ele>2391.0</ele>
        <time>2015-07-25T13:49:00Z</time>
      </trkpt>
      <trkpt lat="40.425233" lon="-5.321667">
        <ele>2395.0</ele>
        <time>2015-07-25T13:49:02Z</time>
      </trkpt>
      <trkpt lat="40.425117" lon="-5.321433">
        <ele>2400.0</ele>
        <time>2015-07-25T13:49:04Z</time>
      </trkpt>
      <trkpt lat="40.424933" lon="-5.321250">
        <ele>2402.0</ele>
        <time>2015-07-25T13:49:06Z</time>
      </trkpt>
      <trkpt lat="40.424700" lon="-5.321167">
        <ele>2404.0</ele>
        <time>2015-07-25T13:49:08Z</time>
      </trkpt>
      <trkpt lat="40.424483" lon="-5.321217">
        <ele>2404.0</ele>
        <time>2015-07-25T13:49:10Z</time>
      </trkpt>
      <trkpt lat="40.424333" lon="-5.321383">
        <ele>2406.0</ele>
        <time>2015-07-25T13:49:12Z</time>
      </trkpt>
      <trkpt lat="40.424267" lon="-5.321533">
        <ele>2412.0</ele>
        <time>2015-07-25T13:49:14Z</time>
      </trkpt>
      <trkpt lat="40.424250" lon="-5.321650">
        <ele>2415.0</ele>
        <time>2015-07-25T13:49:16Z</time>
      </trkpt>
      <trkpt lat="40.424283" lon="-5.321767">
        <ele>2418.0</ele>
        <time>2015-07-25T13:49:18Z</time>
      </trkpt>
      <trkpt lat="40.424383" lon="-5.321783">
        <ele>2422.0</ele>
        <time>2015-07-25T13:49:20Z</time>
      </trkpt>
      <trkpt lat="40.424483" lon="-5.321717">
        <ele>2428.0</ele>
        <time>2015-07-25T13:49:22Z</time>
      </trkpt>
      <trkpt lat="40.424567" lon="-5.321583">
        <ele>2433.0</ele>
        <time>2015-07-25T13:49:24Z</time>
      </trkpt>
      <trkpt lat="40.424567" lon="-5.321400">
        <ele>2436.0</ele>
        <time>2015-07-25T13:49:26Z</time>
      </trkpt>
      <trkpt lat="40.424517" lon="-5.321150">
        <ele>2438.0</ele>
        <time>2015-07-25T13:49:28Z</time>
      </trkpt>
      <trkpt lat="40.424383" lon="-5.320933">
        <ele>2441.0</ele>
        <time>2015-07-25T13:49:30Z</time>
      </trkpt>
      <trkpt lat="40.424167" lon="-5.320817">
        <ele>2443.0</ele>
        <time>2015-07-25T13:49:32Z</time>
      </trkpt>
      <trkpt lat="40.423933" lon="-5.320800">
        <ele>2445.0</ele>
        <time>2015-07-25T13:49:34Z</time>
      </trkpt>
      <trkpt lat="40.423700" lon="-5.320883">
        <ele>2447.0</ele>
        <time>2015-07-25T13:49:36Z</time>
      </trkpt>
      <trkpt lat="40.423550" lon="-5.321033">
        <ele>2449.0</ele>
        <time>2015-07-25T13:49:38Z</time>
      </trkpt>
      <trkpt lat="40.423450" lon="-5.321233">
        <ele>2452.0</ele>
        <time>2015-07-25T13:49:40Z</time>
      </trkpt>
      <trkpt lat="40.423417" lon="-5.321383">
        <ele>2460.0</ele>
        <time>2015-07-25T13:49:42Z</time>
      </trkpt>
      <trkpt lat="40.423400" lon="-5.321500">
        <ele>2464.0</ele>
        <time>2015-07-25T13:49:44Z</time>
      </trkpt>
      <trkpt lat="40.423450" lon="-5.321633">
        <ele>2464.0</ele>
        <time>2015-07-25T13:49:46Z</time>
      </trkpt>
      <trkpt lat="40.423550" lon="-5.321700">
        <ele>2467.0</ele>
        <time>2015-07-25T13:49:48Z</time>
      </trkpt>
      <trkpt lat="40.423633" lon="-5.321667">
        <ele>2470.0</ele>
        <time>2015-07-25T13:49:50Z</time>
      </trkpt>
      <trkpt lat="40.423717" lon="-5.321550">
        <ele>2470.0</ele>
        <time>2015-07-25T13:49:52Z</time>
      </trkpt>
      <trkpt lat="40.423767" lon="-5.321317">
        <ele>2468.0</ele>
        <time>2015-07-25T13:49:54Z</time>
      </trkpt>
      <trkpt lat="40.423717" lon="-5.321050">
        <ele>2472.0</ele>
        <time>2015-07-25T13:49:56Z</time>
      </trkpt>
      <trkpt lat="40.423617" lon="-5.320833">
        <ele>2476.0</ele>
        <time>2015-07-25T13:49:58Z</time>
      </trkpt>
      <trkpt lat="40.423417" lon="-5.320667">
        <ele>2476.0</ele>
        <time>2015-07-25T13:50:00Z</time>
      </trkpt>
      <trkpt lat="40.423167" lon="-5.320617">
        <ele>2478.0</ele>
        <time>2015-07-25T13:50:02Z</time>
      </trkpt>
      <trkpt lat="40.422967" lon="-5.320733">
        <ele>2480.0</ele>
        <time>2015-07-25T13:50:04Z</time>
      </trkpt>
      <trkpt lat="40.422833" lon="-5.320933">
        <ele>2484.0</ele>
        <time>2015-07-25T13:50:06Z</time>
      </trkpt>
      <trkpt lat="40.422783" lon="-5.321100">
        <ele>2490.0</ele>
        <time>2015-07-25T13:50:08Z</time>
      </trkpt>
      <trkpt lat="40.422800" lon="-5.321217">
        <ele>2491.0</ele>
        <time>2015-07-25T13:50:10Z</time>
      </trkpt>
      <trkpt lat="40.422850" lon="-5.321333">
        <ele>2491.0</ele>
        <time>2015-07-25T13:50:12Z</time>
      </trkpt>
      <trkpt lat="40.422950" lon="-5.321367">
        <ele>2492.0</ele>
        <time>2015-07-25T13:50:14Z</time>
      </trkpt>
      <trkpt lat="40.423067" lon="-5.321300">
        <ele>2494.0</ele>
        <time>2015-07-25T13:50:16Z</time>
      </trkpt>
      <trkpt lat="40.423150" lon="-5.321117">
        <ele>2496.0</ele>
        <time>2015-07-25T13:50:18Z</time>
      </trkpt>
      <trkpt lat="40.423150" lon="-5.320883">
        <ele>2495.0</ele>
        <time>2015-07-25T13:50:20Z</time>
      </trkpt>
      <trkpt lat="40.423050" lon="-5.320617">
        <ele>2494.0</ele>
        <time>2015-07-25T13:50:22Z</time>
      </trkpt>
      <trkpt lat="40.422867" lon="-5.320433">
        <ele>2496.0</ele>
        <time>2015-07-25T13:50:24Z</time>
      </trkpt>
      <trkpt lat="40.422633" lon="-5.320367">
        <ele>2495.0</ele>
        <time>2015-07-25T13:50:26Z</time>
      </trkpt>
      <trkpt lat="40.422417" lon="-5.320433">
        <ele>2494.0</ele>
        <time>2015-07-25T13:50:28Z</time>
      </trkpt>
      <trkpt lat="40.422267" lon="-5.320633">
        <ele>2493.0</ele>
        <time>2015-07-25T13:50:30Z</time>
      </trkpt>
      <trkpt lat="40.422167" lon="-5.320817">
        <ele>2496.0</ele>
        <time>2015-07-25T13:50:32Z</time>
      </trkpt>
      <trkpt lat="40.422067" lon="-5.321000">
        <ele>2498.0</ele>
        <time>2015-07-25T13:50:34Z</time>
      </trkpt>
      <trkpt lat="40.421967" lon="-5.321183">
        <ele>2498.0</ele>
        <time>2015-07-25T13:50:36Z</time>
      </trkpt>
      <trkpt lat="40.421867" lon="-5.321400">
        <ele>2499.0</ele>
        <time>2015-07-25T13:50:38Z</time>
      </trkpt>
      <trkpt lat="40.421750" lon="-5.321633">
        <ele>2500.0</ele>
        <time>2015-07-25T13:50:40Z</time>
      </trkpt>
      <trkpt lat="40.421667" lon="-5.321850">
        <ele>2503.0</ele>
        <time>2015-07-25T13:50:42Z</time>
      </trkpt>
      <trkpt lat="40.421617" lon="-5.322033">
        <ele>2507.0</ele>
        <time>2015-07-25T13:50:44Z</time>
      </trkpt>
      <trkpt lat="40.421650" lon="-5.322167">
        <ele>2506.0</ele>
        <time>2015-07-25T13:50:46Z</time>
      </trkpt>
      <trkpt lat="40.421733" lon="-5.322333">
        <ele>2506.0</ele>
        <time>2015-07-25T13:50:48Z</time>
      </trkpt>
      <trkpt lat="40.421800" lon="-5.322500">
        <ele>2508.0</ele>
        <time>2015-07-25T13:50:50Z</time>
      </trkpt>
      <trkpt lat="40.421867" lon="-5.322633">
        <ele>2511.0</ele>
        <time>2015-07-25T13:50:52Z</time>
      </trkpt>
      <trkpt lat="40.421933" lon="-5.322767">
        <ele>2515.0</ele>
        <time>2015-07-25T13:50:54Z</time>
      </trkpt>
      <trkpt lat="40.421967" lon="-5.322917">
        <ele>2516.0</ele>
        <time>2015-07-25T13:50:56Z</time>
      </trkpt>
      <trkpt lat="40.422033" lon="-5.323067">
        <ele>2519.0</ele>
        <time>2015-07-25T13:50:58Z</time>
      </trkpt>
      <trkpt lat="40.422133" lon="-5.323183">
        <ele>2523.0</ele>
        <time>2015-07-25T13:51:00Z</time>
      </trkpt>
      <trkpt lat="40.422250" lon="-5.323250">
        <ele>2528.0</ele>
        <time>2015-07-25T13:51:02Z</time>
      </trkpt>
      <trkpt lat="40.422400" lon="-5.323233">
        <ele>2534.0</ele>
        <time>2015-07-25T13:51:04Z</time>
      </trkpt>
      <trkpt lat="40.422517" lon="-5.323100">
        <ele>2540.0</ele>
        <time>2015-07-25T13:51:06Z</time>
      </trkpt>
      <trkpt lat="40.422583" lon="-5.322883">
        <ele>2545.0</ele>
        <time>2015-07-25T13:51:08Z</time>
      </trkpt>
      <trkpt lat="40.422533" lon="-5.322633">
        <ele>2546.0</ele>
        <time>2015-07-25T13:51:10Z</time>
      </trkpt>
      <trkpt lat="40.422400" lon="-5.322367">
        <ele>2546.0</ele>
        <time>2015-07-25T13:51:12Z</time>
      </trkpt>
      <trkpt lat="40.422183" lon="-5.322217">
        <ele>2548.0</ele>
        <time>2015-07-25T13:51:14Z</time>
      </trkpt>
      <trkpt lat="40.421967" lon="-5.322150">
        <ele>2550.0</ele>
        <time>2015-07-25T13:51:16Z</time>
      </trkpt>
      <trkpt lat="40.421750" lon="-5.322217">
        <ele>2549.0</ele>
        <time>2015-07-25T13:51:18Z</time>
      </trkpt>
      <trkpt lat="40.421600" lon="-5.322400">
        <ele>2548.0</ele>
        <time>2015-07-25T13:51:20Z</time>
      </trkpt>
      <trkpt lat="40.421533" lon="-5.322617">
        <ele>2553.0</ele>
        <time>2015-07-25T13:51:22Z</time>
      </trkpt>
      <trkpt lat="40.421533" lon="-5.322800">
        <ele>2559.0</ele>
        <time>2015-07-25T13:51:24Z</time>
      </trkpt>
      <trkpt lat="40.421550" lon="-5.322967">
        <ele>2562.0</ele>
        <time>2015-07-25T13:51:26Z</time>
      </trkpt>
      <trkpt lat="40.421617" lon="-5.323150">
        <ele>2567.0</ele>
        <time>2015-07-25T13:51:28Z</time>
      </trkpt>
      <trkpt lat="40.421683" lon="-5.323333">
        <ele>2573.0</ele>
        <time>2015-07-25T13:51:30Z</time>
      </trkpt>
      <trkpt lat="40.421717" lon="-5.323517">
        <ele>2576.0</ele>
        <time>2015-07-25T13:51:32Z</time>
      </trkpt>
      <trkpt lat="40.421767" lon="-5.323717">
        <ele>2578.0</ele>
        <time>2015-07-25T13:51:34Z</time>
      </trkpt>
      <trkpt lat="40.421817" lon="-5.323900">
        <ele>2580.0</ele>
        <time>2015-07-25T13:51:36Z</time>
      </trkpt>
      <trkpt lat="40.421867" lon="-5.324117">
        <ele>2582.0</ele>
        <time>2015-07-25T13:51:38Z</time>
      </trkpt>
      <trkpt lat="40.421917" lon="-5.324333">
        <ele>2586.0</ele>
        <time>2015-07-25T13:51:40Z</time>
      </trkpt>
      <trkpt lat="40.421983" lon="-5.324467">
        <ele>2591.0</ele>
        <time>2015-07-25T13:51:42Z</time>
      </trkpt>
      <trkpt lat="40.422067" lon="-5.324617">
        <ele>2592.0</ele>
        <time>2015-07-25T13:51:44Z</time>
      </trkpt>
      <trkpt lat="40.422167" lon="-5.324800">
        <ele>2593.0</ele>
        <time>2015-07-25T13:51:46Z</time>
      </trkpt>
      <trkpt lat="40.422250" lon="-5.324967">
        <ele>2598.0</ele>
        <time>2015-07-25T13:51:48Z</time>
      </trkpt>
      <trkpt lat="40.422317" lon="-5.325100">
        <ele>2599.0</ele>
        <time>2015-07-25T13:51:50Z</time>
      </trkpt>
      <trkpt lat="40.422400" lon="-5.325283">
        <ele>2598.0</ele>
        <time>2015-07-25T13:51:52Z</time>
      </trkpt>
      <trkpt lat="40.422450" lon="-5.325467">
        <ele>2599.0</ele>
        <time>2015-07-25T13:51:54Z</time>
      </trkpt>
      <trkpt lat="40.422500" lon="-5.325633">
        <ele>2600.0</ele>
        <time>2015-07-25T13:51:56Z</time>
      </trkpt>
      <trkpt lat="40.422567" lon="-5.325833">
        <ele>2599.0</ele>
        <time>2015-07-25T13:51:58Z</time>
      </trkpt>
      <trkpt lat="40.422617" lon="-5.326050">
        <ele>2601.0</ele>
        <time>2015-07-25T13:52:00Z</time>
      </trkpt>
      <trkpt lat="40.422650" lon="-5.326267">
        <ele>2604.0</ele>
        <time>2015-07-25T13:52:02Z</time>
      </trkpt>
      <trkpt lat="40.422683" lon="-5.326483">
        <ele>2605.0</ele>
        <time>2015-07-25T13:52:04Z</time>
      </trkpt>
      <trkpt lat="40.422700" lon="-5.326733">
        <ele>2605.0</ele>
        <time>2015-07-25T13:52:06Z</time>
      </trkpt>
      <trkpt lat="40.422750" lon="-5.326983">
        <ele>2607.0</ele>
        <time>2015-07-25T13:52:08Z</time>
      </trkpt>
      <trkpt lat="40.422783" lon="-5.327217">
        <ele>2609.0</ele>
        <time>2015-07-25T13:52:10Z</time>
      </trkpt>
      <trkpt lat="40.422783" lon="-5.327467">
        <ele>2610.0</ele>
        <time>2015-07-25T13:52:12Z</time>
      </trkpt>
      <trkpt lat="40.422833" lon="-5.327733">
        <ele>2611.0</ele>
        <time>2015-07-25T13:52:14Z</time>
      </trkpt>
      <trkpt lat="40.422867" lon="-5.328000">
        <ele>2615.0</ele>
        <time>2015-07-25T13:52:16Z</time>
      </trkpt>
      <trkpt lat="40.422883" lon="-5.328250">
        <ele>2620.0</ele>
        <time>2015-07-25T13:52:18Z</time>
      </trkpt>
      <trkpt lat="40.422917" lon="-5.328500">
        <ele>2621.0</ele>
        <time>2015-07-25T13:52:20Z</time>
      </trkpt>
      <trkpt lat="40.423000" lon="-5.328767">
        <ele>2624.0</ele>
        <time>2015-07-25T13:52:22Z</time>
      </trkpt>
      <trkpt lat="40.423083" lon="-5.329050">
        <ele>2630.0</ele>
        <time>2015-07-25T13:52:24Z</time>
      </trkpt>
      <trkpt lat="40.423100" lon="-5.329333">
        <ele>2637.0</ele>
        <time>2015-07-25T13:52:26Z</time>
      </trkpt>
      <trkpt lat="40.423150" lon="-5.329600">
        <ele>2642.0</ele>
        <time>2015-07-25T13:52:28Z</time>
      </trkpt>
      <trkpt lat="40.423233" lon="-5.329867">
        <ele>2644.0</ele>
        <time>2015-07-25T13:52:30Z</time>
      </trkpt>
      <trkpt lat="40.423317" lon="-5.330133">
        <ele>2646.0</ele>
        <time>2015-07-25T13:52:32Z</time>
      </trkpt>
      <trkpt lat="40.423417" lon="-5.330317">
        <ele>2648.0</ele>
        <time>2015-07-25T13:52:34Z</time>
      </trkpt>
      <trkpt lat="40.423533" lon="-5.330517">
        <ele>2645.0</ele>
        <time>2015-07-25T13:52:36Z</time>
      </trkpt>
      <trkpt lat="40.423650" lon="-5.330800">
        <ele>2644.0</ele>
        <time>2015-07-25T13:52:38Z</time>
      </trkpt>
      <trkpt lat="40.423717" lon="-5.331067">
        <ele>2648.0</ele>
        <time>2015-07-25T13:52:40Z</time>
      </trkpt>
      <trkpt lat="40.423800" lon="-5.331250">
        <ele>2651.0</ele>
        <time>2015-07-25T13:52:42Z</time>
      </trkpt>
      <trkpt lat="40.423900" lon="-5.331433">
        <ele>2649.0</ele>
        <time>2015-07-25T13:52:44Z</time>
      </trkpt>
      <trkpt lat="40.423983" lon="-5.331650">
        <ele>2647.0</ele>
        <time>2015-07-25T13:52:46Z</time>
      </trkpt>
      <trkpt lat="40.424050" lon="-5.331817">
        <ele>2645.0</ele>
        <time>2015-07-25T13:52:48Z</time>
      </trkpt>
      <trkpt lat="40.424133" lon="-5.331983">
        <ele>2641.0</ele>
        <time>2015-07-25T13:52:50Z</time>
      </trkpt>
      <trkpt lat="40.424217" lon="-5.332150">
        <ele>2639.0</ele>
        <time>2015-07-25T13:52:52Z</time>
      </trkpt>
      <trkpt lat="40.424300" lon="-5.332317">
        <ele>2638.0</ele>
        <time>2015-07-25T13:52:54Z</time>
      </trkpt>
      <trkpt lat="40.424383" lon="-5.332483">
        <ele>2637.0</ele>
        <time>2015-07-25T13:52:56Z</time>
      </trkpt>
      <trkpt lat="40.424500" lon="-5.332633">
        <ele>2640.0</ele>
        <time>2015-07-25T13:52:58Z</time>
      </trkpt>
      <trkpt lat="40.424533" lon="-5.332700">
        <ele>2640.0</ele>
        <time>2015-07-25T13:52:59Z</time>
      </trkpt>
      <trkpt lat="40.424600" lon="-5.332850">
        <ele>2639.0</ele>
        <time>2015-07-25T13:53:01Z</time>
      </trkpt>
      <trkpt lat="40.424700" lon="-5.333033">
        <ele>2637.0</ele>
        <time>2015-07-25T13:53:03Z</time>
      </trkpt>
      <trkpt lat="40.424783" lon="-5.333217">
        <ele>2639.0</ele>
        <time>2015-07-25T13:53:05Z</time>
      </trkpt>
      <trkpt lat="40.424833" lon="-5.333367">
        <ele>2641.0</ele>
        <time>2015-07-25T13:53:07Z</time>
      </trkpt>
      <trkpt lat="40.424900" lon="-5.333500">
        <ele>2639.0</ele>
        <time>2015-07-25T13:53:09Z</time>
      </trkpt>
      <trkpt lat="40.424933" lon="-5.333683">
        <ele>2638.0</ele>
        <time>2015-07-25T13:53:11Z</time>
      </trkpt>
      <trkpt lat="40.424983" lon="-5.333850">
        <ele>2637.0</ele>
        <time>2015-07-25T13:53:13Z</time>
      </trkpt>
      <trkpt lat="40.425033" lon="-5.334017">
        <ele>2635.0</ele>
        <time>2015-07-25T13:53:15Z</time>
      </trkpt>
      <trkpt lat="40.425050" lon="-5.334183">
        <ele>2633.0</ele>
        <time>2015-07-25T13:53:17Z</time>
      </trkpt>
      <trkpt lat="40.425033" lon="-5.334367">
        <ele>2632.0</ele>
        <time>2015-07-25T13:53:19Z</time>
      </trkpt>
      <trkpt lat="40.425050" lon="-5.334517">
        <ele>2629.0</ele>
        <time>2015-07-25T13:53:21Z</time>
      </trkpt>
      <trkpt lat="40.425050" lon="-5.334717">
        <ele>2624.0</ele>
        <time>2015-07-25T13:53:23Z</time>
      </trkpt>
      <trkpt lat="40.425067" lon="-5.334933">
        <ele>2623.0</ele>
        <time>2015-07-25T13:53:25Z</time>
      </trkpt>
      <trkpt lat="40.425083" lon="-5.335117">
        <ele>2622.0</ele>
        <time>2015-07-25T13:53:27Z</time>
      </trkpt>
      <trkpt lat="40.425100" lon="-5.335317">
        <ele>2614.0</ele>
        <time>2015-07-25T13:53:29Z</time>
      </trkpt>
      <trkpt lat="40.425133" lon="-5.335567">
        <ele>2604.0</ele>
        <time>2015-07-25T13:53:31Z</time>
      </trkpt>
      <trkpt lat="40.425167" lon="-5.335800">
        <ele>2598.0</ele>
        <time>2015-07-25T13:53:33Z</time>
      </trkpt>
      <trkpt lat="40.425217" lon="-5.336000">
        <ele>2595.0</ele>
        <time>2015-07-25T13:53:35Z</time>
      </trkpt>
      <trkpt lat="40.425217" lon="-5.336200">
        <ele>2590.0</ele>
        <time>2015-07-25T13:53:37Z</time>
      </trkpt>
      <trkpt lat="40.425250" lon="-5.336400">
        <ele>2584.0</ele>
        <time>2015-07-25T13:53:39Z</time>
      </trkpt>
      <trkpt lat="40.425317" lon="-5.336600">
        <ele>2579.0</ele>
        <time>2015-07-25T13:53:41Z</time>
      </trkpt>
      <trkpt lat="40.425383" lon="-5.336783">
        <ele>2574.0</ele>
        <time>2015-07-25T13:53:43Z</time>
      </trkpt>
      <trkpt lat="40.425483" lon="-5.336983">
        <ele>2568.0</ele>
        <time>2015-07-25T13:53:45Z</time>
      </trkpt>
      <trkpt lat="40.425583" lon="-5.337167">
        <ele>2564.0</ele>
        <time>2015-07-25T13:53:47Z</time>
      </trkpt>
      <trkpt lat="40.425683" lon="-5.337383">
        <ele>2559.0</ele>
        <time>2015-07-25T13:53:49Z</time>
      </trkpt>
      <trkpt lat="40.425767" lon="-5.337600">
        <ele>2556.0</ele>
        <time>2015-07-25T13:53:51Z</time>
      </trkpt>
      <trkpt lat="40.425833" lon="-5.337800">
        <ele>2554.0</ele>
        <time>2015-07-25T13:53:53Z</time>
      </trkpt>
      <trkpt lat="40.425900" lon="-5.337983">
        <ele>2551.0</ele>
        <time>2015-07-25T13:53:55Z</time>
      </trkpt>
      <trkpt lat="40.425983" lon="-5.338183">
        <ele>2551.0</ele>
        <time>2015-07-25T13:53:57Z</time>
      </trkpt>
      <trkpt lat="40.426050" lon="-5.338350">
        <ele>2548.0</ele>
        <time>2015-07-25T13:53:59Z</time>
      </trkpt>
      <trkpt lat="40.426100" lon="-5.338567">
        <ele>2545.0</ele>
        <time>2015-07-25T13:54:01Z</time>
      </trkpt>
      <trkpt lat="40.426183" lon="-5.338783">
        <ele>2546.0</ele>
        <time>2015-07-25T13:54:03Z</time>
      </trkpt>
      <trkpt lat="40.426267" lon="-5.339000">
        <ele>2549.0</ele>
        <time>2015-07-25T13:54:05Z</time>
      </trkpt>
      <trkpt lat="40.426350" lon="-5.339183">
        <ele>2552.0</ele>
        <time>2015-07-25T13:54:07Z</time>
      </trkpt>
      <trkpt lat="40.426433" lon="-5.339383">
        <ele>2552.0</ele>
        <time>2015-07-25T13:54:09Z</time>
      </trkpt>
      <trkpt lat="40.426517" lon="-5.339600">
        <ele>2553.0</ele>
        <time>2015-07-25T13:54:11Z</time>
      </trkpt>
      <trkpt lat="40.426600" lon="-5.339833">
        <ele>2554.0</ele>
        <time>2015-07-25T13:54:13Z</time>
      </trkpt>
      <trkpt lat="40.426683" lon="-5.340050">
        <ele>2554.0</ele>
        <time>2015-07-25T13:54:15Z</time>
      </trkpt>
      <trkpt lat="40.426767" lon="-5.340233">
        <ele>2556.0</ele>
        <time>2015-07-25T13:54:17Z</time>
      </trkpt>
      <trkpt lat="40.426900" lon="-5.340367">
        <ele>2556.0</ele>
        <time>2015-07-25T13:54:19Z</time>
      </trkpt>
      <trkpt lat="40.427050" lon="-5.340533">
        <ele>2554.0</ele>
        <time>2015-07-25T13:54:21Z</time>
      </trkpt>
      <trkpt lat="40.427217" lon="-5.340683">
        <ele>2554.0</ele>
        <time>2015-07-25T13:54:23Z</time>
      </trkpt>
      <trkpt lat="40.427333" lon="-5.340817">
        <ele>2557.0</ele>
        <time>2015-07-25T13:54:25Z</time>
      </trkpt>
      <trkpt lat="40.427433" lon="-5.340950">
        <ele>2557.0</ele>
        <time>2015-07-25T13:54:27Z</time>
      </trkpt>
      <trkpt lat="40.427533" lon="-5.341117">
        <ele>2557.0</ele>
        <time>2015-07-25T13:54:29Z</time>
      </trkpt>
      <trkpt lat="40.427617" lon="-5.341283">
        <ele>2557.0</ele>
        <time>2015-07-25T13:54:31Z</time>
      </trkpt>
      <trkpt lat="40.427683" lon="-5.341483">
        <ele>2556.0</ele>
        <time>2015-07-25T13:54:33Z</time>
      </trkpt>
      <trkpt lat="40.427733" lon="-5.341683">
        <ele>2556.0</ele>
        <time>2015-07-25T13:54:35Z</time>
      </trkpt>
      <trkpt lat="40.427800" lon="-5.341883">
        <ele>2556.0</ele>
        <time>2015-07-25T13:54:37Z</time>
      </trkpt>
      <trkpt lat="40.427867" lon="-5.342083">
        <ele>2557.0</ele>
        <time>2015-07-25T13:54:39Z</time>
      </trkpt>
      <trkpt lat="40.427950" lon="-5.342283">
        <ele>2556.0</ele>
        <time>2015-07-25T13:54:41Z</time>
      </trkpt>
      <trkpt lat="40.428033" lon="-5.342483">
        <ele>2556.0</ele>
        <time>2015-07-25T13:54:43Z</time>
      </trkpt>
      <trkpt lat="40.428117" lon="-5.342667">
        <ele>2555.0</ele>
        <time>2015-07-25T13:54:45Z</time>
      </trkpt>
      <trkpt lat="40.428200" lon="-5.342883">
        <ele>2554.0</ele>
        <time>2015-07-25T13:54:47Z</time>
      </trkpt>
      <trkpt lat="40.428283" lon="-5.343083">
        <ele>2554.0</ele>
        <time>2015-07-25T13:54:49Z</time>
      </trkpt>
      <trkpt lat="40.428350" lon="-5.343283">
        <ele>2553.0</ele>
        <time>2015-07-25T13:54:51Z</time>
      </trkpt>
      <trkpt lat="40.428417" lon="-5.343500">
        <ele>2551.0</ele>
        <time>2015-07-25T13:54:53Z</time>
      </trkpt>
      <trkpt lat="40.428483" lon="-5.343700">
        <ele>2549.0</ele>
        <time>2015-07-25T13:54:55Z</time>
      </trkpt>
      <trkpt lat="40.428533" lon="-5.343917">
        <ele>2548.0</ele>
        <time>2015-07-25T13:54:57Z</time>
      </trkpt>
      <trkpt lat="40.428600" lon="-5.344117">
        <ele>2547.0</ele>
        <time>2015-07-25T13:54:59Z</time>
      </trkpt>
      <trkpt lat="40.428683" lon="-5.344333">
        <ele>2543.0</ele>
        <time>2015-07-25T13:55:01Z</time>
      </trkpt>
      <trkpt lat="40.428783" lon="-5.344533">
        <ele>2540.0</ele>
        <time>2015-07-25T13:55:03Z</time>
      </trkpt>
      <trkpt lat="40.428883" lon="-5.344750">
        <ele>2538.0</ele>
        <time>2015-07-25T13:55:05Z</time>
      </trkpt>
      <trkpt lat="40.429000" lon="-5.344950">
        <ele>2535.0</ele>
        <time>2015-07-25T13:55:07Z</time>
      </trkpt>
      <trkpt lat="40.429100" lon="-5.345150">
        <ele>2531.0</ele>
        <time>2015-07-25T13:55:09Z</time>
      </trkpt>
      <trkpt lat="40.429183" lon="-5.345383">
        <ele>2528.0</ele>
        <time>2015-07-25T13:55:11Z</time>
      </trkpt>
      <trkpt lat="40.429283" lon="-5.345600">
        <ele>2525.0</ele>
        <time>2015-07-25T13:55:13Z</time>
      </trkpt>
      <trkpt lat="40.429367" lon="-5.345833">
        <ele>2522.0</ele>
        <time>2015-07-25T13:55:15Z</time>
      </trkpt>
      <trkpt lat="40.429450" lon="-5.346067">
        <ele>2520.0</ele>
        <time>2015-07-25T13:55:17Z</time>
      </trkpt>
      <trkpt lat="40.429533" lon="-5.346283">
        <ele>2516.0</ele>
        <time>2015-07-25T13:55:19Z</time>
      </trkpt>
      <trkpt lat="40.429617" lon="-5.346500">
        <ele>2510.0</ele>
        <time>2015-07-25T13:55:21Z</time>
      </trkpt>
      <trkpt lat="40.429683" lon="-5.346767">
        <ele>2504.0</ele>
        <time>2015-07-25T13:55:23Z</time>
      </trkpt>
      <trkpt lat="40.429767" lon="-5.347000">
        <ele>2500.0</ele>
        <time>2015-07-25T13:55:25Z</time>
      </trkpt>
      <trkpt lat="40.429817" lon="-5.347183">
        <ele>2495.0</ele>
        <time>2015-07-25T13:55:27Z</time>
      </trkpt>
      <trkpt lat="40.429917" lon="-5.347400">
        <ele>2484.0</ele>
        <time>2015-07-25T13:55:29Z</time>
      </trkpt>
      <trkpt lat="40.430017" lon="-5.347650">
        <ele>2474.0</ele>
        <time>2015-07-25T13:55:31Z</time>
      </trkpt>
      <trkpt lat="40.430117" lon="-5.347900">
        <ele>2469.0</ele>
        <time>2015-07-25T13:55:33Z</time>
      </trkpt>
      <trkpt lat="40.430217" lon="-5.348117">
        <ele>2463.0</ele>
        <time>2015-07-25T13:55:35Z</time>
      </trkpt>
      <trkpt lat="40.430300" lon="-5.348333">
        <ele>2456.0</ele>
        <time>2015-07-25T13:55:37Z</time>
      </trkpt>
      <trkpt lat="40.430383" lon="-5.348550">
        <ele>2450.0</ele>
        <time>2015-07-25T13:55:39Z</time>
      </trkpt>
      <trkpt lat="40.430450" lon="-5.348800">
        <ele>2445.0</ele>
        <time>2015-07-25T13:55:41Z</time>
      </trkpt>
      <trkpt lat="40.430500" lon="-5.349033">
        <ele>2443.0</ele>
        <time>2015-07-25T13:55:43Z</time>
      </trkpt>
      <trkpt lat="40.430533" lon="-5.349267">
        <ele>2438.0</ele>
        <time>2015-07-25T13:55:45Z</time>
      </trkpt>
      <trkpt lat="40.430583" lon="-5.349517">
        <ele>2434.0</ele>
        <time>2015-07-25T13:55:47Z</time>
      </trkpt>
      <trkpt lat="40.430633" lon="-5.349750">
        <ele>2431.0</ele>
        <time>2015-07-25T13:55:49Z</time>
      </trkpt>
      <trkpt lat="40.430683" lon="-5.349950">
        <ele>2426.0</ele>
        <time>2015-07-25T13:55:51Z</time>
      </trkpt>
      <trkpt lat="40.430783" lon="-5.350183">
        <ele>2420.0</ele>
        <time>2015-07-25T13:55:53Z</time>
      </trkpt>
      <trkpt lat="40.430867" lon="-5.350383">
        <ele>2418.0</ele>
        <time>2015-07-25T13:55:55Z</time>
      </trkpt>
      <trkpt lat="40.430933" lon="-5.350567">
        <ele>2415.0</ele>
        <time>2015-07-25T13:55:57Z</time>
      </trkpt>
      <trkpt lat="40.431017" lon="-5.350767">
        <ele>2413.0</ele>
        <time>2015-07-25T13:55:59Z</time>
      </trkpt>
      <trkpt lat="40.431083" lon="-5.350967">
        <ele>2412.0</ele>
        <time>2015-07-25T13:56:01Z</time>
      </trkpt>
      <trkpt lat="40.431183" lon="-5.351167">
        <ele>2409.0</ele>
        <time>2015-07-25T13:56:03Z</time>
      </trkpt>
      <trkpt lat="40.431267" lon="-5.351367">
        <ele>2407.0</ele>
        <time>2015-07-25T13:56:05Z</time>
      </trkpt>
      <trkpt lat="40.431350" lon="-5.351567">
        <ele>2405.0</ele>
        <time>2015-07-25T13:56:07Z</time>
      </trkpt>
      <trkpt lat="40.431433" lon="-5.351767">
        <ele>2403.0</ele>
        <time>2015-07-25T13:56:09Z</time>
      </trkpt>
      <trkpt lat="40.431483" lon="-5.351967">
        <ele>2401.0</ele>
        <time>2015-07-25T13:56:11Z</time>
      </trkpt>
      <trkpt lat="40.431533" lon="-5.352200">
        <ele>2396.0</ele>
        <time>2015-07-25T13:56:13Z</time>
      </trkpt>
      <trkpt lat="40.431583" lon="-5.352467">
        <ele>2391.0</ele>
        <time>2015-07-25T13:56:15Z</time>
      </trkpt>
      <trkpt lat="40.431617" lon="-5.352683">
        <ele>2388.0</ele>
        <time>2015-07-25T13:56:17Z</time>
      </trkpt>
      <trkpt lat="40.431633" lon="-5.352933">
        <ele>2383.0</ele>
        <time>2015-07-25T13:56:19Z</time>
      </trkpt>
      <trkpt lat="40.431650" lon="-5.353167">
        <ele>2381.0</ele>
        <time>2015-07-25T13:56:21Z</time>
      </trkpt>
      <trkpt lat="40.431683" lon="-5.353383">
        <ele>2379.0</ele>
        <time>2015-07-25T13:56:23Z</time>
      </trkpt>
      <trkpt lat="40.431700" lon="-5.353600">
        <ele>2375.0</ele>
        <time>2015-07-25T13:56:25Z</time>
      </trkpt>
      <trkpt lat="40.431750" lon="-5.353817">
        <ele>2372.0</ele>
        <time>2015-07-25T13:56:27Z</time>
      </trkpt>
      <trkpt lat="40.431800" lon="-5.354033">
        <ele>2371.0</ele>
        <time>2015-07-25T13:56:29Z</time>
      </trkpt>
      <trkpt lat="40.431867" lon="-5.354233">
        <ele>2370.0</ele>
        <time>2015-07-25T13:56:31Z</time>
      </trkpt>
      <trkpt lat="40.431933" lon="-5.354433">
        <ele>2370.0</ele>
        <time>2015-07-25T13:56:33Z</time>
      </trkpt>
      <trkpt lat="40.431983" lon="-5.354633">
        <ele>2368.0</ele>
        <time>2015-07-25T13:56:35Z</time>
      </trkpt>
      <trkpt lat="40.432033" lon="-5.354850">
        <ele>2366.0</ele>
        <time>2015-07-25T13:56:37Z</time>
      </trkpt>
      <trkpt lat="40.432100" lon="-5.355033">
        <ele>2364.0</ele>
        <time>2015-07-25T13:56:39Z</time>
      </trkpt>
      <trkpt lat="40.432167" lon="-5.355200">
        <ele>2362.0</ele>
        <time>2015-07-25T13:56:41Z</time>
      </trkpt>
      <trkpt lat="40.432250" lon="-5.355400">
        <ele>2360.0</ele>
        <time>2015-07-25T13:56:43Z</time>
      </trkpt>
      <trkpt lat="40.432317" lon="-5.355600">
        <ele>2359.0</ele>
        <time>2015-07-25T13:56:45Z</time>
      </trkpt>
      <trkpt lat="40.432383" lon="-5.355783">
        <ele>2358.0</ele>
        <time>2015-07-25T13:56:47Z</time>
      </trkpt>
      <trkpt lat="40.432450" lon="-5.355983">
        <ele>2355.0</ele>
        <time>2015-07-25T13:56:49Z</time>
      </trkpt>
      <trkpt lat="40.432517" lon="-5.356217">
        <ele>2352.0</ele>
        <time>2015-07-25T13:56:51Z</time>
      </trkpt>
      <trkpt lat="40.432583" lon="-5.356433">
        <ele>2350.0</ele>
        <time>2015-07-25T13:56:53Z</time>
      </trkpt>
      <trkpt lat="40.432633" lon="-5.356650">
        <ele>2348.0</ele>
        <time>2015-07-25T13:56:55Z</time>
      </trkpt>
      <trkpt lat="40.432667" lon="-5.356833">
        <ele>2345.0</ele>
        <time>2015-07-25T13:56:57Z</time>
      </trkpt>
      <trkpt lat="40.432700" lon="-5.357033">
        <ele>2341.0</ele>
        <time>2015-07-25T13:56:59Z</time>
      </trkpt>
      <trkpt lat="40.432750" lon="-5.357283">
        <ele>2336.0</ele>
        <time>2015-07-25T13:57:01Z</time>
      </trkpt>
      <trkpt lat="40.432767" lon="-5.357533">
        <ele>2334.0</ele>
        <time>2015-07-25T13:57:03Z</time>
      </trkpt>
      <trkpt lat="40.432783" lon="-5.357767">
        <ele>2335.0</ele>
        <time>2015-07-25T13:57:05Z</time>
      </trkpt>
      <trkpt lat="40.432817" lon="-5.357950">
        <ele>2332.0</ele>
        <time>2015-07-25T13:57:07Z</time>
      </trkpt>
      <trkpt lat="40.432850" lon="-5.358200">
        <ele>2326.0</ele>
        <time>2015-07-25T13:57:09Z</time>
      </trkpt>
      <trkpt lat="40.432900" lon="-5.358450">
        <ele>2325.0</ele>
        <time>2015-07-25T13:57:11Z</time>
      </trkpt>
      <trkpt lat="40.432917" lon="-5.358683">
        <ele>2323.0</ele>
        <time>2015-07-25T13:57:13Z</time>
      </trkpt>
      <trkpt lat="40.432933" lon="-5.358917">
        <ele>2319.0</ele>
        <time>2015-07-25T13:57:15Z</time>
      </trkpt>
      <trkpt lat="40.432983" lon="-5.359183">
        <ele>2315.0</ele>
        <time>2015-07-25T13:57:17Z</time>
      </trkpt>
      <trkpt lat="40.433033" lon="-5.359417">
        <ele>2314.0</ele>
        <time>2015-07-25T13:57:19Z</time>
      </trkpt>
      <trkpt lat="40.433067" lon="-5.359617">
        <ele>2310.0</ele>
        <time>2015-07-25T13:57:21Z</time>
      </trkpt>
      <trkpt lat="40.433133" lon="-5.359833">
        <ele>2306.0</ele>
        <time>2015-07-25T13:57:23Z</time>
      </trkpt>
      <trkpt lat="40.433167" lon="-5.360083">
        <ele>2301.0</ele>
        <time>2015-07-25T13:57:25Z</time>
      </trkpt>
      <trkpt lat="40.433200" lon="-5.360350">
        <ele>2299.0</ele>
        <time>2015-07-25T13:57:27Z</time>
      </trkpt>
      <trkpt lat="40.433250" lon="-5.360567">
        <ele>2296.0</ele>
        <time>2015-07-25T13:57:29Z</time>
      </trkpt>
      <trkpt lat="40.433300" lon="-5.360783">
        <ele>2292.0</ele>
        <time>2015-07-25T13:57:31Z</time>
      </trkpt>
      <trkpt lat="40.433367" lon="-5.361033">
        <ele>2289.0</ele>
        <time>2015-07-25T13:57:33Z</time>
      </trkpt>
      <trkpt lat="40.433450" lon="-5.361250">
        <ele>2287.0</ele>
        <time>2015-07-25T13:57:35Z</time>
      </trkpt>
      <trkpt lat="40.433500" lon="-5.361467">
        <ele>2283.0</ele>
        <time>2015-07-25T13:57:37Z</time>
      </trkpt>
      <trkpt lat="40.433583" lon="-5.361700">
        <ele>2278.0</ele>
        <time>2015-07-25T13:57:39Z</time>
      </trkpt>
      <trkpt lat="40.433650" lon="-5.361883">
        <ele>2275.0</ele>
        <time>2015-07-25T13:57:41Z</time>
      </trkpt>
      <trkpt lat="40.433717" lon="-5.362083">
        <ele>2270.0</ele>
        <time>2015-07-25T13:57:43Z</time>
      </trkpt>
      <trkpt lat="40.433767" lon="-5.362300">
        <ele>2266.0</ele>
        <time>2015-07-25T13:57:45Z</time>
      </trkpt>
      <trkpt lat="40.433800" lon="-5.362483">
        <ele>2262.0</ele>
        <time>2015-07-25T13:57:47Z</time>
      </trkpt>
      <trkpt lat="40.433850" lon="-5.362683">
        <ele>2255.0</ele>
        <time>2015-07-25T13:57:49Z</time>
      </trkpt>
      <trkpt lat="40.433917" lon="-5.362900">
        <ele>2248.0</ele>
        <time>2015-07-25T13:57:51Z</time>
      </trkpt>
      <trkpt lat="40.433967" lon="-5.363133">
        <ele>2242.0</ele>
        <time>2015-07-25T13:57:53Z</time>
      </trkpt>
      <trkpt lat="40.434017" lon="-5.363333">
        <ele>2238.0</ele>
        <time>2015-07-25T13:57:55Z</time>
      </trkpt>
      <trkpt lat="40.434067" lon="-5.363550">
        <ele>2233.0</ele>
        <time>2015-07-25T13:57:57Z</time>
      </trkpt>
      <trkpt lat="40.434117" lon="-5.363767">
        <ele>2229.0</ele>
        <time>2015-07-25T13:57:59Z</time>
      </trkpt>
      <trkpt lat="40.434150" lon="-5.364000">
        <ele>2225.0</ele>
        <time>2015-07-25T13:58:01Z</time>
      </trkpt>
      <trkpt lat="40.434217" lon="-5.364250">
        <ele>2221.0</ele>
        <time>2015-07-25T13:58:03Z</time>
      </trkpt>
      <trkpt lat="40.434250" lon="-5.364517">
        <ele>2221.0</ele>
        <time>2015-07-25T13:58:05Z</time>
      </trkpt>
      <trkpt lat="40.434283" lon="-5.364733">
        <ele>2221.0</ele>
        <time>2015-07-25T13:58:07Z</time>
      </trkpt>
      <trkpt lat="40.434300" lon="-5.364967">
        <ele>2218.0</ele>
        <time>2015-07-25T13:58:09Z</time>
      </trkpt>
      <trkpt lat="40.434317" lon="-5.365217">
        <ele>2214.0</ele>
        <time>2015-07-25T13:58:11Z</time>
      </trkpt>
      <trkpt lat="40.434367" lon="-5.365483">
        <ele>2213.0</ele>
        <time>2015-07-25T13:58:13Z</time>
      </trkpt>
      <trkpt lat="40.434383" lon="-5.365717">
        <ele>2213.0</ele>
        <time>2015-07-25T13:58:15Z</time>
      </trkpt>
      <trkpt lat="40.434417" lon="-5.365933">
        <ele>2213.0</ele>
        <time>2015-07-25T13:58:17Z</time>
      </trkpt>
      <trkpt lat="40.434450" lon="-5.366150">
        <ele>2212.0</ele>
        <time>2015-07-25T13:58:19Z</time>
      </trkpt>
      <trkpt lat="40.434517" lon="-5.366383">
        <ele>2211.0</ele>
        <time>2015-07-25T13:58:21Z</time>
      </trkpt>
      <trkpt lat="40.434567" lon="-5.366583">
        <ele>2211.0</ele>
        <time>2015-07-25T13:58:23Z</time>
      </trkpt>
      <trkpt lat="40.434617" lon="-5.366767">
        <ele>2210.0</ele>
        <time>2015-07-25T13:58:25Z</time>
      </trkpt>
      <trkpt lat="40.434683" lon="-5.366950">
        <ele>2207.0</ele>
        <time>2015-07-25T13:58:27Z</time>
      </trkpt>
      <trkpt lat="40.434767" lon="-5.367117">
        <ele>2205.0</ele>
        <time>2015-07-25T13:58:29Z</time>
      </trkpt>
      <trkpt lat="40.434817" lon="-5.367283">
        <ele>2202.0</ele>
        <time>2015-07-25T13:58:31Z</time>
      </trkpt>
      <trkpt lat="40.434883" lon="-5.367500">
        <ele>2196.0</ele>
        <time>2015-07-25T13:58:33Z</time>
      </trkpt>
      <trkpt lat="40.434983" lon="-5.367683">
        <ele>2193.0</ele>
        <time>2015-07-25T13:58:35Z</time>
      </trkpt>
      <trkpt lat="40.435083" lon="-5.367850">
        <ele>2192.0</ele>
        <time>2015-07-25T13:58:37Z</time>
      </trkpt>
      <trkpt lat="40.435150" lon="-5.368067">
        <ele>2190.0</ele>
        <time>2015-07-25T13:58:39Z</time>
      </trkpt>
      <trkpt lat="40.435250" lon="-5.368267">
        <ele>2187.0</ele>
        <time>2015-07-25T13:58:41Z</time>
      </trkpt>
      <trkpt lat="40.435350" lon="-5.368383">
        <ele>2185.0</ele>
        <time>2015-07-25T13:58:43Z</time>
      </trkpt>
      <trkpt lat="40.435417" lon="-5.368500">
        <ele>2177.0</ele>
        <time>2015-07-25T13:58:45Z</time>
      </trkpt>
      <trkpt lat="40.435467" lon="-5.368733">
        <ele>2167.0</ele>
        <time>2015-07-25T13:58:47Z</time>
      </trkpt>
      <trkpt lat="40.435483" lon="-5.369033">
        <ele>2161.0</ele>
        <time>2015-07-25T13:58:49Z</time>
      </trkpt>
      <trkpt lat="40.435483" lon="-5.369283">
        <ele>2160.0</ele>
        <time>2015-07-25T13:58:51Z</time>
      </trkpt>
      <trkpt lat="40.435533" lon="-5.369450">
        <ele>2158.0</ele>
        <time>2015-07-25T13:58:53Z</time>
      </trkpt>
      <trkpt lat="40.435600" lon="-5.369600">
        <ele>2154.0</ele>
        <time>2015-07-25T13:58:55Z</time>
      </trkpt>
      <trkpt lat="40.435700" lon="-5.369800">
        <ele>2146.0</ele>
        <time>2015-07-25T13:58:57Z</time>
      </trkpt>
      <trkpt lat="40.435800" lon="-5.370000">
        <ele>2143.0</ele>
        <time>2015-07-25T13:58:59Z</time>
      </trkpt>
      <trkpt lat="40.435867" lon="-5.370183">
        <ele>2139.0</ele>
        <time>2015-07-25T13:59:01Z</time>
      </trkpt>
      <trkpt lat="40.435950" lon="-5.370367">
        <ele>2132.0</ele>
        <time>2015-07-25T13:59:03Z</time>
      </trkpt>
      <trkpt lat="40.436050" lon="-5.370617">
        <ele>2125.0</ele>
        <time>2015-07-25T13:59:05Z</time>
      </trkpt>
      <trkpt lat="40.436150" lon="-5.370833">
        <ele>2122.0</ele>
        <time>2015-07-25T13:59:07Z</time>
      </trkpt>
      <trkpt lat="40.436250" lon="-5.371017">
        <ele>2117.0</ele>
        <time>2015-07-25T13:59:09Z</time>
      </trkpt>
      <trkpt lat="40.436350" lon="-5.371250">
        <ele>2112.0</ele>
        <time>2015-07-25T13:59:11Z</time>
      </trkpt>
      <trkpt lat="40.436467" lon="-5.371450">
        <ele>2107.0</ele>
        <time>2015-07-25T13:59:13Z</time>
      </trkpt>
      <trkpt lat="40.436567" lon="-5.371633">
        <ele>2102.0</ele>
        <time>2015-07-25T13:59:15Z</time>
      </trkpt>
      <trkpt lat="40.436667" lon="-5.371867">
        <ele>2097.0</ele>
        <time>2015-07-25T13:59:17Z</time>
      </trkpt>
      <trkpt lat="40.436750" lon="-5.372100">
        <ele>2095.0</ele>
        <time>2015-07-25T13:59:19Z</time>
      </trkpt>
      <trkpt lat="40.436833" lon="-5.372283">
        <ele>2096.0</ele>
        <time>2015-07-25T13:59:21Z</time>
      </trkpt>
      <trkpt lat="40.436900" lon="-5.372467">
        <ele>2094.0</ele>
        <time>2015-07-25T13:59:23Z</time>
      </trkpt>
      <trkpt lat="40.436983" lon="-5.372667">
        <ele>2090.0</ele>
        <time>2015-07-25T13:59:25Z</time>
      </trkpt>
      <trkpt lat="40.437050" lon="-5.372900">
        <ele>2086.0</ele>
        <time>2015-07-25T13:59:27Z</time>
      </trkpt>
      <trkpt lat="40.437133" lon="-5.373083">
        <ele>2083.0</ele>
        <time>2015-07-25T13:59:29Z</time>
      </trkpt>
      <trkpt lat="40.437217" lon="-5.373267">
        <ele>2077.0</ele>
        <time>2015-07-25T13:59:31Z</time>
      </trkpt>
      <trkpt lat="40.437283" lon="-5.373467">
        <ele>2073.0</ele>
        <time>2015-07-25T13:59:33Z</time>
      </trkpt>
      <trkpt lat="40.437333" lon="-5.373700">
        <ele>2070.0</ele>
        <time>2015-07-25T13:59:35Z</time>
      </trkpt>
      <trkpt lat="40.437383" lon="-5.373900">
        <ele>2065.0</ele>
        <time>2015-07-25T13:59:37Z</time>
      </trkpt>
      <trkpt lat="40.437433" lon="-5.374117">
        <ele>2059.0</ele>
        <time>2015-07-25T13:59:39Z</time>
      </trkpt>
      <trkpt lat="40.437500" lon="-5.374350">
        <ele>2054.0</ele>
        <time>2015-07-25T13:59:41Z</time>
      </trkpt>
      <trkpt lat="40.437550" lon="-5.374583">
        <ele>2051.0</ele>
        <time>2015-07-25T13:59:43Z</time>
      </trkpt>
      <trkpt lat="40.437600" lon="-5.374800">
        <ele>2048.0</ele>
        <time>2015-07-25T13:59:45Z</time>
      </trkpt>
      <trkpt lat="40.437667" lon="-5.375017">
        <ele>2043.0</ele>
        <time>2015-07-25T13:59:47Z</time>
      </trkpt>
      <trkpt lat="40.437750" lon="-5.375233">
        <ele>2039.0</ele>
        <time>2015-07-25T13:59:49Z</time>
      </trkpt>
      <trkpt lat="40.437817" lon="-5.375450">
        <ele>2038.0</ele>
        <time>2015-07-25T13:59:51Z</time>
      </trkpt>
      <trkpt lat="40.437900" lon="-5.375683">
        <ele>2036.0</ele>
        <time>2015-07-25T13:59:53Z</time>
      </trkpt>
      <trkpt lat="40.437967" lon="-5.375917">
        <ele>2035.0</ele>
        <time>2015-07-25T13:59:55Z</time>
      </trkpt>
      <trkpt lat="40.438017" lon="-5.376133">
        <ele>2037.0</ele>
        <time>2015-07-25T13:59:57Z</time>
      </trkpt>
      <trkpt lat="40.438067" lon="-5.376317">
        <ele>2038.0</ele>
        <time>2015-07-25T13:59:59Z</time>
      </trkpt>
      <trkpt lat="40.438133" lon="-5.376483">
        <ele>2037.0</ele>
        <time>2015-07-25T14:00:01Z</time>
      </trkpt>
      <trkpt lat="40.438233" lon="-5.376667">
        <ele>2035.0</ele>
        <time>2015-07-25T14:00:03Z</time>
      </trkpt>
      <trkpt lat="40.438350" lon="-5.376850">
        <ele>2034.0</ele>
        <time>2015-07-25T14:00:05Z</time>
      </trkpt>
      <trkpt lat="40.438450" lon="-5.377050">
        <ele>2035.0</ele>
        <time>2015-07-25T14:00:07Z</time>
      </trkpt>
      <trkpt lat="40.438533" lon="-5.377250">
        <ele>2035.0</ele>
        <time>2015-07-25T14:00:09Z</time>
      </trkpt>
      <trkpt lat="40.438583" lon="-5.377450">
        <ele>2034.0</ele>
        <time>2015-07-25T14:00:11Z</time>
      </trkpt>
      <trkpt lat="40.438633" lon="-5.377683">
        <ele>2033.0</ele>
        <time>2015-07-25T14:00:13Z</time>
      </trkpt>
      <trkpt lat="40.438700" lon="-5.377850">
        <ele>2032.0</ele>
        <time>2015-07-25T14:00:15Z</time>
      </trkpt>
      <trkpt lat="40.438800" lon="-5.378017">
        <ele>2027.0</ele>
        <time>2015-07-25T14:00:17Z</time>
      </trkpt>
      <trkpt lat="40.438900" lon="-5.378233">
        <ele>2022.0</ele>
        <time>2015-07-25T14:00:19Z</time>
      </trkpt>
      <trkpt lat="40.438983" lon="-5.378433">
        <ele>2018.0</ele>
        <time>2015-07-25T14:00:21Z</time>
      </trkpt>
      <trkpt lat="40.439083" lon="-5.378617">
        <ele>2012.0</ele>
        <time>2015-07-25T14:00:23Z</time>
      </trkpt>
      <trkpt lat="40.439200" lon="-5.378800">
        <ele>2006.0</ele>
        <time>2015-07-25T14:00:25Z</time>
      </trkpt>
      <trkpt lat="40.439300" lon="-5.379000">
        <ele>2000.0</ele>
        <time>2015-07-25T14:00:27Z</time>
      </trkpt>
      <trkpt lat="40.439400" lon="-5.379200">
        <ele>1996.0</ele>
        <time>2015-07-25T14:00:29Z</time>
      </trkpt>
      <trkpt lat="40.439467" lon="-5.379417">
        <ele>1991.0</ele>
        <time>2015-07-25T14:00:31Z</time>
      </trkpt>
      <trkpt lat="40.439517" lon="-5.379650">
        <ele>1983.0</ele>
        <time>2015-07-25T14:00:33Z</time>
      </trkpt>
      <trkpt lat="40.439583" lon="-5.379917">
        <ele>1977.0</ele>
        <time>2015-07-25T14:00:35Z</time>
      </trkpt>
      <trkpt lat="40.439650" lon="-5.380100">
        <ele>1975.0</ele>
        <time>2015-07-25T14:00:37Z</time>
      </trkpt>
      <trkpt lat="40.439700" lon="-5.380267">
        <ele>1970.0</ele>
        <time>2015-07-25T14:00:39Z</time>
      </trkpt>
      <trkpt lat="40.439783" lon="-5.380483">
        <ele>1963.0</ele>
        <time>2015-07-25T14:00:41Z</time>
      </trkpt>
      <trkpt lat="40.439850" lon="-5.380733">
        <ele>1963.0</ele>
        <time>2015-07-25T14:00:43Z</time>
      </trkpt>
      <trkpt lat="40.439900" lon="-5.380933">
        <ele>1964.0</ele>
        <time>2015-07-25T14:00:45Z</time>
      </trkpt>
      <trkpt lat="40.439950" lon="-5.381117">
        <ele>1960.0</ele>
        <time>2015-07-25T14:00:47Z</time>
      </trkpt>
      <trkpt lat="40.440033" lon="-5.381350">
        <ele>1956.0</ele>
        <time>2015-07-25T14:00:49Z</time>
      </trkpt>
      <trkpt lat="40.440117" lon="-5.381550">
        <ele>1955.0</ele>
        <time>2015-07-25T14:00:51Z</time>
      </trkpt>
      <trkpt lat="40.440183" lon="-5.381733">
        <ele>1953.0</ele>
        <time>2015-07-25T14:00:53Z</time>
      </trkpt>
      <trkpt lat="40.440283" lon="-5.381833">
        <ele>1951.0</ele>
        <time>2015-07-25T14:00:55Z</time>
      </trkpt>
      <trkpt lat="40.440400" lon="-5.381850">
        <ele>1948.0</ele>
        <time>2015-07-25T14:00:57Z</time>
      </trkpt>
      <trkpt lat="40.440517" lon="-5.381933">
        <ele>1946.0</ele>
        <time>2015-07-25T14:00:59Z</time>
      </trkpt>
      <trkpt lat="40.440617" lon="-5.382083">
        <ele>1945.0</ele>
        <time>2015-07-25T14:01:01Z</time>
      </trkpt>
      <trkpt lat="40.440667" lon="-5.382283">
        <ele>1944.0</ele>
        <time>2015-07-25T14:01:03Z</time>
      </trkpt>
      <trkpt lat="40.440733" lon="-5.382517">
        <ele>1942.0</ele>
        <time>2015-07-25T14:01:05Z</time>
      </trkpt>
      <trkpt lat="40.440833" lon="-5.382717">
        <ele>1941.0</ele>
        <time>2015-07-25T14:01:07Z</time>
      </trkpt>
      <trkpt lat="40.440933" lon="-5.382833">
        <ele>1943.0</ele>
        <time>2015-07-25T14:01:09Z</time>
      </trkpt>
      <trkpt lat="40.441017" lon="-5.382850">
        <ele>1943.0</ele>
        <time>2015-07-25T14:01:11Z</time>
      </trkpt>
      <trkpt lat="40.441083" lon="-5.382800">
        <ele>1940.0</ele>
        <time>2015-07-25T14:01:13Z</time>
      </trkpt>
      <trkpt lat="40.441117" lon="-5.382683">
        <ele>1942.0</ele>
        <time>2015-07-25T14:01:15Z</time>
      </trkpt>
      <trkpt lat="40.441100" lon="-5.382533">
        <ele>1942.0</ele>
        <time>2015-07-25T14:01:17Z</time>
      </trkpt>
      <trkpt lat="40.440967" lon="-5.382333">
        <ele>1941.0</ele>
        <time>2015-07-25T14:01:19Z</time>
      </trkpt>
      <trkpt lat="40.440783" lon="-5.382217">
        <ele>1942.0</ele>
        <time>2015-07-25T14:01:21Z</time>
      </trkpt>
      <trkpt lat="40.440583" lon="-5.382183">
        <ele>1943.0</ele>
        <time>2015-07-25T14:01:23Z</time>
      </trkpt>
      <trkpt lat="40.440350" lon="-5.382267">
        <ele>1940.0</ele>
        <time>2015-07-25T14:01:25Z</time>
      </trkpt>
      <trkpt lat="40.440133" lon="-5.382467">
        <ele>1938.0</ele>
        <time>2015-07-25T14:01:27Z</time>
      </trkpt>
      <trkpt lat="40.440017" lon="-5.382733">
        <ele>1937.0</ele>
        <time>2015-07-25T14:01:29Z</time>
      </trkpt>
      <trkpt lat="40.440017" lon="-5.382967">
        <ele>1939.0</ele>
        <time>2015-07-25T14:01:31Z</time>
      </trkpt>
      <trkpt lat="40.440050" lon="-5.383133">
        <ele>1940.0</ele>
        <time>2015-07-25T14:01:33Z</time>
      </trkpt>
      <trkpt lat="40.440117" lon="-5.383233">
        <ele>1941.0</ele>
        <time>2015-07-25T14:01:35Z</time>
      </trkpt>
      <trkpt lat="40.440183" lon="-5.383250">
        <ele>1943.0</ele>
        <time>2015-07-25T14:01:37Z</time>
      </trkpt>
      <trkpt lat="40.440267" lon="-5.383283">
        <ele>1945.0</ele>
        <time>2015-07-25T14:01:39Z</time>
      </trkpt>
      <trkpt lat="40.440333" lon="-5.383283">
        <ele>1944.0</ele>
        <time>2015-07-25T14:01:41Z</time>
      </trkpt>
      <trkpt lat="40.440367" lon="-5.383217">
        <ele>1940.0</ele>
        <time>2015-07-25T14:01:43Z</time>
      </trkpt>
      <trkpt lat="40.440383" lon="-5.383133">
        <ele>1937.0</ele>
        <time>2015-07-25T14:01:45Z</time>
      </trkpt>
      <trkpt lat="40.440417" lon="-5.383067">
        <ele>1934.0</ele>
        <time>2015-07-25T14:01:47Z</time>
      </trkpt>
      <trkpt lat="40.440483" lon="-5.383017">
        <ele>1930.0</ele>
        <time>2015-07-25T14:01:49Z</time>
      </trkpt>
      <trkpt lat="40.440567" lon="-5.383067">
        <ele>1930.0</ele>
        <time>2015-07-25T14:01:51Z</time>
      </trkpt>
      <trkpt lat="40.440600" lon="-5.383167">
        <ele>1928.0</ele>
        <time>2015-07-25T14:01:53Z</time>
      </trkpt>
      <trkpt lat="40.440633" lon="-5.383317">
        <ele>1923.0</ele>
        <time>2015-07-25T14:01:55Z</time>
      </trkpt>
      <trkpt lat="40.440667" lon="-5.383517">
        <ele>1920.0</ele>
        <time>2015-07-25T14:01:57Z</time>
      </trkpt>
      <trkpt lat="40.440683" lon="-5.383717">
        <ele>1919.0</ele>
        <time>2015-07-25T14:01:59Z</time>
      </trkpt>
      <trkpt lat="40.440683" lon="-5.383850">
        <ele>1916.0</ele>
        <time>2015-07-25T14:02:01Z</time>
      </trkpt>
      <trkpt lat="40.440717" lon="-5.384017">
        <ele>1911.0</ele>
        <time>2015-07-25T14:02:03Z</time>
      </trkpt>
      <trkpt lat="40.440767" lon="-5.384183">
        <ele>1904.0</ele>
        <time>2015-07-25T14:02:05Z</time>
      </trkpt>
      <trkpt lat="40.440833" lon="-5.384367">
        <ele>1903.0</ele>
        <time>2015-07-25T14:02:07Z</time>
      </trkpt>
      <trkpt lat="40.440883" lon="-5.384533">
        <ele>1902.0</ele>
        <time>2015-07-25T14:02:09Z</time>
      </trkpt>
      <trkpt lat="40.440917" lon="-5.384683">
        <ele>1900.0</ele>
        <time>2015-07-25T14:02:11Z</time>
      </trkpt>
      <trkpt lat="40.440983" lon="-5.384817">
        <ele>1894.0</ele>
        <time>2015-07-25T14:02:13Z</time>
      </trkpt>
      <trkpt lat="40.441083" lon="-5.384983">
        <ele>1893.0</ele>
        <time>2015-07-25T14:02:15Z</time>
      </trkpt>
      <trkpt lat="40.441117" lon="-5.385133">
        <ele>1895.0</ele>
        <time>2015-07-25T14:02:17Z</time>
      </trkpt>
      <trkpt lat="40.441183" lon="-5.385233">
        <ele>1891.0</ele>
        <time>2015-07-25T14:02:19Z</time>
      </trkpt>
      <trkpt lat="40.441267" lon="-5.385333">
        <ele>1887.0</ele>
        <time>2015-07-25T14:02:21Z</time>
      </trkpt>
      <trkpt lat="40.441367" lon="-5.385467">
        <ele>1885.0</ele>
        <time>2015-07-25T14:02:23Z</time>
      </trkpt>
      <trkpt lat="40.441417" lon="-5.385600">
        <ele>1886.0</ele>
        <time>2015-07-25T14:02:25Z</time>
      </trkpt>
      <trkpt lat="40.441467" lon="-5.385750">
        <ele>1883.0</ele>
        <time>2015-07-25T14:02:27Z</time>
      </trkpt>
      <trkpt lat="40.441533" lon="-5.385900">
        <ele>1880.0</ele>
        <time>2015-07-25T14:02:29Z</time>
      </trkpt>
      <trkpt lat="40.441617" lon="-5.386050">
        <ele>1879.0</ele>
        <time>2015-07-25T14:02:31Z</time>
      </trkpt>
      <trkpt lat="40.441683" lon="-5.386217">
        <ele>1879.0</ele>
        <time>2015-07-25T14:02:33Z</time>
      </trkpt>
      <trkpt lat="40.441733" lon="-5.386383">
        <ele>1882.0</ele>
        <time>2015-07-25T14:02:35Z</time>
      </trkpt>
      <trkpt lat="40.441783" lon="-5.386483">
        <ele>1889.0</ele>
        <time>2015-07-25T14:02:37Z</time>
      </trkpt>
      <trkpt lat="40.441817" lon="-5.386467">
        <ele>1895.0</ele>
        <time>2015-07-25T14:02:39Z</time>
      </trkpt>
      <trkpt lat="40.441833" lon="-5.386367">
        <ele>1898.0</ele>
        <time>2015-07-25T14:02:41Z</time>
      </trkpt>
      <trkpt lat="40.441733" lon="-5.386167">
        <ele>1901.0</ele>
        <time>2015-07-25T14:02:43Z</time>
      </trkpt>
      <trkpt lat="40.441500" lon="-5.386017">
        <ele>1906.0</ele>
        <time>2015-07-25T14:02:45Z</time>
      </trkpt>
      <trkpt lat="40.441267" lon="-5.385983">
        <ele>1913.0</ele>
        <time>2015-07-25T14:02:47Z</time>
      </trkpt>
      <trkpt lat="40.441033" lon="-5.386017">
        <ele>1916.0</ele>
        <time>2015-07-25T14:02:49Z</time>
      </trkpt>
      <trkpt lat="40.440767" lon="-5.386133">
        <ele>1917.0</ele>
        <time>2015-07-25T14:02:51Z</time>
      </trkpt>
      <trkpt lat="40.440567" lon="-5.386367">
        <ele>1919.0</ele>
        <time>2015-07-25T14:02:53Z</time>
      </trkpt>
      <trkpt lat="40.440500" lon="-5.386617">
        <ele>1922.0</ele>
        <time>2015-07-25T14:02:55Z</time>
      </trkpt>
      <trkpt lat="40.440517" lon="-5.386817">
        <ele>1926.0</ele>
        <time>2015-07-25T14:02:57Z</time>
      </trkpt>
      <trkpt lat="40.440517" lon="-5.386950">
        <ele>1931.0</ele>
        <time>2015-07-25T14:02:59Z</time>
      </trkpt>
      <trkpt lat="40.440550" lon="-5.387017">
        <ele>1934.0</ele>
        <time>2015-07-25T14:03:01Z</time>
      </trkpt>
      <trkpt lat="40.440583" lon="-5.387017">
        <ele>1935.0</ele>
        <time>2015-07-25T14:03:03Z</time>
      </trkpt>
      <trkpt lat="40.440617" lon="-5.386883">
        <ele>1935.0</ele>
        <time>2015-07-25T14:03:05Z</time>
      </trkpt>
      <trkpt lat="40.440600" lon="-5.386650">
        <ele>1937.0</ele>
        <time>2015-07-25T14:03:07Z</time>
      </trkpt>
      <trkpt lat="40.440483" lon="-5.386433">
        <ele>1943.0</ele>
        <time>2015-07-25T14:03:09Z</time>
      </trkpt>
      <trkpt lat="40.440333" lon="-5.386300">
        <ele>1947.0</ele>
        <time>2015-07-25T14:03:11Z</time>
      </trkpt>
      <trkpt lat="40.440117" lon="-5.386217">
        <ele>1950.0</ele>
        <time>2015-07-25T14:03:13Z</time>
      </trkpt>
      <trkpt lat="40.439867" lon="-5.386183">
        <ele>1954.0</ele>
        <time>2015-07-25T14:03:15Z</time>
      </trkpt>
      <trkpt lat="40.439617" lon="-5.386283">
        <ele>1957.0</ele>
        <time>2015-07-25T14:03:17Z</time>
      </trkpt>
      <trkpt lat="40.439450" lon="-5.386533">
        <ele>1958.0</ele>
        <time>2015-07-25T14:03:19Z</time>
      </trkpt>
      <trkpt lat="40.439383" lon="-5.386800">
        <ele>1961.0</ele>
        <time>2015-07-25T14:03:21Z</time>
      </trkpt>
      <trkpt lat="40.439367" lon="-5.387000">
        <ele>1967.0</ele>
        <time>2015-07-25T14:03:23Z</time>
      </trkpt>
      <trkpt lat="40.439383" lon="-5.387133">
        <ele>1970.0</ele>
        <time>2015-07-25T14:03:25Z</time>
      </trkpt>
      <trkpt lat="40.439433" lon="-5.387217">
        <ele>1972.0</ele>
        <time>2015-07-25T14:03:27Z</time>
      </trkpt>
      <trkpt lat="40.439500" lon="-5.387167">
        <ele>1974.0</ele>
        <time>2015-07-25T14:03:29Z</time>
      </trkpt>
      <trkpt lat="40.439517" lon="-5.387050">
        <ele>1977.0</ele>
        <time>2015-07-25T14:03:31Z</time>
      </trkpt>
      <trkpt lat="40.439517" lon="-5.386867">
        <ele>1979.0</ele>
        <time>2015-07-25T14:03:33Z</time>
      </trkpt>
      <trkpt lat="40.439450" lon="-5.386633">
        <ele>1981.0</ele>
        <time>2015-07-25T14:03:35Z</time>
      </trkpt>
      <trkpt lat="40.439317" lon="-5.386383">
        <ele>1982.0</ele>
        <time>2015-07-25T14:03:37Z</time>
      </trkpt>
      <trkpt lat="40.439083" lon="-5.386183">
        <ele>1985.0</ele>
        <time>2015-07-25T14:03:39Z</time>
      </trkpt>
      <trkpt lat="40.438817" lon="-5.386150">
        <ele>1989.0</ele>
        <time>2015-07-25T14:03:41Z</time>
      </trkpt>
      <trkpt lat="40.438567" lon="-5.386250">
        <ele>1992.0</ele>
        <time>2015-07-25T14:03:43Z</time>
      </trkpt>
      <trkpt lat="40.438383" lon="-5.386450">
        <ele>1996.0</ele>
        <time>2015-07-25T14:03:45Z</time>
      </trkpt>
      <trkpt lat="40.438300" lon="-5.386683">
        <ele>1998.0</ele>
        <time>2015-07-25T14:03:47Z</time>
      </trkpt>
      <trkpt lat="40.438317" lon="-5.386850">
        <ele>2001.0</ele>
        <time>2015-07-25T14:03:49Z</time>
      </trkpt>
      <trkpt lat="40.438367" lon="-5.386950">
        <ele>2003.0</ele>
        <time>2015-07-25T14:03:51Z</time>
      </trkpt>
      <trkpt lat="40.438433" lon="-5.386950">
        <ele>2006.0</ele>
        <time>2015-07-25T14:03:53Z</time>
      </trkpt>
      <trkpt lat="40.438500" lon="-5.386850">
        <ele>2009.0</ele>
        <time>2015-07-25T14:03:55Z</time>
      </trkpt>
      <trkpt lat="40.438500" lon="-5.386650">
        <ele>2013.0</ele>
        <time>2015-07-25T14:03:57Z</time>
      </trkpt>
      <trkpt lat="40.438383" lon="-5.386400">
        <ele>2016.0</ele>
        <time>2015-07-25T14:03:59Z</time>
      </trkpt>
      <trkpt lat="40.438183" lon="-5.386200">
        <ele>2019.0</ele>
        <time>2015-07-25T14:04:01Z</time>
      </trkpt>
      <trkpt lat="40.437917" lon="-5.386067">
        <ele>2023.0</ele>
        <time>2015-07-25T14:04:03Z</time>
      </trkpt>
      <trkpt lat="40.437650" lon="-5.386050">
        <ele>2028.0</ele>
        <time>2015-07-25T14:04:05Z</time>
      </trkpt>
      <trkpt lat="40.437417" lon="-5.386167">
        <ele>2033.0</ele>
        <time>2015-07-25T14:04:07Z</time>
      </trkpt>
      <trkpt lat="40.437250" lon="-5.386367">
        <ele>2039.0</ele>
        <time>2015-07-25T14:04:09Z</time>
      </trkpt>
      <trkpt lat="40.437183" lon="-5.386550">
        <ele>2044.0</ele>
        <time>2015-07-25T14:04:11Z</time>
      </trkpt>
      <trkpt lat="40.437217" lon="-5.386717">
        <ele>2047.0</ele>
        <time>2015-07-25T14:04:13Z</time>
      </trkpt>
      <trkpt lat="40.437267" lon="-5.386783">
        <ele>2052.0</ele>
        <time>2015-07-25T14:04:15Z</time>
      </trkpt>
      <trkpt lat="40.437333" lon="-5.386767">
        <ele>2055.0</ele>
        <time>2015-07-25T14:04:17Z</time>
      </trkpt>
      <trkpt lat="40.437383" lon="-5.386650">
        <ele>2058.0</ele>
        <time>2015-07-25T14:04:19Z</time>
      </trkpt>
      <trkpt lat="40.437317" lon="-5.386417">
        <ele>2060.0</ele>
        <time>2015-07-25T14:04:21Z</time>
      </trkpt>
      <trkpt lat="40.437150" lon="-5.386200">
        <ele>2063.0</ele>
        <time>2015-07-25T14:04:23Z</time>
      </trkpt>
      <trkpt lat="40.436867" lon="-5.386083">
        <ele>2067.0</ele>
        <time>2015-07-25T14:04:25Z</time>
      </trkpt>
      <trkpt lat="40.436583" lon="-5.386117">
        <ele>2072.0</ele>
        <time>2015-07-25T14:04:27Z</time>
      </trkpt>
      <trkpt lat="40.436350" lon="-5.386250">
        <ele>2078.0</ele>
        <time>2015-07-25T14:04:29Z</time>
      </trkpt>
      <trkpt lat="40.436200" lon="-5.386450">
        <ele>2081.0</ele>
        <time>2015-07-25T14:04:31Z</time>
      </trkpt>
      <trkpt lat="40.436167" lon="-5.386667">
        <ele>2085.0</ele>
        <time>2015-07-25T14:04:33Z</time>
      </trkpt>
      <trkpt lat="40.436200" lon="-5.386800">
        <ele>2089.0</ele>
        <time>2015-07-25T14:04:35Z</time>
      </trkpt>
      <trkpt lat="40.436267" lon="-5.386833">
        <ele>2092.0</ele>
        <time>2015-07-25T14:04:37Z</time>
      </trkpt>
      <trkpt lat="40.436333" lon="-5.386767">
        <ele>2096.0</ele>
        <time>2015-07-25T14:04:39Z</time>
      </trkpt>
      <trkpt lat="40.436350" lon="-5.386617">
        <ele>2100.0</ele>
        <time>2015-07-25T14:04:41Z</time>
      </trkpt>
      <trkpt lat="40.436317" lon="-5.386417">
        <ele>2104.0</ele>
        <time>2015-07-25T14:04:43Z</time>
      </trkpt>
      <trkpt lat="40.436167" lon="-5.386183">
        <ele>2107.0</ele>
        <time>2015-07-25T14:04:45Z</time>
      </trkpt>
      <trkpt lat="40.435933" lon="-5.386017">
        <ele>2111.0</ele>
        <time>2015-07-25T14:04:47Z</time>
      </trkpt>
      <trkpt lat="40.435650" lon="-5.385967">
        <ele>2115.0</ele>
        <time>2015-07-25T14:04:49Z</time>
      </trkpt>
      <trkpt lat="40.435383" lon="-5.386083">
        <ele>2118.0</ele>
        <time>2015-07-25T14:04:51Z</time>
      </trkpt>
      <trkpt lat="40.435183" lon="-5.386283">
        <ele>2123.0</ele>
        <time>2015-07-25T14:04:53Z</time>
      </trkpt>
      <trkpt lat="40.435083" lon="-5.386467">
        <ele>2128.0</ele>
        <time>2015-07-25T14:04:55Z</time>
      </trkpt>
      <trkpt lat="40.435050" lon="-5.386650">
        <ele>2130.0</ele>
        <time>2015-07-25T14:04:57Z</time>
      </trkpt>
      <trkpt lat="40.435100" lon="-5.386800">
        <ele>2134.0</ele>
        <time>2015-07-25T14:04:59Z</time>
      </trkpt>
      <trkpt lat="40.435150" lon="-5.386817">
        <ele>2140.0</ele>
        <time>2015-07-25T14:05:01Z</time>
      </trkpt>
      <trkpt lat="40.435183" lon="-5.386700">
        <ele>2147.0</ele>
        <time>2015-07-25T14:05:03Z</time>
      </trkpt>
      <trkpt lat="40.435150" lon="-5.386483">
        <ele>2154.0</ele>
        <time>2015-07-25T14:05:05Z</time>
      </trkpt>
      <trkpt lat="40.434983" lon="-5.386283">
        <ele>2159.0</ele>
        <time>2015-07-25T14:05:07Z</time>
      </trkpt>
      <trkpt lat="40.434733" lon="-5.386167">
        <ele>2163.0</ele>
        <time>2015-07-25T14:05:09Z</time>
      </trkpt>
      <trkpt lat="40.434467" lon="-5.386183">
        <ele>2167.0</ele>
        <time>2015-07-25T14:05:11Z</time>
      </trkpt>
      <trkpt lat="40.434267" lon="-5.386350">
        <ele>2171.0</ele>
        <time>2015-07-25T14:05:13Z</time>
      </trkpt>
      <trkpt lat="40.434150" lon="-5.386550">
        <ele>2176.0</ele>
        <time>2015-07-25T14:05:15Z</time>
      </trkpt>
      <trkpt lat="40.434117" lon="-5.386750">
        <ele>2179.0</ele>
        <time>2015-07-25T14:05:17Z</time>
      </trkpt>
      <trkpt lat="40.434167" lon="-5.386900">
        <ele>2181.0</ele>
        <time>2015-07-25T14:05:19Z</time>
      </trkpt>
      <trkpt lat="40.434250" lon="-5.386900">
        <ele>2189.0</ele>
        <time>2015-07-25T14:05:21Z</time>
      </trkpt>
      <trkpt lat="40.434233" lon="-5.386783">
        <ele>2197.0</ele>
        <time>2015-07-25T14:05:23Z</time>
      </trkpt>
      <trkpt lat="40.434183" lon="-5.386633">
        <ele>2200.0</ele>
        <time>2015-07-25T14:05:25Z</time>
      </trkpt>
      <trkpt lat="40.434117" lon="-5.386383">
        <ele>2202.0</ele>
        <time>2015-07-25T14:05:27Z</time>
      </trkpt>
      <trkpt lat="40.433917" lon="-5.386133">
        <ele>2207.0</ele>
        <time>2015-07-25T14:05:29Z</time>
      </trkpt>
      <trkpt lat="40.433667" lon="-5.386000">
        <ele>2214.0</ele>
        <time>2015-07-25T14:05:31Z</time>
      </trkpt>
      <trkpt lat="40.433433" lon="-5.386000">
        <ele>2220.0</ele>
        <time>2015-07-25T14:05:33Z</time>
      </trkpt>
      <trkpt lat="40.433217" lon="-5.386100">
        <ele>2224.0</ele>
        <time>2015-07-25T14:05:35Z</time>
      </trkpt>
      <trkpt lat="40.433050" lon="-5.386267">
        <ele>2225.0</ele>
        <time>2015-07-25T14:05:37Z</time>
      </trkpt>
      <trkpt lat="40.432950" lon="-5.386483">
        <ele>2228.0</ele>
        <time>2015-07-25T14:05:39Z</time>
      </trkpt>
      <trkpt lat="40.432917" lon="-5.386683">
        <ele>2233.0</ele>
        <time>2015-07-25T14:05:41Z</time>
      </trkpt>
      <trkpt lat="40.432950" lon="-5.386817">
        <ele>2237.0</ele>
        <time>2015-07-25T14:05:43Z</time>
      </trkpt>
      <trkpt lat="40.433017" lon="-5.386850">
        <ele>2243.0</ele>
        <time>2015-07-25T14:05:45Z</time>
      </trkpt>
      <trkpt lat="40.433033" lon="-5.386767">
        <ele>2247.0</ele>
        <time>2015-07-25T14:05:47Z</time>
      </trkpt>
      <trkpt lat="40.433033" lon="-5.386600">
        <ele>2249.0</ele>
        <time>2015-07-25T14:05:49Z</time>
      </trkpt>
      <trkpt lat="40.432917" lon="-5.386350">
        <ele>2248.0</ele>
        <time>2015-07-25T14:05:51Z</time>
      </trkpt>
      <trkpt lat="40.432683" lon="-5.386083">
        <ele>2251.0</ele>
        <time>2015-07-25T14:05:53Z</time>
      </trkpt>
      <trkpt lat="40.432383" lon="-5.385983">
        <ele>2259.0</ele>
        <time>2015-07-25T14:05:55Z</time>
      </trkpt>
      <trkpt lat="40.432133" lon="-5.385983">
        <ele>2268.0</ele>
        <time>2015-07-25T14:05:57Z</time>
      </trkpt>
      <trkpt lat="40.431917" lon="-5.386067">
        <ele>2271.0</ele>
        <time>2015-07-25T14:05:59Z</time>
      </trkpt>
      <trkpt lat="40.431700" lon="-5.386250">
        <ele>2275.0</ele>
        <time>2015-07-25T14:06:01Z</time>
      </trkpt>
      <trkpt lat="40.431600" lon="-5.386467">
        <ele>2282.0</ele>
        <time>2015-07-25T14:06:03Z</time>
      </trkpt>
      <trkpt lat="40.431583" lon="-5.386617">
        <ele>2287.0</ele>
        <time>2015-07-25T14:06:05Z</time>
      </trkpt>
      <trkpt lat="40.431633" lon="-5.386700">
        <ele>2289.0</ele>
        <time>2015-07-25T14:06:07Z</time>
      </trkpt>
      <trkpt lat="40.431700" lon="-5.386633">
        <ele>2293.0</ele>
        <time>2015-07-25T14:06:09Z</time>
      </trkpt>
      <trkpt lat="40.431733" lon="-5.386483">
        <ele>2299.0</ele>
        <time>2015-07-25T14:06:11Z</time>
      </trkpt>
      <trkpt lat="40.431683" lon="-5.386267">
        <ele>2303.0</ele>
        <time>2015-07-25T14:06:13Z</time>
      </trkpt>
      <trkpt lat="40.431550" lon="-5.386033">
        <ele>2305.0</ele>
        <time>2015-07-25T14:06:15Z</time>
      </trkpt>
      <trkpt lat="40.431317" lon="-5.385833">
        <ele>2308.0</ele>
        <time>2015-07-25T14:06:17Z</time>
      </trkpt>
      <trkpt lat="40.431017" lon="-5.385767">
        <ele>2310.0</ele>
        <time>2015-07-25T14:06:19Z</time>
      </trkpt>
      <trkpt lat="40.430750" lon="-5.385800">
        <ele>2318.0</ele>
        <time>2015-07-25T14:06:21Z</time>
      </trkpt>
      <trkpt lat="40.430550" lon="-5.385883">
        <ele>2323.0</ele>
        <time>2015-07-25T14:06:23Z</time>
      </trkpt>
      <trkpt lat="40.430417" lon="-5.386083">
        <ele>2325.0</ele>
        <time>2015-07-25T14:06:25Z</time>
      </trkpt>
      <trkpt lat="40.430367" lon="-5.386283">
        <ele>2332.0</ele>
        <time>2015-07-25T14:06:27Z</time>
      </trkpt>
      <trkpt lat="40.430333" lon="-5.386400">
        <ele>2336.0</ele>
        <time>2015-07-25T14:06:29Z</time>
      </trkpt>
      <trkpt lat="40.430333" lon="-5.386517">
        <ele>2337.0</ele>
        <time>2015-07-25T14:06:31Z</time>
      </trkpt>
      <trkpt lat="40.430433" lon="-5.386567">
        <ele>2342.0</ele>
        <time>2015-07-25T14:06:33Z</time>
      </trkpt>
      <trkpt lat="40.430483" lon="-5.386483">
        <ele>2351.0</ele>
        <time>2015-07-25T14:06:35Z</time>
      </trkpt>
      <trkpt lat="40.430483" lon="-5.386317">
        <ele>2355.0</ele>
        <time>2015-07-25T14:06:37Z</time>
      </trkpt>
      <trkpt lat="40.430450" lon="-5.386067">
        <ele>2357.0</ele>
        <time>2015-07-25T14:06:39Z</time>
      </trkpt>
      <trkpt lat="40.430300" lon="-5.385783">
        <ele>2361.0</ele>
        <time>2015-07-25T14:06:41Z</time>
      </trkpt>
      <trkpt lat="40.430033" lon="-5.385617">
        <ele>2367.0</ele>
        <time>2015-07-25T14:06:43Z</time>
      </trkpt>
      <trkpt lat="40.429750" lon="-5.385617">
        <ele>2371.0</ele>
        <time>2015-07-25T14:06:45Z</time>
      </trkpt>
      <trkpt lat="40.429517" lon="-5.385717">
        <ele>2372.0</ele>
        <time>2015-07-25T14:06:47Z</time>
      </trkpt>
      <trkpt lat="40.429333" lon="-5.385900">
        <ele>2371.0</ele>
        <time>2015-07-25T14:06:49Z</time>
      </trkpt>
      <trkpt lat="40.429200" lon="-5.386150">
        <ele>2375.0</ele>
        <time>2015-07-25T14:06:51Z</time>
      </trkpt>
      <trkpt lat="40.429067" lon="-5.386383">
        <ele>2383.0</ele>
        <time>2015-07-25T14:06:53Z</time>
      </trkpt>
      <trkpt lat="40.428983" lon="-5.386583">
        <ele>2388.0</ele>
        <time>2015-07-25T14:06:55Z</time>
      </trkpt>
      <trkpt lat="40.429000" lon="-5.386767">
        <ele>2390.0</ele>
        <time>2015-07-25T14:06:57Z</time>
      </trkpt>
      <trkpt lat="40.429083" lon="-5.386917">
        <ele>2394.0</ele>
        <time>2015-07-25T14:06:59Z</time>
      </trkpt>
      <trkpt lat="40.429183" lon="-5.387000">
        <ele>2401.0</ele>
        <time>2015-07-25T14:07:01Z</time>
      </trkpt>
      <trkpt lat="40.429283" lon="-5.387000">
        <ele>2405.0</ele>
        <time>2015-07-25T14:07:03Z</time>
      </trkpt>
      <trkpt lat="40.429350" lon="-5.386833">
        <ele>2406.0</ele>
        <time>2015-07-25T14:07:05Z</time>
      </trkpt>
      <trkpt lat="40.429317" lon="-5.386583">
        <ele>2409.0</ele>
        <time>2015-07-25T14:07:07Z</time>
      </trkpt>
      <trkpt lat="40.429183" lon="-5.386350">
        <ele>2411.0</ele>
        <time>2015-07-25T14:07:09Z</time>
      </trkpt>
      <trkpt lat="40.428983" lon="-5.386133">
        <ele>2412.0</ele>
        <time>2015-07-25T14:07:11Z</time>
      </trkpt>
      <trkpt lat="40.428717" lon="-5.386000">
        <ele>2416.0</ele>
        <time>2015-07-25T14:07:13Z</time>
      </trkpt>
      <trkpt lat="40.428450" lon="-5.386000">
        <ele>2422.0</ele>
        <time>2015-07-25T14:07:15Z</time>
      </trkpt>
      <trkpt lat="40.428233" lon="-5.386133">
        <ele>2429.0</ele>
        <time>2015-07-25T14:07:17Z</time>
      </trkpt>
      <trkpt lat="40.428100" lon="-5.386300">
        <ele>2433.0</ele>
        <time>2015-07-25T14:07:19Z</time>
      </trkpt>
      <trkpt lat="40.428000" lon="-5.386533">
        <ele>2437.0</ele>
        <time>2015-07-25T14:07:21Z</time>
      </trkpt>
      <trkpt lat="40.427983" lon="-5.386717">
        <ele>2442.0</ele>
        <time>2015-07-25T14:07:23Z</time>
      </trkpt>
      <trkpt lat="40.428017" lon="-5.386850">
        <ele>2445.0</ele>
        <time>2015-07-25T14:07:25Z</time>
      </trkpt>
      <trkpt lat="40.428100" lon="-5.386850">
        <ele>2447.0</ele>
        <time>2015-07-25T14:07:27Z</time>
      </trkpt>
      <trkpt lat="40.428150" lon="-5.386733">
        <ele>2447.0</ele>
        <time>2015-07-25T14:07:29Z</time>
      </trkpt>
      <trkpt lat="40.428150" lon="-5.386517">
        <ele>2446.0</ele>
        <time>2015-07-25T14:07:31Z</time>
      </trkpt>
      <trkpt lat="40.428050" lon="-5.386233">
        <ele>2446.0</ele>
        <time>2015-07-25T14:07:33Z</time>
      </trkpt>
      <trkpt lat="40.427850" lon="-5.385967">
        <ele>2448.0</ele>
        <time>2015-07-25T14:07:35Z</time>
      </trkpt>
      <trkpt lat="40.427583" lon="-5.385800">
        <ele>2450.0</ele>
        <time>2015-07-25T14:07:37Z</time>
      </trkpt>
      <trkpt lat="40.427283" lon="-5.385750">
        <ele>2455.0</ele>
        <time>2015-07-25T14:07:39Z</time>
      </trkpt>
      <trkpt lat="40.427050" lon="-5.385800">
        <ele>2464.0</ele>
        <time>2015-07-25T14:07:41Z</time>
      </trkpt>
      <trkpt lat="40.426833" lon="-5.385867">
        <ele>2470.0</ele>
        <time>2015-07-25T14:07:43Z</time>
      </trkpt>
      <trkpt lat="40.426633" lon="-5.386000">
        <ele>2472.0</ele>
        <time>2015-07-25T14:07:45Z</time>
      </trkpt>
      <trkpt lat="40.426467" lon="-5.386167">
        <ele>2476.0</ele>
        <time>2015-07-25T14:07:47Z</time>
      </trkpt>
      <trkpt lat="40.426367" lon="-5.386333">
        <ele>2482.0</ele>
        <time>2015-07-25T14:07:49Z</time>
      </trkpt>
      <trkpt lat="40.426317" lon="-5.386483">
        <ele>2484.0</ele>
        <time>2015-07-25T14:07:51Z</time>
      </trkpt>
      <trkpt lat="40.426333" lon="-5.386617">
        <ele>2486.0</ele>
        <time>2015-07-25T14:07:53Z</time>
      </trkpt>
      <trkpt lat="40.426367" lon="-5.386733">
        <ele>2492.0</ele>
        <time>2015-07-25T14:07:55Z</time>
      </trkpt>
      <trkpt lat="40.426383" lon="-5.386800">
        <ele>2494.0</ele>
        <time>2015-07-25T14:07:57Z</time>
      </trkpt>
      <trkpt lat="40.426417" lon="-5.386900">
        <ele>2495.0</ele>
        <time>2015-07-25T14:07:59Z</time>
      </trkpt>
      <trkpt lat="40.426450" lon="-5.386983">
        <ele>2498.0</ele>
        <time>2015-07-25T14:08:01Z</time>
      </trkpt>
      <trkpt lat="40.426500" lon="-5.387033">
        <ele>2499.0</ele>
        <time>2015-07-25T14:08:03Z</time>
      </trkpt>
      <trkpt lat="40.426517" lon="-5.387100">
        <ele>2499.0</ele>
        <time>2015-07-25T14:08:05Z</time>
      </trkpt>
      <trkpt lat="40.426550" lon="-5.387200">
        <ele>2502.0</ele>
        <time>2015-07-25T14:08:07Z</time>
      </trkpt>
      <trkpt lat="40.426567" lon="-5.387267">
        <ele>2504.0</ele>
        <time>2015-07-25T14:08:09Z</time>
      </trkpt>
      <trkpt lat="40.426600" lon="-5.387367">
        <ele>2506.0</ele>
        <time>2015-07-25T14:08:11Z</time>
      </trkpt>
      <trkpt lat="40.426650" lon="-5.387500">
        <ele>2508.0</ele>
        <time>2015-07-25T14:08:13Z</time>
      </trkpt>
      <trkpt lat="40.426650" lon="-5.387650">
        <ele>2510.0</ele>
        <time>2015-07-25T14:08:15Z</time>
      </trkpt>
      <trkpt lat="40.426683" lon="-5.387783">
        <ele>2507.0</ele>
        <time>2015-07-25T14:08:17Z</time>
      </trkpt>
      <trkpt lat="40.426750" lon="-5.387933">
        <ele>2506.0</ele>
        <time>2015-07-25T14:08:19Z</time>
      </trkpt>
      <trkpt lat="40.426850" lon="-5.388100">
        <ele>2506.0</ele>
        <time>2015-07-25T14:08:21Z</time>
      </trkpt>
      <trkpt lat="40.426917" lon="-5.388300">
        <ele>2510.0</ele>
        <time>2015-07-25T14:08:23Z</time>
      </trkpt>
      <trkpt lat="40.426983" lon="-5.388450">
        <ele>2516.0</ele>
        <time>2015-07-25T14:08:25Z</time>
      </trkpt>
      <trkpt lat="40.427033" lon="-5.388633">
        <ele>2520.0</ele>
        <time>2015-07-25T14:08:27Z</time>
      </trkpt>
      <trkpt lat="40.427117" lon="-5.388850">
        <ele>2522.0</ele>
        <time>2015-07-25T14:08:29Z</time>
      </trkpt>
      <trkpt lat="40.427200" lon="-5.389100">
        <ele>2527.0</ele>
        <time>2015-07-25T14:08:31Z</time>
      </trkpt>
      <trkpt lat="40.427267" lon="-5.389317">
        <ele>2533.0</ele>
        <time>2015-07-25T14:08:33Z</time>
      </trkpt>
      <trkpt lat="40.427333" lon="-5.389483">
        <ele>2539.0</ele>
        <time>2015-07-25T14:08:35Z</time>
      </trkpt>
      <trkpt lat="40.427417" lon="-5.389567">
        <ele>2540.0</ele>
        <time>2015-07-25T14:08:37Z</time>
      </trkpt>
      <trkpt lat="40.427517" lon="-5.389583">
        <ele>2541.0</ele>
        <time>2015-07-25T14:08:39Z</time>
      </trkpt>
      <trkpt lat="40.427617" lon="-5.389583">
        <ele>2544.0</ele>
        <time>2015-07-25T14:08:41Z</time>
      </trkpt>
      <trkpt lat="40.427700" lon="-5.389583">
        <ele>2547.0</ele>
        <time>2015-07-25T14:08:43Z</time>
      </trkpt>
      <trkpt lat="40.427783" lon="-5.389567">
        <ele>2549.0</ele>
        <time>2015-07-25T14:08:45Z</time>
      </trkpt>
      <trkpt lat="40.427850" lon="-5.389617">
        <ele>2549.0</ele>
        <time>2015-07-25T14:08:47Z</time>
      </trkpt>
      <trkpt lat="40.427967" lon="-5.389717">
        <ele>2547.0</ele>
        <time>2015-07-25T14:08:49Z</time>
      </trkpt>
      <trkpt lat="40.428067" lon="-5.389850">
        <ele>2549.0</ele>
        <time>2015-07-25T14:08:51Z</time>
      </trkpt>
      <trkpt lat="40.428133" lon="-5.390000">
        <ele>2551.0</ele>
        <time>2015-07-25T14:08:53Z</time>
      </trkpt>
      <trkpt lat="40.428217" lon="-5.390167">
        <ele>2553.0</ele>
        <time>2015-07-25T14:08:55Z</time>
      </trkpt>
      <trkpt lat="40.428300" lon="-5.390350">
        <ele>2554.0</ele>
        <time>2015-07-25T14:08:57Z</time>
      </trkpt>
      <trkpt lat="40.428350" lon="-5.390500">
        <ele>2552.0</ele>
        <time>2015-07-25T14:08:59Z</time>
      </trkpt>
      <trkpt lat="40.428417" lon="-5.390650">
        <ele>2547.0</ele>
        <time>2015-07-25T14:09:01Z</time>
      </trkpt>
      <trkpt lat="40.428467" lon="-5.390833">
        <ele>2544.0</ele>
        <time>2015-07-25T14:09:03Z</time>
      </trkpt>
      <trkpt lat="40.428500" lon="-5.390967">
        <ele>2542.0</ele>
        <time>2015-07-25T14:09:05Z</time>
      </trkpt>
      <trkpt lat="40.428533" lon="-5.391117">
        <ele>2537.0</ele>
        <time>2015-07-25T14:09:07Z</time>
      </trkpt>
      <trkpt lat="40.428567" lon="-5.391267">
        <ele>2531.0</ele>
        <time>2015-07-25T14:09:09Z</time>
      </trkpt>
      <trkpt lat="40.428600" lon="-5.391433">
        <ele>2525.0</ele>
        <time>2015-07-25T14:09:11Z</time>
      </trkpt>
      <trkpt lat="40.428650" lon="-5.391583">
        <ele>2521.0</ele>
        <time>2015-07-25T14:09:13Z</time>
      </trkpt>
      <trkpt lat="40.428683" lon="-5.391750">
        <ele>2519.0</ele>
        <time>2015-07-25T14:09:15Z</time>
      </trkpt>
      <trkpt lat="40.428700" lon="-5.391883">
        <ele>2518.0</ele>
        <time>2015-07-25T14:09:17Z</time>
      </trkpt>
      <trkpt lat="40.428717" lon="-5.392050">
        <ele>2517.0</ele>
        <time>2015-07-25T14:09:19Z</time>
      </trkpt>
      <trkpt lat="40.428733" lon="-5.392233">
        <ele>2517.0</ele>
        <time>2015-07-25T14:09:21Z</time>
      </trkpt>
      <trkpt lat="40.428733" lon="-5.392400">
        <ele>2517.0</ele>
        <time>2015-07-25T14:09:23Z</time>
      </trkpt>
      <trkpt lat="40.428733" lon="-5.392567">
        <ele>2512.0</ele>
        <time>2015-07-25T14:09:25Z</time>
      </trkpt>
      <trkpt lat="40.428767" lon="-5.392767">
        <ele>2506.0</ele>
        <time>2015-07-25T14:09:27Z</time>
      </trkpt>
      <trkpt lat="40.428800" lon="-5.392967">
        <ele>2503.0</ele>
        <time>2015-07-25T14:09:29Z</time>
      </trkpt>
      <trkpt lat="40.428817" lon="-5.393150">
        <ele>2500.0</ele>
        <time>2015-07-25T14:09:31Z</time>
      </trkpt>
      <trkpt lat="40.428850" lon="-5.393350">
        <ele>2494.0</ele>
        <time>2015-07-25T14:09:33Z</time>
      </trkpt>
      <trkpt lat="40.428867" lon="-5.393583">
        <ele>2491.0</ele>
        <time>2015-07-25T14:09:35Z</time>
      </trkpt>
      <trkpt lat="40.428850" lon="-5.393817">
        <ele>2488.0</ele>
        <time>2015-07-25T14:09:37Z</time>
      </trkpt>
      <trkpt lat="40.428833" lon="-5.394017">
        <ele>2484.0</ele>
        <time>2015-07-25T14:09:39Z</time>
      </trkpt>
      <trkpt lat="40.428800" lon="-5.394200">
        <ele>2480.0</ele>
        <time>2015-07-25T14:09:41Z</time>
      </trkpt>
      <trkpt lat="40.428817" lon="-5.394367">
        <ele>2473.0</ele>
        <time>2015-07-25T14:09:43Z</time>
      </trkpt>
      <trkpt lat="40.428867" lon="-5.394567">
        <ele>2469.0</ele>
        <time>2015-07-25T14:09:45Z</time>
      </trkpt>
      <trkpt lat="40.428917" lon="-5.394817">
        <ele>2469.0</ele>
        <time>2015-07-25T14:09:47Z</time>
      </trkpt>
      <trkpt lat="40.428950" lon="-5.395017">
        <ele>2471.0</ele>
        <time>2015-07-25T14:09:49Z</time>
      </trkpt>
      <trkpt lat="40.428983" lon="-5.395133">
        <ele>2471.0</ele>
        <time>2015-07-25T14:09:51Z</time>
      </trkpt>
      <trkpt lat="40.429050" lon="-5.395233">
        <ele>2471.0</ele>
        <time>2015-07-25T14:09:53Z</time>
      </trkpt>
      <trkpt lat="40.429100" lon="-5.395350">
        <ele>2475.0</ele>
        <time>2015-07-25T14:09:55Z</time>
      </trkpt>
      <trkpt lat="40.429117" lon="-5.395433">
        <ele>2477.0</ele>
        <time>2015-07-25T14:09:57Z</time>
      </trkpt>
      <trkpt lat="40.429150" lon="-5.395517">
        <ele>2475.0</ele>
        <time>2015-07-25T14:09:59Z</time>
      </trkpt>
      <trkpt lat="40.429200" lon="-5.395667">
        <ele>2474.0</ele>
        <time>2015-07-25T14:10:01Z</time>
      </trkpt>
      <trkpt lat="40.429233" lon="-5.395800">
        <ele>2476.0</ele>
        <time>2015-07-25T14:10:03Z</time>
      </trkpt>
      <trkpt lat="40.429267" lon="-5.395950">
        <ele>2477.0</ele>
        <time>2015-07-25T14:10:05Z</time>
      </trkpt>
      <trkpt lat="40.429283" lon="-5.396100">
        <ele>2479.0</ele>
        <time>2015-07-25T14:10:07Z</time>
      </trkpt>
      <trkpt lat="40.429283" lon="-5.396267">
        <ele>2481.0</ele>
        <time>2015-07-25T14:10:09Z</time>
      </trkpt>
      <trkpt lat="40.429283" lon="-5.396400">
        <ele>2485.0</ele>
        <time>2015-07-25T14:10:11Z</time>
      </trkpt>
      <trkpt lat="40.429267" lon="-5.396483">
        <ele>2489.0</ele>
        <time>2015-07-25T14:10:13Z</time>
      </trkpt>
      <trkpt lat="40.429233" lon="-5.396500">
        <ele>2490.0</ele>
        <time>2015-07-25T14:10:15Z</time>
      </trkpt>
      <trkpt lat="40.429267" lon="-5.396517">
        <ele>2488.0</ele>
        <time>2015-07-25T14:10:17Z</time>
      </trkpt>
      <trkpt lat="40.429333" lon="-5.396583">
        <ele>2489.0</ele>
        <time>2015-07-25T14:10:19Z</time>
      </trkpt>
      <trkpt lat="40.429333" lon="-5.396667">
        <ele>2494.0</ele>
        <time>2015-07-25T14:10:21Z</time>
      </trkpt>
      <trkpt lat="40.429333" lon="-5.396750">
        <ele>2496.0</ele>
        <time>2015-07-25T14:10:23Z</time>
      </trkpt>
      <trkpt lat="40.429300" lon="-5.396950">
        <ele>2495.0</ele>
        <time>2015-07-25T14:10:25Z</time>
      </trkpt>
      <trkpt lat="40.429300" lon="-5.397200">
        <ele>2499.0</ele>
        <time>2015-07-25T14:10:27Z</time>
      </trkpt>
      <trkpt lat="40.429283" lon="-5.397383">
        <ele>2506.0</ele>
        <time>2015-07-25T14:10:29Z</time>
      </trkpt>
      <trkpt lat="40.429250" lon="-5.397583">
        <ele>2508.0</ele>
        <time>2015-07-25T14:10:31Z</time>
      </trkpt>
      <trkpt lat="40.429267" lon="-5.397700">
        <ele>2507.0</ele>
        <time>2015-07-25T14:10:33Z</time>
      </trkpt>
      <trkpt lat="40.429317" lon="-5.397733">
        <ele>2507.0</ele>
        <time>2015-07-25T14:10:35Z</time>
      </trkpt>
      <trkpt lat="40.429367" lon="-5.397750">
        <ele>2509.0</ele>
        <time>2015-07-25T14:10:37Z</time>
      </trkpt>
      <trkpt lat="40.429383" lon="-5.397817">
        <ele>2514.0</ele>
        <time>2015-07-25T14:10:39Z</time>
      </trkpt>
      <trkpt lat="40.429417" lon="-5.397933">
        <ele>2516.0</ele>
        <time>2015-07-25T14:10:41Z</time>
      </trkpt>
      <trkpt lat="40.429433" lon="-5.398083">
        <ele>2517.0</ele>
        <time>2015-07-25T14:10:43Z</time>
      </trkpt>
      <trkpt lat="40.429417" lon="-5.398283">
        <ele>2517.0</ele>
        <time>2015-07-25T14:10:45Z</time>
      </trkpt>
      <trkpt lat="40.429450" lon="-5.398483">
        <ele>2516.0</ele>
        <time>2015-07-25T14:10:47Z</time>
      </trkpt>
      <trkpt lat="40.429483" lon="-5.398700">
        <ele>2515.0</ele>
        <time>2015-07-25T14:10:49Z</time>
      </trkpt>
      <trkpt lat="40.429483" lon="-5.398950">
        <ele>2516.0</ele>
        <time>2015-07-25T14:10:51Z</time>
      </trkpt>
      <trkpt lat="40.429450" lon="-5.399150">
        <ele>2516.0</ele>
        <time>2015-07-25T14:10:53Z</time>
      </trkpt>
      <trkpt lat="40.429467" lon="-5.399367">
        <ele>2514.0</ele>
        <time>2015-07-25T14:10:55Z</time>
      </trkpt>
      <trkpt lat="40.429500" lon="-5.399583">
        <ele>2514.0</ele>
        <time>2015-07-25T14:10:57Z</time>
      </trkpt>
      <trkpt lat="40.429500" lon="-5.399817">
        <ele>2515.0</ele>
        <time>2015-07-25T14:10:59Z</time>
      </trkpt>
      <trkpt lat="40.429517" lon="-5.400033">
        <ele>2514.0</ele>
        <time>2015-07-25T14:11:01Z</time>
      </trkpt>
      <trkpt lat="40.429533" lon="-5.400250">
        <ele>2512.0</ele>
        <time>2015-07-25T14:11:03Z</time>
      </trkpt>
      <trkpt lat="40.429550" lon="-5.400450">
        <ele>2509.0</ele>
        <time>2015-07-25T14:11:05Z</time>
      </trkpt>
      <trkpt lat="40.429583" lon="-5.400633">
        <ele>2505.0</ele>
        <time>2015-07-25T14:11:07Z</time>
      </trkpt>
      <trkpt lat="40.429633" lon="-5.400817">
        <ele>2499.0</ele>
        <time>2015-07-25T14:11:09Z</time>
      </trkpt>
      <trkpt lat="40.429667" lon="-5.401033">
        <ele>2494.0</ele>
        <time>2015-07-25T14:11:11Z</time>
      </trkpt>
      <trkpt lat="40.429700" lon="-5.401250">
        <ele>2488.0</ele>
        <time>2015-07-25T14:11:13Z</time>
      </trkpt>
      <trkpt lat="40.429733" lon="-5.401467">
        <ele>2481.0</ele>
        <time>2015-07-25T14:11:15Z</time>
      </trkpt>
      <trkpt lat="40.429750" lon="-5.401717">
        <ele>2472.0</ele>
        <time>2015-07-25T14:11:17Z</time>
      </trkpt>
      <trkpt lat="40.429783" lon="-5.401967">
        <ele>2467.0</ele>
        <time>2015-07-25T14:11:19Z</time>
      </trkpt>
      <trkpt lat="40.429800" lon="-5.402150">
        <ele>2464.0</ele>
        <time>2015-07-25T14:11:21Z</time>
      </trkpt>
      <trkpt lat="40.429783" lon="-5.402350">
        <ele>2462.0</ele>
        <time>2015-07-25T14:11:23Z</time>
      </trkpt>
      <trkpt lat="40.429783" lon="-5.402550">
        <ele>2463.0</ele>
        <time>2015-07-25T14:11:25Z</time>
      </trkpt>
      <trkpt lat="40.429800" lon="-5.402717">
        <ele>2463.0</ele>
        <time>2015-07-25T14:11:27Z</time>
      </trkpt>
      <trkpt lat="40.429833" lon="-5.402900">
        <ele>2461.0</ele>
        <time>2015-07-25T14:11:29Z</time>
      </trkpt>
      <trkpt lat="40.429867" lon="-5.403083">
        <ele>2459.0</ele>
        <time>2015-07-25T14:11:31Z</time>
      </trkpt>
      <trkpt lat="40.429883" lon="-5.403267">
        <ele>2457.0</ele>
        <time>2015-07-25T14:11:33Z</time>
      </trkpt>
      <trkpt lat="40.429900" lon="-5.403450">
        <ele>2455.0</ele>
        <time>2015-07-25T14:11:35Z</time>
      </trkpt>
      <trkpt lat="40.429933" lon="-5.403617">
        <ele>2453.0</ele>
        <time>2015-07-25T14:11:37Z</time>
      </trkpt>
      <trkpt lat="40.429967" lon="-5.403817">
        <ele>2452.0</ele>
        <time>2015-07-25T14:11:39Z</time>
      </trkpt>
      <trkpt lat="40.430000" lon="-5.403983">
        <ele>2452.0</ele>
        <time>2015-07-25T14:11:41Z</time>
      </trkpt>
      <trkpt lat="40.430050" lon="-5.404133">
        <ele>2451.0</ele>
        <time>2015-07-25T14:11:43Z</time>
      </trkpt>
      <trkpt lat="40.430067" lon="-5.404317">
        <ele>2450.0</ele>
        <time>2015-07-25T14:11:45Z</time>
      </trkpt>
      <trkpt lat="40.430117" lon="-5.404500">
        <ele>2450.0</ele>
        <time>2015-07-25T14:11:47Z</time>
      </trkpt>
      <trkpt lat="40.430150" lon="-5.404617">
        <ele>2451.0</ele>
        <time>2015-07-25T14:11:49Z</time>
      </trkpt>
      <trkpt lat="40.430183" lon="-5.404700">
        <ele>2451.0</ele>
        <time>2015-07-25T14:11:51Z</time>
      </trkpt>
      <trkpt lat="40.430250" lon="-5.404817">
        <ele>2448.0</ele>
        <time>2015-07-25T14:11:53Z</time>
      </trkpt>
      <trkpt lat="40.430300" lon="-5.404917">
        <ele>2449.0</ele>
        <time>2015-07-25T14:11:55Z</time>
      </trkpt>
      <trkpt lat="40.430350" lon="-5.405017">
        <ele>2450.0</ele>
        <time>2015-07-25T14:11:57Z</time>
      </trkpt>
      <trkpt lat="40.430383" lon="-5.405100">
        <ele>2450.0</ele>
        <time>2015-07-25T14:11:59Z</time>
      </trkpt>
      <trkpt lat="40.430417" lon="-5.405200">
        <ele>2448.0</ele>
        <time>2015-07-25T14:12:01Z</time>
      </trkpt>
      <trkpt lat="40.430467" lon="-5.405317">
        <ele>2444.0</ele>
        <time>2015-07-25T14:12:03Z</time>
      </trkpt>
      <trkpt lat="40.430517" lon="-5.405467">
        <ele>2437.0</ele>
        <time>2015-07-25T14:12:05Z</time>
      </trkpt>
      <trkpt lat="40.430567" lon="-5.405583">
        <ele>2430.0</ele>
        <time>2015-07-25T14:12:07Z</time>
      </trkpt>
      <trkpt lat="40.430650" lon="-5.405717">
        <ele>2424.0</ele>
        <time>2015-07-25T14:12:09Z</time>
      </trkpt>
      <trkpt lat="40.430717" lon="-5.405867">
        <ele>2423.0</ele>
        <time>2015-07-25T14:12:11Z</time>
      </trkpt>
      <trkpt lat="40.430767" lon="-5.405917">
        <ele>2420.0</ele>
        <time>2015-07-25T14:12:13Z</time>
      </trkpt>
      <trkpt lat="40.430850" lon="-5.405967">
        <ele>2414.0</ele>
        <time>2015-07-25T14:12:15Z</time>
      </trkpt>
      <trkpt lat="40.430917" lon="-5.406100">
        <ele>2411.0</ele>
        <time>2015-07-25T14:12:17Z</time>
      </trkpt>
      <trkpt lat="40.430967" lon="-5.406200">
        <ele>2407.0</ele>
        <time>2015-07-25T14:12:19Z</time>
      </trkpt>
      <trkpt lat="40.431017" lon="-5.406300">
        <ele>2403.0</ele>
        <time>2015-07-25T14:12:21Z</time>
      </trkpt>
      <trkpt lat="40.431083" lon="-5.406417">
        <ele>2400.0</ele>
        <time>2015-07-25T14:12:23Z</time>
      </trkpt>
      <trkpt lat="40.431150" lon="-5.406533">
        <ele>2399.0</ele>
        <time>2015-07-25T14:12:25Z</time>
      </trkpt>
      <trkpt lat="40.431200" lon="-5.406650">
        <ele>2394.0</ele>
        <time>2015-07-25T14:12:27Z</time>
      </trkpt>
      <trkpt lat="40.431267" lon="-5.406800">
        <ele>2388.0</ele>
        <time>2015-07-25T14:12:29Z</time>
      </trkpt>
      <trkpt lat="40.431317" lon="-5.406967">
        <ele>2385.0</ele>
        <time>2015-07-25T14:12:31Z</time>
      </trkpt>
      <trkpt lat="40.431350" lon="-5.407133">
        <ele>2383.0</ele>
        <time>2015-07-25T14:12:33Z</time>
      </trkpt>
      <trkpt lat="40.431367" lon="-5.407283">
        <ele>2378.0</ele>
        <time>2015-07-25T14:12:35Z</time>
      </trkpt>
      <trkpt lat="40.431383" lon="-5.407483">
        <ele>2372.0</ele>
        <time>2015-07-25T14:12:37Z</time>
      </trkpt>
      <trkpt lat="40.431383" lon="-5.407700">
        <ele>2367.0</ele>
        <time>2015-07-25T14:12:39Z</time>
      </trkpt>
      <trkpt lat="40.431367" lon="-5.407883">
        <ele>2364.0</ele>
        <time>2015-07-25T14:12:41Z</time>
      </trkpt>
      <trkpt lat="40.431367" lon="-5.408067">
        <ele>2358.0</ele>
        <time>2015-07-25T14:12:43Z</time>
      </trkpt>
      <trkpt lat="40.431383" lon="-5.408267">
        <ele>2352.0</ele>
        <time>2015-07-25T14:12:45Z</time>
      </trkpt>
      <trkpt lat="40.431400" lon="-5.408450">
        <ele>2349.0</ele>
        <time>2015-07-25T14:12:47Z</time>
      </trkpt>
      <trkpt lat="40.431417" lon="-5.408650">
        <ele>2343.0</ele>
        <time>2015-07-25T14:12:49Z</time>
      </trkpt>
      <trkpt lat="40.431483" lon="-5.408850">
        <ele>2338.0</ele>
        <time>2015-07-25T14:12:51Z</time>
      </trkpt>
      <trkpt lat="40.431567" lon="-5.409033">
        <ele>2344.0</ele>
        <time>2015-07-25T14:12:53Z</time>
      </trkpt>
      <trkpt lat="40.431550" lon="-5.409183">
        <ele>2350.0</ele>
        <time>2015-07-25T14:12:55Z</time>
      </trkpt>
      <trkpt lat="40.431550" lon="-5.409267">
        <ele>2350.0</ele>
        <time>2015-07-25T14:12:57Z</time>
      </trkpt>
      <trkpt lat="40.431633" lon="-5.409283">
        <ele>2349.0</ele>
        <time>2015-07-25T14:12:59Z</time>
      </trkpt>
      <trkpt lat="40.431733" lon="-5.409283">
        <ele>2350.0</ele>
        <time>2015-07-25T14:13:01Z</time>
      </trkpt>
      <trkpt lat="40.431800" lon="-5.409250">
        <ele>2351.0</ele>
        <time>2015-07-25T14:13:03Z</time>
      </trkpt>
      <trkpt lat="40.431883" lon="-5.409100">
        <ele>2350.0</ele>
        <time>2015-07-25T14:13:05Z</time>
      </trkpt>
      <trkpt lat="40.431917" lon="-5.408867">
        <ele>2354.0</ele>
        <time>2015-07-25T14:13:07Z</time>
      </trkpt>
      <trkpt lat="40.431900" lon="-5.408633">
        <ele>2358.0</ele>
        <time>2015-07-25T14:13:09Z</time>
      </trkpt>
      <trkpt lat="40.431817" lon="-5.408383">
        <ele>2358.0</ele>
        <time>2015-07-25T14:13:11Z</time>
      </trkpt>
      <trkpt lat="40.431633" lon="-5.408183">
        <ele>2356.0</ele>
        <time>2015-07-25T14:13:13Z</time>
      </trkpt>
      <trkpt lat="40.431367" lon="-5.408117">
        <ele>2354.0</ele>
        <time>2015-07-25T14:13:15Z</time>
      </trkpt>
      <trkpt lat="40.431133" lon="-5.408200">
        <ele>2354.0</ele>
        <time>2015-07-25T14:13:17Z</time>
      </trkpt>
      <trkpt lat="40.430950" lon="-5.408383">
        <ele>2353.0</ele>
        <time>2015-07-25T14:13:19Z</time>
      </trkpt>
      <trkpt lat="40.430833" lon="-5.408617">
        <ele>2355.0</ele>
        <time>2015-07-25T14:13:21Z</time>
      </trkpt>
      <trkpt lat="40.430767" lon="-5.408817">
        <ele>2357.0</ele>
        <time>2015-07-25T14:13:23Z</time>
      </trkpt>
      <trkpt lat="40.430717" lon="-5.409017">
        <ele>2359.0</ele>
        <time>2015-07-25T14:13:25Z</time>
      </trkpt>
      <trkpt lat="40.430683" lon="-5.409200">
        <ele>2363.0</ele>
        <time>2015-07-25T14:13:27Z</time>
      </trkpt>
      <trkpt lat="40.430667" lon="-5.409350">
        <ele>2364.0</ele>
        <time>2015-07-25T14:13:29Z</time>
      </trkpt>
      <trkpt lat="40.430700" lon="-5.409467">
        <ele>2362.0</ele>
        <time>2015-07-25T14:13:31Z</time>
      </trkpt>
      <trkpt lat="40.430733" lon="-5.409650">
        <ele>2361.0</ele>
        <time>2015-07-25T14:13:33Z</time>
      </trkpt>
      <trkpt lat="40.430750" lon="-5.409833">
        <ele>2362.0</ele>
        <time>2015-07-25T14:13:35Z</time>
      </trkpt>
      <trkpt lat="40.430783" lon="-5.409967">
        <ele>2361.0</ele>
        <time>2015-07-25T14:13:37Z</time>
      </trkpt>
      <trkpt lat="40.430817" lon="-5.410167">
        <ele>2355.0</ele>
        <time>2015-07-25T14:13:39Z</time>
      </trkpt>
      <trkpt lat="40.430883" lon="-5.410367">
        <ele>2353.0</ele>
        <time>2015-07-25T14:13:41Z</time>
      </trkpt>
      <trkpt lat="40.430933" lon="-5.410500">
        <ele>2354.0</ele>
        <time>2015-07-25T14:13:43Z</time>
      </trkpt>
      <trkpt lat="40.430950" lon="-5.410683">
        <ele>2350.0</ele>
        <time>2015-07-25T14:13:45Z</time>
      </trkpt>
      <trkpt lat="40.430983" lon="-5.410883">
        <ele>2347.0</ele>
        <time>2015-07-25T14:13:47Z</time>
      </trkpt>
      <trkpt lat="40.431000" lon="-5.411083">
        <ele>2348.0</ele>
        <time>2015-07-25T14:13:49Z</time>
      </trkpt>
      <trkpt lat="40.431000" lon="-5.411267">
        <ele>2345.0</ele>
        <time>2015-07-25T14:13:51Z</time>
      </trkpt>
      <trkpt lat="40.431033" lon="-5.411467">
        <ele>2340.0</ele>
        <time>2015-07-25T14:13:53Z</time>
      </trkpt>
      <trkpt lat="40.431050" lon="-5.411700">
        <ele>2338.0</ele>
        <time>2015-07-25T14:13:55Z</time>
      </trkpt>
      <trkpt lat="40.431050" lon="-5.411900">
        <ele>2338.0</ele>
        <time>2015-07-25T14:13:57Z</time>
      </trkpt>
      <trkpt lat="40.431067" lon="-5.412083">
        <ele>2336.0</ele>
        <time>2015-07-25T14:13:59Z</time>
      </trkpt>
      <trkpt lat="40.431083" lon="-5.412300">
        <ele>2333.0</ele>
        <time>2015-07-25T14:14:01Z</time>
      </trkpt>
      <trkpt lat="40.431100" lon="-5.412517">
        <ele>2333.0</ele>
        <time>2015-07-25T14:14:03Z</time>
      </trkpt>
      <trkpt lat="40.431100" lon="-5.412700">
        <ele>2331.0</ele>
        <time>2015-07-25T14:14:05Z</time>
      </trkpt>
      <trkpt lat="40.431133" lon="-5.412950">
        <ele>2330.0</ele>
        <time>2015-07-25T14:14:07Z</time>
      </trkpt>
      <trkpt lat="40.431183" lon="-5.413150">
        <ele>2333.0</ele>
        <time>2015-07-25T14:14:09Z</time>
      </trkpt>
      <trkpt lat="40.431200" lon="-5.413333">
        <ele>2332.0</ele>
        <time>2015-07-25T14:14:11Z</time>
      </trkpt>
      <trkpt lat="40.431267" lon="-5.413533">
        <ele>2324.0</ele>
        <time>2015-07-25T14:14:13Z</time>
      </trkpt>
      <trkpt lat="40.431367" lon="-5.413733">
        <ele>2318.0</ele>
        <time>2015-07-25T14:14:15Z</time>
      </trkpt>
      <trkpt lat="40.431433" lon="-5.413883">
        <ele>2316.0</ele>
        <time>2015-07-25T14:14:17Z</time>
      </trkpt>
      <trkpt lat="40.431500" lon="-5.414050">
        <ele>2311.0</ele>
        <time>2015-07-25T14:14:19Z</time>
      </trkpt>
      <trkpt lat="40.431583" lon="-5.414250">
        <ele>2308.0</ele>
        <time>2015-07-25T14:14:21Z</time>
      </trkpt>
      <trkpt lat="40.431650" lon="-5.414417">
        <ele>2306.0</ele>
        <time>2015-07-25T14:14:23Z</time>
      </trkpt>
      <trkpt lat="40.431717" lon="-5.414600">
        <ele>2300.0</ele>
        <time>2015-07-25T14:14:25Z</time>
      </trkpt>
      <trkpt lat="40.431817" lon="-5.414817">
        <ele>2295.0</ele>
        <time>2015-07-25T14:14:27Z</time>
      </trkpt>
      <trkpt lat="40.431900" lon="-5.415000">
        <ele>2291.0</ele>
        <time>2015-07-25T14:14:29Z</time>
      </trkpt>
      <trkpt lat="40.431983" lon="-5.415150">
        <ele>2286.0</ele>
        <time>2015-07-25T14:14:31Z</time>
      </trkpt>
      <trkpt lat="40.432067" lon="-5.415300">
        <ele>2280.0</ele>
        <time>2015-07-25T14:14:33Z</time>
      </trkpt>
      <trkpt lat="40.432150" lon="-5.415450">
        <ele>2277.0</ele>
        <time>2015-07-25T14:14:35Z</time>
      </trkpt>
      <trkpt lat="40.432183" lon="-5.415583">
        <ele>2273.0</ele>
        <time>2015-07-25T14:14:37Z</time>
      </trkpt>
      <trkpt lat="40.432250" lon="-5.415733">
        <ele>2268.0</ele>
        <time>2015-07-25T14:14:39Z</time>
      </trkpt>
      <trkpt lat="40.432333" lon="-5.415867">
        <ele>2265.0</ele>
        <time>2015-07-25T14:14:41Z</time>
      </trkpt>
      <trkpt lat="40.432400" lon="-5.416017">
        <ele>2263.0</ele>
        <time>2015-07-25T14:14:43Z</time>
      </trkpt>
      <trkpt lat="40.432467" lon="-5.416200">
        <ele>2259.0</ele>
        <time>2015-07-25T14:14:45Z</time>
      </trkpt>
      <trkpt lat="40.432533" lon="-5.416333">
        <ele>2257.0</ele>
        <time>2015-07-25T14:14:47Z</time>
      </trkpt>
      <trkpt lat="40.432600" lon="-5.416467">
        <ele>2252.0</ele>
        <time>2015-07-25T14:14:49Z</time>
      </trkpt>
      <trkpt lat="40.432683" lon="-5.416633">
        <ele>2244.0</ele>
        <time>2015-07-25T14:14:51Z</time>
      </trkpt>
      <trkpt lat="40.432750" lon="-5.416817">
        <ele>2241.0</ele>
        <time>2015-07-25T14:14:53Z</time>
      </trkpt>
      <trkpt lat="40.432783" lon="-5.416967">
        <ele>2238.0</ele>
        <time>2015-07-25T14:14:55Z</time>
      </trkpt>
      <trkpt lat="40.432833" lon="-5.417117">
        <ele>2233.0</ele>
        <time>2015-07-25T14:14:57Z</time>
      </trkpt>
      <trkpt lat="40.432883" lon="-5.417283">
        <ele>2228.0</ele>
        <time>2015-07-25T14:14:59Z</time>
      </trkpt>
      <trkpt lat="40.432917" lon="-5.417450">
        <ele>2224.0</ele>
        <time>2015-07-25T14:15:01Z</time>
      </trkpt>
      <trkpt lat="40.432983" lon="-5.417650">
        <ele>2221.0</ele>
        <time>2015-07-25T14:15:03Z</time>
      </trkpt>
      <trkpt lat="40.433033" lon="-5.417817">
        <ele>2219.0</ele>
        <time>2015-07-25T14:15:05Z</time>
      </trkpt>
      <trkpt lat="40.433067" lon="-5.417983">
        <ele>2215.0</ele>
        <time>2015-07-25T14:15:07Z</time>
      </trkpt>
      <trkpt lat="40.433133" lon="-5.418183">
        <ele>2209.0</ele>
        <time>2015-07-25T14:15:09Z</time>
      </trkpt>
      <trkpt lat="40.433200" lon="-5.418400">
        <ele>2205.0</ele>
        <time>2015-07-25T14:15:11Z</time>
      </trkpt>
      <trkpt lat="40.433250" lon="-5.418600">
        <ele>2201.0</ele>
        <time>2015-07-25T14:15:13Z</time>
      </trkpt>
      <trkpt lat="40.433317" lon="-5.418817">
        <ele>2196.0</ele>
        <time>2015-07-25T14:15:15Z</time>
      </trkpt>
      <trkpt lat="40.433383" lon="-5.419033">
        <ele>2192.0</ele>
        <time>2015-07-25T14:15:17Z</time>
      </trkpt>
      <trkpt lat="40.433433" lon="-5.419250">
        <ele>2188.0</ele>
        <time>2015-07-25T14:15:19Z</time>
      </trkpt>
      <trkpt lat="40.433467" lon="-5.419467">
        <ele>2182.0</ele>
        <time>2015-07-25T14:15:21Z</time>
      </trkpt>
      <trkpt lat="40.433517" lon="-5.419717">
        <ele>2176.0</ele>
        <time>2015-07-25T14:15:23Z</time>
      </trkpt>
      <trkpt lat="40.433567" lon="-5.419950">
        <ele>2171.0</ele>
        <time>2015-07-25T14:15:25Z</time>
      </trkpt>
      <trkpt lat="40.433600" lon="-5.420200">
        <ele>2167.0</ele>
        <time>2015-07-25T14:15:27Z</time>
      </trkpt>
      <trkpt lat="40.433600" lon="-5.420450">
        <ele>2164.0</ele>
        <time>2015-07-25T14:15:29Z</time>
      </trkpt>
      <trkpt lat="40.433633" lon="-5.420667">
        <ele>2162.0</ele>
        <time>2015-07-25T14:15:31Z</time>
      </trkpt>
      <trkpt lat="40.433650" lon="-5.420883">
        <ele>2157.0</ele>
        <time>2015-07-25T14:15:33Z</time>
      </trkpt>
      <trkpt lat="40.433700" lon="-5.421117">
        <ele>2152.0</ele>
        <time>2015-07-25T14:15:35Z</time>
      </trkpt>
      <trkpt lat="40.433750" lon="-5.421317">
        <ele>2150.0</ele>
        <time>2015-07-25T14:15:37Z</time>
      </trkpt>
      <trkpt lat="40.433783" lon="-5.421533">
        <ele>2147.0</ele>
        <time>2015-07-25T14:15:39Z</time>
      </trkpt>
      <trkpt lat="40.433800" lon="-5.421767">
        <ele>2142.0</ele>
        <time>2015-07-25T14:15:41Z</time>
      </trkpt>
      <trkpt lat="40.433850" lon="-5.421983">
        <ele>2138.0</ele>
        <time>2015-07-25T14:15:43Z</time>
      </trkpt>
      <trkpt lat="40.433917" lon="-5.422183">
        <ele>2133.0</ele>
        <time>2015-07-25T14:15:45Z</time>
      </trkpt>
      <trkpt lat="40.433983" lon="-5.422383">
        <ele>2129.0</ele>
        <time>2015-07-25T14:15:47Z</time>
      </trkpt>
      <trkpt lat="40.434033" lon="-5.422583">
        <ele>2124.0</ele>
        <time>2015-07-25T14:15:49Z</time>
      </trkpt>
      <trkpt lat="40.434083" lon="-5.422783">
        <ele>2118.0</ele>
        <time>2015-07-25T14:15:51Z</time>
      </trkpt>
      <trkpt lat="40.434133" lon="-5.422983">
        <ele>2114.0</ele>
        <time>2015-07-25T14:15:53Z</time>
      </trkpt>
      <trkpt lat="40.434150" lon="-5.423167">
        <ele>2110.0</ele>
        <time>2015-07-25T14:15:55Z</time>
      </trkpt>
      <trkpt lat="40.434167" lon="-5.423383">
        <ele>2103.0</ele>
        <time>2015-07-25T14:15:57Z</time>
      </trkpt>
      <trkpt lat="40.434217" lon="-5.423600">
        <ele>2097.0</ele>
        <time>2015-07-25T14:15:59Z</time>
      </trkpt>
      <trkpt lat="40.434250" lon="-5.423833">
        <ele>2093.0</ele>
        <time>2015-07-25T14:16:01Z</time>
      </trkpt>
      <trkpt lat="40.434267" lon="-5.424033">
        <ele>2090.0</ele>
        <time>2015-07-25T14:16:03Z</time>
      </trkpt>
      <trkpt lat="40.434300" lon="-5.424233">
        <ele>2085.0</ele>
        <time>2015-07-25T14:16:05Z</time>
      </trkpt>
      <trkpt lat="40.434350" lon="-5.424467">
        <ele>2078.0</ele>
        <time>2015-07-25T14:16:07Z</time>
      </trkpt>
      <trkpt lat="40.434383" lon="-5.424700">
        <ele>2075.0</ele>
        <time>2015-07-25T14:16:09Z</time>
      </trkpt>
      <trkpt lat="40.434417" lon="-5.424917">
        <ele>2075.0</ele>
        <time>2015-07-25T14:16:11Z</time>
      </trkpt>
      <trkpt lat="40.434450" lon="-5.425117">
        <ele>2072.0</ele>
        <time>2015-07-25T14:16:13Z</time>
      </trkpt>
      <trkpt lat="40.434500" lon="-5.425317">
        <ele>2066.0</ele>
        <time>2015-07-25T14:16:15Z</time>
      </trkpt>
      <trkpt lat="40.434550" lon="-5.425533">
        <ele>2061.0</ele>
        <time>2015-07-25T14:16:17Z</time>
      </trkpt>
      <trkpt lat="40.434567" lon="-5.425733">
        <ele>2059.0</ele>
        <time>2015-07-25T14:16:19Z</time>
      </trkpt>
      <trkpt lat="40.434583" lon="-5.425917">
        <ele>2053.0</ele>
        <time>2015-07-25T14:16:21Z</time>
      </trkpt>
      <trkpt lat="40.434617" lon="-5.426133">
        <ele>2048.0</ele>
        <time>2015-07-25T14:16:23Z</time>
      </trkpt>
      <trkpt lat="40.434650" lon="-5.426317">
        <ele>2045.0</ele>
        <time>2015-07-25T14:16:25Z</time>
      </trkpt>
      <trkpt lat="40.434667" lon="-5.426517">
        <ele>2040.0</ele>
        <time>2015-07-25T14:16:27Z</time>
      </trkpt>
      <trkpt lat="40.434700" lon="-5.426733">
        <ele>2034.0</ele>
        <time>2015-07-25T14:16:29Z</time>
      </trkpt>
      <trkpt lat="40.434750" lon="-5.426933">
        <ele>2030.0</ele>
        <time>2015-07-25T14:16:31Z</time>
      </trkpt>
      <trkpt lat="40.434783" lon="-5.427117">
        <ele>2026.0</ele>
        <time>2015-07-25T14:16:33Z</time>
      </trkpt>
      <trkpt lat="40.434800" lon="-5.427283">
        <ele>2017.0</ele>
        <time>2015-07-25T14:16:35Z</time>
      </trkpt>
      <trkpt lat="40.434833" lon="-5.427483">
        <ele>2008.0</ele>
        <time>2015-07-25T14:16:37Z</time>
      </trkpt>
      <trkpt lat="40.434833" lon="-5.427733">
        <ele>2001.0</ele>
        <time>2015-07-25T14:16:39Z</time>
      </trkpt>
      <trkpt lat="40.434800" lon="-5.427933">
        <ele>1996.0</ele>
        <time>2015-07-25T14:16:41Z</time>
      </trkpt>
      <trkpt lat="40.434817" lon="-5.428117">
        <ele>1987.0</ele>
        <time>2015-07-25T14:16:43Z</time>
      </trkpt>
      <trkpt lat="40.434850" lon="-5.428367">
        <ele>1979.0</ele>
        <time>2015-07-25T14:16:45Z</time>
      </trkpt>
      <trkpt lat="40.434850" lon="-5.428600">
        <ele>1974.0</ele>
        <time>2015-07-25T14:16:47Z</time>
      </trkpt>
      <trkpt lat="40.434883" lon="-5.428800">
        <ele>1968.0</ele>
        <time>2015-07-25T14:16:49Z</time>
      </trkpt>
      <trkpt lat="40.434900" lon="-5.429033">
        <ele>1962.0</ele>
        <time>2015-07-25T14:16:51Z</time>
      </trkpt>
      <trkpt lat="40.434917" lon="-5.429233">
        <ele>1958.0</ele>
        <time>2015-07-25T14:16:53Z</time>
      </trkpt>
      <trkpt lat="40.434933" lon="-5.429450">
        <ele>1953.0</ele>
        <time>2015-07-25T14:16:55Z</time>
      </trkpt>
      <trkpt lat="40.434950" lon="-5.429667">
        <ele>1947.0</ele>
        <time>2015-07-25T14:16:57Z</time>
      </trkpt>
      <trkpt lat="40.435000" lon="-5.429883">
        <ele>1942.0</ele>
        <time>2015-07-25T14:16:59Z</time>
      </trkpt>
      <trkpt lat="40.435033" lon="-5.430100">
        <ele>1939.0</ele>
        <time>2015-07-25T14:17:01Z</time>
      </trkpt>
      <trkpt lat="40.435067" lon="-5.430300">
        <ele>1935.0</ele>
        <time>2015-07-25T14:17:03Z</time>
      </trkpt>
      <trkpt lat="40.435117" lon="-5.430500">
        <ele>1933.0</ele>
        <time>2015-07-25T14:17:05Z</time>
      </trkpt>
      <trkpt lat="40.435167" lon="-5.430683">
        <ele>1929.0</ele>
        <time>2015-07-25T14:17:07Z</time>
      </trkpt>
      <trkpt lat="40.435233" lon="-5.430900">
        <ele>1923.0</ele>
        <time>2015-07-25T14:17:09Z</time>
      </trkpt>
      <trkpt lat="40.435300" lon="-5.431083">
        <ele>1922.0</ele>
        <time>2015-07-25T14:17:11Z</time>
      </trkpt>
      <trkpt lat="40.435350" lon="-5.431233">
        <ele>1919.0</ele>
        <time>2015-07-25T14:17:13Z</time>
      </trkpt>
      <trkpt lat="40.435417" lon="-5.431400">
        <ele>1914.0</ele>
        <time>2015-07-25T14:17:15Z</time>
      </trkpt>
      <trkpt lat="40.435500" lon="-5.431583">
        <ele>1910.0</ele>
        <time>2015-07-25T14:17:17Z</time>
      </trkpt>
      <trkpt lat="40.435567" lon="-5.431767">
        <ele>1908.0</ele>
        <time>2015-07-25T14:17:19Z</time>
      </trkpt>
      <trkpt lat="40.435650" lon="-5.431867">
        <ele>1907.0</ele>
        <time>2015-07-25T14:17:21Z</time>
      </trkpt>
      <trkpt lat="40.435783" lon="-5.431883">
        <ele>1902.0</ele>
        <time>2015-07-25T14:17:23Z</time>
      </trkpt>
      <trkpt lat="40.435917" lon="-5.431950">
        <ele>1902.0</ele>
        <time>2015-07-25T14:17:25Z</time>
      </trkpt>
      <trkpt lat="40.436000" lon="-5.432083">
        <ele>1899.0</ele>
        <time>2015-07-25T14:17:27Z</time>
      </trkpt>
      <trkpt lat="40.436117" lon="-5.432150">
        <ele>1894.0</ele>
        <time>2015-07-25T14:17:29Z</time>
      </trkpt>
      <trkpt lat="40.436267" lon="-5.432117">
        <ele>1891.0</ele>
        <time>2015-07-25T14:17:31Z</time>
      </trkpt>
      <trkpt lat="40.436367" lon="-5.432033">
        <ele>1892.0</ele>
        <time>2015-07-25T14:17:33Z</time>
      </trkpt>
      <trkpt lat="40.436433" lon="-5.431917">
        <ele>1891.0</ele>
        <time>2015-07-25T14:17:35Z</time>
      </trkpt>
      <trkpt lat="40.436467" lon="-5.431683">
        <ele>1893.0</ele>
        <time>2015-07-25T14:17:37Z</time>
      </trkpt>
      <trkpt lat="40.436433" lon="-5.431483">
        <ele>1896.0</ele>
        <time>2015-07-25T14:17:39Z</time>
      </trkpt>
      <trkpt lat="40.436400" lon="-5.431267">
        <ele>1894.0</ele>
        <time>2015-07-25T14:17:41Z</time>
      </trkpt>
      <trkpt lat="40.436333" lon="-5.431033">
        <ele>1892.0</ele>
        <time>2015-07-25T14:17:43Z</time>
      </trkpt>
      <trkpt lat="40.436300" lon="-5.430800">
        <ele>1890.0</ele>
        <time>2015-07-25T14:17:45Z</time>
      </trkpt>
      <trkpt lat="40.436317" lon="-5.430550">
        <ele>1889.0</ele>
        <time>2015-07-25T14:17:47Z</time>
      </trkpt>
      <trkpt lat="40.436383" lon="-5.430383">
        <ele>1892.0</ele>
        <time>2015-07-25T14:17:49Z</time>
      </trkpt>
      <trkpt lat="40.436450" lon="-5.430300">
        <ele>1895.0</ele>
        <time>2015-07-25T14:17:51Z</time>
      </trkpt>
      <trkpt lat="40.436550" lon="-5.430283">
        <ele>1895.0</ele>
        <time>2015-07-25T14:17:53Z</time>
      </trkpt>
      <trkpt lat="40.436650" lon="-5.430350">
        <ele>1897.0</ele>
        <time>2015-07-25T14:17:55Z</time>
      </trkpt>
      <trkpt lat="40.436650" lon="-5.430450">
        <ele>1901.0</ele>
        <time>2015-07-25T14:17:57Z</time>
      </trkpt>
      <trkpt lat="40.436633" lon="-5.430517">
        <ele>1903.0</ele>
        <time>2015-07-25T14:17:59Z</time>
      </trkpt>
      <trkpt lat="40.436667" lon="-5.430600">
        <ele>1901.0</ele>
        <time>2015-07-25T14:18:01Z</time>
      </trkpt>
      <trkpt lat="40.436733" lon="-5.430600">
        <ele>1899.0</ele>
        <time>2015-07-25T14:18:03Z</time>
      </trkpt>
      <trkpt lat="40.436800" lon="-5.430483">
        <ele>1898.0</ele>
        <time>2015-07-25T14:18:05Z</time>
      </trkpt>
      <trkpt lat="40.436850" lon="-5.430267">
        <ele>1896.0</ele>
        <time>2015-07-25T14:18:07Z</time>
      </trkpt>
      <trkpt lat="40.436833" lon="-5.429983">
        <ele>1896.0</ele>
        <time>2015-07-25T14:18:09Z</time>
      </trkpt>
      <trkpt lat="40.436750" lon="-5.429733">
        <ele>1897.0</ele>
        <time>2015-07-25T14:18:11Z</time>
      </trkpt>
      <trkpt lat="40.436583" lon="-5.429517">
        <ele>1896.0</ele>
        <time>2015-07-25T14:18:13Z</time>
      </trkpt>
      <trkpt lat="40.436333" lon="-5.429317">
        <ele>1895.0</ele>
        <time>2015-07-25T14:18:15Z</time>
      </trkpt>
      <trkpt lat="40.436083" lon="-5.429217">
        <ele>1895.0</ele>
        <time>2015-07-25T14:18:17Z</time>
      </trkpt>
      <trkpt lat="40.435833" lon="-5.429200">
        <ele>1895.0</ele>
        <time>2015-07-25T14:18:19Z</time>
      </trkpt>
      <trkpt lat="40.435600" lon="-5.429267">
        <ele>1894.0</ele>
        <time>2015-07-25T14:18:21Z</time>
      </trkpt>
      <trkpt lat="40.435400" lon="-5.429367">
        <ele>1892.0</ele>
        <time>2015-07-25T14:18:23Z</time>
      </trkpt>
      <trkpt lat="40.435233" lon="-5.429567">
        <ele>1889.0</ele>
        <time>2015-07-25T14:18:25Z</time>
      </trkpt>
      <trkpt lat="40.435133" lon="-5.429783">
        <ele>1892.0</ele>
        <time>2015-07-25T14:18:27Z</time>
      </trkpt>
      <trkpt lat="40.435050" lon="-5.429933">
        <ele>1895.0</ele>
        <time>2015-07-25T14:18:29Z</time>
      </trkpt>
      <trkpt lat="40.435017" lon="-5.430100">
        <ele>1892.0</ele>
        <time>2015-07-25T14:18:31Z</time>
      </trkpt>
      <trkpt lat="40.434983" lon="-5.430317">
        <ele>1891.0</ele>
        <time>2015-07-25T14:18:33Z</time>
      </trkpt>
      <trkpt lat="40.434967" lon="-5.430517">
        <ele>1892.0</ele>
        <time>2015-07-25T14:18:35Z</time>
      </trkpt>
      <trkpt lat="40.434933" lon="-5.430717">
        <ele>1893.0</ele>
        <time>2015-07-25T14:18:37Z</time>
      </trkpt>
      <trkpt lat="40.434933" lon="-5.430850">
        <ele>1894.0</ele>
        <time>2015-07-25T14:18:39Z</time>
      </trkpt>
      <trkpt lat="40.434967" lon="-5.430950">
        <ele>1895.0</ele>
        <time>2015-07-25T14:18:41Z</time>
      </trkpt>
      <trkpt lat="40.435017" lon="-5.431033">
        <ele>1895.0</ele>
        <time>2015-07-25T14:18:43Z</time>
      </trkpt>
      <trkpt lat="40.435100" lon="-5.431100">
        <ele>1895.0</ele>
        <time>2015-07-25T14:18:45Z</time>
      </trkpt>
      <trkpt lat="40.435167" lon="-5.431117">
        <ele>1895.0</ele>
        <time>2015-07-25T14:18:47Z</time>
      </trkpt>
      <trkpt lat="40.435233" lon="-5.431117">
        <ele>1895.0</ele>
        <time>2015-07-25T14:18:49Z</time>
      </trkpt>
      <trkpt lat="40.435283" lon="-5.431133">
        <ele>1896.0</ele>
        <time>2015-07-25T14:18:51Z</time>
      </trkpt>
      <trkpt lat="40.435300" lon="-5.431167">
        <ele>1896.0</ele>
        <time>2015-07-25T14:18:53Z</time>
      </trkpt>
      <trkpt lat="40.435317" lon="-5.431233">
        <ele>1894.0</ele>
        <time>2015-07-25T14:18:55Z</time>
      </trkpt>
      <trkpt lat="40.435367" lon="-5.431283">
        <ele>1894.0</ele>
        <time>2015-07-25T14:18:57Z</time>
      </trkpt>
      <trkpt lat="40.435400" lon="-5.431367">
        <ele>1894.0</ele>
        <time>2015-07-25T14:18:59Z</time>
      </trkpt>
      <trkpt lat="40.435450" lon="-5.431417">
        <ele>1892.0</ele>
        <time>2015-07-25T14:19:01Z</time>
      </trkpt>
      <trkpt lat="40.435533" lon="-5.431417">
        <ele>1891.0</ele>
        <time>2015-07-25T14:19:03Z</time>
      </trkpt>
      <trkpt lat="40.435583" lon="-5.431350">
        <ele>1894.0</ele>
        <time>2015-07-25T14:19:05Z</time>
      </trkpt>
      <trkpt lat="40.435600" lon="-5.431217">
        <ele>1894.0</ele>
        <time>2015-07-25T14:19:07Z</time>
      </trkpt>
      <trkpt lat="40.435567" lon="-5.430967">
        <ele>1892.0</ele>
        <time>2015-07-25T14:19:09Z</time>
      </trkpt>
      <trkpt lat="40.435450" lon="-5.430717">
        <ele>1895.0</ele>
        <time>2015-07-25T14:19:11Z</time>
      </trkpt>
      <trkpt lat="40.435300" lon="-5.430533">
        <ele>1896.0</ele>
        <time>2015-07-25T14:19:13Z</time>
      </trkpt>
      <trkpt lat="40.435067" lon="-5.430400">
        <ele>1893.0</ele>
        <time>2015-07-25T14:19:15Z</time>
      </trkpt>
      <trkpt lat="40.434817" lon="-5.430317">
        <ele>1893.0</ele>
        <time>2015-07-25T14:19:17Z</time>
      </trkpt>
      <trkpt lat="40.434567" lon="-5.430317">
        <ele>1892.0</ele>
        <time>2015-07-25T14:19:19Z</time>
      </trkpt>
      <trkpt lat="40.434333" lon="-5.430417">
        <ele>1891.0</ele>
        <time>2015-07-25T14:19:21Z</time>
      </trkpt>
      <trkpt lat="40.434167" lon="-5.430600">
        <ele>1890.0</ele>
        <time>2015-07-25T14:19:23Z</time>
      </trkpt>
      <trkpt lat="40.434050" lon="-5.430783">
        <ele>1891.0</ele>
        <time>2015-07-25T14:19:25Z</time>
      </trkpt>
      <trkpt lat="40.433983" lon="-5.430950">
        <ele>1890.0</ele>
        <time>2015-07-25T14:19:27Z</time>
      </trkpt>
      <trkpt lat="40.433967" lon="-5.431133">
        <ele>1887.0</ele>
        <time>2015-07-25T14:19:29Z</time>
      </trkpt>
      <trkpt lat="40.433967" lon="-5.431333">
        <ele>1886.0</ele>
        <time>2015-07-25T14:19:31Z</time>
      </trkpt>
      <trkpt lat="40.433967" lon="-5.431500">
        <ele>1886.0</ele>
        <time>2015-07-25T14:19:33Z</time>
      </trkpt>
      <trkpt lat="40.433950" lon="-5.431617">
        <ele>1884.0</ele>
        <time>2015-07-25T14:19:35Z</time>
      </trkpt>
      <trkpt lat="40.433950" lon="-5.431783">
        <ele>1879.0</ele>
        <time>2015-07-25T14:19:37Z</time>
      </trkpt>
      <trkpt lat="40.433950" lon="-5.431917">
        <ele>1876.0</ele>
        <time>2015-07-25T14:19:39Z</time>
      </trkpt>
      <trkpt lat="40.433983" lon="-5.432000">
        <ele>1874.0</ele>
        <time>2015-07-25T14:19:41Z</time>
      </trkpt>
      <trkpt lat="40.434033" lon="-5.432050">
        <ele>1870.0</ele>
        <time>2015-07-25T14:19:43Z</time>
      </trkpt>
      <trkpt lat="40.434083" lon="-5.432117">
        <ele>1869.0</ele>
        <time>2015-07-25T14:19:45Z</time>
      </trkpt>
      <trkpt lat="40.434083" lon="-5.432250">
        <ele>1870.0</ele>
        <time>2015-07-25T14:19:47Z</time>
      </trkpt>
      <trkpt lat="40.434050" lon="-5.432367">
        <ele>1869.0</ele>
        <time>2015-07-25T14:19:49Z</time>
      </trkpt>
      <trkpt lat="40.434017" lon="-5.432500">
        <ele>1866.0</ele>
        <time>2015-07-25T14:19:51Z</time>
      </trkpt>
      <trkpt lat="40.433950" lon="-5.432683">
        <ele>1860.0</ele>
        <time>2015-07-25T14:19:53Z</time>
      </trkpt>
      <trkpt lat="40.433933" lon="-5.432867">
        <ele>1858.0</ele>
        <time>2015-07-25T14:19:55Z</time>
      </trkpt>
      <trkpt lat="40.433883" lon="-5.433033">
        <ele>1857.0</ele>
        <time>2015-07-25T14:19:57Z</time>
      </trkpt>
      <trkpt lat="40.433750" lon="-5.433200">
        <ele>1852.0</ele>
        <time>2015-07-25T14:19:59Z</time>
      </trkpt>
      <trkpt lat="40.433667" lon="-5.433400">
        <ele>1847.0</ele>
        <time>2015-07-25T14:20:01Z</time>
      </trkpt>
      <trkpt lat="40.433567" lon="-5.433633">
        <ele>1845.0</ele>
        <time>2015-07-25T14:20:03Z</time>
      </trkpt>
      <trkpt lat="40.433467" lon="-5.433817">
        <ele>1843.0</ele>
        <time>2015-07-25T14:20:05Z</time>
      </trkpt>
      <trkpt lat="40.433383" lon="-5.434000">
        <ele>1840.0</ele>
        <time>2015-07-25T14:20:07Z</time>
      </trkpt>
      <trkpt lat="40.433300" lon="-5.434167">
        <ele>1835.0</ele>
        <time>2015-07-25T14:20:09Z</time>
      </trkpt>
      <trkpt lat="40.433250" lon="-5.434350">
        <ele>1830.0</ele>
        <time>2015-07-25T14:20:11Z</time>
      </trkpt>
      <trkpt lat="40.433200" lon="-5.434567">
        <ele>1828.0</ele>
        <time>2015-07-25T14:20:13Z</time>
      </trkpt>
      <trkpt lat="40.433150" lon="-5.434750">
        <ele>1826.0</ele>
        <time>2015-07-25T14:20:15Z</time>
      </trkpt>
      <trkpt lat="40.433117" lon="-5.434933">
        <ele>1822.0</ele>
        <time>2015-07-25T14:20:17Z</time>
      </trkpt>
      <trkpt lat="40.433100" lon="-5.435133">
        <ele>1817.0</ele>
        <time>2015-07-25T14:20:19Z</time>
      </trkpt>
      <trkpt lat="40.433117" lon="-5.435333">
        <ele>1814.0</ele>
        <time>2015-07-25T14:20:21Z</time>
      </trkpt>
      <trkpt lat="40.433133" lon="-5.435517">
        <ele>1812.0</ele>
        <time>2015-07-25T14:20:23Z</time>
      </trkpt>
      <trkpt lat="40.433167" lon="-5.435717">
        <ele>1809.0</ele>
        <time>2015-07-25T14:20:25Z</time>
      </trkpt>
      <trkpt lat="40.433217" lon="-5.435883">
        <ele>1806.0</ele>
        <time>2015-07-25T14:20:27Z</time>
      </trkpt>
      <trkpt lat="40.433267" lon="-5.436083">
        <ele>1800.0</ele>
        <time>2015-07-25T14:20:29Z</time>
      </trkpt>
      <trkpt lat="40.433333" lon="-5.436317">
        <ele>1795.0</ele>
        <time>2015-07-25T14:20:31Z</time>
      </trkpt>
      <trkpt lat="40.433367" lon="-5.436533">
        <ele>1795.0</ele>
        <time>2015-07-25T14:20:33Z</time>
      </trkpt>
      <trkpt lat="40.433400" lon="-5.436700">
        <ele>1792.0</ele>
        <time>2015-07-25T14:20:35Z</time>
      </trkpt>
      <trkpt lat="40.433450" lon="-5.436883">
        <ele>1787.0</ele>
        <time>2015-07-25T14:20:37Z</time>
      </trkpt>
      <trkpt lat="40.433483" lon="-5.437117">
        <ele>1785.0</ele>
        <time>2015-07-25T14:20:39Z</time>
      </trkpt>
      <trkpt lat="40.433500" lon="-5.437267">
        <ele>1786.0</ele>
        <time>2015-07-25T14:20:41Z</time>
      </trkpt>
      <trkpt lat="40.433550" lon="-5.437350">
        <ele>1782.0</ele>
        <time>2015-07-25T14:20:43Z</time>
      </trkpt>
      <trkpt lat="40.433617" lon="-5.437517">
        <ele>1774.0</ele>
        <time>2015-07-25T14:20:45Z</time>
      </trkpt>
      <trkpt lat="40.433683" lon="-5.437700">
        <ele>1771.0</ele>
        <time>2015-07-25T14:20:47Z</time>
      </trkpt>
      <trkpt lat="40.433750" lon="-5.437833">
        <ele>1768.0</ele>
        <time>2015-07-25T14:20:49Z</time>
      </trkpt>
      <trkpt lat="40.433800" lon="-5.437967">
        <ele>1762.0</ele>
        <time>2015-07-25T14:20:51Z</time>
      </trkpt>
      <trkpt lat="40.433850" lon="-5.438133">
        <ele>1757.0</ele>
        <time>2015-07-25T14:20:53Z</time>
      </trkpt>
      <trkpt lat="40.433883" lon="-5.438300">
        <ele>1754.0</ele>
        <time>2015-07-25T14:20:55Z</time>
      </trkpt>
      <trkpt lat="40.433883" lon="-5.438467">
        <ele>1748.0</ele>
        <time>2015-07-25T14:20:57Z</time>
      </trkpt>
      <trkpt lat="40.433900" lon="-5.438650">
        <ele>1740.0</ele>
        <time>2015-07-25T14:20:59Z</time>
      </trkpt>
      <trkpt lat="40.433917" lon="-5.438833">
        <ele>1734.0</ele>
        <time>2015-07-25T14:21:01Z</time>
      </trkpt>
      <trkpt lat="40.433933" lon="-5.439000">
        <ele>1730.0</ele>
        <time>2015-07-25T14:21:03Z</time>
      </trkpt>
      <trkpt lat="40.433933" lon="-5.439167">
        <ele>1724.0</ele>
        <time>2015-07-25T14:21:05Z</time>
      </trkpt>
      <trkpt lat="40.433950" lon="-5.439367">
        <ele>1718.0</ele>
        <time>2015-07-25T14:21:07Z</time>
      </trkpt>
      <trkpt lat="40.433983" lon="-5.439583">
        <ele>1713.0</ele>
        <time>2015-07-25T14:21:09Z</time>
      </trkpt>
      <trkpt lat="40.434000" lon="-5.439833">
        <ele>1710.0</ele>
        <time>2015-07-25T14:21:11Z</time>
      </trkpt>
      <trkpt lat="40.434017" lon="-5.440050">
        <ele>1706.0</ele>
        <time>2015-07-25T14:21:13Z</time>
      </trkpt>
      <trkpt lat="40.434050" lon="-5.440283">
        <ele>1700.0</ele>
        <time>2015-07-25T14:21:15Z</time>
      </trkpt>
      <trkpt lat="40.434067" lon="-5.440517">
        <ele>1694.0</ele>
        <time>2015-07-25T14:21:17Z</time>
      </trkpt>
      <trkpt lat="40.434100" lon="-5.440750">
        <ele>1690.0</ele>
        <time>2015-07-25T14:21:19Z</time>
      </trkpt>
      <trkpt lat="40.434167" lon="-5.440950">
        <ele>1691.0</ele>
        <time>2015-07-25T14:21:21Z</time>
      </trkpt>
      <trkpt lat="40.434267" lon="-5.441050">
        <ele>1693.0</ele>
        <time>2015-07-25T14:21:23Z</time>
      </trkpt>
      <trkpt lat="40.434350" lon="-5.441150">
        <ele>1692.0</ele>
        <time>2015-07-25T14:21:25Z</time>
      </trkpt>
      <trkpt lat="40.434467" lon="-5.441267">
        <ele>1687.0</ele>
        <time>2015-07-25T14:21:27Z</time>
      </trkpt>
      <trkpt lat="40.434633" lon="-5.441283">
        <ele>1684.0</ele>
        <time>2015-07-25T14:21:29Z</time>
      </trkpt>
      <trkpt lat="40.434717" lon="-5.441150">
        <ele>1680.0</ele>
        <time>2015-07-25T14:21:31Z</time>
      </trkpt>
      <trkpt lat="40.434767" lon="-5.440983">
        <ele>1676.0</ele>
        <time>2015-07-25T14:21:33Z</time>
      </trkpt>
      <trkpt lat="40.434717" lon="-5.440800">
        <ele>1668.0</ele>
        <time>2015-07-25T14:21:35Z</time>
      </trkpt>
      <trkpt lat="40.434567" lon="-5.440633">
        <ele>1660.0</ele>
        <time>2015-07-25T14:21:37Z</time>
      </trkpt>
      <trkpt lat="40.434367" lon="-5.440583">
        <ele>1654.0</ele>
        <time>2015-07-25T14:21:39Z</time>
      </trkpt>
      <trkpt lat="40.434167" lon="-5.440683">
        <ele>1649.0</ele>
        <time>2015-07-25T14:21:41Z</time>
      </trkpt>
      <trkpt lat="40.433983" lon="-5.440867">
        <ele>1646.0</ele>
        <time>2015-07-25T14:21:43Z</time>
      </trkpt>
      <trkpt lat="40.433867" lon="-5.441067">
        <ele>1648.0</ele>
        <time>2015-07-25T14:21:45Z</time>
      </trkpt>
      <trkpt lat="40.433783" lon="-5.441233">
        <ele>1650.0</ele>
        <time>2015-07-25T14:21:47Z</time>
      </trkpt>
      <trkpt lat="40.433700" lon="-5.441417">
        <ele>1648.0</ele>
        <time>2015-07-25T14:21:49Z</time>
      </trkpt>
      <trkpt lat="40.433633" lon="-5.441633">
        <ele>1647.0</ele>
        <time>2015-07-25T14:21:51Z</time>
      </trkpt>
      <trkpt lat="40.433617" lon="-5.441900">
        <ele>1646.0</ele>
        <time>2015-07-25T14:21:53Z</time>
      </trkpt>
      <trkpt lat="40.433600" lon="-5.442133">
        <ele>1646.0</ele>
        <time>2015-07-25T14:21:55Z</time>
      </trkpt>
      <trkpt lat="40.433600" lon="-5.442350">
        <ele>1647.0</ele>
        <time>2015-07-25T14:21:57Z</time>
      </trkpt>
      <trkpt lat="40.433567" lon="-5.442583">
        <ele>1647.0</ele>
        <time>2015-07-25T14:21:59Z</time>
      </trkpt>
      <trkpt lat="40.433500" lon="-5.442850">
        <ele>1647.0</ele>
        <time>2015-07-25T14:22:01Z</time>
      </trkpt>
      <trkpt lat="40.433367" lon="-5.443100">
        <ele>1646.0</ele>
        <time>2015-07-25T14:22:03Z</time>
      </trkpt>
      <trkpt lat="40.433283" lon="-5.443333">
        <ele>1645.0</ele>
        <time>2015-07-25T14:22:05Z</time>
      </trkpt>
      <trkpt lat="40.433267" lon="-5.443600">
        <ele>1643.0</ele>
        <time>2015-07-25T14:22:07Z</time>
      </trkpt>
      <trkpt lat="40.433250" lon="-5.443867">
        <ele>1643.0</ele>
        <time>2015-07-25T14:22:09Z</time>
      </trkpt>
      <trkpt lat="40.433267" lon="-5.444133">
        <ele>1642.0</ele>
        <time>2015-07-25T14:22:11Z</time>
      </trkpt>
      <trkpt lat="40.433317" lon="-5.444400">
        <ele>1643.0</ele>
        <time>2015-07-25T14:22:13Z</time>
      </trkpt>
      <trkpt lat="40.433350" lon="-5.444633">
        <ele>1644.0</ele>
        <time>2015-07-25T14:22:15Z</time>
      </trkpt>
      <trkpt lat="40.433417" lon="-5.444867">
        <ele>1640.0</ele>
        <time>2015-07-25T14:22:17Z</time>
      </trkpt>
      <trkpt lat="40.433500" lon="-5.445133">
        <ele>1637.0</ele>
        <time>2015-07-25T14:22:19Z</time>
      </trkpt>
      <trkpt lat="40.433583" lon="-5.445367">
        <ele>1635.0</ele>
        <time>2015-07-25T14:22:21Z</time>
      </trkpt>
      <trkpt lat="40.433600" lon="-5.445617">
        <ele>1632.0</ele>
        <time>2015-07-25T14:22:23Z</time>
      </trkpt>
      <trkpt lat="40.433617" lon="-5.445850">
        <ele>1630.0</ele>
        <time>2015-07-25T14:22:25Z</time>
      </trkpt>
      <trkpt lat="40.433600" lon="-5.446083">
        <ele>1628.0</ele>
        <time>2015-07-25T14:22:27Z</time>
      </trkpt>
      <trkpt lat="40.433617" lon="-5.446317">
        <ele>1625.0</ele>
        <time>2015-07-25T14:22:29Z</time>
      </trkpt>
      <trkpt lat="40.433617" lon="-5.446500">
        <ele>1624.0</ele>
        <time>2015-07-25T14:22:31Z</time>
      </trkpt>
      <trkpt lat="40.433617" lon="-5.446667">
        <ele>1621.0</ele>
        <time>2015-07-25T14:22:33Z</time>
      </trkpt>
      <trkpt lat="40.433667" lon="-5.446867">
        <ele>1616.0</ele>
        <time>2015-07-25T14:22:35Z</time>
      </trkpt>
      <trkpt lat="40.433717" lon="-5.447017">
        <ele>1615.0</ele>
        <time>2015-07-25T14:22:37Z</time>
      </trkpt>
      <trkpt lat="40.433733" lon="-5.447183">
        <ele>1613.0</ele>
        <time>2015-07-25T14:22:39Z</time>
      </trkpt>
      <trkpt lat="40.433733" lon="-5.447350">
        <ele>1610.0</ele>
        <time>2015-07-25T14:22:41Z</time>
      </trkpt>
      <trkpt lat="40.433750" lon="-5.447517">
        <ele>1604.0</ele>
        <time>2015-07-25T14:22:43Z</time>
      </trkpt>
      <trkpt lat="40.433750" lon="-5.447700">
        <ele>1597.0</ele>
        <time>2015-07-25T14:22:45Z</time>
      </trkpt>
      <trkpt lat="40.433767" lon="-5.447900">
        <ele>1590.0</ele>
        <time>2015-07-25T14:22:47Z</time>
      </trkpt>
      <trkpt lat="40.433783" lon="-5.448067">
        <ele>1584.0</ele>
        <time>2015-07-25T14:22:49Z</time>
      </trkpt>
      <trkpt lat="40.433817" lon="-5.448250">
        <ele>1577.0</ele>
        <time>2015-07-25T14:22:51Z</time>
      </trkpt>
      <trkpt lat="40.433850" lon="-5.448417">
        <ele>1570.0</ele>
        <time>2015-07-25T14:22:53Z</time>
      </trkpt>
      <trkpt lat="40.433883" lon="-5.448617">
        <ele>1562.0</ele>
        <time>2015-07-25T14:22:55Z</time>
      </trkpt>
      <trkpt lat="40.433917" lon="-5.448817">
        <ele>1558.0</ele>
        <time>2015-07-25T14:22:57Z</time>
      </trkpt>
      <trkpt lat="40.433950" lon="-5.448983">
        <ele>1552.0</ele>
        <time>2015-07-25T14:22:59Z</time>
      </trkpt>
      <trkpt lat="40.433983" lon="-5.449200">
        <ele>1542.0</ele>
        <time>2015-07-25T14:23:01Z</time>
      </trkpt>
      <trkpt lat="40.434017" lon="-5.449433">
        <ele>1537.0</ele>
        <time>2015-07-25T14:23:03Z</time>
      </trkpt>
      <trkpt lat="40.434000" lon="-5.449650">
        <ele>1534.0</ele>
        <time>2015-07-25T14:23:05Z</time>
      </trkpt>
      <trkpt lat="40.433983" lon="-5.449900">
        <ele>1530.0</ele>
        <time>2015-07-25T14:23:07Z</time>
      </trkpt>
      <trkpt lat="40.433983" lon="-5.450133">
        <ele>1528.0</ele>
        <time>2015-07-25T14:23:09Z</time>
      </trkpt>
      <trkpt lat="40.433933" lon="-5.450383">
        <ele>1526.0</ele>
        <time>2015-07-25T14:23:11Z</time>
      </trkpt>
      <trkpt lat="40.433883" lon="-5.450617">
        <ele>1523.0</ele>
        <time>2015-07-25T14:23:13Z</time>
      </trkpt>
      <trkpt lat="40.433867" lon="-5.450850">
        <ele>1519.0</ele>
        <time>2015-07-25T14:23:15Z</time>
      </trkpt>
      <trkpt lat="40.433850" lon="-5.451083">
        <ele>1515.0</ele>
        <time>2015-07-25T14:23:17Z</time>
      </trkpt>
      <trkpt lat="40.433800" lon="-5.451300">
        <ele>1511.0</ele>
        <time>2015-07-25T14:23:19Z</time>
      </trkpt>
      <trkpt lat="40.433767" lon="-5.451483">
        <ele>1506.0</ele>
        <time>2015-07-25T14:23:21Z</time>
      </trkpt>
      <trkpt lat="40.433767" lon="-5.451683">
        <ele>1498.0</ele>
        <time>2015-07-25T14:23:23Z</time>
      </trkpt>
      <trkpt lat="40.433783" lon="-5.451867">
        <ele>1492.0</ele>
        <time>2015-07-25T14:23:25Z</time>
      </trkpt>
      <trkpt lat="40.433767" lon="-5.452050">
        <ele>1486.0</ele>
        <time>2015-07-25T14:23:27Z</time>
      </trkpt>
      <trkpt lat="40.433733" lon="-5.452267">
        <ele>1481.0</ele>
        <time>2015-07-25T14:23:29Z</time>
      </trkpt>
      <trkpt lat="40.433700" lon="-5.452483">
        <ele>1476.0</ele>
        <time>2015-07-25T14:23:31Z</time>
      </trkpt>
      <trkpt lat="40.433667" lon="-5.452683">
        <ele>1471.0</ele>
        <time>2015-07-25T14:23:33Z</time>
      </trkpt>
      <trkpt lat="40.433617" lon="-5.452900">
        <ele>1466.0</ele>
        <time>2015-07-25T14:23:35Z</time>
      </trkpt>
      <trkpt lat="40.433600" lon="-5.453150">
        <ele>1462.0</ele>
        <time>2015-07-25T14:23:37Z</time>
      </trkpt>
      <trkpt lat="40.433600" lon="-5.453383">
        <ele>1459.0</ele>
        <time>2015-07-25T14:23:39Z</time>
      </trkpt>
      <trkpt lat="40.433600" lon="-5.453567">
        <ele>1456.0</ele>
        <time>2015-07-25T14:23:41Z</time>
      </trkpt>
      <trkpt lat="40.433600" lon="-5.453767">
        <ele>1451.0</ele>
        <time>2015-07-25T14:23:43Z</time>
      </trkpt>
      <trkpt lat="40.433600" lon="-5.453967">
        <ele>1446.0</ele>
        <time>2015-07-25T14:23:45Z</time>
      </trkpt>
      <trkpt lat="40.433617" lon="-5.454150">
        <ele>1438.0</ele>
        <time>2015-07-25T14:23:47Z</time>
      </trkpt>
      <trkpt lat="40.433633" lon="-5.454367">
        <ele>1429.0</ele>
        <time>2015-07-25T14:23:49Z</time>
      </trkpt>
      <trkpt lat="40.433633" lon="-5.454600">
        <ele>1421.0</ele>
        <time>2015-07-25T14:23:51Z</time>
      </trkpt>
      <trkpt lat="40.433650" lon="-5.454833">
        <ele>1414.0</ele>
        <time>2015-07-25T14:23:53Z</time>
      </trkpt>
      <trkpt lat="40.433667" lon="-5.455033">
        <ele>1410.0</ele>
        <time>2015-07-25T14:23:55Z</time>
      </trkpt>
      <trkpt lat="40.433683" lon="-5.455217">
        <ele>1407.0</ele>
        <time>2015-07-25T14:23:57Z</time>
      </trkpt>
      <trkpt lat="40.433717" lon="-5.455400">
        <ele>1402.0</ele>
        <time>2015-07-25T14:23:59Z</time>
      </trkpt>
      <trkpt lat="40.433733" lon="-5.455600">
        <ele>1397.0</ele>
        <time>2015-07-25T14:24:01Z</time>
      </trkpt>
      <trkpt lat="40.433750" lon="-5.455783">
        <ele>1393.0</ele>
        <time>2015-07-25T14:24:03Z</time>
      </trkpt>
      <trkpt lat="40.433783" lon="-5.455967">
        <ele>1389.0</ele>
        <time>2015-07-25T14:24:05Z</time>
      </trkpt>
      <trkpt lat="40.433850" lon="-5.456133">
        <ele>1386.0</ele>
        <time>2015-07-25T14:24:07Z</time>
      </trkpt>
      <trkpt lat="40.433917" lon="-5.456267">
        <ele>1386.0</ele>
        <time>2015-07-25T14:24:09Z</time>
      </trkpt>
      <trkpt lat="40.434000" lon="-5.456350">
        <ele>1384.0</ele>
        <time>2015-07-25T14:24:11Z</time>
      </trkpt>
      <trkpt lat="40.434117" lon="-5.456450">
        <ele>1376.0</ele>
        <time>2015-07-25T14:24:13Z</time>
      </trkpt>
      <trkpt lat="40.434217" lon="-5.456567">
        <ele>1369.0</ele>
        <time>2015-07-25T14:24:15Z</time>
      </trkpt>
      <trkpt lat="40.434317" lon="-5.456767">
        <ele>1365.0</ele>
        <time>2015-07-25T14:24:17Z</time>
      </trkpt>
      <trkpt lat="40.434400" lon="-5.456983">
        <ele>1367.0</ele>
        <time>2015-07-25T14:24:19Z</time>
      </trkpt>
      <trkpt lat="40.434467" lon="-5.457100">
        <ele>1371.0</ele>
        <time>2015-07-25T14:24:21Z</time>
      </trkpt>
      <trkpt lat="40.434567" lon="-5.457200">
        <ele>1371.0</ele>
        <time>2015-07-25T14:24:23Z</time>
      </trkpt>
      <trkpt lat="40.434700" lon="-5.457233">
        <ele>1369.0</ele>
        <time>2015-07-25T14:24:25Z</time>
      </trkpt>
      <trkpt lat="40.434783" lon="-5.457150">
        <ele>1368.0</ele>
        <time>2015-07-25T14:24:27Z</time>
      </trkpt>
      <trkpt lat="40.434833" lon="-5.456983">
        <ele>1366.0</ele>
        <time>2015-07-25T14:24:29Z</time>
      </trkpt>
      <trkpt lat="40.434833" lon="-5.456783">
        <ele>1366.0</ele>
        <time>2015-07-25T14:24:31Z</time>
      </trkpt>
      <trkpt lat="40.434733" lon="-5.456583">
        <ele>1365.0</ele>
        <time>2015-07-25T14:24:33Z</time>
      </trkpt>
      <trkpt lat="40.434550" lon="-5.456417">
        <ele>1361.0</ele>
        <time>2015-07-25T14:24:35Z</time>
      </trkpt>
      <trkpt lat="40.434300" lon="-5.456350">
        <ele>1357.0</ele>
        <time>2015-07-25T14:24:37Z</time>
      </trkpt>
      <trkpt lat="40.434050" lon="-5.456433">
        <ele>1354.0</ele>
        <time>2015-07-25T14:24:39Z</time>
      </trkpt>
      <trkpt lat="40.433867" lon="-5.456617">
        <ele>1357.0</ele>
        <time>2015-07-25T14:24:41Z</time>
      </trkpt>
      <trkpt lat="40.433750" lon="-5.456767">
        <ele>1359.0</ele>
        <time>2015-07-25T14:24:43Z</time>
      </trkpt>
      <trkpt lat="40.433667" lon="-5.456967">
        <ele>1354.0</ele>
        <time>2015-07-25T14:24:45Z</time>
      </trkpt>
      <trkpt lat="40.433650" lon="-5.457200">
        <ele>1351.0</ele>
        <time>2015-07-25T14:24:47Z</time>
      </trkpt>
      <trkpt lat="40.433683" lon="-5.457400">
        <ele>1349.0</ele>
        <time>2015-07-25T14:24:49Z</time>
      </trkpt>
      <trkpt lat="40.433750" lon="-5.457533">
        <ele>1346.0</ele>
        <time>2015-07-25T14:24:51Z</time>
      </trkpt>
      <trkpt lat="40.433867" lon="-5.457650">
        <ele>1343.0</ele>
        <time>2015-07-25T14:24:53Z</time>
      </trkpt>
      <trkpt lat="40.433933" lon="-5.457767">
        <ele>1343.0</ele>
        <time>2015-07-25T14:24:55Z</time>
      </trkpt>
      <trkpt lat="40.433967" lon="-5.457933">
        <ele>1342.0</ele>
        <time>2015-07-25T14:24:57Z</time>
      </trkpt>
      <trkpt lat="40.433983" lon="-5.458100">
        <ele>1340.0</ele>
        <time>2015-07-25T14:24:59Z</time>
      </trkpt>
      <trkpt lat="40.434017" lon="-5.458283">
        <ele>1337.0</ele>
        <time>2015-07-25T14:25:01Z</time>
      </trkpt>
      <trkpt lat="40.434050" lon="-5.458467">
        <ele>1335.0</ele>
        <time>2015-07-25T14:25:03Z</time>
      </trkpt>
      <trkpt lat="40.434117" lon="-5.458650">
        <ele>1333.0</ele>
        <time>2015-07-25T14:25:05Z</time>
      </trkpt>
      <trkpt lat="40.434250" lon="-5.458767">
        <ele>1334.0</ele>
        <time>2015-07-25T14:25:07Z</time>
      </trkpt>
      <trkpt lat="40.434367" lon="-5.458783">
        <ele>1335.0</ele>
        <time>2015-07-25T14:25:09Z</time>
      </trkpt>
      <trkpt lat="40.434500" lon="-5.458833">
        <ele>1337.0</ele>
        <time>2015-07-25T14:25:11Z</time>
      </trkpt>
      <trkpt lat="40.434600" lon="-5.458767">
        <ele>1339.0</ele>
        <time>2015-07-25T14:25:13Z</time>
      </trkpt>
      <trkpt lat="40.434650" lon="-5.458583">
        <ele>1340.0</ele>
        <time>2015-07-25T14:25:15Z</time>
      </trkpt>
      <trkpt lat="40.434617" lon="-5.458367">
        <ele>1343.0</ele>
        <time>2015-07-25T14:25:17Z</time>
      </trkpt>
      <trkpt lat="40.434467" lon="-5.458200">
        <ele>1346.0</ele>
        <time>2015-07-25T14:25:19Z</time>
      </trkpt>
      <trkpt lat="40.434250" lon="-5.458183">
        <ele>1348.0</ele>
        <time>2015-07-25T14:25:21Z</time>
      </trkpt>
      <trkpt lat="40.434050" lon="-5.458300">
        <ele>1350.0</ele>
        <time>2015-07-25T14:25:23Z</time>
      </trkpt>
      <trkpt lat="40.433917" lon="-5.458483">
        <ele>1352.0</ele>
        <time>2015-07-25T14:25:25Z</time>
      </trkpt>
      <trkpt lat="40.433933" lon="-5.458700">
        <ele>1351.0</ele>
        <time>2015-07-25T14:25:27Z</time>
      </trkpt>
      <trkpt lat="40.434017" lon="-5.458850">
        <ele>1353.0</ele>
        <time>2015-07-25T14:25:29Z</time>
      </trkpt>
      <trkpt lat="40.434133" lon="-5.458917">
        <ele>1355.0</ele>
        <time>2015-07-25T14:25:31Z</time>
      </trkpt>
      <trkpt lat="40.434267" lon="-5.458883">
        <ele>1357.0</ele>
        <time>2015-07-25T14:25:33Z</time>
      </trkpt>
      <trkpt lat="40.434350" lon="-5.458750">
        <ele>1361.0</ele>
        <time>2015-07-25T14:25:35Z</time>
      </trkpt>
      <trkpt lat="40.434333" lon="-5.458567">
        <ele>1364.0</ele>
        <time>2015-07-25T14:25:37Z</time>
      </trkpt>
      <trkpt lat="40.434217" lon="-5.458400">
        <ele>1365.0</ele>
        <time>2015-07-25T14:25:39Z</time>
      </trkpt>
      <trkpt lat="40.434017" lon="-5.458300">
        <ele>1365.0</ele>
        <time>2015-07-25T14:25:41Z</time>
      </trkpt>
      <trkpt lat="40.433800" lon="-5.458417">
        <ele>1367.0</ele>
        <time>2015-07-25T14:25:43Z</time>
      </trkpt>
      <trkpt lat="40.433717" lon="-5.458633">
        <ele>1371.0</ele>
        <time>2015-07-25T14:25:45Z</time>
      </trkpt>
      <trkpt lat="40.433683" lon="-5.458817">
        <ele>1373.0</ele>
        <time>2015-07-25T14:25:47Z</time>
      </trkpt>
      <trkpt lat="40.433733" lon="-5.459017">
        <ele>1371.0</ele>
        <time>2015-07-25T14:25:49Z</time>
      </trkpt>
      <trkpt lat="40.433867" lon="-5.459100">
        <ele>1371.0</ele>
        <time>2015-07-25T14:25:51Z</time>
      </trkpt>
      <trkpt lat="40.434000" lon="-5.459033">
        <ele>1374.0</ele>
        <time>2015-07-25T14:25:53Z</time>
      </trkpt>
      <trkpt lat="40.434083" lon="-5.458917">
        <ele>1380.0</ele>
        <time>2015-07-25T14:25:55Z</time>
      </trkpt>
      <trkpt lat="40.434100" lon="-5.458767">
        <ele>1385.0</ele>
        <time>2015-07-25T14:25:57Z</time>
      </trkpt>
      <trkpt lat="40.434033" lon="-5.458583">
        <ele>1388.0</ele>
        <time>2015-07-25T14:25:59Z</time>
      </trkpt>
      <trkpt lat="40.433867" lon="-5.458450">
        <ele>1389.0</ele>
        <time>2015-07-25T14:26:01Z</time>
      </trkpt>
      <trkpt lat="40.433650" lon="-5.458450">
        <ele>1392.0</ele>
        <time>2015-07-25T14:26:03Z</time>
      </trkpt>
      <trkpt lat="40.433483" lon="-5.458617">
        <ele>1393.0</ele>
        <time>2015-07-25T14:26:05Z</time>
      </trkpt>
      <trkpt lat="40.433383" lon="-5.458833">
        <ele>1394.0</ele>
        <time>2015-07-25T14:26:07Z</time>
      </trkpt>
      <trkpt lat="40.433350" lon="-5.459050">
        <ele>1396.0</ele>
        <time>2015-07-25T14:26:09Z</time>
      </trkpt>
      <trkpt lat="40.433400" lon="-5.459250">
        <ele>1400.0</ele>
        <time>2015-07-25T14:26:11Z</time>
      </trkpt>
      <trkpt lat="40.433500" lon="-5.459367">
        <ele>1402.0</ele>
        <time>2015-07-25T14:26:13Z</time>
      </trkpt>
      <trkpt lat="40.433633" lon="-5.459367">
        <ele>1405.0</ele>
        <time>2015-07-25T14:26:15Z</time>
      </trkpt>
      <trkpt lat="40.433700" lon="-5.459250">
        <ele>1410.0</ele>
        <time>2015-07-25T14:26:17Z</time>
      </trkpt>
      <trkpt lat="40.433700" lon="-5.459133">
        <ele>1414.0</ele>
        <time>2015-07-25T14:26:19Z</time>
      </trkpt>
      <trkpt lat="40.433600" lon="-5.459000">
        <ele>1412.0</ele>
        <time>2015-07-25T14:26:21Z</time>
      </trkpt>
      <trkpt lat="40.433383" lon="-5.458867">
        <ele>1413.0</ele>
        <time>2015-07-25T14:26:23Z</time>
      </trkpt>
      <trkpt lat="40.433167" lon="-5.458900">
        <ele>1419.0</ele>
        <time>2015-07-25T14:26:25Z</time>
      </trkpt>
      <trkpt lat="40.432983" lon="-5.459000">
        <ele>1423.0</ele>
        <time>2015-07-25T14:26:27Z</time>
      </trkpt>
      <trkpt lat="40.432817" lon="-5.459167">
        <ele>1423.0</ele>
        <time>2015-07-25T14:26:29Z</time>
      </trkpt>
      <trkpt lat="40.432733" lon="-5.459417">
        <ele>1424.0</ele>
        <time>2015-07-25T14:26:31Z</time>
      </trkpt>
      <trkpt lat="40.432700" lon="-5.459650">
        <ele>1425.0</ele>
        <time>2015-07-25T14:26:33Z</time>
      </trkpt>
      <trkpt lat="40.432750" lon="-5.459850">
        <ele>1425.0</ele>
        <time>2015-07-25T14:26:35Z</time>
      </trkpt>
      <trkpt lat="40.432850" lon="-5.459917">
        <ele>1425.0</ele>
        <time>2015-07-25T14:26:37Z</time>
      </trkpt>
      <trkpt lat="40.432950" lon="-5.459917">
        <ele>1428.0</ele>
        <time>2015-07-25T14:26:39Z</time>
      </trkpt>
      <trkpt lat="40.433017" lon="-5.459883">
        <ele>1433.0</ele>
        <time>2015-07-25T14:26:41Z</time>
      </trkpt>
      <trkpt lat="40.433100" lon="-5.459833">
        <ele>1435.0</ele>
        <time>2015-07-25T14:26:43Z</time>
      </trkpt>
      <trkpt lat="40.433133" lon="-5.459717">
        <ele>1437.0</ele>
        <time>2015-07-25T14:26:45Z</time>
      </trkpt>
      <trkpt lat="40.433100" lon="-5.459550">
        <ele>1437.0</ele>
        <time>2015-07-25T14:26:47Z</time>
      </trkpt>
      <trkpt lat="40.433000" lon="-5.459367">
        <ele>1439.0</ele>
        <time>2015-07-25T14:26:49Z</time>
      </trkpt>
      <trkpt lat="40.432817" lon="-5.459267">
        <ele>1442.0</ele>
        <time>2015-07-25T14:26:51Z</time>
      </trkpt>
      <trkpt lat="40.432567" lon="-5.459283">
        <ele>1444.0</ele>
        <time>2015-07-25T14:26:53Z</time>
      </trkpt>
      <trkpt lat="40.432333" lon="-5.459450">
        <ele>1448.0</ele>
        <time>2015-07-25T14:26:55Z</time>
      </trkpt>
      <trkpt lat="40.432233" lon="-5.459700">
        <ele>1451.0</ele>
        <time>2015-07-25T14:26:57Z</time>
      </trkpt>
      <trkpt lat="40.432250" lon="-5.459917">
        <ele>1452.0</ele>
        <time>2015-07-25T14:26:59Z</time>
      </trkpt>
      <trkpt lat="40.432317" lon="-5.460117">
        <ele>1453.0</ele>
        <time>2015-07-25T14:27:01Z</time>
      </trkpt>
      <trkpt lat="40.432433" lon="-5.460217">
        <ele>1456.0</ele>
        <time>2015-07-25T14:27:03Z</time>
      </trkpt>
      <trkpt lat="40.432550" lon="-5.460233">
        <ele>1460.0</ele>
        <time>2015-07-25T14:27:05Z</time>
      </trkpt>
      <trkpt lat="40.432633" lon="-5.460167">
        <ele>1463.0</ele>
        <time>2015-07-25T14:27:07Z</time>
      </trkpt>
      <trkpt lat="40.432650" lon="-5.460033">
        <ele>1467.0</ele>
        <time>2015-07-25T14:27:09Z</time>
      </trkpt>
      <trkpt lat="40.432567" lon="-5.459883">
        <ele>1470.0</ele>
        <time>2015-07-25T14:27:11Z</time>
      </trkpt>
      <trkpt lat="40.432417" lon="-5.459750">
        <ele>1472.0</ele>
        <time>2015-07-25T14:27:13Z</time>
      </trkpt>
      <trkpt lat="40.432217" lon="-5.459700">
        <ele>1476.0</ele>
        <time>2015-07-25T14:27:15Z</time>
      </trkpt>
      <trkpt lat="40.432017" lon="-5.459733">
        <ele>1480.0</ele>
        <time>2015-07-25T14:27:17Z</time>
      </trkpt>
      <trkpt lat="40.431817" lon="-5.459883">
        <ele>1482.0</ele>
        <time>2015-07-25T14:27:19Z</time>
      </trkpt>
      <trkpt lat="40.431700" lon="-5.460100">
        <ele>1482.0</ele>
        <time>2015-07-25T14:27:21Z</time>
      </trkpt>
      <trkpt lat="40.431700" lon="-5.460367">
        <ele>1480.0</ele>
        <time>2015-07-25T14:27:23Z</time>
      </trkpt>
      <trkpt lat="40.431767" lon="-5.460583">
        <ele>1483.0</ele>
        <time>2015-07-25T14:27:25Z</time>
      </trkpt>
      <trkpt lat="40.431833" lon="-5.460717">
        <ele>1485.0</ele>
        <time>2015-07-25T14:27:27Z</time>
      </trkpt>
      <trkpt lat="40.431950" lon="-5.460833">
        <ele>1485.0</ele>
        <time>2015-07-25T14:27:29Z</time>
      </trkpt>
      <trkpt lat="40.432067" lon="-5.460867">
        <ele>1488.0</ele>
        <time>2015-07-25T14:27:31Z</time>
      </trkpt>
      <trkpt lat="40.432133" lon="-5.460783">
        <ele>1490.0</ele>
        <time>2015-07-25T14:27:33Z</time>
      </trkpt>
      <trkpt lat="40.432133" lon="-5.460633">
        <ele>1491.0</ele>
        <time>2015-07-25T14:27:35Z</time>
      </trkpt>
      <trkpt lat="40.432083" lon="-5.460450">
        <ele>1494.0</ele>
        <time>2015-07-25T14:27:37Z</time>
      </trkpt>
      <trkpt lat="40.431950" lon="-5.460283">
        <ele>1494.0</ele>
        <time>2015-07-25T14:27:39Z</time>
      </trkpt>
      <trkpt lat="40.431750" lon="-5.460200">
        <ele>1497.0</ele>
        <time>2015-07-25T14:27:41Z</time>
      </trkpt>
      <trkpt lat="40.431550" lon="-5.460300">
        <ele>1501.0</ele>
        <time>2015-07-25T14:27:43Z</time>
      </trkpt>
      <trkpt lat="40.431417" lon="-5.460500">
        <ele>1504.0</ele>
        <time>2015-07-25T14:27:45Z</time>
      </trkpt>
      <trkpt lat="40.431333" lon="-5.460717">
        <ele>1504.0</ele>
        <time>2015-07-25T14:27:47Z</time>
      </trkpt>
      <trkpt lat="40.431300" lon="-5.460983">
        <ele>1504.0</ele>
        <time>2015-07-25T14:27:49Z</time>
      </trkpt>
      <trkpt lat="40.431350" lon="-5.461233">
        <ele>1506.0</ele>
        <time>2015-07-25T14:27:51Z</time>
      </trkpt>
      <trkpt lat="40.431417" lon="-5.461417">
        <ele>1509.0</ele>
        <time>2015-07-25T14:27:53Z</time>
      </trkpt>
      <trkpt lat="40.431550" lon="-5.461533">
        <ele>1510.0</ele>
        <time>2015-07-25T14:27:55Z</time>
      </trkpt>
      <trkpt lat="40.431683" lon="-5.461533">
        <ele>1512.0</ele>
        <time>2015-07-25T14:27:57Z</time>
      </trkpt>
      <trkpt lat="40.431717" lon="-5.461433">
        <ele>1516.0</ele>
        <time>2015-07-25T14:27:59Z</time>
      </trkpt>
      <trkpt lat="40.431650" lon="-5.461300">
        <ele>1516.0</ele>
        <time>2015-07-25T14:28:01Z</time>
      </trkpt>
      <trkpt lat="40.431500" lon="-5.461200">
        <ele>1516.0</ele>
        <time>2015-07-25T14:28:03Z</time>
      </trkpt>
      <trkpt lat="40.431283" lon="-5.461183">
        <ele>1515.0</ele>
        <time>2015-07-25T14:28:05Z</time>
      </trkpt>
      <trkpt lat="40.431050" lon="-5.461367">
        <ele>1517.0</ele>
        <time>2015-07-25T14:28:07Z</time>
      </trkpt>
      <trkpt lat="40.430933" lon="-5.461633">
        <ele>1521.0</ele>
        <time>2015-07-25T14:28:09Z</time>
      </trkpt>
      <trkpt lat="40.430900" lon="-5.461883">
        <ele>1525.0</ele>
        <time>2015-07-25T14:28:11Z</time>
      </trkpt>
      <trkpt lat="40.430950" lon="-5.462117">
        <ele>1525.0</ele>
        <time>2015-07-25T14:28:13Z</time>
      </trkpt>
      <trkpt lat="40.431067" lon="-5.462267">
        <ele>1525.0</ele>
        <time>2015-07-25T14:28:15Z</time>
      </trkpt>
      <trkpt lat="40.431200" lon="-5.462300">
        <ele>1528.0</ele>
        <time>2015-07-25T14:28:17Z</time>
      </trkpt>
      <trkpt lat="40.431250" lon="-5.462267">
        <ele>1529.0</ele>
        <time>2015-07-25T14:28:19Z</time>
      </trkpt>
      <trkpt lat="40.431267" lon="-5.462167">
        <ele>1527.0</ele>
        <time>2015-07-25T14:28:21Z</time>
      </trkpt>
      <trkpt lat="40.431217" lon="-5.462000">
        <ele>1526.0</ele>
        <time>2015-07-25T14:28:23Z</time>
      </trkpt>
      <trkpt lat="40.431083" lon="-5.461883">
        <ele>1526.0</ele>
        <time>2015-07-25T14:28:25Z</time>
      </trkpt>
      <trkpt lat="40.430883" lon="-5.461867">
        <ele>1524.0</ele>
        <time>2015-07-25T14:28:27Z</time>
      </trkpt>
      <trkpt lat="40.430667" lon="-5.461917">
        <ele>1524.0</ele>
        <time>2015-07-25T14:28:29Z</time>
      </trkpt>
      <trkpt lat="40.430483" lon="-5.462117">
        <ele>1527.0</ele>
        <time>2015-07-25T14:28:31Z</time>
      </trkpt>
      <trkpt lat="40.430433" lon="-5.462367">
        <ele>1528.0</ele>
        <time>2015-07-25T14:28:33Z</time>
      </trkpt>
      <trkpt lat="40.430450" lon="-5.462600">
        <ele>1527.0</ele>
        <time>2015-07-25T14:28:35Z</time>
      </trkpt>
      <trkpt lat="40.430533" lon="-5.462833">
        <ele>1526.0</ele>
        <time>2015-07-25T14:28:37Z</time>
      </trkpt>
      <trkpt lat="40.430633" lon="-5.463050">
        <ele>1527.0</ele>
        <time>2015-07-25T14:28:39Z</time>
      </trkpt>
      <trkpt lat="40.430700" lon="-5.463183">
        <ele>1528.0</ele>
        <time>2015-07-25T14:28:41Z</time>
      </trkpt>
      <trkpt lat="40.430783" lon="-5.463300">
        <ele>1527.0</ele>
        <time>2015-07-25T14:28:43Z</time>
      </trkpt>
      <trkpt lat="40.430867" lon="-5.463383">
        <ele>1526.0</ele>
        <time>2015-07-25T14:28:45Z</time>
      </trkpt>
      <trkpt lat="40.430967" lon="-5.463467">
        <ele>1525.0</ele>
        <time>2015-07-25T14:28:47Z</time>
      </trkpt>
      <trkpt lat="40.431050" lon="-5.463533">
        <ele>1524.0</ele>
        <time>2015-07-25T14:28:49Z</time>
      </trkpt>
      <trkpt lat="40.431150" lon="-5.463583">
        <ele>1521.0</ele>
        <time>2015-07-25T14:28:51Z</time>
      </trkpt>
      <trkpt lat="40.431283" lon="-5.463567">
        <ele>1517.0</ele>
        <time>2015-07-25T14:28:53Z</time>
      </trkpt>
      <trkpt lat="40.431350" lon="-5.463517">
        <ele>1516.0</ele>
        <time>2015-07-25T14:28:55Z</time>
      </trkpt>
      <trkpt lat="40.431383" lon="-5.463400">
        <ele>1513.0</ele>
        <time>2015-07-25T14:28:57Z</time>
      </trkpt>
      <trkpt lat="40.431367" lon="-5.463217">
        <ele>1510.0</ele>
        <time>2015-07-25T14:28:59Z</time>
      </trkpt>
      <trkpt lat="40.431267" lon="-5.463050">
        <ele>1509.0</ele>
        <time>2015-07-25T14:29:01Z</time>
      </trkpt>
      <trkpt lat="40.431133" lon="-5.463000">
        <ele>1507.0</ele>
        <time>2015-07-25T14:29:03Z</time>
      </trkpt>
      <trkpt lat="40.430933" lon="-5.462950">
        <ele>1500.0</ele>
        <time>2015-07-25T14:29:05Z</time>
      </trkpt>
      <trkpt lat="40.430650" lon="-5.463033">
        <ele>1494.0</ele>
        <time>2015-07-25T14:29:07Z</time>
      </trkpt>
      <trkpt lat="40.430400" lon="-5.463283">
        <ele>1493.0</ele>
        <time>2015-07-25T14:29:09Z</time>
      </trkpt>
      <trkpt lat="40.430283" lon="-5.463567">
        <ele>1493.0</ele>
        <time>2015-07-25T14:29:11Z</time>
      </trkpt>
      <trkpt lat="40.430233" lon="-5.463850">
        <ele>1490.0</ele>
        <time>2015-07-25T14:29:13Z</time>
      </trkpt>
      <trkpt lat="40.430233" lon="-5.464150">
        <ele>1486.0</ele>
        <time>2015-07-25T14:29:15Z</time>
      </trkpt>
      <trkpt lat="40.430317" lon="-5.464367">
        <ele>1486.0</ele>
        <time>2015-07-25T14:29:17Z</time>
      </trkpt>
      <trkpt lat="40.430383" lon="-5.464517">
        <ele>1485.0</ele>
        <time>2015-07-25T14:29:19Z</time>
      </trkpt>
      <trkpt lat="40.430450" lon="-5.464633">
        <ele>1483.0</ele>
        <time>2015-07-25T14:29:21Z</time>
      </trkpt>
      <trkpt lat="40.430550" lon="-5.464717">
        <ele>1480.0</ele>
        <time>2015-07-25T14:29:23Z</time>
      </trkpt>
      <trkpt lat="40.430650" lon="-5.464783">
        <ele>1476.0</ele>
        <time>2015-07-25T14:29:25Z</time>
      </trkpt>
      <trkpt lat="40.430767" lon="-5.464850">
        <ele>1471.0</ele>
        <time>2015-07-25T14:29:27Z</time>
      </trkpt>
      <trkpt lat="40.430883" lon="-5.464950">
        <ele>1468.0</ele>
        <time>2015-07-25T14:29:29Z</time>
      </trkpt>
      <trkpt lat="40.431000" lon="-5.465033">
        <ele>1466.0</ele>
        <time>2015-07-25T14:29:31Z</time>
      </trkpt>
      <trkpt lat="40.431117" lon="-5.465133">
        <ele>1462.0</ele>
        <time>2015-07-25T14:29:33Z</time>
      </trkpt>
      <trkpt lat="40.431217" lon="-5.465233">
        <ele>1458.0</ele>
        <time>2015-07-25T14:29:35Z</time>
      </trkpt>
      <trkpt lat="40.431333" lon="-5.465333">
        <ele>1453.0</ele>
        <time>2015-07-25T14:29:37Z</time>
      </trkpt>
      <trkpt lat="40.431433" lon="-5.465417">
        <ele>1446.0</ele>
        <time>2015-07-25T14:29:39Z</time>
      </trkpt>
      <trkpt lat="40.431550" lon="-5.465533">
        <ele>1439.0</ele>
        <time>2015-07-25T14:29:41Z</time>
      </trkpt>
      <trkpt lat="40.431650" lon="-5.465667">
        <ele>1434.0</ele>
        <time>2015-07-25T14:29:43Z</time>
      </trkpt>
      <trkpt lat="40.431767" lon="-5.465800">
        <ele>1428.0</ele>
        <time>2015-07-25T14:29:45Z</time>
      </trkpt>
      <trkpt lat="40.431867" lon="-5.465933">
        <ele>1423.0</ele>
        <time>2015-07-25T14:29:47Z</time>
      </trkpt>
      <trkpt lat="40.431950" lon="-5.466117">
        <ele>1418.0</ele>
        <time>2015-07-25T14:29:49Z</time>
      </trkpt>
      <trkpt lat="40.431983" lon="-5.466333">
        <ele>1413.0</ele>
        <time>2015-07-25T14:29:51Z</time>
      </trkpt>
      <trkpt lat="40.432050" lon="-5.466550">
        <ele>1408.0</ele>
        <time>2015-07-25T14:29:53Z</time>
      </trkpt>
      <trkpt lat="40.432083" lon="-5.466733">
        <ele>1404.0</ele>
        <time>2015-07-25T14:29:55Z</time>
      </trkpt>
      <trkpt lat="40.432133" lon="-5.466917">
        <ele>1398.0</ele>
        <time>2015-07-25T14:29:57Z</time>
      </trkpt>
      <trkpt lat="40.432200" lon="-5.467083">
        <ele>1393.0</ele>
        <time>2015-07-25T14:29:59Z</time>
      </trkpt>
      <trkpt lat="40.432233" lon="-5.467300">
        <ele>1388.0</ele>
        <time>2015-07-25T14:30:01Z</time>
      </trkpt>
      <trkpt lat="40.432283" lon="-5.467533">
        <ele>1384.0</ele>
        <time>2015-07-25T14:30:03Z</time>
      </trkpt>
      <trkpt lat="40.432300" lon="-5.467767">
        <ele>1379.0</ele>
        <time>2015-07-25T14:30:05Z</time>
      </trkpt>
      <trkpt lat="40.432317" lon="-5.468000">
        <ele>1375.0</ele>
        <time>2015-07-25T14:30:07Z</time>
      </trkpt>
      <trkpt lat="40.432350" lon="-5.468183">
        <ele>1374.0</ele>
        <time>2015-07-25T14:30:09Z</time>
      </trkpt>
      <trkpt lat="40.432417" lon="-5.468300">
        <ele>1370.0</ele>
        <time>2015-07-25T14:30:11Z</time>
      </trkpt>
      <trkpt lat="40.432500" lon="-5.468433">
        <ele>1366.0</ele>
        <time>2015-07-25T14:30:13Z</time>
      </trkpt>
      <trkpt lat="40.432617" lon="-5.468633">
        <ele>1364.0</ele>
        <time>2015-07-25T14:30:15Z</time>
      </trkpt>
      <trkpt lat="40.432700" lon="-5.468800">
        <ele>1365.0</ele>
        <time>2015-07-25T14:30:17Z</time>
      </trkpt>
      <trkpt lat="40.432817" lon="-5.468950">
        <ele>1366.0</ele>
        <time>2015-07-25T14:30:19Z</time>
      </trkpt>
      <trkpt lat="40.432950" lon="-5.469067">
        <ele>1369.0</ele>
        <time>2015-07-25T14:30:21Z</time>
      </trkpt>
      <trkpt lat="40.433067" lon="-5.469083">
        <ele>1370.0</ele>
        <time>2015-07-25T14:30:23Z</time>
      </trkpt>
      <trkpt lat="40.433183" lon="-5.468967">
        <ele>1370.0</ele>
        <time>2015-07-25T14:30:25Z</time>
      </trkpt>
      <trkpt lat="40.433233" lon="-5.468833">
        <ele>1370.0</ele>
        <time>2015-07-25T14:30:27Z</time>
      </trkpt>
      <trkpt lat="40.433233" lon="-5.468600">
        <ele>1368.0</ele>
        <time>2015-07-25T14:30:29Z</time>
      </trkpt>
      <trkpt lat="40.433133" lon="-5.468333">
        <ele>1369.0</ele>
        <time>2015-07-25T14:30:31Z</time>
      </trkpt>
      <trkpt lat="40.432967" lon="-5.468167">
        <ele>1372.0</ele>
        <time>2015-07-25T14:30:33Z</time>
      </trkpt>
      <trkpt lat="40.432767" lon="-5.468050">
        <ele>1373.0</ele>
        <time>2015-07-25T14:30:35Z</time>
      </trkpt>
      <trkpt lat="40.432567" lon="-5.467983">
        <ele>1372.0</ele>
        <time>2015-07-25T14:30:37Z</time>
      </trkpt>
      <trkpt lat="40.432383" lon="-5.468033">
        <ele>1373.0</ele>
        <time>2015-07-25T14:30:39Z</time>
      </trkpt>
      <trkpt lat="40.432250" lon="-5.468133">
        <ele>1373.0</ele>
        <time>2015-07-25T14:30:41Z</time>
      </trkpt>
      <trkpt lat="40.432100" lon="-5.468267">
        <ele>1371.0</ele>
        <time>2015-07-25T14:30:43Z</time>
      </trkpt>
      <trkpt lat="40.431967" lon="-5.468467">
        <ele>1371.0</ele>
        <time>2015-07-25T14:30:45Z</time>
      </trkpt>
      <trkpt lat="40.431917" lon="-5.468683">
        <ele>1372.0</ele>
        <time>2015-07-25T14:30:47Z</time>
      </trkpt>
      <trkpt lat="40.431917" lon="-5.468867">
        <ele>1371.0</ele>
        <time>2015-07-25T14:30:49Z</time>
      </trkpt>
      <trkpt lat="40.432000" lon="-5.469067">
        <ele>1368.0</ele>
        <time>2015-07-25T14:30:51Z</time>
      </trkpt>
      <trkpt lat="40.432117" lon="-5.469233">
        <ele>1369.0</ele>
        <time>2015-07-25T14:30:53Z</time>
      </trkpt>
      <trkpt lat="40.432183" lon="-5.469317">
        <ele>1374.0</ele>
        <time>2015-07-25T14:30:55Z</time>
      </trkpt>
      <trkpt lat="40.432250" lon="-5.469367">
        <ele>1375.0</ele>
        <time>2015-07-25T14:30:57Z</time>
      </trkpt>
      <trkpt lat="40.432350" lon="-5.469400">
        <ele>1375.0</ele>
        <time>2015-07-25T14:30:59Z</time>
      </trkpt>
      <trkpt lat="40.432417" lon="-5.469333">
        <ele>1376.0</ele>
        <time>2015-07-25T14:31:01Z</time>
      </trkpt>
      <trkpt lat="40.432483" lon="-5.469200">
        <ele>1374.0</ele>
        <time>2015-07-25T14:31:03Z</time>
      </trkpt>
      <trkpt lat="40.432500" lon="-5.469000">
        <ele>1373.0</ele>
        <time>2015-07-25T14:31:05Z</time>
      </trkpt>
      <trkpt lat="40.432467" lon="-5.468833">
        <ele>1371.0</ele>
        <time>2015-07-25T14:31:07Z</time>
      </trkpt>
      <trkpt lat="40.432350" lon="-5.468667">
        <ele>1369.0</ele>
        <time>2015-07-25T14:31:09Z</time>
      </trkpt>
      <trkpt lat="40.432200" lon="-5.468517">
        <ele>1367.0</ele>
        <time>2015-07-25T14:31:11Z</time>
      </trkpt>
      <trkpt lat="40.432017" lon="-5.468383">
        <ele>1367.0</ele>
        <time>2015-07-25T14:31:13Z</time>
      </trkpt>
      <trkpt lat="40.431800" lon="-5.468333">
        <ele>1364.0</ele>
        <time>2015-07-25T14:31:15Z</time>
      </trkpt>
      <trkpt lat="40.431567" lon="-5.468400">
        <ele>1362.0</ele>
        <time>2015-07-25T14:31:17Z</time>
      </trkpt>
      <trkpt lat="40.431383" lon="-5.468600">
        <ele>1361.0</ele>
        <time>2015-07-25T14:31:19Z</time>
      </trkpt>
      <trkpt lat="40.431333" lon="-5.468817">
        <ele>1361.0</ele>
        <time>2015-07-25T14:31:21Z</time>
      </trkpt>
      <trkpt lat="40.431367" lon="-5.468983">
        <ele>1362.0</ele>
        <time>2015-07-25T14:31:23Z</time>
      </trkpt>
      <trkpt lat="40.431417" lon="-5.469117">
        <ele>1359.0</ele>
        <time>2015-07-25T14:31:25Z</time>
      </trkpt>
      <trkpt lat="40.431517" lon="-5.469267">
        <ele>1356.0</ele>
        <time>2015-07-25T14:31:27Z</time>
      </trkpt>
      <trkpt lat="40.431600" lon="-5.469367">
        <ele>1353.0</ele>
        <time>2015-07-25T14:31:29Z</time>
      </trkpt>
      <trkpt lat="40.431683" lon="-5.469483">
        <ele>1348.0</ele>
        <time>2015-07-25T14:31:31Z</time>
      </trkpt>
      <trkpt lat="40.431783" lon="-5.469600">
        <ele>1344.0</ele>
        <time>2015-07-25T14:31:33Z</time>
      </trkpt>
      <trkpt lat="40.431900" lon="-5.469700">
        <ele>1341.0</ele>
        <time>2015-07-25T14:31:35Z</time>
      </trkpt>
      <trkpt lat="40.431967" lon="-5.469850">
        <ele>1336.0</ele>
        <time>2015-07-25T14:31:37Z</time>
      </trkpt>
      <trkpt lat="40.432033" lon="-5.470050">
        <ele>1332.0</ele>
        <time>2015-07-25T14:31:39Z</time>
      </trkpt>
      <trkpt lat="40.432100" lon="-5.470233">
        <ele>1329.0</ele>
        <time>2015-07-25T14:31:41Z</time>
      </trkpt>
      <trkpt lat="40.432167" lon="-5.470400">
        <ele>1326.0</ele>
        <time>2015-07-25T14:31:43Z</time>
      </trkpt>
      <trkpt lat="40.432233" lon="-5.470583">
        <ele>1324.0</ele>
        <time>2015-07-25T14:31:45Z</time>
      </trkpt>
      <trkpt lat="40.432333" lon="-5.470683">
        <ele>1324.0</ele>
        <time>2015-07-25T14:31:47Z</time>
      </trkpt>
      <trkpt lat="40.432433" lon="-5.470750">
        <ele>1323.0</ele>
        <time>2015-07-25T14:31:49Z</time>
      </trkpt>
      <trkpt lat="40.432550" lon="-5.470783">
        <ele>1321.0</ele>
        <time>2015-07-25T14:31:51Z</time>
      </trkpt>
      <trkpt lat="40.432650" lon="-5.470733">
        <ele>1317.0</ele>
        <time>2015-07-25T14:31:53Z</time>
      </trkpt>
      <trkpt lat="40.432750" lon="-5.470683">
        <ele>1313.0</ele>
        <time>2015-07-25T14:31:55Z</time>
      </trkpt>
      <trkpt lat="40.432850" lon="-5.470617">
        <ele>1306.0</ele>
        <time>2015-07-25T14:31:57Z</time>
      </trkpt>
      <trkpt lat="40.432967" lon="-5.470567">
        <ele>1301.0</ele>
        <time>2015-07-25T14:31:59Z</time>
      </trkpt>
      <trkpt lat="40.433067" lon="-5.470617">
        <ele>1297.0</ele>
        <time>2015-07-25T14:32:01Z</time>
      </trkpt>
      <trkpt lat="40.433150" lon="-5.470750">
        <ele>1293.0</ele>
        <time>2015-07-25T14:32:03Z</time>
      </trkpt>
      <trkpt lat="40.433200" lon="-5.470917">
        <ele>1290.0</ele>
        <time>2015-07-25T14:32:05Z</time>
      </trkpt>
      <trkpt lat="40.433233" lon="-5.471100">
        <ele>1286.0</ele>
        <time>2015-07-25T14:32:07Z</time>
      </trkpt>
      <trkpt lat="40.433250" lon="-5.471300">
        <ele>1281.0</ele>
        <time>2015-07-25T14:32:09Z</time>
      </trkpt>
      <trkpt lat="40.433250" lon="-5.471550">
        <ele>1275.0</ele>
        <time>2015-07-25T14:32:11Z</time>
      </trkpt>
      <trkpt lat="40.433200" lon="-5.471800">
        <ele>1269.0</ele>
        <time>2015-07-25T14:32:13Z</time>
      </trkpt>
      <trkpt lat="40.433200" lon="-5.472067">
        <ele>1265.0</ele>
        <time>2015-07-25T14:32:15Z</time>
      </trkpt>
      <trkpt lat="40.433183" lon="-5.472300">
        <ele>1259.0</ele>
        <time>2015-07-25T14:32:17Z</time>
      </trkpt>
      <trkpt lat="40.433150" lon="-5.472533">
        <ele>1254.0</ele>
        <time>2015-07-25T14:32:19Z</time>
      </trkpt>
      <trkpt lat="40.433150" lon="-5.472733">
        <ele>1248.0</ele>
        <time>2015-07-25T14:32:21Z</time>
      </trkpt>
      <trkpt lat="40.433167" lon="-5.472950">
        <ele>1243.0</ele>
        <time>2015-07-25T14:32:23Z</time>
      </trkpt>
      <trkpt lat="40.433200" lon="-5.473167">
        <ele>1238.0</ele>
        <time>2015-07-25T14:32:25Z</time>
      </trkpt>
      <trkpt lat="40.433217" lon="-5.473417">
        <ele>1235.0</ele>
        <time>2015-07-25T14:32:27Z</time>
      </trkpt>
      <trkpt lat="40.433283" lon="-5.473600">
        <ele>1233.0</ele>
        <time>2015-07-25T14:32:29Z</time>
      </trkpt>
      <trkpt lat="40.433300" lon="-5.473800">
        <ele>1230.0</ele>
        <time>2015-07-25T14:32:31Z</time>
      </trkpt>
      <trkpt lat="40.433317" lon="-5.474017">
        <ele>1226.0</ele>
        <time>2015-07-25T14:32:33Z</time>
      </trkpt>
      <trkpt lat="40.433317" lon="-5.474250">
        <ele>1223.0</ele>
        <time>2015-07-25T14:32:35Z</time>
      </trkpt>
      <trkpt lat="40.433333" lon="-5.474483">
        <ele>1221.0</ele>
        <time>2015-07-25T14:32:37Z</time>
      </trkpt>
      <trkpt lat="40.433333" lon="-5.474717">
        <ele>1220.0</ele>
        <time>2015-07-25T14:32:39Z</time>
      </trkpt>
      <trkpt lat="40.433350" lon="-5.474933">
        <ele>1218.0</ele>
        <time>2015-07-25T14:32:41Z</time>
      </trkpt>
      <trkpt lat="40.433383" lon="-5.475133">
        <ele>1215.0</ele>
        <time>2015-07-25T14:32:43Z</time>
      </trkpt>
      <trkpt lat="40.433433" lon="-5.475333">
        <ele>1211.0</ele>
        <time>2015-07-25T14:32:45Z</time>
      </trkpt>
      <trkpt lat="40.433500" lon="-5.475567">
        <ele>1207.0</ele>
        <time>2015-07-25T14:32:47Z</time>
      </trkpt>
      <trkpt lat="40.433567" lon="-5.475783">
        <ele>1206.0</ele>
        <time>2015-07-25T14:32:49Z</time>
      </trkpt>
      <trkpt lat="40.433583" lon="-5.476000">
        <ele>1206.0</ele>
        <time>2015-07-25T14:32:51Z</time>
      </trkpt>
      <trkpt lat="40.433567" lon="-5.476233">
        <ele>1204.0</ele>
        <time>2015-07-25T14:32:53Z</time>
      </trkpt>
      <trkpt lat="40.433517" lon="-5.476483">
        <ele>1202.0</ele>
        <time>2015-07-25T14:32:55Z</time>
      </trkpt>
      <trkpt lat="40.433533" lon="-5.476700">
        <ele>1201.0</ele>
        <time>2015-07-25T14:32:57Z</time>
      </trkpt>
      <trkpt lat="40.433567" lon="-5.476867">
        <ele>1199.0</ele>
        <time>2015-07-25T14:32:59Z</time>
      </trkpt>
      <trkpt lat="40.433633" lon="-5.477000">
        <ele>1196.0</ele>
        <time>2015-07-25T14:33:01Z</time>
      </trkpt>
      <trkpt lat="40.433717" lon="-5.477133">
        <ele>1192.0</ele>
        <time>2015-07-25T14:33:03Z</time>
      </trkpt>
      <trkpt lat="40.433800" lon="-5.477250">
        <ele>1189.0</ele>
        <time>2015-07-25T14:33:05Z</time>
      </trkpt>
      <trkpt lat="40.433883" lon="-5.477367">
        <ele>1187.0</ele>
        <time>2015-07-25T14:33:07Z</time>
      </trkpt>
      <trkpt lat="40.433967" lon="-5.477450">
        <ele>1182.0</ele>
        <time>2015-07-25T14:33:09Z</time>
      </trkpt>
      <trkpt lat="40.434067" lon="-5.477517">
        <ele>1179.0</ele>
        <time>2015-07-25T14:33:11Z</time>
      </trkpt>
      <trkpt lat="40.434167" lon="-5.477600">
        <ele>1177.0</ele>
        <time>2015-07-25T14:33:13Z</time>
      </trkpt>
      <trkpt lat="40.434250" lon="-5.477700">
        <ele>1175.0</ele>
        <time>2015-07-25T14:33:15Z</time>
      </trkpt>
      <trkpt lat="40.434300" lon="-5.477850">
        <ele>1174.0</ele>
        <time>2015-07-25T14:33:17Z</time>
      </trkpt>
      <trkpt lat="40.434333" lon="-5.478067">
        <ele>1171.0</ele>
        <time>2015-07-25T14:33:19Z</time>
      </trkpt>
      <trkpt lat="40.434383" lon="-5.478267">
        <ele>1170.0</ele>
        <time>2015-07-25T14:33:21Z</time>
      </trkpt>
      <trkpt lat="40.434433" lon="-5.478400">
        <ele>1169.0</ele>
        <time>2015-07-25T14:33:23Z</time>
      </trkpt>
      <trkpt lat="40.434517" lon="-5.478500">
        <ele>1166.0</ele>
        <time>2015-07-25T14:33:25Z</time>
      </trkpt>
      <trkpt lat="40.434617" lon="-5.478600">
        <ele>1164.0</ele>
        <time>2015-07-25T14:33:27Z</time>
      </trkpt>
      <trkpt lat="40.434683" lon="-5.478717">
        <ele>1161.0</ele>
        <time>2015-07-25T14:33:29Z</time>
      </trkpt>
      <trkpt lat="40.434767" lon="-5.478817">
        <ele>1158.0</ele>
        <time>2015-07-25T14:33:31Z</time>
      </trkpt>
      <trkpt lat="40.434867" lon="-5.478833">
        <ele>1154.0</ele>
        <time>2015-07-25T14:33:33Z</time>
      </trkpt>
      <trkpt lat="40.434950" lon="-5.478733">
        <ele>1148.0</ele>
        <time>2015-07-25T14:33:35Z</time>
      </trkpt>
      <trkpt lat="40.434983" lon="-5.478550">
        <ele>1143.0</ele>
        <time>2015-07-25T14:33:37Z</time>
      </trkpt>
      <trkpt lat="40.434967" lon="-5.478350">
        <ele>1140.0</ele>
        <time>2015-07-25T14:33:39Z</time>
      </trkpt>
      <trkpt lat="40.434917" lon="-5.478150">
        <ele>1138.0</ele>
        <time>2015-07-25T14:33:41Z</time>
      </trkpt>
      <trkpt lat="40.434817" lon="-5.477967">
        <ele>1134.0</ele>
        <time>2015-07-25T14:33:43Z</time>
      </trkpt>
      <trkpt lat="40.434650" lon="-5.477783">
        <ele>1131.0</ele>
        <time>2015-07-25T14:33:45Z</time>
      </trkpt>
      <trkpt lat="40.434467" lon="-5.477700">
        <ele>1133.0</ele>
        <time>2015-07-25T14:33:47Z</time>
      </trkpt>
      <trkpt lat="40.434267" lon="-5.477700">
        <ele>1131.0</ele>
        <time>2015-07-25T14:33:49Z</time>
      </trkpt>
      <trkpt lat="40.434050" lon="-5.477767">
        <ele>1126.0</ele>
        <time>2015-07-25T14:33:51Z</time>
      </trkpt>
      <trkpt lat="40.433817" lon="-5.477917">
        <ele>1121.0</ele>
        <time>2015-07-25T14:33:53Z</time>
      </trkpt>
      <trkpt lat="40.433617" lon="-5.478100">
        <ele>1119.0</ele>
        <time>2015-07-25T14:33:55Z</time>
      </trkpt>
      <trkpt lat="40.433450" lon="-5.478283">
        <ele>1116.0</ele>
        <time>2015-07-25T14:33:57Z</time>
      </trkpt>
      <trkpt lat="40.433367" lon="-5.478517">
        <ele>1110.0</ele>
        <time>2015-07-25T14:33:59Z</time>
      </trkpt>
      <trkpt lat="40.433400" lon="-5.478750">
        <ele>1106.0</ele>
        <time>2015-07-25T14:34:01Z</time>
      </trkpt>
      <trkpt lat="40.433500" lon="-5.478883">
        <ele>1105.0</ele>
        <time>2015-07-25T14:34:03Z</time>
      </trkpt>
      <trkpt lat="40.433617" lon="-5.478900">
        <ele>1104.0</ele>
        <time>2015-07-25T14:34:05Z</time>
      </trkpt>
      <trkpt lat="40.433683" lon="-5.478800">
        <ele>1101.0</ele>
        <time>2015-07-25T14:34:07Z</time>
      </trkpt>
      <trkpt lat="40.433733" lon="-5.478600">
        <ele>1097.0</ele>
        <time>2015-07-25T14:34:09Z</time>
      </trkpt>
      <trkpt lat="40.433767" lon="-5.478417">
        <ele>1096.0</ele>
        <time>2015-07-25T14:34:11Z</time>
      </trkpt>
      <trkpt lat="40.433867" lon="-5.478350">
        <ele>1092.0</ele>
        <time>2015-07-25T14:34:13Z</time>
      </trkpt>
      <trkpt lat="40.433983" lon="-5.478450">
        <ele>1088.0</ele>
        <time>2015-07-25T14:34:15Z</time>
      </trkpt>
      <trkpt lat="40.434083" lon="-5.478600">
        <ele>1087.0</ele>
        <time>2015-07-25T14:34:17Z</time>
      </trkpt>
      <trkpt lat="40.434167" lon="-5.478717">
        <ele>1085.0</ele>
        <time>2015-07-25T14:34:19Z</time>
      </trkpt>
      <trkpt lat="40.434283" lon="-5.478817">
        <ele>1081.0</ele>
        <time>2015-07-25T14:34:21Z</time>
      </trkpt>
      <trkpt lat="40.434400" lon="-5.478900">
        <ele>1081.0</ele>
        <time>2015-07-25T14:34:23Z</time>
      </trkpt>
      <trkpt lat="40.434483" lon="-5.479033">
        <ele>1079.0</ele>
        <time>2015-07-25T14:34:25Z</time>
      </trkpt>
      <trkpt lat="40.434583" lon="-5.479217">
        <ele>1076.0</ele>
        <time>2015-07-25T14:34:27Z</time>
      </trkpt>
      <trkpt lat="40.434700" lon="-5.479317">
        <ele>1074.0</ele>
        <time>2015-07-25T14:34:29Z</time>
      </trkpt>
      <trkpt lat="40.434800" lon="-5.479267">
        <ele>1070.0</ele>
        <time>2015-07-25T14:34:31Z</time>
      </trkpt>
      <trkpt lat="40.434833" lon="-5.479050">
        <ele>1066.0</ele>
        <time>2015-07-25T14:34:33Z</time>
      </trkpt>
      <trkpt lat="40.434767" lon="-5.478850">
        <ele>1070.0</ele>
        <time>2015-07-25T14:34:35Z</time>
      </trkpt>
      <trkpt lat="40.434700" lon="-5.478717">
        <ele>1071.0</ele>
        <time>2015-07-25T14:34:37Z</time>
      </trkpt>
      <trkpt lat="40.434583" lon="-5.478567">
        <ele>1067.0</ele>
        <time>2015-07-25T14:34:39Z</time>
      </trkpt>
      <trkpt lat="40.434533" lon="-5.478350">
        <ele>1065.0</ele>
        <time>2015-07-25T14:34:41Z</time>
      </trkpt>
      <trkpt lat="40.434667" lon="-5.478217">
        <ele>1062.0</ele>
        <time>2015-07-25T14:34:43Z</time>
      </trkpt>
      <trkpt lat="40.434800" lon="-5.478283">
        <ele>1063.0</ele>
        <time>2015-07-25T14:34:45Z</time>
      </trkpt>
      <trkpt lat="40.434867" lon="-5.478500">
        <ele>1064.0</ele>
        <time>2015-07-25T14:34:47Z</time>
      </trkpt>
      <trkpt lat="40.434850" lon="-5.478717">
        <ele>1064.0</ele>
        <time>2015-07-25T14:34:49Z</time>
      </trkpt>
      <trkpt lat="40.434883" lon="-5.478900">
        <ele>1063.0</ele>
        <time>2015-07-25T14:34:51Z</time>
      </trkpt>
      <trkpt lat="40.435017" lon="-5.479017">
        <ele>1061.0</ele>
        <time>2015-07-25T14:34:53Z</time>
      </trkpt>
      <trkpt lat="40.435167" lon="-5.478967">
        <ele>1060.0</ele>
        <time>2015-07-25T14:34:55Z</time>
      </trkpt>
      <trkpt lat="40.435233" lon="-5.478783">
        <ele>1061.0</ele>
        <time>2015-07-25T14:34:57Z</time>
      </trkpt>
      <trkpt lat="40.435183" lon="-5.478600">
        <ele>1064.0</ele>
        <time>2015-07-25T14:34:59Z</time>
      </trkpt>
      <trkpt lat="40.435067" lon="-5.478467">
        <ele>1063.0</ele>
        <time>2015-07-25T14:35:01Z</time>
      </trkpt>
      <trkpt lat="40.434883" lon="-5.478350">
        <ele>1059.0</ele>
        <time>2015-07-25T14:35:03Z</time>
      </trkpt>
      <trkpt lat="40.434633" lon="-5.478417">
        <ele>1056.0</ele>
        <time>2015-07-25T14:35:05Z</time>
      </trkpt>
      <trkpt lat="40.434483" lon="-5.478650">
        <ele>1057.0</ele>
        <time>2015-07-25T14:35:07Z</time>
      </trkpt>
      <trkpt lat="40.434500" lon="-5.478867">
        <ele>1056.0</ele>
        <time>2015-07-25T14:35:09Z</time>
      </trkpt>
      <trkpt lat="40.434583" lon="-5.479067">
        <ele>1054.0</ele>
        <time>2015-07-25T14:35:11Z</time>
      </trkpt>
      <trkpt lat="40.434733" lon="-5.479117">
        <ele>1053.0</ele>
        <time>2015-07-25T14:35:13Z</time>
      </trkpt>
      <trkpt lat="40.434833" lon="-5.478950">
        <ele>1053.0</ele>
        <time>2015-07-25T14:35:15Z</time>
      </trkpt>
      <trkpt lat="40.434817" lon="-5.478733">
        <ele>1053.0</ele>
        <time>2015-07-25T14:35:17Z</time>
      </trkpt>
      <trkpt lat="40.434800" lon="-5.478583">
        <ele>1054.0</ele>
        <time>2015-07-25T14:35:19Z</time>
      </trkpt>
      <trkpt lat="40.434800" lon="-5.478467">
        <ele>1051.0</ele>
        <time>2015-07-25T14:35:21Z</time>
      </trkpt>
      <trkpt lat="40.434883" lon="-5.478350">
        <ele>1047.0</ele>
        <time>2015-07-25T14:35:23Z</time>
      </trkpt>
      <trkpt lat="40.435017" lon="-5.478400">
        <ele>1046.0</ele>
        <time>2015-07-25T14:35:25Z</time>
      </trkpt>
      <trkpt lat="40.435067" lon="-5.478617">
        <ele>1044.0</ele>
        <time>2015-07-25T14:35:27Z</time>
      </trkpt>
      <trkpt lat="40.435117" lon="-5.478817">
        <ele>1044.0</ele>
        <time>2015-07-25T14:35:29Z</time>
      </trkpt>
      <trkpt lat="40.435233" lon="-5.478850">
        <ele>1041.0</ele>
        <time>2015-07-25T14:35:31Z</time>
      </trkpt>
      <trkpt lat="40.435333" lon="-5.478650">
        <ele>1037.0</ele>
        <time>2015-07-25T14:35:33Z</time>
      </trkpt>
      <trkpt lat="40.435333" lon="-5.478450">
        <ele>1043.0</ele>
        <time>2015-07-25T14:35:35Z</time>
      </trkpt>
      <trkpt lat="40.435400" lon="-5.478400">
        <ele>1043.0</ele>
        <time>2015-07-25T14:35:37Z</time>
      </trkpt>
      <trkpt lat="40.435517" lon="-5.478450">
        <ele>1039.0</ele>
        <time>2015-07-25T14:35:39Z</time>
      </trkpt>
      <trkpt lat="40.435600" lon="-5.478617">
        <ele>1035.0</ele>
        <time>2015-07-25T14:35:41Z</time>
      </trkpt>
      <trkpt lat="40.435717" lon="-5.478717">
        <ele>1033.0</ele>
        <time>2015-07-25T14:35:43Z</time>
      </trkpt>
      <trkpt lat="40.435800" lon="-5.478533">
        <ele>1027.0</ele>
        <time>2015-07-25T14:35:45Z</time>
      </trkpt>
      <trkpt lat="40.435783" lon="-5.478300">
        <ele>1030.0</ele>
        <time>2015-07-25T14:35:47Z</time>
      </trkpt>
      <trkpt lat="40.435850" lon="-5.478217">
        <ele>1029.0</ele>
        <time>2015-07-25T14:35:49Z</time>
      </trkpt>
      <trkpt lat="40.435967" lon="-5.478200">
        <ele>1027.0</ele>
        <time>2015-07-25T14:35:51Z</time>
      </trkpt>
      <trkpt lat="40.436067" lon="-5.478217">
        <ele>1026.0</ele>
        <time>2015-07-25T14:35:53Z</time>
      </trkpt>
      <trkpt lat="40.436150" lon="-5.478283">
        <ele>1023.0</ele>
        <time>2015-07-25T14:35:55Z</time>
      </trkpt>
      <trkpt lat="40.436233" lon="-5.478267">
        <ele>1021.0</ele>
        <time>2015-07-25T14:35:57Z</time>
      </trkpt>
      <trkpt lat="40.436317" lon="-5.478217">
        <ele>1019.0</ele>
        <time>2015-07-25T14:35:59Z</time>
      </trkpt>
      <trkpt lat="40.436417" lon="-5.478200">
        <ele>1016.0</ele>
        <time>2015-07-25T14:36:01Z</time>
      </trkpt>
      <trkpt lat="40.436500" lon="-5.478183">
        <ele>1014.0</ele>
        <time>2015-07-25T14:36:03Z</time>
      </trkpt>
      <trkpt lat="40.436550" lon="-5.478150">
        <ele>1013.0</ele>
        <time>2015-07-25T14:36:05Z</time>
      </trkpt>
      <trkpt lat="40.436550" lon="-5.478150">
        <ele>1013.0</ele>
        <time>2015-07-25T14:36:07Z</time>
      </trkpt>
      <trkpt lat="40.436550" lon="-5.478150">
        <ele>1013.0</ele>
        <time>2015-07-25T14:36:09Z</time>
      </trkpt>
      <trkpt lat="40.436550" lon="-5.478150">
        <ele>1013.0</ele>
        <time>2015-07-25T14:36:11Z</time>
      </trkpt>
      <trkpt lat="40.436533" lon="-5.478150">
        <ele>1013.0</ele>
        <time>2015-07-25T14:36:13Z</time>
      </trkpt>
      <trkpt lat="40.436533" lon="-5.478150">
        <ele>1013.0</ele>
        <time>2015-07-25T14:36:15Z</time>
      </trkpt>
      <trkpt lat="40.436533" lon="-5.478150">
        <ele>1013.0</ele>
        <time>2015-07-25T14:36:17Z</time>
      </trkpt>
      <trkpt lat="40.436533" lon="-5.478150">
        <ele>1012.0</ele>
        <time>2015-07-25T14:36:19Z</time>
      </trkpt>
      <trkpt lat="40.436533" lon="-5.478167">
        <ele>1012.0</ele>
        <time>2015-07-25T14:36:21Z</time>
      </trkpt>
    </trkseg>
  </trk>
</gpx>
